<?xml version="1.0" encoding="UTF-8" standalone="no" ?>
<gpx xmlns="http://www.topografix.com/GPX/1/1" xmlns:xsi="http://www.w3.org/2001/XMLSchema-instance" xsi:schemaLocation="http://www.topografix.com/GPX/1/1 http://www.topografix.com/GPX/1/1/gpx.xsd" version="1.1" creator="VisuGPX - https://www.visugpx.com">
  <metadata>
    <name>Pornichet 15/03/2020</name>
    <desc><![CDATA[Sortie VTT du dimanche 15 mars 2020
]]></desc>
  </metadata>
  <trk>
    <name><![CDATA[Pornichet Cyclisme]]></name>
    <trkseg>
      <trkpt lat="47.26407" lon="-2.31581">
        <ele>9.7</ele>
        <time>2020-03-15T07:55:22.000Z</time>
      </trkpt>
      <trkpt lat="47.26406" lon="-2.31597">
        <ele>9.6</ele>
        <time>2020-03-15T07:55:26.000Z</time>
      </trkpt>
      <trkpt lat="47.26406" lon="-2.31603">
        <ele>0.20000000298023</ele>
        <time>2020-03-15T07:55:27.000Z</time>
      </trkpt>
      <trkpt lat="47.26406" lon="-2.31634">
        <ele>0.20000000298023</ele>
        <time>2020-03-15T07:55:33.000Z</time>
      </trkpt>
      <trkpt lat="47.26406" lon="-2.3166">
        <ele>0.20000000298023</ele>
        <time>2020-03-15T07:55:38.000Z</time>
      </trkpt>
      <trkpt lat="47.26396" lon="-2.31666">
        <ele>0.20000000298023</ele>
        <time>2020-03-15T07:55:41.000Z</time>
      </trkpt>
      <trkpt lat="47.26383" lon="-2.31674">
        <ele>0.20000000298023</ele>
        <time>2020-03-15T07:55:44.000Z</time>
      </trkpt>
      <trkpt lat="47.26374" lon="-2.31679">
        <ele>0.20000000298023</ele>
        <time>2020-03-15T07:55:46.000Z</time>
      </trkpt>
      <trkpt lat="47.26369" lon="-2.31682">
        <ele>0.20000000298023</ele>
        <time>2020-03-15T07:55:47.000Z</time>
      </trkpt>
      <trkpt lat="47.26335" lon="-2.31701">
        <ele>0.20000000298023</ele>
        <time>2020-03-15T07:55:54.000Z</time>
      </trkpt>
      <trkpt lat="47.2633" lon="-2.31703">
        <ele>0.20000000298023</ele>
        <time>2020-03-15T07:55:55.000Z</time>
      </trkpt>
      <trkpt lat="47.26325" lon="-2.31706">
        <ele>-0.20000000298023</ele>
        <time>2020-03-15T07:55:56.000Z</time>
      </trkpt>
      <trkpt lat="47.2632" lon="-2.31709">
        <ele>-0.60000002384186</ele>
        <time>2020-03-15T07:55:57.000Z</time>
      </trkpt>
      <trkpt lat="47.26314" lon="-2.31711">
        <ele>-1</ele>
        <time>2020-03-15T07:55:58.000Z</time>
      </trkpt>
      <trkpt lat="47.26309" lon="-2.31713">
        <ele>-1.6000000238419</ele>
        <time>2020-03-15T07:55:59.000Z</time>
      </trkpt>
      <trkpt lat="47.26305" lon="-2.31715">
        <ele>-2</ele>
        <time>2020-03-15T07:56:00.000Z</time>
      </trkpt>
      <trkpt lat="47.26302" lon="-2.31717">
        <ele>-2</ele>
        <time>2020-03-15T07:56:01.000Z</time>
      </trkpt>
      <trkpt lat="47.26299" lon="-2.31725">
        <ele>-2.4000000953674</ele>
        <time>2020-03-15T07:56:03.000Z</time>
      </trkpt>
      <trkpt lat="47.26299" lon="-2.3173">
        <ele>-2.7999999523163</ele>
        <time>2020-03-15T07:56:04.000Z</time>
      </trkpt>
      <trkpt lat="47.263" lon="-2.31736">
        <ele>-3.2000000476837</ele>
        <time>2020-03-15T07:56:05.000Z</time>
      </trkpt>
      <trkpt lat="47.26301" lon="-2.31742">
        <ele>-3.5999999046326</ele>
        <time>2020-03-15T07:56:06.000Z</time>
      </trkpt>
      <trkpt lat="47.26302" lon="-2.31749">
        <ele>-4</ele>
        <time>2020-03-15T07:56:07.000Z</time>
      </trkpt>
      <trkpt lat="47.26304" lon="-2.31762">
        <ele>-4</ele>
        <time>2020-03-15T07:56:09.000Z</time>
      </trkpt>
      <trkpt lat="47.26304" lon="-2.31774">
        <ele>-4</ele>
        <time>2020-03-15T07:56:11.000Z</time>
      </trkpt>
      <trkpt lat="47.26304" lon="-2.31791">
        <ele>-4</ele>
        <time>2020-03-15T07:56:14.000Z</time>
      </trkpt>
      <trkpt lat="47.26301" lon="-2.31837">
        <ele>-4</ele>
        <time>2020-03-15T07:56:21.000Z</time>
      </trkpt>
      <trkpt lat="47.263" lon="-2.3185">
        <ele>-4</ele>
        <time>2020-03-15T07:56:23.000Z</time>
      </trkpt>
      <trkpt lat="47.26298" lon="-2.31864">
        <ele>-4</ele>
        <time>2020-03-15T07:56:26.000Z</time>
      </trkpt>
      <trkpt lat="47.26295" lon="-2.31881">
        <ele>-4</ele>
        <time>2020-03-15T07:56:31.000Z</time>
      </trkpt>
      <trkpt lat="47.26287" lon="-2.3189">
        <ele>-4</ele>
        <time>2020-03-15T07:56:35.000Z</time>
      </trkpt>
      <trkpt lat="47.26274" lon="-2.31907">
        <ele>-4</ele>
        <time>2020-03-15T07:56:40.000Z</time>
      </trkpt>
      <trkpt lat="47.2626" lon="-2.31932">
        <ele>-4</ele>
        <time>2020-03-15T07:56:46.000Z</time>
      </trkpt>
      <trkpt lat="47.26254" lon="-2.31945">
        <ele>-4</ele>
        <time>2020-03-15T07:56:50.000Z</time>
      </trkpt>
      <trkpt lat="47.26245" lon="-2.31963">
        <ele>-4</ele>
        <time>2020-03-15T07:56:55.000Z</time>
      </trkpt>
      <trkpt lat="47.26243" lon="-2.31964">
        <ele>-4</ele>
        <time>2020-03-15T07:56:56.000Z</time>
      </trkpt>
      <trkpt lat="47.26236" lon="-2.31966">
        <ele>-4</ele>
        <time>2020-03-15T07:56:59.000Z</time>
      </trkpt>
      <trkpt lat="47.26235" lon="-2.31967">
        <ele>-4</ele>
        <time>2020-03-15T07:57:00.000Z</time>
      </trkpt>
      <trkpt lat="47.26231" lon="-2.31972">
        <ele>-4</ele>
        <time>2020-03-15T07:57:03.000Z</time>
      </trkpt>
      <trkpt lat="47.26224" lon="-2.31981">
        <ele>-4</ele>
        <time>2020-03-15T07:57:07.000Z</time>
      </trkpt>
      <trkpt lat="47.26222" lon="-2.31983">
        <ele>-4</ele>
        <time>2020-03-15T07:57:08.000Z</time>
      </trkpt>
      <trkpt lat="47.26211" lon="-2.31993">
        <ele>-4</ele>
        <time>2020-03-15T07:57:13.000Z</time>
      </trkpt>
      <trkpt lat="47.2621" lon="-2.31998">
        <ele>-4.4000000953674</ele>
        <time>2020-03-15T07:57:15.000Z</time>
      </trkpt>
      <trkpt lat="47.26209" lon="-2.32002">
        <ele>-4.8000001907349</ele>
        <time>2020-03-15T07:57:16.000Z</time>
      </trkpt>
      <trkpt lat="47.26207" lon="-2.32006">
        <ele>-5.1999998092651</ele>
        <time>2020-03-15T07:57:17.000Z</time>
      </trkpt>
      <trkpt lat="47.26206" lon="-2.32009">
        <ele>-6</ele>
        <time>2020-03-15T07:57:18.000Z</time>
      </trkpt>
      <trkpt lat="47.26205" lon="-2.3201">
        <ele>-6</ele>
        <time>2020-03-15T07:57:19.000Z</time>
      </trkpt>
      <trkpt lat="47.26202" lon="-2.32011">
        <ele>-6</ele>
        <time>2020-03-15T07:57:21.000Z</time>
      </trkpt>
      <trkpt lat="47.26187" lon="-2.32015">
        <ele>-6</ele>
        <time>2020-03-15T07:57:26.000Z</time>
      </trkpt>
      <trkpt lat="47.2617" lon="-2.32024">
        <ele>-6</ele>
        <time>2020-03-15T07:57:30.000Z</time>
      </trkpt>
      <trkpt lat="47.26163" lon="-2.32035">
        <ele>-6</ele>
        <time>2020-03-15T07:57:32.000Z</time>
      </trkpt>
      <trkpt lat="47.26159" lon="-2.32047">
        <ele>-6</ele>
        <time>2020-03-15T07:57:34.000Z</time>
      </trkpt>
      <trkpt lat="47.26151" lon="-2.32071">
        <ele>-6</ele>
        <time>2020-03-15T07:57:38.000Z</time>
      </trkpt>
      <trkpt lat="47.26139" lon="-2.32109">
        <ele>-6</ele>
        <time>2020-03-15T07:57:44.000Z</time>
      </trkpt>
      <trkpt lat="47.26123" lon="-2.32152">
        <ele>-6</ele>
        <time>2020-03-15T07:57:51.000Z</time>
      </trkpt>
      <trkpt lat="47.26108" lon="-2.32189">
        <ele>-6</ele>
        <time>2020-03-15T07:57:57.000Z</time>
      </trkpt>
      <trkpt lat="47.26088" lon="-2.32221">
        <ele>-6</ele>
        <time>2020-03-15T07:58:03.000Z</time>
      </trkpt>
      <trkpt lat="47.26063" lon="-2.32254">
        <ele>-6</ele>
        <time>2020-03-15T07:58:10.000Z</time>
      </trkpt>
      <trkpt lat="47.26035" lon="-2.32286">
        <ele>-6</ele>
        <time>2020-03-15T07:58:17.000Z</time>
      </trkpt>
      <trkpt lat="47.26012" lon="-2.32315">
        <ele>-5.5999999046326</ele>
        <time>2020-03-15T07:58:23.000Z</time>
      </trkpt>
      <trkpt lat="47.26009" lon="-2.3232">
        <ele>-5.1999998092651</ele>
        <time>2020-03-15T07:58:24.000Z</time>
      </trkpt>
      <trkpt lat="47.26005" lon="-2.32325">
        <ele>-4.8000001907349</ele>
        <time>2020-03-15T07:58:25.000Z</time>
      </trkpt>
      <trkpt lat="47.26001" lon="-2.3233">
        <ele>-4.4000000953674</ele>
        <time>2020-03-15T07:58:26.000Z</time>
      </trkpt>
      <trkpt lat="47.25998" lon="-2.32334">
        <ele>-4</ele>
        <time>2020-03-15T07:58:27.000Z</time>
      </trkpt>
      <trkpt lat="47.25982" lon="-2.32353">
        <ele>-4</ele>
        <time>2020-03-15T07:58:31.000Z</time>
      </trkpt>
      <trkpt lat="47.25948" lon="-2.32396">
        <ele>-4</ele>
        <time>2020-03-15T07:58:40.000Z</time>
      </trkpt>
      <trkpt lat="47.25919" lon="-2.32432">
        <ele>-4</ele>
        <time>2020-03-15T07:58:48.000Z</time>
      </trkpt>
      <trkpt lat="47.25912" lon="-2.32441">
        <ele>-4</ele>
        <time>2020-03-15T07:58:50.000Z</time>
      </trkpt>
      <trkpt lat="47.25904" lon="-2.32456">
        <ele>-4</ele>
        <time>2020-03-15T07:58:53.000Z</time>
      </trkpt>
      <trkpt lat="47.259" lon="-2.3246">
        <ele>-4</ele>
        <time>2020-03-15T07:58:54.000Z</time>
      </trkpt>
      <trkpt lat="47.25885" lon="-2.32471">
        <ele>-4</ele>
        <time>2020-03-15T07:58:58.000Z</time>
      </trkpt>
      <trkpt lat="47.2588" lon="-2.32473">
        <ele>-4</ele>
        <time>2020-03-15T07:58:59.000Z</time>
      </trkpt>
      <trkpt lat="47.25858" lon="-2.32475">
        <ele>-4</ele>
        <time>2020-03-15T07:59:04.000Z</time>
      </trkpt>
      <trkpt lat="47.25849" lon="-2.32474">
        <ele>-4</ele>
        <time>2020-03-15T07:59:06.000Z</time>
      </trkpt>
      <trkpt lat="47.2583" lon="-2.32468">
        <ele>-4</ele>
        <time>2020-03-15T07:59:10.000Z</time>
      </trkpt>
      <trkpt lat="47.258" lon="-2.32455">
        <ele>-4</ele>
        <time>2020-03-15T07:59:17.000Z</time>
      </trkpt>
      <trkpt lat="47.25778" lon="-2.32451">
        <ele>-4</ele>
        <time>2020-03-15T07:59:23.000Z</time>
      </trkpt>
      <trkpt lat="47.25768" lon="-2.3243">
        <ele>-4</ele>
        <time>2020-03-15T07:59:27.000Z</time>
      </trkpt>
      <trkpt lat="47.25754" lon="-2.32423">
        <ele>-4</ele>
        <time>2020-03-15T07:59:30.000Z</time>
      </trkpt>
      <trkpt lat="47.25745" lon="-2.32423">
        <ele>-4</ele>
        <time>2020-03-15T07:59:32.000Z</time>
      </trkpt>
      <trkpt lat="47.25729" lon="-2.32423">
        <ele>-4</ele>
        <time>2020-03-15T07:59:35.000Z</time>
      </trkpt>
      <trkpt lat="47.25701" lon="-2.32423">
        <ele>-4</ele>
        <time>2020-03-15T07:59:41.000Z</time>
      </trkpt>
      <trkpt lat="47.25667" lon="-2.32421">
        <ele>-4</ele>
        <time>2020-03-15T07:59:49.000Z</time>
      </trkpt>
      <trkpt lat="47.25663" lon="-2.32424">
        <ele>-4</ele>
        <time>2020-03-15T07:59:50.000Z</time>
      </trkpt>
      <trkpt lat="47.25661" lon="-2.32436">
        <ele>-4</ele>
        <time>2020-03-15T07:59:52.000Z</time>
      </trkpt>
      <trkpt lat="47.25664" lon="-2.32455">
        <ele>-4</ele>
        <time>2020-03-15T07:59:55.000Z</time>
      </trkpt>
      <trkpt lat="47.2567" lon="-2.32474">
        <ele>-4</ele>
        <time>2020-03-15T07:59:58.000Z</time>
      </trkpt>
      <trkpt lat="47.25673" lon="-2.32487">
        <ele>-4</ele>
        <time>2020-03-15T08:00:00.000Z</time>
      </trkpt>
      <trkpt lat="47.25675" lon="-2.32493">
        <ele>-4</ele>
        <time>2020-03-15T08:00:01.000Z</time>
      </trkpt>
      <trkpt lat="47.25683" lon="-2.32516">
        <ele>-3.4000000953674</ele>
        <time>2020-03-15T08:00:05.000Z</time>
      </trkpt>
      <trkpt lat="47.25685" lon="-2.32522">
        <ele>-3</ele>
        <time>2020-03-15T08:00:06.000Z</time>
      </trkpt>
      <trkpt lat="47.25687" lon="-2.32528">
        <ele>-2.4000000953674</ele>
        <time>2020-03-15T08:00:07.000Z</time>
      </trkpt>
      <trkpt lat="47.25689" lon="-2.32534">
        <ele>-2</ele>
        <time>2020-03-15T08:00:08.000Z</time>
      </trkpt>
      <trkpt lat="47.2569" lon="-2.32539">
        <ele>-1.6000000238419</ele>
        <time>2020-03-15T08:00:09.000Z</time>
      </trkpt>
      <trkpt lat="47.25698" lon="-2.32562">
        <ele>-1.6000000238419</ele>
        <time>2020-03-15T08:00:13.000Z</time>
      </trkpt>
      <trkpt lat="47.2571" lon="-2.32607">
        <ele>-1.6000000238419</ele>
        <time>2020-03-15T08:00:21.000Z</time>
      </trkpt>
      <trkpt lat="47.25711" lon="-2.32614">
        <ele>-1.2000000476837</ele>
        <time>2020-03-15T08:00:22.000Z</time>
      </trkpt>
      <trkpt lat="47.2571" lon="-2.3262">
        <ele>-0.80000001192093</ele>
        <time>2020-03-15T08:00:23.000Z</time>
      </trkpt>
      <trkpt lat="47.25707" lon="-2.32625">
        <ele>-0.20000000298023</ele>
        <time>2020-03-15T08:00:24.000Z</time>
      </trkpt>
      <trkpt lat="47.25703" lon="-2.32628">
        <ele>0.20000000298023</ele>
        <time>2020-03-15T08:00:25.000Z</time>
      </trkpt>
      <trkpt lat="47.25699" lon="-2.3263">
        <ele>0.60000002384186</ele>
        <time>2020-03-15T08:00:26.000Z</time>
      </trkpt>
      <trkpt lat="47.25691" lon="-2.32632">
        <ele>0.60000002384186</ele>
        <time>2020-03-15T08:00:28.000Z</time>
      </trkpt>
      <trkpt lat="47.25687" lon="-2.32634">
        <ele>0.60000002384186</ele>
        <time>2020-03-15T08:00:29.000Z</time>
      </trkpt>
      <trkpt lat="47.2568" lon="-2.32637">
        <ele>1</ele>
        <time>2020-03-15T08:00:31.000Z</time>
      </trkpt>
      <trkpt lat="47.25676" lon="-2.32638">
        <ele>1.3999999761581</ele>
        <time>2020-03-15T08:00:32.000Z</time>
      </trkpt>
      <trkpt lat="47.25673" lon="-2.3264">
        <ele>1.7999999523163</ele>
        <time>2020-03-15T08:00:33.000Z</time>
      </trkpt>
      <trkpt lat="47.2567" lon="-2.32642">
        <ele>2.2000000476837</ele>
        <time>2020-03-15T08:00:34.000Z</time>
      </trkpt>
      <trkpt lat="47.25666" lon="-2.32644">
        <ele>2.7999999523163</ele>
        <time>2020-03-15T08:00:35.000Z</time>
      </trkpt>
      <trkpt lat="47.25662" lon="-2.32645">
        <ele>3.5999999046326</ele>
        <time>2020-03-15T08:00:36.000Z</time>
      </trkpt>
      <trkpt lat="47.25659" lon="-2.32646">
        <ele>4</ele>
        <time>2020-03-15T08:00:37.000Z</time>
      </trkpt>
      <trkpt lat="47.25655" lon="-2.32647">
        <ele>4.4000000953674</ele>
        <time>2020-03-15T08:00:38.000Z</time>
      </trkpt>
      <trkpt lat="47.25652" lon="-2.32649">
        <ele>4.8000001907349</ele>
        <time>2020-03-15T08:00:39.000Z</time>
      </trkpt>
      <trkpt lat="47.25638" lon="-2.32656">
        <ele>4.8000001907349</ele>
        <time>2020-03-15T08:00:43.000Z</time>
      </trkpt>
      <trkpt lat="47.25633" lon="-2.32658">
        <ele>4.8000001907349</ele>
        <time>2020-03-15T08:00:44.000Z</time>
      </trkpt>
      <trkpt lat="47.25618" lon="-2.32663">
        <ele>4.8000001907349</ele>
        <time>2020-03-15T08:00:48.000Z</time>
      </trkpt>
      <trkpt lat="47.25592" lon="-2.32673">
        <ele>4.8000001907349</ele>
        <time>2020-03-15T08:00:55.000Z</time>
      </trkpt>
      <trkpt lat="47.25565" lon="-2.32683">
        <ele>4.8000001907349</ele>
        <time>2020-03-15T08:01:02.000Z</time>
      </trkpt>
      <trkpt lat="47.25546" lon="-2.32691">
        <ele>4.8000001907349</ele>
        <time>2020-03-15T08:01:07.000Z</time>
      </trkpt>
      <trkpt lat="47.25539" lon="-2.32695">
        <ele>4.8000001907349</ele>
        <time>2020-03-15T08:01:09.000Z</time>
      </trkpt>
      <trkpt lat="47.25512" lon="-2.327">
        <ele>4.8000001907349</ele>
        <time>2020-03-15T08:01:16.000Z</time>
      </trkpt>
      <trkpt lat="47.25492" lon="-2.32703">
        <ele>4.8000001907349</ele>
        <time>2020-03-15T08:01:21.000Z</time>
      </trkpt>
      <trkpt lat="47.25484" lon="-2.32707">
        <ele>4.8000001907349</ele>
        <time>2020-03-15T08:01:23.000Z</time>
      </trkpt>
      <trkpt lat="47.25473" lon="-2.32716">
        <ele>4.8000001907349</ele>
        <time>2020-03-15T08:01:26.000Z</time>
      </trkpt>
      <trkpt lat="47.25468" lon="-2.32724">
        <ele>4.8000001907349</ele>
        <time>2020-03-15T08:01:28.000Z</time>
      </trkpt>
      <trkpt lat="47.25457" lon="-2.32742">
        <ele>4.8000001907349</ele>
        <time>2020-03-15T08:01:32.000Z</time>
      </trkpt>
      <trkpt lat="47.25436" lon="-2.32781">
        <ele>4.8000001907349</ele>
        <time>2020-03-15T08:01:40.000Z</time>
      </trkpt>
      <trkpt lat="47.2543" lon="-2.32789">
        <ele>4.8000001907349</ele>
        <time>2020-03-15T08:01:42.000Z</time>
      </trkpt>
      <trkpt lat="47.25423" lon="-2.32799">
        <ele>4.8000001907349</ele>
        <time>2020-03-15T08:01:44.000Z</time>
      </trkpt>
      <trkpt lat="47.25402" lon="-2.32831">
        <ele>4</ele>
        <time>2020-03-15T08:01:50.000Z</time>
      </trkpt>
      <trkpt lat="47.25398" lon="-2.32836">
        <ele>3.5999999046326</ele>
        <time>2020-03-15T08:01:51.000Z</time>
      </trkpt>
      <trkpt lat="47.25394" lon="-2.3284">
        <ele>3.2000000476837</ele>
        <time>2020-03-15T08:01:52.000Z</time>
      </trkpt>
      <trkpt lat="47.2539" lon="-2.32844">
        <ele>2.7999999523163</ele>
        <time>2020-03-15T08:01:53.000Z</time>
      </trkpt>
      <trkpt lat="47.25375" lon="-2.32861">
        <ele>2.7999999523163</ele>
        <time>2020-03-15T08:01:57.000Z</time>
      </trkpt>
      <trkpt lat="47.25363" lon="-2.32874">
        <ele>2.7999999523163</ele>
        <time>2020-03-15T08:02:00.000Z</time>
      </trkpt>
      <trkpt lat="47.25355" lon="-2.32881">
        <ele>2.7999999523163</ele>
        <time>2020-03-15T08:02:02.000Z</time>
      </trkpt>
      <trkpt lat="47.25351" lon="-2.32884">
        <ele>2.7999999523163</ele>
        <time>2020-03-15T08:02:03.000Z</time>
      </trkpt>
      <trkpt lat="47.25324" lon="-2.32909">
        <ele>2.7999999523163</ele>
        <time>2020-03-15T08:02:10.000Z</time>
      </trkpt>
      <trkpt lat="47.25316" lon="-2.32916">
        <ele>2.7999999523163</ele>
        <time>2020-03-15T08:02:12.000Z</time>
      </trkpt>
      <trkpt lat="47.25307" lon="-2.32928">
        <ele>2.7999999523163</ele>
        <time>2020-03-15T08:02:15.000Z</time>
      </trkpt>
      <trkpt lat="47.25306" lon="-2.32947">
        <ele>2.7999999523163</ele>
        <time>2020-03-15T08:02:18.000Z</time>
      </trkpt>
      <trkpt lat="47.25307" lon="-2.32954">
        <ele>2.7999999523163</ele>
        <time>2020-03-15T08:02:19.000Z</time>
      </trkpt>
      <trkpt lat="47.25314" lon="-2.32972">
        <ele>2.7999999523163</ele>
        <time>2020-03-15T08:02:22.000Z</time>
      </trkpt>
      <trkpt lat="47.25329" lon="-2.33015">
        <ele>2.7999999523163</ele>
        <time>2020-03-15T08:02:29.000Z</time>
      </trkpt>
      <trkpt lat="47.25339" lon="-2.33037">
        <ele>2.7999999523163</ele>
        <time>2020-03-15T08:02:34.000Z</time>
      </trkpt>
      <trkpt lat="47.25345" lon="-2.33059">
        <ele>2.7999999523163</ele>
        <time>2020-03-15T08:02:39.000Z</time>
      </trkpt>
      <trkpt lat="47.25346" lon="-2.33063">
        <ele>2.4000000953674</ele>
        <time>2020-03-15T08:02:42.000Z</time>
      </trkpt>
      <trkpt lat="47.25347" lon="-2.33063">
        <ele>2</ele>
        <time>2020-03-15T08:02:43.000Z</time>
      </trkpt>
      <trkpt lat="47.25347" lon="-2.33063">
        <ele>1.6000000238419</ele>
        <time>2020-03-15T08:02:44.000Z</time>
      </trkpt>
      <trkpt lat="47.25348" lon="-2.33064">
        <ele>1.2000000476837</ele>
        <time>2020-03-15T08:02:45.000Z</time>
      </trkpt>
      <trkpt lat="47.25348" lon="-2.33064">
        <ele>0.80000001192093</ele>
        <time>2020-03-15T08:02:46.000Z</time>
      </trkpt>
      <trkpt lat="47.25348" lon="-2.33064">
        <ele>0.80000001192093</ele>
        <time>2020-03-15T08:02:47.000Z</time>
      </trkpt>
      <trkpt lat="47.25353" lon="-2.33062">
        <ele>0.80000001192093</ele>
        <time>2020-03-15T08:09:51.000Z</time>
      </trkpt>
      <trkpt lat="47.25351" lon="-2.33052">
        <ele>0.80000001192093</ele>
        <time>2020-03-15T08:09:55.000Z</time>
      </trkpt>
      <trkpt lat="47.25349" lon="-2.33048">
        <ele>0.80000001192093</ele>
        <time>2020-03-15T08:09:56.000Z</time>
      </trkpt>
      <trkpt lat="47.25336" lon="-2.33014">
        <ele>0.80000001192093</ele>
        <time>2020-03-15T08:10:02.000Z</time>
      </trkpt>
      <trkpt lat="47.25321" lon="-2.32977">
        <ele>0.80000001192093</ele>
        <time>2020-03-15T08:10:09.000Z</time>
      </trkpt>
      <trkpt lat="47.25308" lon="-2.32947">
        <ele>0.80000001192093</ele>
        <time>2020-03-15T08:10:15.000Z</time>
      </trkpt>
      <trkpt lat="47.25301" lon="-2.32937">
        <ele>0.80000001192093</ele>
        <time>2020-03-15T08:10:18.000Z</time>
      </trkpt>
      <trkpt lat="47.25298" lon="-2.32937">
        <ele>0.80000001192093</ele>
        <time>2020-03-15T08:10:19.000Z</time>
      </trkpt>
      <trkpt lat="47.25287" lon="-2.32945">
        <ele>0.80000001192093</ele>
        <time>2020-03-15T08:10:22.000Z</time>
      </trkpt>
      <trkpt lat="47.25279" lon="-2.32952">
        <ele>0.80000001192093</ele>
        <time>2020-03-15T08:10:24.000Z</time>
      </trkpt>
      <trkpt lat="47.2525" lon="-2.3298">
        <ele>0.80000001192093</ele>
        <time>2020-03-15T08:10:32.000Z</time>
      </trkpt>
      <trkpt lat="47.2522" lon="-2.3301">
        <ele>0.80000001192093</ele>
        <time>2020-03-15T08:10:40.000Z</time>
      </trkpt>
      <trkpt lat="47.25195" lon="-2.33035">
        <ele>0.80000001192093</ele>
        <time>2020-03-15T08:10:46.000Z</time>
      </trkpt>
      <trkpt lat="47.25166" lon="-2.33064">
        <ele>0.80000001192093</ele>
        <time>2020-03-15T08:10:52.000Z</time>
      </trkpt>
      <trkpt lat="47.25156" lon="-2.33071">
        <ele>0.80000001192093</ele>
        <time>2020-03-15T08:10:54.000Z</time>
      </trkpt>
      <trkpt lat="47.25136" lon="-2.33082">
        <ele>0.80000001192093</ele>
        <time>2020-03-15T08:10:58.000Z</time>
      </trkpt>
      <trkpt lat="47.25121" lon="-2.33087">
        <ele>0.80000001192093</ele>
        <time>2020-03-15T08:11:02.000Z</time>
      </trkpt>
      <trkpt lat="47.25119" lon="-2.33086">
        <ele>0.80000001192093</ele>
        <time>2020-03-15T08:11:03.000Z</time>
      </trkpt>
      <trkpt lat="47.25115" lon="-2.33078">
        <ele>0.80000001192093</ele>
        <time>2020-03-15T08:11:05.000Z</time>
      </trkpt>
      <trkpt lat="47.25118" lon="-2.33064">
        <ele>0.80000001192093</ele>
        <time>2020-03-15T08:11:08.000Z</time>
      </trkpt>
      <trkpt lat="47.25122" lon="-2.33054">
        <ele>0.80000001192093</ele>
        <time>2020-03-15T08:11:10.000Z</time>
      </trkpt>
      <trkpt lat="47.25134" lon="-2.33028">
        <ele>0.80000001192093</ele>
        <time>2020-03-15T08:11:15.000Z</time>
      </trkpt>
      <trkpt lat="47.25136" lon="-2.33022">
        <ele>0.80000001192093</ele>
        <time>2020-03-15T08:11:16.000Z</time>
      </trkpt>
      <trkpt lat="47.25137" lon="-2.33007">
        <ele>0.80000001192093</ele>
        <time>2020-03-15T08:11:18.000Z</time>
      </trkpt>
      <trkpt lat="47.25128" lon="-2.3299">
        <ele>0.80000001192093</ele>
        <time>2020-03-15T08:11:21.000Z</time>
      </trkpt>
      <trkpt lat="47.25125" lon="-2.32986">
        <ele>0.80000001192093</ele>
        <time>2020-03-15T08:11:22.000Z</time>
      </trkpt>
      <trkpt lat="47.25109" lon="-2.32959">
        <ele>0.80000001192093</ele>
        <time>2020-03-15T08:11:27.000Z</time>
      </trkpt>
      <trkpt lat="47.25095" lon="-2.32936">
        <ele>0.80000001192093</ele>
        <time>2020-03-15T08:11:32.000Z</time>
      </trkpt>
      <trkpt lat="47.25092" lon="-2.32924">
        <ele>0.80000001192093</ele>
        <time>2020-03-15T08:11:34.000Z</time>
      </trkpt>
      <trkpt lat="47.25089" lon="-2.32908">
        <ele>0.20000000298023</ele>
        <time>2020-03-15T08:11:37.000Z</time>
      </trkpt>
      <trkpt lat="47.25088" lon="-2.32905">
        <ele>-0.20000000298023</ele>
        <time>2020-03-15T08:11:38.000Z</time>
      </trkpt>
      <trkpt lat="47.25087" lon="-2.32902">
        <ele>-0.60000002384186</ele>
        <time>2020-03-15T08:11:39.000Z</time>
      </trkpt>
      <trkpt lat="47.25085" lon="-2.329">
        <ele>-1</ele>
        <time>2020-03-15T08:11:40.000Z</time>
      </trkpt>
      <trkpt lat="47.25083" lon="-2.32898">
        <ele>-1.6000000238419</ele>
        <time>2020-03-15T08:11:41.000Z</time>
      </trkpt>
      <trkpt lat="47.25081" lon="-2.32891">
        <ele>-1.6000000238419</ele>
        <time>2020-03-15T08:11:43.000Z</time>
      </trkpt>
      <trkpt lat="47.25079" lon="-2.3287">
        <ele>-1.6000000238419</ele>
        <time>2020-03-15T08:11:48.000Z</time>
      </trkpt>
      <trkpt lat="47.25079" lon="-2.32858">
        <ele>-1.6000000238419</ele>
        <time>2020-03-15T08:11:51.000Z</time>
      </trkpt>
      <trkpt lat="47.25076" lon="-2.32851">
        <ele>-1.6000000238419</ele>
        <time>2020-03-15T08:11:53.000Z</time>
      </trkpt>
      <trkpt lat="47.2506" lon="-2.32834">
        <ele>-1.6000000238419</ele>
        <time>2020-03-15T08:11:58.000Z</time>
      </trkpt>
      <trkpt lat="47.25056" lon="-2.32828">
        <ele>-1.6000000238419</ele>
        <time>2020-03-15T08:11:59.000Z</time>
      </trkpt>
      <trkpt lat="47.2505" lon="-2.3281">
        <ele>-1.6000000238419</ele>
        <time>2020-03-15T08:12:02.000Z</time>
      </trkpt>
      <trkpt lat="47.25042" lon="-2.32784">
        <ele>-1</ele>
        <time>2020-03-15T08:12:07.000Z</time>
      </trkpt>
      <trkpt lat="47.2504" lon="-2.3278">
        <ele>-0.20000000298023</ele>
        <time>2020-03-15T08:12:08.000Z</time>
      </trkpt>
      <trkpt lat="47.25037" lon="-2.32776">
        <ele>0.20000000298023</ele>
        <time>2020-03-15T08:12:09.000Z</time>
      </trkpt>
      <trkpt lat="47.25035" lon="-2.32772">
        <ele>0.60000002384186</ele>
        <time>2020-03-15T08:12:10.000Z</time>
      </trkpt>
      <trkpt lat="47.25029" lon="-2.32758">
        <ele>0.60000002384186</ele>
        <time>2020-03-15T08:12:13.000Z</time>
      </trkpt>
      <trkpt lat="47.25029" lon="-2.32747">
        <ele>0.60000002384186</ele>
        <time>2020-03-15T08:12:15.000Z</time>
      </trkpt>
      <trkpt lat="47.25031" lon="-2.32743">
        <ele>0.60000002384186</ele>
        <time>2020-03-15T08:12:16.000Z</time>
      </trkpt>
      <trkpt lat="47.25042" lon="-2.32734">
        <ele>0.60000002384186</ele>
        <time>2020-03-15T08:12:19.000Z</time>
      </trkpt>
      <trkpt lat="47.25047" lon="-2.3273">
        <ele>0.60000002384186</ele>
        <time>2020-03-15T08:12:20.000Z</time>
      </trkpt>
      <trkpt lat="47.25063" lon="-2.32717">
        <ele>0.60000002384186</ele>
        <time>2020-03-15T08:12:24.000Z</time>
      </trkpt>
      <trkpt lat="47.25071" lon="-2.3271">
        <ele>0.60000002384186</ele>
        <time>2020-03-15T08:12:26.000Z</time>
      </trkpt>
      <trkpt lat="47.25079" lon="-2.32702">
        <ele>0.60000002384186</ele>
        <time>2020-03-15T08:12:28.000Z</time>
      </trkpt>
      <trkpt lat="47.25084" lon="-2.32685">
        <ele>0.60000002384186</ele>
        <time>2020-03-15T08:12:31.000Z</time>
      </trkpt>
      <trkpt lat="47.25078" lon="-2.32668">
        <ele>1</ele>
        <time>2020-03-15T08:12:34.000Z</time>
      </trkpt>
      <trkpt lat="47.25076" lon="-2.32663">
        <ele>1.3999999761581</ele>
        <time>2020-03-15T08:12:35.000Z</time>
      </trkpt>
      <trkpt lat="47.25073" lon="-2.32657">
        <ele>1.7999999523163</ele>
        <time>2020-03-15T08:12:36.000Z</time>
      </trkpt>
      <trkpt lat="47.2507" lon="-2.32651">
        <ele>2.2000000476837</ele>
        <time>2020-03-15T08:12:37.000Z</time>
      </trkpt>
      <trkpt lat="47.25068" lon="-2.32645">
        <ele>2.5999999046326</ele>
        <time>2020-03-15T08:12:38.000Z</time>
      </trkpt>
      <trkpt lat="47.25057" lon="-2.32622">
        <ele>2.5999999046326</ele>
        <time>2020-03-15T08:12:42.000Z</time>
      </trkpt>
      <trkpt lat="47.25054" lon="-2.32616">
        <ele>2.5999999046326</ele>
        <time>2020-03-15T08:12:43.000Z</time>
      </trkpt>
      <trkpt lat="47.25044" lon="-2.32594">
        <ele>2.5999999046326</ele>
        <time>2020-03-15T08:12:47.000Z</time>
      </trkpt>
      <trkpt lat="47.25041" lon="-2.32589">
        <ele>2.5999999046326</ele>
        <time>2020-03-15T08:12:48.000Z</time>
      </trkpt>
      <trkpt lat="47.25037" lon="-2.3258">
        <ele>3.2000000476837</ele>
        <time>2020-03-15T08:12:50.000Z</time>
      </trkpt>
      <trkpt lat="47.25035" lon="-2.32577">
        <ele>3.5999999046326</ele>
        <time>2020-03-15T08:12:51.000Z</time>
      </trkpt>
      <trkpt lat="47.25034" lon="-2.32575">
        <ele>4</ele>
        <time>2020-03-15T08:12:52.000Z</time>
      </trkpt>
      <trkpt lat="47.25033" lon="-2.32573">
        <ele>4.4000000953674</ele>
        <time>2020-03-15T08:12:53.000Z</time>
      </trkpt>
      <trkpt lat="47.25032" lon="-2.32571">
        <ele>5</ele>
        <time>2020-03-15T08:12:54.000Z</time>
      </trkpt>
      <trkpt lat="47.25029" lon="-2.32564">
        <ele>5</ele>
        <time>2020-03-15T08:12:58.000Z</time>
      </trkpt>
      <trkpt lat="47.25025" lon="-2.32552">
        <ele>5</ele>
        <time>2020-03-15T08:13:04.000Z</time>
      </trkpt>
      <trkpt lat="47.25024" lon="-2.3255">
        <ele>5</ele>
        <time>2020-03-15T08:13:05.000Z</time>
      </trkpt>
      <trkpt lat="47.25024" lon="-2.3254">
        <ele>5</ele>
        <time>2020-03-15T08:13:09.000Z</time>
      </trkpt>
      <trkpt lat="47.25028" lon="-2.32521">
        <ele>5</ele>
        <time>2020-03-15T08:13:16.000Z</time>
      </trkpt>
      <trkpt lat="47.25038" lon="-2.32509">
        <ele>5</ele>
        <time>2020-03-15T08:13:21.000Z</time>
      </trkpt>
      <trkpt lat="47.25041" lon="-2.32507">
        <ele>5.4000000953674</ele>
        <time>2020-03-15T08:13:22.000Z</time>
      </trkpt>
      <trkpt lat="47.25043" lon="-2.32505">
        <ele>5.8000001907349</ele>
        <time>2020-03-15T08:13:23.000Z</time>
      </trkpt>
      <trkpt lat="47.25046" lon="-2.32504">
        <ele>6.1999998092651</ele>
        <time>2020-03-15T08:13:24.000Z</time>
      </trkpt>
      <trkpt lat="47.25049" lon="-2.32502">
        <ele>6.5999999046326</ele>
        <time>2020-03-15T08:13:25.000Z</time>
      </trkpt>
      <trkpt lat="47.25052" lon="-2.32501">
        <ele>7</ele>
        <time>2020-03-15T08:13:26.000Z</time>
      </trkpt>
      <trkpt lat="47.25058" lon="-2.32498">
        <ele>7</ele>
        <time>2020-03-15T08:13:28.000Z</time>
      </trkpt>
      <trkpt lat="47.25077" lon="-2.3249">
        <ele>7</ele>
        <time>2020-03-15T08:13:34.000Z</time>
      </trkpt>
      <trkpt lat="47.25101" lon="-2.32471">
        <ele>7</ele>
        <time>2020-03-15T08:13:42.000Z</time>
      </trkpt>
      <trkpt lat="47.25107" lon="-2.32444">
        <ele>7</ele>
        <time>2020-03-15T08:13:47.000Z</time>
      </trkpt>
      <trkpt lat="47.25106" lon="-2.32422">
        <ele>7.4000000953674</ele>
        <time>2020-03-15T08:13:51.000Z</time>
      </trkpt>
      <trkpt lat="47.25106" lon="-2.32417">
        <ele>7.8000001907349</ele>
        <time>2020-03-15T08:13:52.000Z</time>
      </trkpt>
      <trkpt lat="47.25106" lon="-2.32412">
        <ele>8.3999996185303</ele>
        <time>2020-03-15T08:13:53.000Z</time>
      </trkpt>
      <trkpt lat="47.25106" lon="-2.32406">
        <ele>8.8000001907349</ele>
        <time>2020-03-15T08:13:54.000Z</time>
      </trkpt>
      <trkpt lat="47.25106" lon="-2.32401">
        <ele>9.1999998092651</ele>
        <time>2020-03-15T08:13:55.000Z</time>
      </trkpt>
      <trkpt lat="47.25105" lon="-2.32379">
        <ele>9.6000003814697</ele>
        <time>2020-03-15T08:13:59.000Z</time>
      </trkpt>
      <trkpt lat="47.25105" lon="-2.32373">
        <ele>10</ele>
        <time>2020-03-15T08:14:00.000Z</time>
      </trkpt>
      <trkpt lat="47.25105" lon="-2.32368">
        <ele>10.39999961853</ele>
        <time>2020-03-15T08:14:01.000Z</time>
      </trkpt>
      <trkpt lat="47.25106" lon="-2.32362">
        <ele>10.800000190735</ele>
        <time>2020-03-15T08:14:02.000Z</time>
      </trkpt>
      <trkpt lat="47.25107" lon="-2.32356">
        <ele>11.199999809265</ele>
        <time>2020-03-15T08:14:03.000Z</time>
      </trkpt>
      <trkpt lat="47.25109" lon="-2.32345">
        <ele>11.199999809265</ele>
        <time>2020-03-15T08:14:05.000Z</time>
      </trkpt>
      <trkpt lat="47.25113" lon="-2.32327">
        <ele>11.199999809265</ele>
        <time>2020-03-15T08:14:08.000Z</time>
      </trkpt>
      <trkpt lat="47.25119" lon="-2.32313">
        <ele>11.199999809265</ele>
        <time>2020-03-15T08:14:11.000Z</time>
      </trkpt>
      <trkpt lat="47.25125" lon="-2.32306">
        <ele>11.60000038147</ele>
        <time>2020-03-15T08:14:13.000Z</time>
      </trkpt>
      <trkpt lat="47.25128" lon="-2.32302">
        <ele>12</ele>
        <time>2020-03-15T08:14:14.000Z</time>
      </trkpt>
      <trkpt lat="47.2513" lon="-2.32297">
        <ele>12.39999961853</ele>
        <time>2020-03-15T08:14:15.000Z</time>
      </trkpt>
      <trkpt lat="47.25131" lon="-2.32291">
        <ele>12.800000190735</ele>
        <time>2020-03-15T08:14:16.000Z</time>
      </trkpt>
      <trkpt lat="47.25132" lon="-2.32286">
        <ele>13.39999961853</ele>
        <time>2020-03-15T08:14:17.000Z</time>
      </trkpt>
      <trkpt lat="47.25129" lon="-2.32247">
        <ele>13.39999961853</ele>
        <time>2020-03-15T08:14:23.000Z</time>
      </trkpt>
      <trkpt lat="47.25128" lon="-2.32227">
        <ele>13.39999961853</ele>
        <time>2020-03-15T08:14:26.000Z</time>
      </trkpt>
      <trkpt lat="47.25126" lon="-2.32214">
        <ele>13.39999961853</ele>
        <time>2020-03-15T08:14:28.000Z</time>
      </trkpt>
      <trkpt lat="47.25124" lon="-2.32192">
        <ele>13.800000190735</ele>
        <time>2020-03-15T08:14:31.000Z</time>
      </trkpt>
      <trkpt lat="47.25123" lon="-2.32185">
        <ele>14.199999809265</ele>
        <time>2020-03-15T08:14:32.000Z</time>
      </trkpt>
      <trkpt lat="47.25123" lon="-2.32178">
        <ele>14.60000038147</ele>
        <time>2020-03-15T08:14:33.000Z</time>
      </trkpt>
      <trkpt lat="47.25122" lon="-2.3217">
        <ele>15</ele>
        <time>2020-03-15T08:14:34.000Z</time>
      </trkpt>
      <trkpt lat="47.25122" lon="-2.32163">
        <ele>15.39999961853</ele>
        <time>2020-03-15T08:14:35.000Z</time>
      </trkpt>
      <trkpt lat="47.25121" lon="-2.32156">
        <ele>15.39999961853</ele>
        <time>2020-03-15T08:14:36.000Z</time>
      </trkpt>
      <trkpt lat="47.2512" lon="-2.32141">
        <ele>15.39999961853</ele>
        <time>2020-03-15T08:14:38.000Z</time>
      </trkpt>
      <trkpt lat="47.25118" lon="-2.32111">
        <ele>15.39999961853</ele>
        <time>2020-03-15T08:14:42.000Z</time>
      </trkpt>
      <trkpt lat="47.25114" lon="-2.32062">
        <ele>15.39999961853</ele>
        <time>2020-03-15T08:14:48.000Z</time>
      </trkpt>
      <trkpt lat="47.25109" lon="-2.32012">
        <ele>15.39999961853</ele>
        <time>2020-03-15T08:14:54.000Z</time>
      </trkpt>
      <trkpt lat="47.25106" lon="-2.31988">
        <ele>15.39999961853</ele>
        <time>2020-03-15T08:14:57.000Z</time>
      </trkpt>
      <trkpt lat="47.25103" lon="-2.31973">
        <ele>15.39999961853</ele>
        <time>2020-03-15T08:14:59.000Z</time>
      </trkpt>
      <trkpt lat="47.25102" lon="-2.31957">
        <ele>15.39999961853</ele>
        <time>2020-03-15T08:15:01.000Z</time>
      </trkpt>
      <trkpt lat="47.25102" lon="-2.31939">
        <ele>15.39999961853</ele>
        <time>2020-03-15T08:15:03.000Z</time>
      </trkpt>
      <trkpt lat="47.25098" lon="-2.319">
        <ele>15.39999961853</ele>
        <time>2020-03-15T08:15:08.000Z</time>
      </trkpt>
      <trkpt lat="47.2509" lon="-2.31841">
        <ele>15.800000190735</ele>
        <time>2020-03-15T08:15:16.000Z</time>
      </trkpt>
      <trkpt lat="47.25088" lon="-2.31834">
        <ele>16.200000762939</ele>
        <time>2020-03-15T08:15:17.000Z</time>
      </trkpt>
      <trkpt lat="47.25087" lon="-2.31827">
        <ele>16.60000038147</ele>
        <time>2020-03-15T08:15:18.000Z</time>
      </trkpt>
      <trkpt lat="47.25086" lon="-2.31819">
        <ele>17.200000762939</ele>
        <time>2020-03-15T08:15:19.000Z</time>
      </trkpt>
      <trkpt lat="47.25084" lon="-2.31812">
        <ele>17.60000038147</ele>
        <time>2020-03-15T08:15:20.000Z</time>
      </trkpt>
      <trkpt lat="47.2508" lon="-2.3179">
        <ele>17.60000038147</ele>
        <time>2020-03-15T08:15:23.000Z</time>
      </trkpt>
      <trkpt lat="47.25066" lon="-2.31731">
        <ele>17.60000038147</ele>
        <time>2020-03-15T08:15:31.000Z</time>
      </trkpt>
      <trkpt lat="47.25053" lon="-2.31684">
        <ele>17.60000038147</ele>
        <time>2020-03-15T08:15:38.000Z</time>
      </trkpt>
      <trkpt lat="47.25042" lon="-2.31651">
        <ele>17.60000038147</ele>
        <time>2020-03-15T08:15:45.000Z</time>
      </trkpt>
      <trkpt lat="47.25039" lon="-2.3165">
        <ele>17.60000038147</ele>
        <time>2020-03-15T08:15:46.000Z</time>
      </trkpt>
      <trkpt lat="47.25033" lon="-2.31652">
        <ele>17.60000038147</ele>
        <time>2020-03-15T08:15:48.000Z</time>
      </trkpt>
      <trkpt lat="47.2502" lon="-2.31668">
        <ele>17.60000038147</ele>
        <time>2020-03-15T08:15:52.000Z</time>
      </trkpt>
      <trkpt lat="47.24982" lon="-2.31707">
        <ele>17.60000038147</ele>
        <time>2020-03-15T08:16:02.000Z</time>
      </trkpt>
      <trkpt lat="47.24956" lon="-2.31733">
        <ele>17.60000038147</ele>
        <time>2020-03-15T08:16:09.000Z</time>
      </trkpt>
      <trkpt lat="47.24922" lon="-2.31764">
        <ele>17.60000038147</ele>
        <time>2020-03-15T08:16:17.000Z</time>
      </trkpt>
      <trkpt lat="47.24889" lon="-2.31791">
        <ele>17.60000038147</ele>
        <time>2020-03-15T08:16:24.000Z</time>
      </trkpt>
      <trkpt lat="47.24863" lon="-2.31815">
        <ele>17.60000038147</ele>
        <time>2020-03-15T08:16:30.000Z</time>
      </trkpt>
      <trkpt lat="47.24834" lon="-2.31841">
        <ele>17.60000038147</ele>
        <time>2020-03-15T08:16:37.000Z</time>
      </trkpt>
      <trkpt lat="47.2481" lon="-2.31862">
        <ele>17.60000038147</ele>
        <time>2020-03-15T08:16:43.000Z</time>
      </trkpt>
      <trkpt lat="47.24805" lon="-2.31864">
        <ele>17.60000038147</ele>
        <time>2020-03-15T08:16:44.000Z</time>
      </trkpt>
      <trkpt lat="47.24795" lon="-2.31862">
        <ele>17.60000038147</ele>
        <time>2020-03-15T08:16:46.000Z</time>
      </trkpt>
      <trkpt lat="47.24781" lon="-2.31846">
        <ele>17.60000038147</ele>
        <time>2020-03-15T08:16:49.000Z</time>
      </trkpt>
      <trkpt lat="47.24763" lon="-2.31816">
        <ele>17.60000038147</ele>
        <time>2020-03-15T08:16:54.000Z</time>
      </trkpt>
      <trkpt lat="47.24741" lon="-2.31784">
        <ele>17.60000038147</ele>
        <time>2020-03-15T08:17:00.000Z</time>
      </trkpt>
      <trkpt lat="47.24718" lon="-2.31751">
        <ele>17.60000038147</ele>
        <time>2020-03-15T08:17:06.000Z</time>
      </trkpt>
      <trkpt lat="47.24697" lon="-2.31716">
        <ele>17.60000038147</ele>
        <time>2020-03-15T08:17:12.000Z</time>
      </trkpt>
      <trkpt lat="47.24672" lon="-2.31676">
        <ele>17.60000038147</ele>
        <time>2020-03-15T08:17:19.000Z</time>
      </trkpt>
      <trkpt lat="47.24668" lon="-2.31671">
        <ele>17.60000038147</ele>
        <time>2020-03-15T08:17:20.000Z</time>
      </trkpt>
      <trkpt lat="47.24649" lon="-2.31645">
        <ele>17.60000038147</ele>
        <time>2020-03-15T08:17:25.000Z</time>
      </trkpt>
      <trkpt lat="47.24623" lon="-2.31606">
        <ele>17.60000038147</ele>
        <time>2020-03-15T08:17:32.000Z</time>
      </trkpt>
      <trkpt lat="47.24598" lon="-2.31563">
        <ele>17.60000038147</ele>
        <time>2020-03-15T08:17:39.000Z</time>
      </trkpt>
      <trkpt lat="47.24592" lon="-2.3153">
        <ele>17.60000038147</ele>
        <time>2020-03-15T08:17:43.000Z</time>
      </trkpt>
      <trkpt lat="47.24584" lon="-2.31457">
        <ele>17.60000038147</ele>
        <time>2020-03-15T08:17:52.000Z</time>
      </trkpt>
      <trkpt lat="47.24579" lon="-2.31402">
        <ele>17.60000038147</ele>
        <time>2020-03-15T08:17:59.000Z</time>
      </trkpt>
      <trkpt lat="47.24574" lon="-2.3139">
        <ele>17.60000038147</ele>
        <time>2020-03-15T08:18:02.000Z</time>
      </trkpt>
      <trkpt lat="47.24571" lon="-2.3139">
        <ele>17.60000038147</ele>
        <time>2020-03-15T08:18:03.000Z</time>
      </trkpt>
      <trkpt lat="47.24564" lon="-2.31392">
        <ele>17.60000038147</ele>
        <time>2020-03-15T08:18:05.000Z</time>
      </trkpt>
      <trkpt lat="47.24555" lon="-2.31393">
        <ele>17.60000038147</ele>
        <time>2020-03-15T08:18:07.000Z</time>
      </trkpt>
      <trkpt lat="47.2454" lon="-2.3139">
        <ele>17.60000038147</ele>
        <time>2020-03-15T08:18:10.000Z</time>
      </trkpt>
      <trkpt lat="47.24519" lon="-2.31383">
        <ele>17.60000038147</ele>
        <time>2020-03-15T08:18:15.000Z</time>
      </trkpt>
      <trkpt lat="47.2451" lon="-2.31375">
        <ele>17</ele>
        <time>2020-03-15T08:18:17.000Z</time>
      </trkpt>
      <trkpt lat="47.24506" lon="-2.31371">
        <ele>16.60000038147</ele>
        <time>2020-03-15T08:18:18.000Z</time>
      </trkpt>
      <trkpt lat="47.24503" lon="-2.31366">
        <ele>15.60000038147</ele>
        <time>2020-03-15T08:18:19.000Z</time>
      </trkpt>
      <trkpt lat="47.245" lon="-2.3136">
        <ele>15.199999809265</ele>
        <time>2020-03-15T08:18:20.000Z</time>
      </trkpt>
      <trkpt lat="47.24498" lon="-2.31354">
        <ele>14.800000190735</ele>
        <time>2020-03-15T08:18:21.000Z</time>
      </trkpt>
      <trkpt lat="47.24495" lon="-2.31348">
        <ele>14.199999809265</ele>
        <time>2020-03-15T08:18:22.000Z</time>
      </trkpt>
      <trkpt lat="47.24493" lon="-2.31342">
        <ele>13.800000190735</ele>
        <time>2020-03-15T08:18:23.000Z</time>
      </trkpt>
      <trkpt lat="47.2449" lon="-2.31336">
        <ele>13.39999961853</ele>
        <time>2020-03-15T08:18:24.000Z</time>
      </trkpt>
      <trkpt lat="47.24488" lon="-2.3133">
        <ele>12.800000190735</ele>
        <time>2020-03-15T08:18:25.000Z</time>
      </trkpt>
      <trkpt lat="47.24484" lon="-2.31323">
        <ele>12.800000190735</ele>
        <time>2020-03-15T08:18:26.000Z</time>
      </trkpt>
      <trkpt lat="47.24473" lon="-2.31302">
        <ele>12.39999961853</ele>
        <time>2020-03-15T08:18:29.000Z</time>
      </trkpt>
      <trkpt lat="47.2447" lon="-2.31293">
        <ele>12</ele>
        <time>2020-03-15T08:18:30.000Z</time>
      </trkpt>
      <trkpt lat="47.24466" lon="-2.31284">
        <ele>11.60000038147</ele>
        <time>2020-03-15T08:18:31.000Z</time>
      </trkpt>
      <trkpt lat="47.24462" lon="-2.31275">
        <ele>11.199999809265</ele>
        <time>2020-03-15T08:18:32.000Z</time>
      </trkpt>
      <trkpt lat="47.24459" lon="-2.31268">
        <ele>10.800000190735</ele>
        <time>2020-03-15T08:18:33.000Z</time>
      </trkpt>
      <trkpt lat="47.24457" lon="-2.3126">
        <ele>10.800000190735</ele>
        <time>2020-03-15T08:18:34.000Z</time>
      </trkpt>
      <trkpt lat="47.24451" lon="-2.31245">
        <ele>10.800000190735</ele>
        <time>2020-03-15T08:18:36.000Z</time>
      </trkpt>
      <trkpt lat="47.24446" lon="-2.31233">
        <ele>10.800000190735</ele>
        <time>2020-03-15T08:18:38.000Z</time>
      </trkpt>
      <trkpt lat="47.24443" lon="-2.3123">
        <ele>10.39999961853</ele>
        <time>2020-03-15T08:18:39.000Z</time>
      </trkpt>
      <trkpt lat="47.2444" lon="-2.31228">
        <ele>10</ele>
        <time>2020-03-15T08:18:40.000Z</time>
      </trkpt>
      <trkpt lat="47.24437" lon="-2.31229">
        <ele>9.6000003814697</ele>
        <time>2020-03-15T08:18:41.000Z</time>
      </trkpt>
      <trkpt lat="47.24433" lon="-2.3123">
        <ele>9.1999998092651</ele>
        <time>2020-03-15T08:18:42.000Z</time>
      </trkpt>
      <trkpt lat="47.24429" lon="-2.31232">
        <ele>8.1999998092651</ele>
        <time>2020-03-15T08:18:43.000Z</time>
      </trkpt>
      <trkpt lat="47.24426" lon="-2.31231">
        <ele>7.5999999046326</ele>
        <time>2020-03-15T08:18:44.000Z</time>
      </trkpt>
      <trkpt lat="47.24424" lon="-2.31228">
        <ele>7.1999998092651</ele>
        <time>2020-03-15T08:18:45.000Z</time>
      </trkpt>
      <trkpt lat="47.24423" lon="-2.31223">
        <ele>6.5999999046326</ele>
        <time>2020-03-15T08:18:46.000Z</time>
      </trkpt>
      <trkpt lat="47.24421" lon="-2.31218">
        <ele>6.5999999046326</ele>
        <time>2020-03-15T08:18:47.000Z</time>
      </trkpt>
      <trkpt lat="47.24414" lon="-2.31199">
        <ele>6.5999999046326</ele>
        <time>2020-03-15T08:18:52.000Z</time>
      </trkpt>
      <trkpt lat="47.2441" lon="-2.31189">
        <ele>6.5999999046326</ele>
        <time>2020-03-15T08:18:55.000Z</time>
      </trkpt>
      <trkpt lat="47.24407" lon="-2.31187">
        <ele>6.5999999046326</ele>
        <time>2020-03-15T08:18:56.000Z</time>
      </trkpt>
      <trkpt lat="47.24401" lon="-2.3118">
        <ele>7</ele>
        <time>2020-03-15T08:18:58.000Z</time>
      </trkpt>
      <trkpt lat="47.24398" lon="-2.31178">
        <ele>7.5999999046326</ele>
        <time>2020-03-15T08:18:59.000Z</time>
      </trkpt>
      <trkpt lat="47.24395" lon="-2.31175">
        <ele>8</ele>
        <time>2020-03-15T08:19:00.000Z</time>
      </trkpt>
      <trkpt lat="47.24392" lon="-2.31173">
        <ele>8.3999996185303</ele>
        <time>2020-03-15T08:19:01.000Z</time>
      </trkpt>
      <trkpt lat="47.2439" lon="-2.3117">
        <ele>8.8000001907349</ele>
        <time>2020-03-15T08:19:02.000Z</time>
      </trkpt>
      <trkpt lat="47.24387" lon="-2.31167">
        <ele>8.8000001907349</ele>
        <time>2020-03-15T08:19:03.000Z</time>
      </trkpt>
      <trkpt lat="47.24373" lon="-2.31149">
        <ele>8.8000001907349</ele>
        <time>2020-03-15T08:19:09.000Z</time>
      </trkpt>
      <trkpt lat="47.24361" lon="-2.31129">
        <ele>8.8000001907349</ele>
        <time>2020-03-15T08:19:15.000Z</time>
      </trkpt>
      <trkpt lat="47.24353" lon="-2.31106">
        <ele>8.8000001907349</ele>
        <time>2020-03-15T08:19:20.000Z</time>
      </trkpt>
      <trkpt lat="47.24344" lon="-2.31071">
        <ele>8.8000001907349</ele>
        <time>2020-03-15T08:19:26.000Z</time>
      </trkpt>
      <trkpt lat="47.24341" lon="-2.31065">
        <ele>8.8000001907349</ele>
        <time>2020-03-15T08:19:27.000Z</time>
      </trkpt>
      <trkpt lat="47.24331" lon="-2.31044">
        <ele>8.8000001907349</ele>
        <time>2020-03-15T08:19:31.000Z</time>
      </trkpt>
      <trkpt lat="47.24315" lon="-2.31036">
        <ele>8.8000001907349</ele>
        <time>2020-03-15T08:19:35.000Z</time>
      </trkpt>
      <trkpt lat="47.24304" lon="-2.31034">
        <ele>8.8000001907349</ele>
        <time>2020-03-15T08:19:37.000Z</time>
      </trkpt>
      <trkpt lat="47.24286" lon="-2.31032">
        <ele>8.8000001907349</ele>
        <time>2020-03-15T08:19:41.000Z</time>
      </trkpt>
      <trkpt lat="47.24282" lon="-2.31028">
        <ele>8.3999996185303</ele>
        <time>2020-03-15T08:19:42.000Z</time>
      </trkpt>
      <trkpt lat="47.2428" lon="-2.31023">
        <ele>8</ele>
        <time>2020-03-15T08:19:43.000Z</time>
      </trkpt>
      <trkpt lat="47.24279" lon="-2.31018">
        <ele>7.4000000953674</ele>
        <time>2020-03-15T08:19:44.000Z</time>
      </trkpt>
      <trkpt lat="47.24279" lon="-2.31013">
        <ele>7</ele>
        <time>2020-03-15T08:19:45.000Z</time>
      </trkpt>
      <trkpt lat="47.24279" lon="-2.31006">
        <ele>6.5999999046326</ele>
        <time>2020-03-15T08:19:46.000Z</time>
      </trkpt>
      <trkpt lat="47.2428" lon="-2.30999">
        <ele>6.5999999046326</ele>
        <time>2020-03-15T08:19:47.000Z</time>
      </trkpt>
      <trkpt lat="47.24281" lon="-2.30993">
        <ele>6.5999999046326</ele>
        <time>2020-03-15T08:19:48.000Z</time>
      </trkpt>
      <trkpt lat="47.24286" lon="-2.30961">
        <ele>7</ele>
        <time>2020-03-15T08:19:54.000Z</time>
      </trkpt>
      <trkpt lat="47.24287" lon="-2.30956">
        <ele>7.4000000953674</ele>
        <time>2020-03-15T08:19:55.000Z</time>
      </trkpt>
      <trkpt lat="47.24288" lon="-2.30951">
        <ele>7.8000001907349</ele>
        <time>2020-03-15T08:19:56.000Z</time>
      </trkpt>
      <trkpt lat="47.24288" lon="-2.30946">
        <ele>8.6000003814697</ele>
        <time>2020-03-15T08:19:57.000Z</time>
      </trkpt>
      <trkpt lat="47.2429" lon="-2.30934">
        <ele>9.1999998092651</ele>
        <time>2020-03-15T08:20:00.000Z</time>
      </trkpt>
      <trkpt lat="47.2429" lon="-2.3093">
        <ele>9.6000003814697</ele>
        <time>2020-03-15T08:20:01.000Z</time>
      </trkpt>
      <trkpt lat="47.2429" lon="-2.30925">
        <ele>10</ele>
        <time>2020-03-15T08:20:02.000Z</time>
      </trkpt>
      <trkpt lat="47.24289" lon="-2.30919">
        <ele>10.39999961853</ele>
        <time>2020-03-15T08:20:03.000Z</time>
      </trkpt>
      <trkpt lat="47.24288" lon="-2.30914">
        <ele>10.800000190735</ele>
        <time>2020-03-15T08:20:04.000Z</time>
      </trkpt>
      <trkpt lat="47.24287" lon="-2.30908">
        <ele>10.800000190735</ele>
        <time>2020-03-15T08:20:05.000Z</time>
      </trkpt>
      <trkpt lat="47.24284" lon="-2.30888">
        <ele>11.199999809265</ele>
        <time>2020-03-15T08:20:09.000Z</time>
      </trkpt>
      <trkpt lat="47.24283" lon="-2.30883">
        <ele>11.60000038147</ele>
        <time>2020-03-15T08:20:10.000Z</time>
      </trkpt>
      <trkpt lat="47.24282" lon="-2.30878">
        <ele>12</ele>
        <time>2020-03-15T08:20:11.000Z</time>
      </trkpt>
      <trkpt lat="47.24282" lon="-2.30874">
        <ele>12.39999961853</ele>
        <time>2020-03-15T08:20:12.000Z</time>
      </trkpt>
      <trkpt lat="47.24281" lon="-2.30868">
        <ele>12.800000190735</ele>
        <time>2020-03-15T08:20:13.000Z</time>
      </trkpt>
      <trkpt lat="47.24282" lon="-2.30851">
        <ele>12.800000190735</ele>
        <time>2020-03-15T08:20:16.000Z</time>
      </trkpt>
      <trkpt lat="47.24291" lon="-2.30826">
        <ele>12.800000190735</ele>
        <time>2020-03-15T08:20:21.000Z</time>
      </trkpt>
      <trkpt lat="47.24306" lon="-2.30813">
        <ele>13.199999809265</ele>
        <time>2020-03-15T08:20:25.000Z</time>
      </trkpt>
      <trkpt lat="47.24309" lon="-2.3081">
        <ele>13.60000038147</ele>
        <time>2020-03-15T08:20:26.000Z</time>
      </trkpt>
      <trkpt lat="47.24313" lon="-2.30808">
        <ele>14</ele>
        <time>2020-03-15T08:20:27.000Z</time>
      </trkpt>
      <trkpt lat="47.24317" lon="-2.30805">
        <ele>14.60000038147</ele>
        <time>2020-03-15T08:20:28.000Z</time>
      </trkpt>
      <trkpt lat="47.24321" lon="-2.30803">
        <ele>15</ele>
        <time>2020-03-15T08:20:29.000Z</time>
      </trkpt>
      <trkpt lat="47.24329" lon="-2.30799">
        <ele>15</ele>
        <time>2020-03-15T08:20:31.000Z</time>
      </trkpt>
      <trkpt lat="47.24356" lon="-2.30789">
        <ele>15</ele>
        <time>2020-03-15T08:20:37.000Z</time>
      </trkpt>
      <trkpt lat="47.2436" lon="-2.30787">
        <ele>15</ele>
        <time>2020-03-15T08:20:38.000Z</time>
      </trkpt>
      <trkpt lat="47.24364" lon="-2.30784">
        <ele>15.39999961853</ele>
        <time>2020-03-15T08:20:39.000Z</time>
      </trkpt>
      <trkpt lat="47.24368" lon="-2.30781">
        <ele>15.800000190735</ele>
        <time>2020-03-15T08:20:40.000Z</time>
      </trkpt>
      <trkpt lat="47.24371" lon="-2.30778">
        <ele>16.200000762939</ele>
        <time>2020-03-15T08:20:41.000Z</time>
      </trkpt>
      <trkpt lat="47.24374" lon="-2.30774">
        <ele>16.60000038147</ele>
        <time>2020-03-15T08:20:42.000Z</time>
      </trkpt>
      <trkpt lat="47.24377" lon="-2.3077">
        <ele>17</ele>
        <time>2020-03-15T08:20:43.000Z</time>
      </trkpt>
      <trkpt lat="47.24382" lon="-2.30764">
        <ele>17.39999961853</ele>
        <time>2020-03-15T08:20:45.000Z</time>
      </trkpt>
      <trkpt lat="47.24384" lon="-2.30761">
        <ele>18.200000762939</ele>
        <time>2020-03-15T08:20:46.000Z</time>
      </trkpt>
      <trkpt lat="47.24387" lon="-2.30759">
        <ele>18.60000038147</ele>
        <time>2020-03-15T08:20:47.000Z</time>
      </trkpt>
      <trkpt lat="47.24389" lon="-2.30756">
        <ele>19</ele>
        <time>2020-03-15T08:20:48.000Z</time>
      </trkpt>
      <trkpt lat="47.24391" lon="-2.30753">
        <ele>19</ele>
        <time>2020-03-15T08:20:49.000Z</time>
      </trkpt>
      <trkpt lat="47.24396" lon="-2.30736">
        <ele>19</ele>
        <time>2020-03-15T08:20:53.000Z</time>
      </trkpt>
      <trkpt lat="47.24404" lon="-2.30692">
        <ele>19</ele>
        <time>2020-03-15T08:20:59.000Z</time>
      </trkpt>
      <trkpt lat="47.24412" lon="-2.30664">
        <ele>19</ele>
        <time>2020-03-15T08:21:03.000Z</time>
      </trkpt>
      <trkpt lat="47.24417" lon="-2.30651">
        <ele>19</ele>
        <time>2020-03-15T08:21:05.000Z</time>
      </trkpt>
      <trkpt lat="47.24418" lon="-2.30644">
        <ele>19</ele>
        <time>2020-03-15T08:21:06.000Z</time>
      </trkpt>
      <trkpt lat="47.24421" lon="-2.30632">
        <ele>19</ele>
        <time>2020-03-15T08:21:08.000Z</time>
      </trkpt>
      <trkpt lat="47.24426" lon="-2.30623">
        <ele>19</ele>
        <time>2020-03-15T08:21:10.000Z</time>
      </trkpt>
      <trkpt lat="47.24438" lon="-2.30606">
        <ele>19</ele>
        <time>2020-03-15T08:21:15.000Z</time>
      </trkpt>
      <trkpt lat="47.24448" lon="-2.30588">
        <ele>19</ele>
        <time>2020-03-15T08:21:19.000Z</time>
      </trkpt>
      <trkpt lat="47.24451" lon="-2.30581">
        <ele>19</ele>
        <time>2020-03-15T08:21:20.000Z</time>
      </trkpt>
      <trkpt lat="47.24462" lon="-2.30552">
        <ele>19</ele>
        <time>2020-03-15T08:21:25.000Z</time>
      </trkpt>
      <trkpt lat="47.24466" lon="-2.30547">
        <ele>19</ele>
        <time>2020-03-15T08:21:28.000Z</time>
      </trkpt>
      <trkpt lat="47.24467" lon="-2.30548">
        <ele>19</ele>
        <time>2020-03-15T08:21:29.000Z</time>
      </trkpt>
      <trkpt lat="47.24465" lon="-2.3055">
        <ele>18.60000038147</ele>
        <time>2020-03-15T08:21:30.000Z</time>
      </trkpt>
      <trkpt lat="47.2446" lon="-2.30554">
        <ele>18.200000762939</ele>
        <time>2020-03-15T08:21:31.000Z</time>
      </trkpt>
      <trkpt lat="47.24454" lon="-2.30559">
        <ele>17.60000038147</ele>
        <time>2020-03-15T08:21:32.000Z</time>
      </trkpt>
      <trkpt lat="47.24449" lon="-2.30562">
        <ele>17.200000762939</ele>
        <time>2020-03-15T08:21:33.000Z</time>
      </trkpt>
      <trkpt lat="47.24446" lon="-2.30564">
        <ele>16.799999237061</ele>
        <time>2020-03-15T08:21:34.000Z</time>
      </trkpt>
      <trkpt lat="47.24438" lon="-2.30568">
        <ele>16.799999237061</ele>
        <time>2020-03-15T08:21:36.000Z</time>
      </trkpt>
      <trkpt lat="47.24433" lon="-2.30569">
        <ele>16.39999961853</ele>
        <time>2020-03-15T08:21:37.000Z</time>
      </trkpt>
      <trkpt lat="47.24429" lon="-2.30571">
        <ele>15.800000190735</ele>
        <time>2020-03-15T08:21:38.000Z</time>
      </trkpt>
      <trkpt lat="47.24426" lon="-2.30573">
        <ele>15.39999961853</ele>
        <time>2020-03-15T08:21:39.000Z</time>
      </trkpt>
      <trkpt lat="47.24422" lon="-2.30574">
        <ele>15</ele>
        <time>2020-03-15T08:21:40.000Z</time>
      </trkpt>
      <trkpt lat="47.24419" lon="-2.30575">
        <ele>14.60000038147</ele>
        <time>2020-03-15T08:21:41.000Z</time>
      </trkpt>
      <trkpt lat="47.24401" lon="-2.30571">
        <ele>14.60000038147</ele>
        <time>2020-03-15T08:21:46.000Z</time>
      </trkpt>
      <trkpt lat="47.24378" lon="-2.30553">
        <ele>14.60000038147</ele>
        <time>2020-03-15T08:21:51.000Z</time>
      </trkpt>
      <trkpt lat="47.24369" lon="-2.30529">
        <ele>14.199999809265</ele>
        <time>2020-03-15T08:21:55.000Z</time>
      </trkpt>
      <trkpt lat="47.24368" lon="-2.30524">
        <ele>13.800000190735</ele>
        <time>2020-03-15T08:21:56.000Z</time>
      </trkpt>
      <trkpt lat="47.24367" lon="-2.3052">
        <ele>13.39999961853</ele>
        <time>2020-03-15T08:21:57.000Z</time>
      </trkpt>
      <trkpt lat="47.24367" lon="-2.30517">
        <ele>13</ele>
        <time>2020-03-15T08:21:58.000Z</time>
      </trkpt>
      <trkpt lat="47.24367" lon="-2.30514">
        <ele>12.60000038147</ele>
        <time>2020-03-15T08:21:59.000Z</time>
      </trkpt>
      <trkpt lat="47.24368" lon="-2.30504">
        <ele>13</ele>
        <time>2020-03-15T08:22:02.000Z</time>
      </trkpt>
      <trkpt lat="47.24369" lon="-2.30499">
        <ele>13.39999961853</ele>
        <time>2020-03-15T08:22:03.000Z</time>
      </trkpt>
      <trkpt lat="47.2437" lon="-2.30495">
        <ele>13.800000190735</ele>
        <time>2020-03-15T08:22:04.000Z</time>
      </trkpt>
      <trkpt lat="47.24371" lon="-2.30492">
        <ele>14.199999809265</ele>
        <time>2020-03-15T08:22:05.000Z</time>
      </trkpt>
      <trkpt lat="47.24373" lon="-2.30488">
        <ele>14.800000190735</ele>
        <time>2020-03-15T08:22:06.000Z</time>
      </trkpt>
      <trkpt lat="47.24374" lon="-2.30484">
        <ele>15.199999809265</ele>
        <time>2020-03-15T08:22:07.000Z</time>
      </trkpt>
      <trkpt lat="47.24376" lon="-2.30479">
        <ele>15.60000038147</ele>
        <time>2020-03-15T08:22:08.000Z</time>
      </trkpt>
      <trkpt lat="47.24377" lon="-2.30474">
        <ele>16</ele>
        <time>2020-03-15T08:22:09.000Z</time>
      </trkpt>
      <trkpt lat="47.24378" lon="-2.30468">
        <ele>16.39999961853</ele>
        <time>2020-03-15T08:22:10.000Z</time>
      </trkpt>
      <trkpt lat="47.24379" lon="-2.30463">
        <ele>16.799999237061</ele>
        <time>2020-03-15T08:22:11.000Z</time>
      </trkpt>
      <trkpt lat="47.24379" lon="-2.3045">
        <ele>16.799999237061</ele>
        <time>2020-03-15T08:22:14.000Z</time>
      </trkpt>
      <trkpt lat="47.24379" lon="-2.30447">
        <ele>17.200000762939</ele>
        <time>2020-03-15T08:22:15.000Z</time>
      </trkpt>
      <trkpt lat="47.24377" lon="-2.30446">
        <ele>17.60000038147</ele>
        <time>2020-03-15T08:22:16.000Z</time>
      </trkpt>
      <trkpt lat="47.24375" lon="-2.30446">
        <ele>18</ele>
        <time>2020-03-15T08:22:17.000Z</time>
      </trkpt>
      <trkpt lat="47.24373" lon="-2.30446">
        <ele>18.39999961853</ele>
        <time>2020-03-15T08:22:18.000Z</time>
      </trkpt>
      <trkpt lat="47.2437" lon="-2.30447">
        <ele>18.799999237061</ele>
        <time>2020-03-15T08:22:19.000Z</time>
      </trkpt>
      <trkpt lat="47.24361" lon="-2.30445">
        <ele>18.799999237061</ele>
        <time>2020-03-15T08:22:22.000Z</time>
      </trkpt>
      <trkpt lat="47.24353" lon="-2.30442">
        <ele>19.200000762939</ele>
        <time>2020-03-15T08:22:24.000Z</time>
      </trkpt>
      <trkpt lat="47.24348" lon="-2.3044">
        <ele>19.60000038147</ele>
        <time>2020-03-15T08:22:25.000Z</time>
      </trkpt>
      <trkpt lat="47.24344" lon="-2.30438">
        <ele>20</ele>
        <time>2020-03-15T08:22:26.000Z</time>
      </trkpt>
      <trkpt lat="47.24337" lon="-2.30437">
        <ele>20.39999961853</ele>
        <time>2020-03-15T08:22:27.000Z</time>
      </trkpt>
      <trkpt lat="47.24331" lon="-2.30434">
        <ele>20.799999237061</ele>
        <time>2020-03-15T08:22:28.000Z</time>
      </trkpt>
      <trkpt lat="47.24308" lon="-2.3042">
        <ele>20.799999237061</ele>
        <time>2020-03-15T08:22:34.000Z</time>
      </trkpt>
      <trkpt lat="47.24277" lon="-2.30402">
        <ele>20.799999237061</ele>
        <time>2020-03-15T08:22:41.000Z</time>
      </trkpt>
      <trkpt lat="47.24258" lon="-2.3037">
        <ele>20.799999237061</ele>
        <time>2020-03-15T08:22:47.000Z</time>
      </trkpt>
      <trkpt lat="47.24242" lon="-2.30338">
        <ele>20.799999237061</ele>
        <time>2020-03-15T08:22:53.000Z</time>
      </trkpt>
      <trkpt lat="47.24239" lon="-2.30332">
        <ele>20.799999237061</ele>
        <time>2020-03-15T08:22:54.000Z</time>
      </trkpt>
      <trkpt lat="47.24227" lon="-2.30325">
        <ele>20.799999237061</ele>
        <time>2020-03-15T08:22:58.000Z</time>
      </trkpt>
      <trkpt lat="47.24218" lon="-2.30328">
        <ele>20.799999237061</ele>
        <time>2020-03-15T08:23:00.000Z</time>
      </trkpt>
      <trkpt lat="47.2421" lon="-2.30329">
        <ele>20.799999237061</ele>
        <time>2020-03-15T08:23:02.000Z</time>
      </trkpt>
      <trkpt lat="47.24205" lon="-2.30328">
        <ele>20.39999961853</ele>
        <time>2020-03-15T08:23:03.000Z</time>
      </trkpt>
      <trkpt lat="47.24201" lon="-2.30325">
        <ele>19.799999237061</ele>
        <time>2020-03-15T08:23:04.000Z</time>
      </trkpt>
      <trkpt lat="47.24197" lon="-2.3032">
        <ele>19.39999961853</ele>
        <time>2020-03-15T08:23:05.000Z</time>
      </trkpt>
      <trkpt lat="47.24195" lon="-2.30311">
        <ele>19</ele>
        <time>2020-03-15T08:23:06.000Z</time>
      </trkpt>
      <trkpt lat="47.24193" lon="-2.30302">
        <ele>18.39999961853</ele>
        <time>2020-03-15T08:23:07.000Z</time>
      </trkpt>
      <trkpt lat="47.24191" lon="-2.30294">
        <ele>17.799999237061</ele>
        <time>2020-03-15T08:23:08.000Z</time>
      </trkpt>
      <trkpt lat="47.2419" lon="-2.30286">
        <ele>17.39999961853</ele>
        <time>2020-03-15T08:23:09.000Z</time>
      </trkpt>
      <trkpt lat="47.2419" lon="-2.30277">
        <ele>16.799999237061</ele>
        <time>2020-03-15T08:23:10.000Z</time>
      </trkpt>
      <trkpt lat="47.24189" lon="-2.30268">
        <ele>16.39999961853</ele>
        <time>2020-03-15T08:23:11.000Z</time>
      </trkpt>
      <trkpt lat="47.24188" lon="-2.30253">
        <ele>16.39999961853</ele>
        <time>2020-03-15T08:23:13.000Z</time>
      </trkpt>
      <trkpt lat="47.24189" lon="-2.30246">
        <ele>16.39999961853</ele>
        <time>2020-03-15T08:23:14.000Z</time>
      </trkpt>
      <trkpt lat="47.2419" lon="-2.30238">
        <ele>16.39999961853</ele>
        <time>2020-03-15T08:23:16.000Z</time>
      </trkpt>
      <trkpt lat="47.24189" lon="-2.30235">
        <ele>16.39999961853</ele>
        <time>2020-03-15T08:23:17.000Z</time>
      </trkpt>
      <trkpt lat="47.24184" lon="-2.30238">
        <ele>16.39999961853</ele>
        <time>2020-03-15T08:23:19.000Z</time>
      </trkpt>
      <trkpt lat="47.24169" lon="-2.30244">
        <ele>16.39999961853</ele>
        <time>2020-03-15T08:23:23.000Z</time>
      </trkpt>
      <trkpt lat="47.24161" lon="-2.30235">
        <ele>16.39999961853</ele>
        <time>2020-03-15T08:23:26.000Z</time>
      </trkpt>
      <trkpt lat="47.24155" lon="-2.30221">
        <ele>16.39999961853</ele>
        <time>2020-03-15T08:23:30.000Z</time>
      </trkpt>
      <trkpt lat="47.24153" lon="-2.30218">
        <ele>16.39999961853</ele>
        <time>2020-03-15T08:23:31.000Z</time>
      </trkpt>
      <trkpt lat="47.24148" lon="-2.302">
        <ele>16.39999961853</ele>
        <time>2020-03-15T08:23:38.000Z</time>
      </trkpt>
      <trkpt lat="47.24145" lon="-2.30192">
        <ele>16.799999237061</ele>
        <time>2020-03-15T08:23:42.000Z</time>
      </trkpt>
      <trkpt lat="47.24144" lon="-2.3019">
        <ele>17.200000762939</ele>
        <time>2020-03-15T08:23:43.000Z</time>
      </trkpt>
      <trkpt lat="47.24143" lon="-2.30186">
        <ele>17.60000038147</ele>
        <time>2020-03-15T08:23:44.000Z</time>
      </trkpt>
      <trkpt lat="47.24142" lon="-2.30183">
        <ele>18</ele>
        <time>2020-03-15T08:23:45.000Z</time>
      </trkpt>
      <trkpt lat="47.24141" lon="-2.30181">
        <ele>18.39999961853</ele>
        <time>2020-03-15T08:23:46.000Z</time>
      </trkpt>
      <trkpt lat="47.24138" lon="-2.30171">
        <ele>18.39999961853</ele>
        <time>2020-03-15T08:23:51.000Z</time>
      </trkpt>
      <trkpt lat="47.24138" lon="-2.30168">
        <ele>18.39999961853</ele>
        <time>2020-03-15T08:23:52.000Z</time>
      </trkpt>
      <trkpt lat="47.24139" lon="-2.30157">
        <ele>18.39999961853</ele>
        <time>2020-03-15T08:23:57.000Z</time>
      </trkpt>
      <trkpt lat="47.24139" lon="-2.30155">
        <ele>18.39999961853</ele>
        <time>2020-03-15T08:23:58.000Z</time>
      </trkpt>
      <trkpt lat="47.2414" lon="-2.30145">
        <ele>18.799999237061</ele>
        <time>2020-03-15T08:24:03.000Z</time>
      </trkpt>
      <trkpt lat="47.2414" lon="-2.30142">
        <ele>19.200000762939</ele>
        <time>2020-03-15T08:24:04.000Z</time>
      </trkpt>
      <trkpt lat="47.24141" lon="-2.3014">
        <ele>19.60000038147</ele>
        <time>2020-03-15T08:24:05.000Z</time>
      </trkpt>
      <trkpt lat="47.24142" lon="-2.30138">
        <ele>20</ele>
        <time>2020-03-15T08:24:06.000Z</time>
      </trkpt>
      <trkpt lat="47.24142" lon="-2.30134">
        <ele>20.39999961853</ele>
        <time>2020-03-15T08:24:07.000Z</time>
      </trkpt>
      <trkpt lat="47.24144" lon="-2.30126">
        <ele>20.39999961853</ele>
        <time>2020-03-15T08:24:12.000Z</time>
      </trkpt>
      <trkpt lat="47.24141" lon="-2.30095">
        <ele>21.200000762939</ele>
        <time>2020-03-15T08:25:36.000Z</time>
      </trkpt>
      <trkpt lat="47.2414" lon="-2.30094">
        <ele>21.60000038147</ele>
        <time>2020-03-15T08:25:37.000Z</time>
      </trkpt>
      <trkpt lat="47.24138" lon="-2.30093">
        <ele>22</ele>
        <time>2020-03-15T08:25:38.000Z</time>
      </trkpt>
      <trkpt lat="47.24136" lon="-2.30092">
        <ele>22.39999961853</ele>
        <time>2020-03-15T08:25:39.000Z</time>
      </trkpt>
      <trkpt lat="47.24128" lon="-2.30092">
        <ele>22.39999961853</ele>
        <time>2020-03-15T08:25:42.000Z</time>
      </trkpt>
      <trkpt lat="47.24126" lon="-2.30091">
        <ele>22.799999237061</ele>
        <time>2020-03-15T08:25:43.000Z</time>
      </trkpt>
      <trkpt lat="47.24123" lon="-2.30091">
        <ele>23.200000762939</ele>
        <time>2020-03-15T08:25:44.000Z</time>
      </trkpt>
      <trkpt lat="47.2412" lon="-2.30091">
        <ele>23.60000038147</ele>
        <time>2020-03-15T08:25:45.000Z</time>
      </trkpt>
      <trkpt lat="47.24118" lon="-2.30092">
        <ele>24</ele>
        <time>2020-03-15T08:25:46.000Z</time>
      </trkpt>
      <trkpt lat="47.24116" lon="-2.30094">
        <ele>24.39999961853</ele>
        <time>2020-03-15T08:25:47.000Z</time>
      </trkpt>
      <trkpt lat="47.24116" lon="-2.30097">
        <ele>24.39999961853</ele>
        <time>2020-03-15T08:25:48.000Z</time>
      </trkpt>
      <trkpt lat="47.24108" lon="-2.30114">
        <ele>24.39999961853</ele>
        <time>2020-03-15T08:25:54.000Z</time>
      </trkpt>
      <trkpt lat="47.24108" lon="-2.3012">
        <ele>24.39999961853</ele>
        <time>2020-03-15T08:25:56.000Z</time>
      </trkpt>
      <trkpt lat="47.24104" lon="-2.30126">
        <ele>24.39999961853</ele>
        <time>2020-03-15T08:25:59.000Z</time>
      </trkpt>
      <trkpt lat="47.24102" lon="-2.30126">
        <ele>24.39999961853</ele>
        <time>2020-03-15T08:26:00.000Z</time>
      </trkpt>
      <trkpt lat="47.24093" lon="-2.30127">
        <ele>24.39999961853</ele>
        <time>2020-03-15T08:26:04.000Z</time>
      </trkpt>
      <trkpt lat="47.2409" lon="-2.30137">
        <ele>24.39999961853</ele>
        <time>2020-03-15T08:26:09.000Z</time>
      </trkpt>
      <trkpt lat="47.24091" lon="-2.30149">
        <ele>24.39999961853</ele>
        <time>2020-03-15T08:26:13.000Z</time>
      </trkpt>
      <trkpt lat="47.24085" lon="-2.30152">
        <ele>24.39999961853</ele>
        <time>2020-03-15T08:26:16.000Z</time>
      </trkpt>
      <trkpt lat="47.2407" lon="-2.30168">
        <ele>24.39999961853</ele>
        <time>2020-03-15T08:26:21.000Z</time>
      </trkpt>
      <trkpt lat="47.2405" lon="-2.30185">
        <ele>24.39999961853</ele>
        <time>2020-03-15T08:26:26.000Z</time>
      </trkpt>
      <trkpt lat="47.24046" lon="-2.30186">
        <ele>24.39999961853</ele>
        <time>2020-03-15T08:26:27.000Z</time>
      </trkpt>
      <trkpt lat="47.24039" lon="-2.30185">
        <ele>24.39999961853</ele>
        <time>2020-03-15T08:26:29.000Z</time>
      </trkpt>
      <trkpt lat="47.24028" lon="-2.30176">
        <ele>24.39999961853</ele>
        <time>2020-03-15T08:26:34.000Z</time>
      </trkpt>
      <trkpt lat="47.24012" lon="-2.30162">
        <ele>24.39999961853</ele>
        <time>2020-03-15T08:26:40.000Z</time>
      </trkpt>
      <trkpt lat="47.24005" lon="-2.30143">
        <ele>24.39999961853</ele>
        <time>2020-03-15T08:26:45.000Z</time>
      </trkpt>
      <trkpt lat="47.24003" lon="-2.30135">
        <ele>24.39999961853</ele>
        <time>2020-03-15T08:26:48.000Z</time>
      </trkpt>
      <trkpt lat="47.24006" lon="-2.30132">
        <ele>24.39999961853</ele>
        <time>2020-03-15T08:26:50.000Z</time>
      </trkpt>
      <trkpt lat="47.24012" lon="-2.30122">
        <ele>24.39999961853</ele>
        <time>2020-03-15T08:26:55.000Z</time>
      </trkpt>
      <trkpt lat="47.24021" lon="-2.30098">
        <ele>24.39999961853</ele>
        <time>2020-03-15T08:27:00.000Z</time>
      </trkpt>
      <trkpt lat="47.24022" lon="-2.30093">
        <ele>24.39999961853</ele>
        <time>2020-03-15T08:27:01.000Z</time>
      </trkpt>
      <trkpt lat="47.24023" lon="-2.30079">
        <ele>24.39999961853</ele>
        <time>2020-03-15T08:27:04.000Z</time>
      </trkpt>
      <trkpt lat="47.24023" lon="-2.30075">
        <ele>24.39999961853</ele>
        <time>2020-03-15T08:27:05.000Z</time>
      </trkpt>
      <trkpt lat="47.24024" lon="-2.30055">
        <ele>24.39999961853</ele>
        <time>2020-03-15T08:27:11.000Z</time>
      </trkpt>
      <trkpt lat="47.24028" lon="-2.30041">
        <ele>24.39999961853</ele>
        <time>2020-03-15T08:27:15.000Z</time>
      </trkpt>
      <trkpt lat="47.24031" lon="-2.30041">
        <ele>24.39999961853</ele>
        <time>2020-03-15T08:27:16.000Z</time>
      </trkpt>
      <trkpt lat="47.24035" lon="-2.3004">
        <ele>25</ele>
        <time>2020-03-15T08:27:19.000Z</time>
      </trkpt>
      <trkpt lat="47.24037" lon="-2.3004">
        <ele>25.39999961853</ele>
        <time>2020-03-15T08:27:20.000Z</time>
      </trkpt>
      <trkpt lat="47.2404" lon="-2.3004">
        <ele>25.799999237061</ele>
        <time>2020-03-15T08:27:21.000Z</time>
      </trkpt>
      <trkpt lat="47.24045" lon="-2.30039">
        <ele>26.200000762939</ele>
        <time>2020-03-15T08:27:22.000Z</time>
      </trkpt>
      <trkpt lat="47.2405" lon="-2.30039">
        <ele>26.60000038147</ele>
        <time>2020-03-15T08:27:23.000Z</time>
      </trkpt>
      <trkpt lat="47.24059" lon="-2.30038">
        <ele>26.60000038147</ele>
        <time>2020-03-15T08:27:25.000Z</time>
      </trkpt>
      <trkpt lat="47.24077" lon="-2.30023">
        <ele>26.60000038147</ele>
        <time>2020-03-15T08:27:29.000Z</time>
      </trkpt>
      <trkpt lat="47.24078" lon="-2.30006">
        <ele>26.60000038147</ele>
        <time>2020-03-15T08:27:33.000Z</time>
      </trkpt>
      <trkpt lat="47.24079" lon="-2.29981">
        <ele>26.60000038147</ele>
        <time>2020-03-15T08:27:40.000Z</time>
      </trkpt>
      <trkpt lat="47.24082" lon="-2.29978">
        <ele>26.60000038147</ele>
        <time>2020-03-15T08:27:42.000Z</time>
      </trkpt>
      <trkpt lat="47.24086" lon="-2.29977">
        <ele>26.60000038147</ele>
        <time>2020-03-15T08:27:44.000Z</time>
      </trkpt>
      <trkpt lat="47.24102" lon="-2.29981">
        <ele>26.60000038147</ele>
        <time>2020-03-15T08:27:49.000Z</time>
      </trkpt>
      <trkpt lat="47.24112" lon="-2.29982">
        <ele>26.60000038147</ele>
        <time>2020-03-15T08:27:52.000Z</time>
      </trkpt>
      <trkpt lat="47.24124" lon="-2.29982">
        <ele>26.60000038147</ele>
        <time>2020-03-15T08:27:55.000Z</time>
      </trkpt>
      <trkpt lat="47.24135" lon="-2.2998">
        <ele>26.60000038147</ele>
        <time>2020-03-15T08:27:58.000Z</time>
      </trkpt>
      <trkpt lat="47.24138" lon="-2.2998">
        <ele>26.60000038147</ele>
        <time>2020-03-15T08:27:59.000Z</time>
      </trkpt>
      <trkpt lat="47.24146" lon="-2.29983">
        <ele>26.60000038147</ele>
        <time>2020-03-15T08:28:02.000Z</time>
      </trkpt>
      <trkpt lat="47.24153" lon="-2.29989">
        <ele>26.60000038147</ele>
        <time>2020-03-15T08:28:04.000Z</time>
      </trkpt>
      <trkpt lat="47.24165" lon="-2.30008">
        <ele>26.60000038147</ele>
        <time>2020-03-15T08:28:09.000Z</time>
      </trkpt>
      <trkpt lat="47.24172" lon="-2.30014">
        <ele>26.60000038147</ele>
        <time>2020-03-15T08:28:11.000Z</time>
      </trkpt>
      <trkpt lat="47.24174" lon="-2.3002">
        <ele>26.60000038147</ele>
        <time>2020-03-15T08:28:13.000Z</time>
      </trkpt>
      <trkpt lat="47.24173" lon="-2.30025">
        <ele>26.60000038147</ele>
        <time>2020-03-15T08:28:16.000Z</time>
      </trkpt>
      <trkpt lat="47.2417" lon="-2.30027">
        <ele>26.60000038147</ele>
        <time>2020-03-15T08:28:19.000Z</time>
      </trkpt>
      <trkpt lat="47.24167" lon="-2.30026">
        <ele>26.60000038147</ele>
        <time>2020-03-15T08:28:21.000Z</time>
      </trkpt>
      <trkpt lat="47.2416" lon="-2.30024">
        <ele>26.60000038147</ele>
        <time>2020-03-15T08:28:24.000Z</time>
      </trkpt>
      <trkpt lat="47.24153" lon="-2.30026">
        <ele>26.60000038147</ele>
        <time>2020-03-15T08:28:29.000Z</time>
      </trkpt>
      <trkpt lat="47.24153" lon="-2.30032">
        <ele>26.60000038147</ele>
        <time>2020-03-15T08:28:31.000Z</time>
      </trkpt>
      <trkpt lat="47.24156" lon="-2.30044">
        <ele>25.60000038147</ele>
        <time>2020-03-15T08:28:34.000Z</time>
      </trkpt>
      <trkpt lat="47.24156" lon="-2.30048">
        <ele>25.200000762939</ele>
        <time>2020-03-15T08:28:35.000Z</time>
      </trkpt>
      <trkpt lat="47.24156" lon="-2.3005">
        <ele>24.60000038147</ele>
        <time>2020-03-15T08:28:36.000Z</time>
      </trkpt>
      <trkpt lat="47.24156" lon="-2.30056">
        <ele>24.200000762939</ele>
        <time>2020-03-15T08:28:37.000Z</time>
      </trkpt>
      <trkpt lat="47.24156" lon="-2.30063">
        <ele>24.200000762939</ele>
        <time>2020-03-15T08:28:39.000Z</time>
      </trkpt>
      <trkpt lat="47.24154" lon="-2.30068">
        <ele>24.200000762939</ele>
        <time>2020-03-15T08:28:41.000Z</time>
      </trkpt>
      <trkpt lat="47.24144" lon="-2.30044">
        <ele>24.60000038147</ele>
        <time>2020-03-15T08:28:56.000Z</time>
      </trkpt>
      <trkpt lat="47.24143" lon="-2.30041">
        <ele>25</ele>
        <time>2020-03-15T08:28:57.000Z</time>
      </trkpt>
      <trkpt lat="47.24142" lon="-2.30037">
        <ele>25.799999237061</ele>
        <time>2020-03-15T08:28:58.000Z</time>
      </trkpt>
      <trkpt lat="47.24141" lon="-2.30033">
        <ele>26.200000762939</ele>
        <time>2020-03-15T08:28:59.000Z</time>
      </trkpt>
      <trkpt lat="47.24143" lon="-2.30025">
        <ele>26.200000762939</ele>
        <time>2020-03-15T08:29:02.000Z</time>
      </trkpt>
      <trkpt lat="47.24148" lon="-2.30004">
        <ele>26.200000762939</ele>
        <time>2020-03-15T08:29:08.000Z</time>
      </trkpt>
      <trkpt lat="47.2415" lon="-2.30002">
        <ele>26.200000762939</ele>
        <time>2020-03-15T08:29:09.000Z</time>
      </trkpt>
      <trkpt lat="47.24152" lon="-2.30001">
        <ele>26.200000762939</ele>
        <time>2020-03-15T08:29:10.000Z</time>
      </trkpt>
      <trkpt lat="47.24155" lon="-2.30004">
        <ele>26.200000762939</ele>
        <time>2020-03-15T08:29:13.000Z</time>
      </trkpt>
      <trkpt lat="47.24161" lon="-2.30031">
        <ele>26.200000762939</ele>
        <time>2020-03-15T08:29:18.000Z</time>
      </trkpt>
      <trkpt lat="47.24163" lon="-2.30079">
        <ele>25.799999237061</ele>
        <time>2020-03-15T08:29:24.000Z</time>
      </trkpt>
      <trkpt lat="47.24163" lon="-2.30088">
        <ele>25.39999961853</ele>
        <time>2020-03-15T08:29:25.000Z</time>
      </trkpt>
      <trkpt lat="47.24164" lon="-2.30097">
        <ele>25</ele>
        <time>2020-03-15T08:29:26.000Z</time>
      </trkpt>
      <trkpt lat="47.24162" lon="-2.30105">
        <ele>24.39999961853</ele>
        <time>2020-03-15T08:29:27.000Z</time>
      </trkpt>
      <trkpt lat="47.2416" lon="-2.30112">
        <ele>24</ele>
        <time>2020-03-15T08:29:28.000Z</time>
      </trkpt>
      <trkpt lat="47.24158" lon="-2.30119">
        <ele>23.60000038147</ele>
        <time>2020-03-15T08:29:29.000Z</time>
      </trkpt>
      <trkpt lat="47.24155" lon="-2.30124">
        <ele>23</ele>
        <time>2020-03-15T08:29:30.000Z</time>
      </trkpt>
      <trkpt lat="47.24152" lon="-2.30129">
        <ele>22.60000038147</ele>
        <time>2020-03-15T08:29:31.000Z</time>
      </trkpt>
      <trkpt lat="47.24147" lon="-2.30134">
        <ele>22.200000762939</ele>
        <time>2020-03-15T08:29:32.000Z</time>
      </trkpt>
      <trkpt lat="47.24145" lon="-2.30138">
        <ele>21.60000038147</ele>
        <time>2020-03-15T08:29:33.000Z</time>
      </trkpt>
      <trkpt lat="47.24139" lon="-2.30145">
        <ele>21.60000038147</ele>
        <time>2020-03-15T08:29:35.000Z</time>
      </trkpt>
      <trkpt lat="47.24133" lon="-2.30148">
        <ele>21.60000038147</ele>
        <time>2020-03-15T08:29:36.000Z</time>
      </trkpt>
      <trkpt lat="47.24122" lon="-2.30152">
        <ele>21.60000038147</ele>
        <time>2020-03-15T08:29:39.000Z</time>
      </trkpt>
      <trkpt lat="47.2411" lon="-2.30154">
        <ele>22.200000762939</ele>
        <time>2020-03-15T08:29:42.000Z</time>
      </trkpt>
      <trkpt lat="47.24107" lon="-2.30154">
        <ele>22.60000038147</ele>
        <time>2020-03-15T08:29:43.000Z</time>
      </trkpt>
      <trkpt lat="47.24103" lon="-2.30154">
        <ele>23</ele>
        <time>2020-03-15T08:29:44.000Z</time>
      </trkpt>
      <trkpt lat="47.241" lon="-2.30154">
        <ele>23.39999961853</ele>
        <time>2020-03-15T08:29:45.000Z</time>
      </trkpt>
      <trkpt lat="47.24097" lon="-2.30155">
        <ele>23.799999237061</ele>
        <time>2020-03-15T08:29:46.000Z</time>
      </trkpt>
      <trkpt lat="47.24087" lon="-2.30165">
        <ele>23.799999237061</ele>
        <time>2020-03-15T08:29:49.000Z</time>
      </trkpt>
      <trkpt lat="47.24074" lon="-2.30169">
        <ele>23.799999237061</ele>
        <time>2020-03-15T08:29:52.000Z</time>
      </trkpt>
      <trkpt lat="47.24073" lon="-2.30167">
        <ele>23.799999237061</ele>
        <time>2020-03-15T08:29:53.000Z</time>
      </trkpt>
      <trkpt lat="47.24074" lon="-2.30158">
        <ele>23.799999237061</ele>
        <time>2020-03-15T08:29:58.000Z</time>
      </trkpt>
      <trkpt lat="47.24075" lon="-2.30158">
        <ele>23.799999237061</ele>
        <time>2020-03-15T08:29:59.000Z</time>
      </trkpt>
      <trkpt lat="47.24081" lon="-2.30157">
        <ele>23.799999237061</ele>
        <time>2020-03-15T08:30:02.000Z</time>
      </trkpt>
      <trkpt lat="47.24089" lon="-2.30153">
        <ele>23.799999237061</ele>
        <time>2020-03-15T08:30:06.000Z</time>
      </trkpt>
      <trkpt lat="47.24099" lon="-2.30155">
        <ele>23.799999237061</ele>
        <time>2020-03-15T08:30:12.000Z</time>
      </trkpt>
      <trkpt lat="47.24103" lon="-2.30156">
        <ele>23.799999237061</ele>
        <time>2020-03-15T08:30:14.000Z</time>
      </trkpt>
      <trkpt lat="47.2411" lon="-2.30148">
        <ele>23.799999237061</ele>
        <time>2020-03-15T08:30:17.000Z</time>
      </trkpt>
      <trkpt lat="47.24119" lon="-2.30137">
        <ele>23.39999961853</ele>
        <time>2020-03-15T08:30:21.000Z</time>
      </trkpt>
      <trkpt lat="47.24121" lon="-2.30131">
        <ele>23</ele>
        <time>2020-03-15T08:30:22.000Z</time>
      </trkpt>
      <trkpt lat="47.24124" lon="-2.30125">
        <ele>22.60000038147</ele>
        <time>2020-03-15T08:30:23.000Z</time>
      </trkpt>
      <trkpt lat="47.24126" lon="-2.30118">
        <ele>22.200000762939</ele>
        <time>2020-03-15T08:30:24.000Z</time>
      </trkpt>
      <trkpt lat="47.24128" lon="-2.30111">
        <ele>21.799999237061</ele>
        <time>2020-03-15T08:30:25.000Z</time>
      </trkpt>
      <trkpt lat="47.2413" lon="-2.30099">
        <ele>21.799999237061</ele>
        <time>2020-03-15T08:30:27.000Z</time>
      </trkpt>
      <trkpt lat="47.24147" lon="-2.30067">
        <ele>21.799999237061</ele>
        <time>2020-03-15T08:30:32.000Z</time>
      </trkpt>
      <trkpt lat="47.24152" lon="-2.30056">
        <ele>22.200000762939</ele>
        <time>2020-03-15T08:30:34.000Z</time>
      </trkpt>
      <trkpt lat="47.24155" lon="-2.30051">
        <ele>22.60000038147</ele>
        <time>2020-03-15T08:30:35.000Z</time>
      </trkpt>
      <trkpt lat="47.24156" lon="-2.30047">
        <ele>23.200000762939</ele>
        <time>2020-03-15T08:30:36.000Z</time>
      </trkpt>
      <trkpt lat="47.24157" lon="-2.30043">
        <ele>24</ele>
        <time>2020-03-15T08:30:37.000Z</time>
      </trkpt>
      <trkpt lat="47.24157" lon="-2.3004">
        <ele>24</ele>
        <time>2020-03-15T08:30:38.000Z</time>
      </trkpt>
      <trkpt lat="47.2416" lon="-2.30036">
        <ele>24</ele>
        <time>2020-03-15T08:30:41.000Z</time>
      </trkpt>
      <trkpt lat="47.24172" lon="-2.30031">
        <ele>26.200000762939</ele>
        <time>2020-03-15T08:30:49.000Z</time>
      </trkpt>
      <trkpt lat="47.24173" lon="-2.30027">
        <ele>26.200000762939</ele>
        <time>2020-03-15T08:30:50.000Z</time>
      </trkpt>
      <trkpt lat="47.24174" lon="-2.30023">
        <ele>26.200000762939</ele>
        <time>2020-03-15T08:30:51.000Z</time>
      </trkpt>
      <trkpt lat="47.24174" lon="-2.30015">
        <ele>26.200000762939</ele>
        <time>2020-03-15T08:30:54.000Z</time>
      </trkpt>
      <trkpt lat="47.24174" lon="-2.30011">
        <ele>26.200000762939</ele>
        <time>2020-03-15T08:30:56.000Z</time>
      </trkpt>
      <trkpt lat="47.24172" lon="-2.30001">
        <ele>26.200000762939</ele>
        <time>2020-03-15T08:31:01.000Z</time>
      </trkpt>
      <trkpt lat="47.24171" lon="-2.29996">
        <ele>26.200000762939</ele>
        <time>2020-03-15T08:31:04.000Z</time>
      </trkpt>
      <trkpt lat="47.24167" lon="-2.2999">
        <ele>26.200000762939</ele>
        <time>2020-03-15T08:31:07.000Z</time>
      </trkpt>
      <trkpt lat="47.2416" lon="-2.29977">
        <ele>26.200000762939</ele>
        <time>2020-03-15T08:31:14.000Z</time>
      </trkpt>
      <trkpt lat="47.2416" lon="-2.29975">
        <ele>26.200000762939</ele>
        <time>2020-03-15T08:31:15.000Z</time>
      </trkpt>
      <trkpt lat="47.24163" lon="-2.29956">
        <ele>26.200000762939</ele>
        <time>2020-03-15T08:31:19.000Z</time>
      </trkpt>
      <trkpt lat="47.24169" lon="-2.2993">
        <ele>26.200000762939</ele>
        <time>2020-03-15T08:31:24.000Z</time>
      </trkpt>
      <trkpt lat="47.24176" lon="-2.29902">
        <ele>26.200000762939</ele>
        <time>2020-03-15T08:31:30.000Z</time>
      </trkpt>
      <trkpt lat="47.24177" lon="-2.29895">
        <ele>26.60000038147</ele>
        <time>2020-03-15T08:31:32.000Z</time>
      </trkpt>
      <trkpt lat="47.24177" lon="-2.29892">
        <ele>27</ele>
        <time>2020-03-15T08:31:33.000Z</time>
      </trkpt>
      <trkpt lat="47.24177" lon="-2.29888">
        <ele>27.39999961853</ele>
        <time>2020-03-15T08:31:34.000Z</time>
      </trkpt>
      <trkpt lat="47.24177" lon="-2.29886">
        <ele>27.799999237061</ele>
        <time>2020-03-15T08:31:35.000Z</time>
      </trkpt>
      <trkpt lat="47.24177" lon="-2.29882">
        <ele>28.200000762939</ele>
        <time>2020-03-15T08:31:36.000Z</time>
      </trkpt>
      <trkpt lat="47.24175" lon="-2.29865">
        <ele>28.200000762939</ele>
        <time>2020-03-15T08:31:40.000Z</time>
      </trkpt>
      <trkpt lat="47.24177" lon="-2.29839">
        <ele>28.200000762939</ele>
        <time>2020-03-15T08:31:45.000Z</time>
      </trkpt>
      <trkpt lat="47.24176" lon="-2.29837">
        <ele>28.200000762939</ele>
        <time>2020-03-15T08:31:46.000Z</time>
      </trkpt>
      <trkpt lat="47.24172" lon="-2.29837">
        <ele>28.200000762939</ele>
        <time>2020-03-15T08:31:47.000Z</time>
      </trkpt>
      <trkpt lat="47.24164" lon="-2.29838">
        <ele>28.200000762939</ele>
        <time>2020-03-15T08:31:49.000Z</time>
      </trkpt>
      <trkpt lat="47.24142" lon="-2.29842">
        <ele>28.200000762939</ele>
        <time>2020-03-15T08:31:54.000Z</time>
      </trkpt>
      <trkpt lat="47.24116" lon="-2.29848">
        <ele>28.200000762939</ele>
        <time>2020-03-15T08:32:00.000Z</time>
      </trkpt>
      <trkpt lat="47.24095" lon="-2.29848">
        <ele>28.200000762939</ele>
        <time>2020-03-15T08:32:05.000Z</time>
      </trkpt>
      <trkpt lat="47.24081" lon="-2.2984">
        <ele>28.200000762939</ele>
        <time>2020-03-15T08:32:10.000Z</time>
      </trkpt>
      <trkpt lat="47.24077" lon="-2.29821">
        <ele>28.200000762939</ele>
        <time>2020-03-15T08:32:14.000Z</time>
      </trkpt>
      <trkpt lat="47.24076" lon="-2.29806">
        <ele>28.200000762939</ele>
        <time>2020-03-15T08:32:17.000Z</time>
      </trkpt>
      <trkpt lat="47.24074" lon="-2.29803">
        <ele>28.200000762939</ele>
        <time>2020-03-15T08:32:18.000Z</time>
      </trkpt>
      <trkpt lat="47.24072" lon="-2.29801">
        <ele>28.200000762939</ele>
        <time>2020-03-15T08:32:19.000Z</time>
      </trkpt>
      <trkpt lat="47.24065" lon="-2.29798">
        <ele>28.200000762939</ele>
        <time>2020-03-15T08:32:22.000Z</time>
      </trkpt>
      <trkpt lat="47.24047" lon="-2.29798">
        <ele>28.200000762939</ele>
        <time>2020-03-15T08:32:28.000Z</time>
      </trkpt>
      <trkpt lat="47.2403" lon="-2.29799">
        <ele>28.200000762939</ele>
        <time>2020-03-15T08:32:33.000Z</time>
      </trkpt>
      <trkpt lat="47.24028" lon="-2.29801">
        <ele>28.200000762939</ele>
        <time>2020-03-15T08:32:34.000Z</time>
      </trkpt>
      <trkpt lat="47.24028" lon="-2.29804">
        <ele>28.200000762939</ele>
        <time>2020-03-15T08:32:36.000Z</time>
      </trkpt>
      <trkpt lat="47.24032" lon="-2.29806">
        <ele>28.200000762939</ele>
        <time>2020-03-15T08:32:40.000Z</time>
      </trkpt>
      <trkpt lat="47.24033" lon="-2.29807">
        <ele>28.200000762939</ele>
        <time>2020-03-15T08:32:41.000Z</time>
      </trkpt>
      <trkpt lat="47.24034" lon="-2.29816">
        <ele>28.200000762939</ele>
        <time>2020-03-15T08:32:45.000Z</time>
      </trkpt>
      <trkpt lat="47.24034" lon="-2.29819">
        <ele>28.200000762939</ele>
        <time>2020-03-15T08:32:46.000Z</time>
      </trkpt>
      <trkpt lat="47.24034" lon="-2.29841">
        <ele>28.200000762939</ele>
        <time>2020-03-15T08:32:52.000Z</time>
      </trkpt>
      <trkpt lat="47.24033" lon="-2.29866">
        <ele>28.200000762939</ele>
        <time>2020-03-15T08:32:59.000Z</time>
      </trkpt>
      <trkpt lat="47.24032" lon="-2.29873">
        <ele>28.200000762939</ele>
        <time>2020-03-15T08:33:01.000Z</time>
      </trkpt>
      <trkpt lat="47.24027" lon="-2.29888">
        <ele>28.200000762939</ele>
        <time>2020-03-15T08:33:05.000Z</time>
      </trkpt>
      <trkpt lat="47.24029" lon="-2.29899">
        <ele>28.200000762939</ele>
        <time>2020-03-15T08:33:09.000Z</time>
      </trkpt>
      <trkpt lat="47.24033" lon="-2.29898">
        <ele>28.200000762939</ele>
        <time>2020-03-15T08:33:11.000Z</time>
      </trkpt>
      <trkpt lat="47.24036" lon="-2.29893">
        <ele>28.200000762939</ele>
        <time>2020-03-15T08:33:13.000Z</time>
      </trkpt>
      <trkpt lat="47.24038" lon="-2.29889">
        <ele>28.200000762939</ele>
        <time>2020-03-15T08:33:14.000Z</time>
      </trkpt>
      <trkpt lat="47.24049" lon="-2.29858">
        <ele>28.200000762939</ele>
        <time>2020-03-15T08:33:20.000Z</time>
      </trkpt>
      <trkpt lat="47.24056" lon="-2.29831">
        <ele>28.200000762939</ele>
        <time>2020-03-15T08:33:26.000Z</time>
      </trkpt>
      <trkpt lat="47.24064" lon="-2.29802">
        <ele>28.200000762939</ele>
        <time>2020-03-15T08:33:33.000Z</time>
      </trkpt>
      <trkpt lat="47.24076" lon="-2.2981">
        <ele>28.200000762939</ele>
        <time>2020-03-15T08:33:37.000Z</time>
      </trkpt>
      <trkpt lat="47.24077" lon="-2.29815">
        <ele>28.200000762939</ele>
        <time>2020-03-15T08:33:38.000Z</time>
      </trkpt>
      <trkpt lat="47.24079" lon="-2.29832">
        <ele>28.200000762939</ele>
        <time>2020-03-15T08:33:42.000Z</time>
      </trkpt>
      <trkpt lat="47.24077" lon="-2.29862">
        <ele>28.200000762939</ele>
        <time>2020-03-15T08:33:48.000Z</time>
      </trkpt>
      <trkpt lat="47.24076" lon="-2.29907">
        <ele>28.200000762939</ele>
        <time>2020-03-15T08:33:54.000Z</time>
      </trkpt>
      <trkpt lat="47.24075" lon="-2.29916">
        <ele>28.200000762939</ele>
        <time>2020-03-15T08:33:55.000Z</time>
      </trkpt>
      <trkpt lat="47.24074" lon="-2.29939">
        <ele>28.200000762939</ele>
        <time>2020-03-15T08:33:59.000Z</time>
      </trkpt>
      <trkpt lat="47.24081" lon="-2.29944">
        <ele>28.200000762939</ele>
        <time>2020-03-15T08:34:03.000Z</time>
      </trkpt>
      <trkpt lat="47.24095" lon="-2.29949">
        <ele>28.200000762939</ele>
        <time>2020-03-15T08:34:08.000Z</time>
      </trkpt>
      <trkpt lat="47.24105" lon="-2.2997">
        <ele>28.200000762939</ele>
        <time>2020-03-15T08:34:14.000Z</time>
      </trkpt>
      <trkpt lat="47.24108" lon="-2.29972">
        <ele>28.200000762939</ele>
        <time>2020-03-15T08:34:16.000Z</time>
      </trkpt>
      <trkpt lat="47.24111" lon="-2.29974">
        <ele>28.200000762939</ele>
        <time>2020-03-15T08:34:18.000Z</time>
      </trkpt>
      <trkpt lat="47.24127" lon="-2.29974">
        <ele>28.200000762939</ele>
        <time>2020-03-15T08:34:23.000Z</time>
      </trkpt>
      <trkpt lat="47.24146" lon="-2.29981">
        <ele>28.200000762939</ele>
        <time>2020-03-15T08:34:29.000Z</time>
      </trkpt>
      <trkpt lat="47.24163" lon="-2.29995">
        <ele>28.200000762939</ele>
        <time>2020-03-15T08:34:35.000Z</time>
      </trkpt>
      <trkpt lat="47.24158" lon="-2.30007">
        <ele>27.799999237061</ele>
        <time>2020-03-15T08:34:40.000Z</time>
      </trkpt>
      <trkpt lat="47.24159" lon="-2.30015">
        <ele>27.39999961853</ele>
        <time>2020-03-15T08:34:41.000Z</time>
      </trkpt>
      <trkpt lat="47.2416" lon="-2.30021">
        <ele>27</ele>
        <time>2020-03-15T08:34:42.000Z</time>
      </trkpt>
      <trkpt lat="47.24161" lon="-2.30028">
        <ele>26.60000038147</ele>
        <time>2020-03-15T08:34:43.000Z</time>
      </trkpt>
      <trkpt lat="47.24162" lon="-2.30033">
        <ele>26.200000762939</ele>
        <time>2020-03-15T08:34:44.000Z</time>
      </trkpt>
      <trkpt lat="47.24164" lon="-2.30053">
        <ele>26.200000762939</ele>
        <time>2020-03-15T08:34:47.000Z</time>
      </trkpt>
      <trkpt lat="47.24166" lon="-2.30063">
        <ele>26.200000762939</ele>
        <time>2020-03-15T08:34:48.000Z</time>
      </trkpt>
      <trkpt lat="47.24164" lon="-2.30075">
        <ele>25.799999237061</ele>
        <time>2020-03-15T08:34:49.000Z</time>
      </trkpt>
      <trkpt lat="47.24163" lon="-2.30084">
        <ele>25.39999961853</ele>
        <time>2020-03-15T08:34:50.000Z</time>
      </trkpt>
      <trkpt lat="47.24162" lon="-2.30093">
        <ele>25</ele>
        <time>2020-03-15T08:34:51.000Z</time>
      </trkpt>
      <trkpt lat="47.2416" lon="-2.30101">
        <ele>24.60000038147</ele>
        <time>2020-03-15T08:34:52.000Z</time>
      </trkpt>
      <trkpt lat="47.24159" lon="-2.30108">
        <ele>24.200000762939</ele>
        <time>2020-03-15T08:34:53.000Z</time>
      </trkpt>
      <trkpt lat="47.24155" lon="-2.30115">
        <ele>24.200000762939</ele>
        <time>2020-03-15T08:34:54.000Z</time>
      </trkpt>
      <trkpt lat="47.24143" lon="-2.30134">
        <ele>24.200000762939</ele>
        <time>2020-03-15T08:34:58.000Z</time>
      </trkpt>
      <trkpt lat="47.24129" lon="-2.30142">
        <ele>24.200000762939</ele>
        <time>2020-03-15T08:35:01.000Z</time>
      </trkpt>
      <trkpt lat="47.24126" lon="-2.30144">
        <ele>24.200000762939</ele>
        <time>2020-03-15T08:35:02.000Z</time>
      </trkpt>
      <trkpt lat="47.24108" lon="-2.30153">
        <ele>24.200000762939</ele>
        <time>2020-03-15T08:35:07.000Z</time>
      </trkpt>
      <trkpt lat="47.24095" lon="-2.30156">
        <ele>24.200000762939</ele>
        <time>2020-03-15T08:35:11.000Z</time>
      </trkpt>
      <trkpt lat="47.2409" lon="-2.30162">
        <ele>24.200000762939</ele>
        <time>2020-03-15T08:35:13.000Z</time>
      </trkpt>
      <trkpt lat="47.24065" lon="-2.30176">
        <ele>24.200000762939</ele>
        <time>2020-03-15T08:35:18.000Z</time>
      </trkpt>
      <trkpt lat="47.2406" lon="-2.30178">
        <ele>24.200000762939</ele>
        <time>2020-03-15T08:35:19.000Z</time>
      </trkpt>
      <trkpt lat="47.24051" lon="-2.30186">
        <ele>24.200000762939</ele>
        <time>2020-03-15T08:35:23.000Z</time>
      </trkpt>
      <trkpt lat="47.24045" lon="-2.30188">
        <ele>24.200000762939</ele>
        <time>2020-03-15T08:35:26.000Z</time>
      </trkpt>
      <trkpt lat="47.24039" lon="-2.30188">
        <ele>24.200000762939</ele>
        <time>2020-03-15T08:35:29.000Z</time>
      </trkpt>
      <trkpt lat="47.2403" lon="-2.30186">
        <ele>24.200000762939</ele>
        <time>2020-03-15T08:35:34.000Z</time>
      </trkpt>
      <trkpt lat="47.24028" lon="-2.30183">
        <ele>24.200000762939</ele>
        <time>2020-03-15T08:35:35.000Z</time>
      </trkpt>
      <trkpt lat="47.24027" lon="-2.30178">
        <ele>24.60000038147</ele>
        <time>2020-03-15T08:35:37.000Z</time>
      </trkpt>
      <trkpt lat="47.24026" lon="-2.30176">
        <ele>25</ele>
        <time>2020-03-15T08:35:38.000Z</time>
      </trkpt>
      <trkpt lat="47.24026" lon="-2.30176">
        <ele>25.39999961853</ele>
        <time>2020-03-15T08:35:39.000Z</time>
      </trkpt>
      <trkpt lat="47.24025" lon="-2.30176">
        <ele>25.799999237061</ele>
        <time>2020-03-15T08:35:40.000Z</time>
      </trkpt>
      <trkpt lat="47.24024" lon="-2.30176">
        <ele>26.39999961853</ele>
        <time>2020-03-15T08:35:41.000Z</time>
      </trkpt>
      <trkpt lat="47.2402" lon="-2.30176">
        <ele>26.39999961853</ele>
        <time>2020-03-15T08:35:43.000Z</time>
      </trkpt>
      <trkpt lat="47.24016" lon="-2.30173">
        <ele>26.39999961853</ele>
        <time>2020-03-15T08:35:45.000Z</time>
      </trkpt>
      <trkpt lat="47.23995" lon="-2.30164">
        <ele>26.39999961853</ele>
        <time>2020-03-15T08:35:51.000Z</time>
      </trkpt>
      <trkpt lat="47.23973" lon="-2.30146">
        <ele>26.39999961853</ele>
        <time>2020-03-15T08:35:56.000Z</time>
      </trkpt>
      <trkpt lat="47.23964" lon="-2.30143">
        <ele>25.799999237061</ele>
        <time>2020-03-15T08:35:58.000Z</time>
      </trkpt>
      <trkpt lat="47.2396" lon="-2.30141">
        <ele>25.39999961853</ele>
        <time>2020-03-15T08:35:59.000Z</time>
      </trkpt>
      <trkpt lat="47.23956" lon="-2.3014">
        <ele>25</ele>
        <time>2020-03-15T08:36:00.000Z</time>
      </trkpt>
      <trkpt lat="47.23953" lon="-2.30138">
        <ele>24.39999961853</ele>
        <time>2020-03-15T08:36:01.000Z</time>
      </trkpt>
      <trkpt lat="47.23949" lon="-2.30136">
        <ele>24</ele>
        <time>2020-03-15T08:36:02.000Z</time>
      </trkpt>
      <trkpt lat="47.23944" lon="-2.30135">
        <ele>24</ele>
        <time>2020-03-15T08:36:03.000Z</time>
      </trkpt>
      <trkpt lat="47.23914" lon="-2.30118">
        <ele>23.60000038147</ele>
        <time>2020-03-15T08:36:08.000Z</time>
      </trkpt>
      <trkpt lat="47.23912" lon="-2.30113">
        <ele>23.200000762939</ele>
        <time>2020-03-15T08:36:09.000Z</time>
      </trkpt>
      <trkpt lat="47.23911" lon="-2.30107">
        <ele>22.799999237061</ele>
        <time>2020-03-15T08:36:10.000Z</time>
      </trkpt>
      <trkpt lat="47.2391" lon="-2.30102">
        <ele>22.39999961853</ele>
        <time>2020-03-15T08:36:11.000Z</time>
      </trkpt>
      <trkpt lat="47.23908" lon="-2.30099">
        <ele>22</ele>
        <time>2020-03-15T08:36:12.000Z</time>
      </trkpt>
      <trkpt lat="47.23904" lon="-2.30095">
        <ele>22</ele>
        <time>2020-03-15T08:36:13.000Z</time>
      </trkpt>
      <trkpt lat="47.23902" lon="-2.30093">
        <ele>22</ele>
        <time>2020-03-15T08:36:14.000Z</time>
      </trkpt>
      <trkpt lat="47.23877" lon="-2.30076">
        <ele>22</ele>
        <time>2020-03-15T08:36:20.000Z</time>
      </trkpt>
      <trkpt lat="47.2386" lon="-2.30062">
        <ele>22</ele>
        <time>2020-03-15T08:36:26.000Z</time>
      </trkpt>
      <trkpt lat="47.23847" lon="-2.30045">
        <ele>22</ele>
        <time>2020-03-15T08:36:31.000Z</time>
      </trkpt>
      <trkpt lat="47.23846" lon="-2.30038">
        <ele>22</ele>
        <time>2020-03-15T08:36:32.000Z</time>
      </trkpt>
      <trkpt lat="47.23844" lon="-2.3002">
        <ele>22.39999961853</ele>
        <time>2020-03-15T08:36:35.000Z</time>
      </trkpt>
      <trkpt lat="47.23843" lon="-2.30016">
        <ele>22.799999237061</ele>
        <time>2020-03-15T08:36:36.000Z</time>
      </trkpt>
      <trkpt lat="47.23842" lon="-2.30011">
        <ele>23.39999961853</ele>
        <time>2020-03-15T08:36:37.000Z</time>
      </trkpt>
      <trkpt lat="47.23842" lon="-2.30006">
        <ele>23.799999237061</ele>
        <time>2020-03-15T08:36:38.000Z</time>
      </trkpt>
      <trkpt lat="47.23841" lon="-2.30001">
        <ele>24.200000762939</ele>
        <time>2020-03-15T08:36:39.000Z</time>
      </trkpt>
      <trkpt lat="47.23834" lon="-2.29964">
        <ele>24.200000762939</ele>
        <time>2020-03-15T08:36:46.000Z</time>
      </trkpt>
      <trkpt lat="47.23833" lon="-2.29959">
        <ele>24.60000038147</ele>
        <time>2020-03-15T08:36:47.000Z</time>
      </trkpt>
      <trkpt lat="47.23832" lon="-2.29955">
        <ele>25.60000038147</ele>
        <time>2020-03-15T08:36:48.000Z</time>
      </trkpt>
      <trkpt lat="47.23831" lon="-2.2995">
        <ele>26</ele>
        <time>2020-03-15T08:36:49.000Z</time>
      </trkpt>
      <trkpt lat="47.23831" lon="-2.29947">
        <ele>26.39999961853</ele>
        <time>2020-03-15T08:36:50.000Z</time>
      </trkpt>
      <trkpt lat="47.23829" lon="-2.29939">
        <ele>26.39999961853</ele>
        <time>2020-03-15T08:36:52.000Z</time>
      </trkpt>
      <trkpt lat="47.23823" lon="-2.29907">
        <ele>26.39999961853</ele>
        <time>2020-03-15T08:37:00.000Z</time>
      </trkpt>
      <trkpt lat="47.23816" lon="-2.29865">
        <ele>26.39999961853</ele>
        <time>2020-03-15T08:37:09.000Z</time>
      </trkpt>
      <trkpt lat="47.2381" lon="-2.29829">
        <ele>26.39999961853</ele>
        <time>2020-03-15T08:37:17.000Z</time>
      </trkpt>
      <trkpt lat="47.23812" lon="-2.29799">
        <ele>26.39999961853</ele>
        <time>2020-03-15T08:37:23.000Z</time>
      </trkpt>
      <trkpt lat="47.23812" lon="-2.29762">
        <ele>26.39999961853</ele>
        <time>2020-03-15T08:37:31.000Z</time>
      </trkpt>
      <trkpt lat="47.23811" lon="-2.29734">
        <ele>26.39999961853</ele>
        <time>2020-03-15T08:37:37.000Z</time>
      </trkpt>
      <trkpt lat="47.23808" lon="-2.29705">
        <ele>26.39999961853</ele>
        <time>2020-03-15T08:37:44.000Z</time>
      </trkpt>
      <trkpt lat="47.238" lon="-2.29696">
        <ele>26.39999961853</ele>
        <time>2020-03-15T08:37:48.000Z</time>
      </trkpt>
      <trkpt lat="47.23797" lon="-2.29696">
        <ele>26.39999961853</ele>
        <time>2020-03-15T08:37:49.000Z</time>
      </trkpt>
      <trkpt lat="47.23789" lon="-2.29699">
        <ele>26.39999961853</ele>
        <time>2020-03-15T08:37:51.000Z</time>
      </trkpt>
      <trkpt lat="47.2376" lon="-2.29704">
        <ele>26.39999961853</ele>
        <time>2020-03-15T08:37:58.000Z</time>
      </trkpt>
      <trkpt lat="47.23729" lon="-2.29709">
        <ele>26.39999961853</ele>
        <time>2020-03-15T08:38:04.000Z</time>
      </trkpt>
      <trkpt lat="47.23688" lon="-2.29716">
        <ele>26.39999961853</ele>
        <time>2020-03-15T08:38:11.000Z</time>
      </trkpt>
      <trkpt lat="47.23675" lon="-2.29717">
        <ele>26</ele>
        <time>2020-03-15T08:38:13.000Z</time>
      </trkpt>
      <trkpt lat="47.23669" lon="-2.29718">
        <ele>25.60000038147</ele>
        <time>2020-03-15T08:38:14.000Z</time>
      </trkpt>
      <trkpt lat="47.23663" lon="-2.29719">
        <ele>25</ele>
        <time>2020-03-15T08:38:15.000Z</time>
      </trkpt>
      <trkpt lat="47.23657" lon="-2.29722">
        <ele>24.60000038147</ele>
        <time>2020-03-15T08:38:16.000Z</time>
      </trkpt>
      <trkpt lat="47.23651" lon="-2.29726">
        <ele>24.200000762939</ele>
        <time>2020-03-15T08:38:17.000Z</time>
      </trkpt>
      <trkpt lat="47.23647" lon="-2.29731">
        <ele>24.200000762939</ele>
        <time>2020-03-15T08:38:18.000Z</time>
      </trkpt>
      <trkpt lat="47.23641" lon="-2.29754">
        <ele>24.200000762939</ele>
        <time>2020-03-15T08:38:21.000Z</time>
      </trkpt>
      <trkpt lat="47.23645" lon="-2.29772">
        <ele>24.200000762939</ele>
        <time>2020-03-15T08:38:24.000Z</time>
      </trkpt>
      <trkpt lat="47.23656" lon="-2.29801">
        <ele>24.200000762939</ele>
        <time>2020-03-15T08:38:29.000Z</time>
      </trkpt>
      <trkpt lat="47.23671" lon="-2.2984">
        <ele>24.200000762939</ele>
        <time>2020-03-15T08:38:36.000Z</time>
      </trkpt>
      <trkpt lat="47.23682" lon="-2.29861">
        <ele>24.200000762939</ele>
        <time>2020-03-15T08:38:40.000Z</time>
      </trkpt>
      <trkpt lat="47.23692" lon="-2.29875">
        <ele>24.200000762939</ele>
        <time>2020-03-15T08:38:43.000Z</time>
      </trkpt>
      <trkpt lat="47.23704" lon="-2.299">
        <ele>24.200000762939</ele>
        <time>2020-03-15T08:38:49.000Z</time>
      </trkpt>
      <trkpt lat="47.23709" lon="-2.29926">
        <ele>24.200000762939</ele>
        <time>2020-03-15T08:38:54.000Z</time>
      </trkpt>
      <trkpt lat="47.23709" lon="-2.29933">
        <ele>24.200000762939</ele>
        <time>2020-03-15T08:38:55.000Z</time>
      </trkpt>
      <trkpt lat="47.23707" lon="-2.2996">
        <ele>24.200000762939</ele>
        <time>2020-03-15T08:38:59.000Z</time>
      </trkpt>
      <trkpt lat="47.23695" lon="-2.29982">
        <ele>24.200000762939</ele>
        <time>2020-03-15T08:39:03.000Z</time>
      </trkpt>
      <trkpt lat="47.23678" lon="-2.29985">
        <ele>23.799999237061</ele>
        <time>2020-03-15T08:39:06.000Z</time>
      </trkpt>
      <trkpt lat="47.23674" lon="-2.29984">
        <ele>23.39999961853</ele>
        <time>2020-03-15T08:39:07.000Z</time>
      </trkpt>
      <trkpt lat="47.23669" lon="-2.29981">
        <ele>23</ele>
        <time>2020-03-15T08:39:08.000Z</time>
      </trkpt>
      <trkpt lat="47.23665" lon="-2.29978">
        <ele>22.39999961853</ele>
        <time>2020-03-15T08:39:09.000Z</time>
      </trkpt>
      <trkpt lat="47.23661" lon="-2.29973">
        <ele>22</ele>
        <time>2020-03-15T08:39:10.000Z</time>
      </trkpt>
      <trkpt lat="47.23645" lon="-2.29943">
        <ele>22</ele>
        <time>2020-03-15T08:39:15.000Z</time>
      </trkpt>
      <trkpt lat="47.23633" lon="-2.2991">
        <ele>22</ele>
        <time>2020-03-15T08:39:21.000Z</time>
      </trkpt>
      <trkpt lat="47.23619" lon="-2.29868">
        <ele>22</ele>
        <time>2020-03-15T08:39:29.000Z</time>
      </trkpt>
      <trkpt lat="47.23616" lon="-2.29861">
        <ele>22.39999961853</ele>
        <time>2020-03-15T08:39:30.000Z</time>
      </trkpt>
      <trkpt lat="47.23614" lon="-2.29855">
        <ele>22.799999237061</ele>
        <time>2020-03-15T08:39:31.000Z</time>
      </trkpt>
      <trkpt lat="47.23612" lon="-2.29849">
        <ele>23.200000762939</ele>
        <time>2020-03-15T08:39:32.000Z</time>
      </trkpt>
      <trkpt lat="47.23609" lon="-2.29842">
        <ele>23.60000038147</ele>
        <time>2020-03-15T08:39:33.000Z</time>
      </trkpt>
      <trkpt lat="47.23607" lon="-2.29836">
        <ele>24</ele>
        <time>2020-03-15T08:39:34.000Z</time>
      </trkpt>
      <trkpt lat="47.23602" lon="-2.29821">
        <ele>24</ele>
        <time>2020-03-15T08:39:36.000Z</time>
      </trkpt>
      <trkpt lat="47.23601" lon="-2.29813">
        <ele>24</ele>
        <time>2020-03-15T08:39:37.000Z</time>
      </trkpt>
      <trkpt lat="47.23591" lon="-2.29796">
        <ele>24</ele>
        <time>2020-03-15T08:39:40.000Z</time>
      </trkpt>
      <trkpt lat="47.23577" lon="-2.29797">
        <ele>24</ele>
        <time>2020-03-15T08:39:43.000Z</time>
      </trkpt>
      <trkpt lat="47.23568" lon="-2.298">
        <ele>24</ele>
        <time>2020-03-15T08:39:45.000Z</time>
      </trkpt>
      <trkpt lat="47.23558" lon="-2.29804">
        <ele>23.60000038147</ele>
        <time>2020-03-15T08:39:47.000Z</time>
      </trkpt>
      <trkpt lat="47.23553" lon="-2.29806">
        <ele>23.200000762939</ele>
        <time>2020-03-15T08:39:48.000Z</time>
      </trkpt>
      <trkpt lat="47.23548" lon="-2.29808">
        <ele>22.799999237061</ele>
        <time>2020-03-15T08:39:49.000Z</time>
      </trkpt>
      <trkpt lat="47.23543" lon="-2.2981">
        <ele>22.39999961853</ele>
        <time>2020-03-15T08:39:50.000Z</time>
      </trkpt>
      <trkpt lat="47.23538" lon="-2.29813">
        <ele>22</ele>
        <time>2020-03-15T08:39:51.000Z</time>
      </trkpt>
      <trkpt lat="47.23522" lon="-2.29819">
        <ele>22</ele>
        <time>2020-03-15T08:39:54.000Z</time>
      </trkpt>
      <trkpt lat="47.23508" lon="-2.29823">
        <ele>22</ele>
        <time>2020-03-15T08:39:57.000Z</time>
      </trkpt>
      <trkpt lat="47.23484" lon="-2.29837">
        <ele>21.60000038147</ele>
        <time>2020-03-15T08:40:02.000Z</time>
      </trkpt>
      <trkpt lat="47.2348" lon="-2.2984">
        <ele>21</ele>
        <time>2020-03-15T08:40:03.000Z</time>
      </trkpt>
      <trkpt lat="47.23476" lon="-2.29843">
        <ele>20.60000038147</ele>
        <time>2020-03-15T08:40:04.000Z</time>
      </trkpt>
      <trkpt lat="47.23474" lon="-2.29845">
        <ele>19.60000038147</ele>
        <time>2020-03-15T08:40:05.000Z</time>
      </trkpt>
      <trkpt lat="47.2347" lon="-2.29845">
        <ele>19.200000762939</ele>
        <time>2020-03-15T08:40:07.000Z</time>
      </trkpt>
      <trkpt lat="47.2347" lon="-2.29842">
        <ele>18.799999237061</ele>
        <time>2020-03-15T08:40:08.000Z</time>
      </trkpt>
      <trkpt lat="47.2347" lon="-2.2984">
        <ele>18.39999961853</ele>
        <time>2020-03-15T08:40:09.000Z</time>
      </trkpt>
      <trkpt lat="47.23469" lon="-2.29832">
        <ele>18</ele>
        <time>2020-03-15T08:40:10.000Z</time>
      </trkpt>
      <trkpt lat="47.23469" lon="-2.29824">
        <ele>17.60000038147</ele>
        <time>2020-03-15T08:40:11.000Z</time>
      </trkpt>
      <trkpt lat="47.2347" lon="-2.29802">
        <ele>17.60000038147</ele>
        <time>2020-03-15T08:40:15.000Z</time>
      </trkpt>
      <trkpt lat="47.23479" lon="-2.29784">
        <ele>17.60000038147</ele>
        <time>2020-03-15T08:40:19.000Z</time>
      </trkpt>
      <trkpt lat="47.23489" lon="-2.29751">
        <ele>17.60000038147</ele>
        <time>2020-03-15T08:40:25.000Z</time>
      </trkpt>
      <trkpt lat="47.23491" lon="-2.29745">
        <ele>17.200000762939</ele>
        <time>2020-03-15T08:40:26.000Z</time>
      </trkpt>
      <trkpt lat="47.23493" lon="-2.29739">
        <ele>16.799999237061</ele>
        <time>2020-03-15T08:40:27.000Z</time>
      </trkpt>
      <trkpt lat="47.23495" lon="-2.29734">
        <ele>16.200000762939</ele>
        <time>2020-03-15T08:40:28.000Z</time>
      </trkpt>
      <trkpt lat="47.23497" lon="-2.29729">
        <ele>15.39999961853</ele>
        <time>2020-03-15T08:40:29.000Z</time>
      </trkpt>
      <trkpt lat="47.235" lon="-2.29723">
        <ele>15.39999961853</ele>
        <time>2020-03-15T08:40:30.000Z</time>
      </trkpt>
      <trkpt lat="47.23507" lon="-2.29711">
        <ele>15.39999961853</ele>
        <time>2020-03-15T08:40:32.000Z</time>
      </trkpt>
      <trkpt lat="47.23512" lon="-2.29692">
        <ele>15.39999961853</ele>
        <time>2020-03-15T08:40:35.000Z</time>
      </trkpt>
      <trkpt lat="47.23513" lon="-2.29685">
        <ele>15.39999961853</ele>
        <time>2020-03-15T08:40:36.000Z</time>
      </trkpt>
      <trkpt lat="47.23512" lon="-2.29655">
        <ele>15</ele>
        <time>2020-03-15T08:40:41.000Z</time>
      </trkpt>
      <trkpt lat="47.23512" lon="-2.29651">
        <ele>14.60000038147</ele>
        <time>2020-03-15T08:40:42.000Z</time>
      </trkpt>
      <trkpt lat="47.23512" lon="-2.29647">
        <ele>14.199999809265</ele>
        <time>2020-03-15T08:40:43.000Z</time>
      </trkpt>
      <trkpt lat="47.23512" lon="-2.29644">
        <ele>13.800000190735</ele>
        <time>2020-03-15T08:40:44.000Z</time>
      </trkpt>
      <trkpt lat="47.23513" lon="-2.29642">
        <ele>13.39999961853</ele>
        <time>2020-03-15T08:40:45.000Z</time>
      </trkpt>
      <trkpt lat="47.23515" lon="-2.29639">
        <ele>13.39999961853</ele>
        <time>2020-03-15T08:40:47.000Z</time>
      </trkpt>
      <trkpt lat="47.23523" lon="-2.29638">
        <ele>13.39999961853</ele>
        <time>2020-03-15T08:40:54.000Z</time>
      </trkpt>
      <trkpt lat="47.23532" lon="-2.29632">
        <ele>13.39999961853</ele>
        <time>2020-03-15T08:41:00.000Z</time>
      </trkpt>
      <trkpt lat="47.23531" lon="-2.2961">
        <ele>13.39999961853</ele>
        <time>2020-03-15T08:41:06.000Z</time>
      </trkpt>
      <trkpt lat="47.23531" lon="-2.29607">
        <ele>13</ele>
        <time>2020-03-15T08:41:07.000Z</time>
      </trkpt>
      <trkpt lat="47.23531" lon="-2.29602">
        <ele>12.39999961853</ele>
        <time>2020-03-15T08:41:08.000Z</time>
      </trkpt>
      <trkpt lat="47.23531" lon="-2.29598">
        <ele>12</ele>
        <time>2020-03-15T08:41:09.000Z</time>
      </trkpt>
      <trkpt lat="47.23531" lon="-2.29592">
        <ele>11.60000038147</ele>
        <time>2020-03-15T08:41:10.000Z</time>
      </trkpt>
      <trkpt lat="47.23533" lon="-2.29588">
        <ele>11.199999809265</ele>
        <time>2020-03-15T08:41:11.000Z</time>
      </trkpt>
      <trkpt lat="47.23535" lon="-2.29585">
        <ele>11.199999809265</ele>
        <time>2020-03-15T08:41:12.000Z</time>
      </trkpt>
      <trkpt lat="47.23538" lon="-2.29583">
        <ele>11.199999809265</ele>
        <time>2020-03-15T08:41:13.000Z</time>
      </trkpt>
      <trkpt lat="47.23547" lon="-2.29584">
        <ele>11.199999809265</ele>
        <time>2020-03-15T08:41:16.000Z</time>
      </trkpt>
      <trkpt lat="47.23557" lon="-2.29594">
        <ele>11.199999809265</ele>
        <time>2020-03-15T08:41:20.000Z</time>
      </trkpt>
      <trkpt lat="47.23574" lon="-2.29597">
        <ele>11.199999809265</ele>
        <time>2020-03-15T08:41:25.000Z</time>
      </trkpt>
      <trkpt lat="47.23576" lon="-2.29596">
        <ele>11.60000038147</ele>
        <time>2020-03-15T08:41:26.000Z</time>
      </trkpt>
      <trkpt lat="47.23579" lon="-2.29595">
        <ele>12</ele>
        <time>2020-03-15T08:41:27.000Z</time>
      </trkpt>
      <trkpt lat="47.23582" lon="-2.29594">
        <ele>12.39999961853</ele>
        <time>2020-03-15T08:41:28.000Z</time>
      </trkpt>
      <trkpt lat="47.23584" lon="-2.29593">
        <ele>12.800000190735</ele>
        <time>2020-03-15T08:41:29.000Z</time>
      </trkpt>
      <trkpt lat="47.23586" lon="-2.29592">
        <ele>13.199999809265</ele>
        <time>2020-03-15T08:41:30.000Z</time>
      </trkpt>
      <trkpt lat="47.23587" lon="-2.29585">
        <ele>13.60000038147</ele>
        <time>2020-03-15T08:41:32.000Z</time>
      </trkpt>
      <trkpt lat="47.23588" lon="-2.29578">
        <ele>14</ele>
        <time>2020-03-15T08:41:33.000Z</time>
      </trkpt>
      <trkpt lat="47.23588" lon="-2.29569">
        <ele>14.39999961853</ele>
        <time>2020-03-15T08:41:34.000Z</time>
      </trkpt>
      <trkpt lat="47.23588" lon="-2.29562">
        <ele>14.800000190735</ele>
        <time>2020-03-15T08:41:35.000Z</time>
      </trkpt>
      <trkpt lat="47.23588" lon="-2.29553">
        <ele>15.199999809265</ele>
        <time>2020-03-15T08:41:36.000Z</time>
      </trkpt>
      <trkpt lat="47.23589" lon="-2.29521">
        <ele>15.199999809265</ele>
        <time>2020-03-15T08:41:40.000Z</time>
      </trkpt>
      <trkpt lat="47.23588" lon="-2.29479">
        <ele>15.199999809265</ele>
        <time>2020-03-15T08:41:46.000Z</time>
      </trkpt>
      <trkpt lat="47.23589" lon="-2.2946">
        <ele>15.199999809265</ele>
        <time>2020-03-15T08:41:49.000Z</time>
      </trkpt>
      <trkpt lat="47.23588" lon="-2.29443">
        <ele>15.60000038147</ele>
        <time>2020-03-15T08:41:52.000Z</time>
      </trkpt>
      <trkpt lat="47.23588" lon="-2.29437">
        <ele>16</ele>
        <time>2020-03-15T08:41:53.000Z</time>
      </trkpt>
      <trkpt lat="47.23587" lon="-2.29432">
        <ele>16.39999961853</ele>
        <time>2020-03-15T08:41:54.000Z</time>
      </trkpt>
      <trkpt lat="47.23587" lon="-2.29426">
        <ele>16.799999237061</ele>
        <time>2020-03-15T08:41:55.000Z</time>
      </trkpt>
      <trkpt lat="47.23587" lon="-2.2942">
        <ele>17.200000762939</ele>
        <time>2020-03-15T08:41:56.000Z</time>
      </trkpt>
      <trkpt lat="47.23586" lon="-2.29401">
        <ele>17.200000762939</ele>
        <time>2020-03-15T08:41:59.000Z</time>
      </trkpt>
      <trkpt lat="47.23583" lon="-2.2937">
        <ele>17.200000762939</ele>
        <time>2020-03-15T08:42:05.000Z</time>
      </trkpt>
      <trkpt lat="47.23585" lon="-2.2936">
        <ele>17.200000762939</ele>
        <time>2020-03-15T08:42:10.000Z</time>
      </trkpt>
      <trkpt lat="47.23588" lon="-2.29343">
        <ele>17.200000762939</ele>
        <time>2020-03-15T08:42:17.000Z</time>
      </trkpt>
      <trkpt lat="47.23589" lon="-2.29333">
        <ele>16.799999237061</ele>
        <time>2020-03-15T08:42:20.000Z</time>
      </trkpt>
      <trkpt lat="47.2359" lon="-2.29324">
        <ele>16.39999961853</ele>
        <time>2020-03-15T08:42:21.000Z</time>
      </trkpt>
      <trkpt lat="47.2359" lon="-2.29314">
        <ele>16</ele>
        <time>2020-03-15T08:42:22.000Z</time>
      </trkpt>
      <trkpt lat="47.2359" lon="-2.29305">
        <ele>15.60000038147</ele>
        <time>2020-03-15T08:42:23.000Z</time>
      </trkpt>
      <trkpt lat="47.2359" lon="-2.29296">
        <ele>15.199999809265</ele>
        <time>2020-03-15T08:42:24.000Z</time>
      </trkpt>
      <trkpt lat="47.23588" lon="-2.29262">
        <ele>15.199999809265</ele>
        <time>2020-03-15T08:42:28.000Z</time>
      </trkpt>
      <trkpt lat="47.23589" lon="-2.29226">
        <ele>15.199999809265</ele>
        <time>2020-03-15T08:42:34.000Z</time>
      </trkpt>
      <trkpt lat="47.23593" lon="-2.29217">
        <ele>15.199999809265</ele>
        <time>2020-03-15T08:42:36.000Z</time>
      </trkpt>
      <trkpt lat="47.23596" lon="-2.29213">
        <ele>15.60000038147</ele>
        <time>2020-03-15T08:42:37.000Z</time>
      </trkpt>
      <trkpt lat="47.23601" lon="-2.2921">
        <ele>16</ele>
        <time>2020-03-15T08:42:38.000Z</time>
      </trkpt>
      <trkpt lat="47.23605" lon="-2.29207">
        <ele>16.60000038147</ele>
        <time>2020-03-15T08:42:39.000Z</time>
      </trkpt>
      <trkpt lat="47.2361" lon="-2.29205">
        <ele>17</ele>
        <time>2020-03-15T08:42:40.000Z</time>
      </trkpt>
      <trkpt lat="47.23615" lon="-2.29204">
        <ele>17.39999961853</ele>
        <time>2020-03-15T08:42:41.000Z</time>
      </trkpt>
      <trkpt lat="47.23625" lon="-2.29201">
        <ele>17.39999961853</ele>
        <time>2020-03-15T08:42:43.000Z</time>
      </trkpt>
      <trkpt lat="47.2364" lon="-2.29197">
        <ele>17.39999961853</ele>
        <time>2020-03-15T08:42:46.000Z</time>
      </trkpt>
      <trkpt lat="47.23655" lon="-2.29194">
        <ele>17.39999961853</ele>
        <time>2020-03-15T08:42:49.000Z</time>
      </trkpt>
      <trkpt lat="47.23659" lon="-2.29193">
        <ele>17.799999237061</ele>
        <time>2020-03-15T08:42:50.000Z</time>
      </trkpt>
      <trkpt lat="47.23663" lon="-2.29191">
        <ele>18.200000762939</ele>
        <time>2020-03-15T08:42:51.000Z</time>
      </trkpt>
      <trkpt lat="47.23667" lon="-2.2919">
        <ele>18.60000038147</ele>
        <time>2020-03-15T08:42:52.000Z</time>
      </trkpt>
      <trkpt lat="47.23671" lon="-2.29189">
        <ele>19</ele>
        <time>2020-03-15T08:42:53.000Z</time>
      </trkpt>
      <trkpt lat="47.23675" lon="-2.29187">
        <ele>19.39999961853</ele>
        <time>2020-03-15T08:42:54.000Z</time>
      </trkpt>
      <trkpt lat="47.23684" lon="-2.29184">
        <ele>19.39999961853</ele>
        <time>2020-03-15T08:42:56.000Z</time>
      </trkpt>
      <trkpt lat="47.2372" lon="-2.29173">
        <ele>19.799999237061</ele>
        <time>2020-03-15T08:43:04.000Z</time>
      </trkpt>
      <trkpt lat="47.23724" lon="-2.29171">
        <ele>20.200000762939</ele>
        <time>2020-03-15T08:43:05.000Z</time>
      </trkpt>
      <trkpt lat="47.23729" lon="-2.29169">
        <ele>20.60000038147</ele>
        <time>2020-03-15T08:43:06.000Z</time>
      </trkpt>
      <trkpt lat="47.23734" lon="-2.29167">
        <ele>21</ele>
        <time>2020-03-15T08:43:07.000Z</time>
      </trkpt>
      <trkpt lat="47.23739" lon="-2.29165">
        <ele>21.39999961853</ele>
        <time>2020-03-15T08:43:08.000Z</time>
      </trkpt>
      <trkpt lat="47.23753" lon="-2.29158">
        <ele>21.39999961853</ele>
        <time>2020-03-15T08:43:11.000Z</time>
      </trkpt>
      <trkpt lat="47.23775" lon="-2.29144">
        <ele>21.39999961853</ele>
        <time>2020-03-15T08:43:17.000Z</time>
      </trkpt>
      <trkpt lat="47.23784" lon="-2.29132">
        <ele>21.39999961853</ele>
        <time>2020-03-15T08:43:20.000Z</time>
      </trkpt>
      <trkpt lat="47.23786" lon="-2.29125">
        <ele>21.799999237061</ele>
        <time>2020-03-15T08:43:21.000Z</time>
      </trkpt>
      <trkpt lat="47.23788" lon="-2.29119">
        <ele>22.60000038147</ele>
        <time>2020-03-15T08:43:22.000Z</time>
      </trkpt>
      <trkpt lat="47.2379" lon="-2.29111">
        <ele>23.200000762939</ele>
        <time>2020-03-15T08:43:23.000Z</time>
      </trkpt>
      <trkpt lat="47.23791" lon="-2.29104">
        <ele>23.60000038147</ele>
        <time>2020-03-15T08:43:24.000Z</time>
      </trkpt>
      <trkpt lat="47.23792" lon="-2.29096">
        <ele>23.60000038147</ele>
        <time>2020-03-15T08:43:25.000Z</time>
      </trkpt>
      <trkpt lat="47.23793" lon="-2.29087">
        <ele>23.60000038147</ele>
        <time>2020-03-15T08:43:26.000Z</time>
      </trkpt>
      <trkpt lat="47.23802" lon="-2.2903">
        <ele>23.60000038147</ele>
        <time>2020-03-15T08:43:33.000Z</time>
      </trkpt>
      <trkpt lat="47.23811" lon="-2.28954">
        <ele>23.60000038147</ele>
        <time>2020-03-15T08:43:41.000Z</time>
      </trkpt>
      <trkpt lat="47.23817" lon="-2.28926">
        <ele>23.200000762939</ele>
        <time>2020-03-15T08:43:45.000Z</time>
      </trkpt>
      <trkpt lat="47.23818" lon="-2.2892">
        <ele>22.799999237061</ele>
        <time>2020-03-15T08:43:46.000Z</time>
      </trkpt>
      <trkpt lat="47.23818" lon="-2.28915">
        <ele>22</ele>
        <time>2020-03-15T08:43:47.000Z</time>
      </trkpt>
      <trkpt lat="47.23817" lon="-2.28911">
        <ele>21.60000038147</ele>
        <time>2020-03-15T08:43:48.000Z</time>
      </trkpt>
      <trkpt lat="47.23808" lon="-2.28906">
        <ele>21.60000038147</ele>
        <time>2020-03-15T08:43:51.000Z</time>
      </trkpt>
      <trkpt lat="47.23804" lon="-2.28905">
        <ele>21.60000038147</ele>
        <time>2020-03-15T08:43:52.000Z</time>
      </trkpt>
      <trkpt lat="47.23797" lon="-2.28906">
        <ele>21</ele>
        <time>2020-03-15T08:43:53.000Z</time>
      </trkpt>
      <trkpt lat="47.23793" lon="-2.28905">
        <ele>20.60000038147</ele>
        <time>2020-03-15T08:43:54.000Z</time>
      </trkpt>
      <trkpt lat="47.23785" lon="-2.28904">
        <ele>20.200000762939</ele>
        <time>2020-03-15T08:43:55.000Z</time>
      </trkpt>
      <trkpt lat="47.2378" lon="-2.28901">
        <ele>19.799999237061</ele>
        <time>2020-03-15T08:43:56.000Z</time>
      </trkpt>
      <trkpt lat="47.23777" lon="-2.28897">
        <ele>19.200000762939</ele>
        <time>2020-03-15T08:43:57.000Z</time>
      </trkpt>
      <trkpt lat="47.23776" lon="-2.28886">
        <ele>19.200000762939</ele>
        <time>2020-03-15T08:43:59.000Z</time>
      </trkpt>
      <trkpt lat="47.23775" lon="-2.28881">
        <ele>18.799999237061</ele>
        <time>2020-03-15T08:44:00.000Z</time>
      </trkpt>
      <trkpt lat="47.23775" lon="-2.28875">
        <ele>18.39999961853</ele>
        <time>2020-03-15T08:44:01.000Z</time>
      </trkpt>
      <trkpt lat="47.23775" lon="-2.28869">
        <ele>18</ele>
        <time>2020-03-15T08:44:02.000Z</time>
      </trkpt>
      <trkpt lat="47.23775" lon="-2.28864">
        <ele>17.60000038147</ele>
        <time>2020-03-15T08:44:03.000Z</time>
      </trkpt>
      <trkpt lat="47.23774" lon="-2.28858">
        <ele>17.200000762939</ele>
        <time>2020-03-15T08:44:04.000Z</time>
      </trkpt>
      <trkpt lat="47.23774" lon="-2.28846">
        <ele>17.200000762939</ele>
        <time>2020-03-15T08:44:06.000Z</time>
      </trkpt>
      <trkpt lat="47.23771" lon="-2.28805">
        <ele>17.200000762939</ele>
        <time>2020-03-15T08:44:12.000Z</time>
      </trkpt>
      <trkpt lat="47.2377" lon="-2.28772">
        <ele>17.200000762939</ele>
        <time>2020-03-15T08:44:18.000Z</time>
      </trkpt>
      <trkpt lat="47.23765" lon="-2.28737">
        <ele>17.200000762939</ele>
        <time>2020-03-15T08:44:25.000Z</time>
      </trkpt>
      <trkpt lat="47.23761" lon="-2.28714">
        <ele>17.200000762939</ele>
        <time>2020-03-15T08:44:30.000Z</time>
      </trkpt>
      <trkpt lat="47.23766" lon="-2.28688">
        <ele>17.200000762939</ele>
        <time>2020-03-15T08:44:36.000Z</time>
      </trkpt>
      <trkpt lat="47.23772" lon="-2.28662">
        <ele>17.200000762939</ele>
        <time>2020-03-15T08:44:42.000Z</time>
      </trkpt>
      <trkpt lat="47.23777" lon="-2.28644">
        <ele>17.200000762939</ele>
        <time>2020-03-15T08:44:47.000Z</time>
      </trkpt>
      <trkpt lat="47.23788" lon="-2.28626">
        <ele>17.200000762939</ele>
        <time>2020-03-15T08:44:52.000Z</time>
      </trkpt>
      <trkpt lat="47.23791" lon="-2.28613">
        <ele>17.200000762939</ele>
        <time>2020-03-15T08:44:55.000Z</time>
      </trkpt>
      <trkpt lat="47.23791" lon="-2.28609">
        <ele>17.200000762939</ele>
        <time>2020-03-15T08:44:56.000Z</time>
      </trkpt>
      <trkpt lat="47.23786" lon="-2.28588">
        <ele>17.200000762939</ele>
        <time>2020-03-15T08:45:01.000Z</time>
      </trkpt>
      <trkpt lat="47.23786" lon="-2.28583">
        <ele>16.799999237061</ele>
        <time>2020-03-15T08:45:02.000Z</time>
      </trkpt>
      <trkpt lat="47.23786" lon="-2.28577">
        <ele>16.39999961853</ele>
        <time>2020-03-15T08:45:03.000Z</time>
      </trkpt>
      <trkpt lat="47.23786" lon="-2.28571">
        <ele>16</ele>
        <time>2020-03-15T08:45:04.000Z</time>
      </trkpt>
      <trkpt lat="47.23786" lon="-2.28564">
        <ele>15.60000038147</ele>
        <time>2020-03-15T08:45:05.000Z</time>
      </trkpt>
      <trkpt lat="47.23786" lon="-2.28557">
        <ele>15.199999809265</ele>
        <time>2020-03-15T08:45:06.000Z</time>
      </trkpt>
      <trkpt lat="47.23787" lon="-2.2855">
        <ele>15.199999809265</ele>
        <time>2020-03-15T08:45:07.000Z</time>
      </trkpt>
      <trkpt lat="47.23788" lon="-2.28533">
        <ele>15.199999809265</ele>
        <time>2020-03-15T08:45:10.000Z</time>
      </trkpt>
      <trkpt lat="47.23787" lon="-2.28524">
        <ele>15.199999809265</ele>
        <time>2020-03-15T08:45:12.000Z</time>
      </trkpt>
      <trkpt lat="47.23781" lon="-2.28516">
        <ele>15.199999809265</ele>
        <time>2020-03-15T08:45:14.000Z</time>
      </trkpt>
      <trkpt lat="47.23774" lon="-2.285">
        <ele>15.199999809265</ele>
        <time>2020-03-15T08:45:18.000Z</time>
      </trkpt>
      <trkpt lat="47.23767" lon="-2.28487">
        <ele>14.800000190735</ele>
        <time>2020-03-15T08:45:22.000Z</time>
      </trkpt>
      <trkpt lat="47.23765" lon="-2.28483">
        <ele>14.39999961853</ele>
        <time>2020-03-15T08:45:23.000Z</time>
      </trkpt>
      <trkpt lat="47.23761" lon="-2.28479">
        <ele>13.800000190735</ele>
        <time>2020-03-15T08:45:24.000Z</time>
      </trkpt>
      <trkpt lat="47.23759" lon="-2.28475">
        <ele>13.39999961853</ele>
        <time>2020-03-15T08:45:25.000Z</time>
      </trkpt>
      <trkpt lat="47.23757" lon="-2.28471">
        <ele>13</ele>
        <time>2020-03-15T08:45:26.000Z</time>
      </trkpt>
      <trkpt lat="47.23756" lon="-2.28466">
        <ele>13</ele>
        <time>2020-03-15T08:45:27.000Z</time>
      </trkpt>
      <trkpt lat="47.23756" lon="-2.28462">
        <ele>13</ele>
        <time>2020-03-15T08:45:28.000Z</time>
      </trkpt>
      <trkpt lat="47.23761" lon="-2.28452">
        <ele>13</ele>
        <time>2020-03-15T08:45:31.000Z</time>
      </trkpt>
      <trkpt lat="47.23764" lon="-2.2845">
        <ele>13</ele>
        <time>2020-03-15T08:45:32.000Z</time>
      </trkpt>
      <trkpt lat="47.23772" lon="-2.28431">
        <ele>13</ele>
        <time>2020-03-15T08:45:36.000Z</time>
      </trkpt>
      <trkpt lat="47.2377" lon="-2.28392">
        <ele>13</ele>
        <time>2020-03-15T08:45:42.000Z</time>
      </trkpt>
      <trkpt lat="47.2377" lon="-2.28384">
        <ele>13</ele>
        <time>2020-03-15T08:45:43.000Z</time>
      </trkpt>
      <trkpt lat="47.23774" lon="-2.28374">
        <ele>13</ele>
        <time>2020-03-15T08:45:45.000Z</time>
      </trkpt>
      <trkpt lat="47.2378" lon="-2.28365">
        <ele>13</ele>
        <time>2020-03-15T08:45:47.000Z</time>
      </trkpt>
      <trkpt lat="47.23789" lon="-2.28352">
        <ele>13</ele>
        <time>2020-03-15T08:45:50.000Z</time>
      </trkpt>
      <trkpt lat="47.23792" lon="-2.28351">
        <ele>13</ele>
        <time>2020-03-15T08:45:51.000Z</time>
      </trkpt>
      <trkpt lat="47.23798" lon="-2.28352">
        <ele>13</ele>
        <time>2020-03-15T08:45:53.000Z</time>
      </trkpt>
      <trkpt lat="47.23808" lon="-2.28347">
        <ele>13</ele>
        <time>2020-03-15T08:45:57.000Z</time>
      </trkpt>
      <trkpt lat="47.23809" lon="-2.28324">
        <ele>13</ele>
        <time>2020-03-15T08:46:02.000Z</time>
      </trkpt>
      <trkpt lat="47.23808" lon="-2.2831">
        <ele>13</ele>
        <time>2020-03-15T08:46:04.000Z</time>
      </trkpt>
      <trkpt lat="47.23814" lon="-2.28292">
        <ele>13</ele>
        <time>2020-03-15T08:46:07.000Z</time>
      </trkpt>
      <trkpt lat="47.23824" lon="-2.28271">
        <ele>13</ele>
        <time>2020-03-15T08:46:11.000Z</time>
      </trkpt>
      <trkpt lat="47.23825" lon="-2.28265">
        <ele>12.60000038147</ele>
        <time>2020-03-15T08:46:12.000Z</time>
      </trkpt>
      <trkpt lat="47.23826" lon="-2.28257">
        <ele>12.199999809265</ele>
        <time>2020-03-15T08:46:13.000Z</time>
      </trkpt>
      <trkpt lat="47.23826" lon="-2.28251">
        <ele>11.800000190735</ele>
        <time>2020-03-15T08:46:14.000Z</time>
      </trkpt>
      <trkpt lat="47.23825" lon="-2.28244">
        <ele>11.39999961853</ele>
        <time>2020-03-15T08:46:15.000Z</time>
      </trkpt>
      <trkpt lat="47.23825" lon="-2.28237">
        <ele>10.800000190735</ele>
        <time>2020-03-15T08:46:16.000Z</time>
      </trkpt>
      <trkpt lat="47.23822" lon="-2.28225">
        <ele>10.800000190735</ele>
        <time>2020-03-15T08:46:18.000Z</time>
      </trkpt>
      <trkpt lat="47.2382" lon="-2.28212">
        <ele>10.800000190735</ele>
        <time>2020-03-15T08:46:20.000Z</time>
      </trkpt>
      <trkpt lat="47.2382" lon="-2.28205">
        <ele>10.800000190735</ele>
        <time>2020-03-15T08:46:21.000Z</time>
      </trkpt>
      <trkpt lat="47.23821" lon="-2.28186">
        <ele>10.800000190735</ele>
        <time>2020-03-15T08:46:24.000Z</time>
      </trkpt>
      <trkpt lat="47.23821" lon="-2.28166">
        <ele>10.800000190735</ele>
        <time>2020-03-15T08:46:27.000Z</time>
      </trkpt>
      <trkpt lat="47.23821" lon="-2.28146">
        <ele>10.800000190735</ele>
        <time>2020-03-15T08:46:30.000Z</time>
      </trkpt>
      <trkpt lat="47.23822" lon="-2.28137">
        <ele>10.800000190735</ele>
        <time>2020-03-15T08:46:32.000Z</time>
      </trkpt>
      <trkpt lat="47.23823" lon="-2.28132">
        <ele>10.39999961853</ele>
        <time>2020-03-15T08:46:34.000Z</time>
      </trkpt>
      <trkpt lat="47.23824" lon="-2.28129">
        <ele>10</ele>
        <time>2020-03-15T08:46:35.000Z</time>
      </trkpt>
      <trkpt lat="47.23824" lon="-2.28126">
        <ele>9.6000003814697</ele>
        <time>2020-03-15T08:46:36.000Z</time>
      </trkpt>
      <trkpt lat="47.23824" lon="-2.28123">
        <ele>9.1999998092651</ele>
        <time>2020-03-15T08:46:37.000Z</time>
      </trkpt>
      <trkpt lat="47.23824" lon="-2.28121">
        <ele>8.8000001907349</ele>
        <time>2020-03-15T08:46:38.000Z</time>
      </trkpt>
      <trkpt lat="47.23824" lon="-2.28118">
        <ele>8.8000001907349</ele>
        <time>2020-03-15T08:46:40.000Z</time>
      </trkpt>
      <trkpt lat="47.23825" lon="-2.28115">
        <ele>8.8000001907349</ele>
        <time>2020-03-15T08:46:41.000Z</time>
      </trkpt>
      <trkpt lat="47.23832" lon="-2.28092">
        <ele>8.8000001907349</ele>
        <time>2020-03-15T08:46:46.000Z</time>
      </trkpt>
      <trkpt lat="47.2383" lon="-2.28074">
        <ele>8.3999996185303</ele>
        <time>2020-03-15T08:46:49.000Z</time>
      </trkpt>
      <trkpt lat="47.23829" lon="-2.28067">
        <ele>8</ele>
        <time>2020-03-15T08:46:50.000Z</time>
      </trkpt>
      <trkpt lat="47.23828" lon="-2.28059">
        <ele>7.5999999046326</ele>
        <time>2020-03-15T08:46:51.000Z</time>
      </trkpt>
      <trkpt lat="47.23828" lon="-2.28051">
        <ele>7.1999998092651</ele>
        <time>2020-03-15T08:46:52.000Z</time>
      </trkpt>
      <trkpt lat="47.23828" lon="-2.28043">
        <ele>6.8000001907349</ele>
        <time>2020-03-15T08:46:53.000Z</time>
      </trkpt>
      <trkpt lat="47.2383" lon="-2.28015">
        <ele>6.4000000953674</ele>
        <time>2020-03-15T08:46:56.000Z</time>
      </trkpt>
      <trkpt lat="47.23831" lon="-2.28006">
        <ele>6</ele>
        <time>2020-03-15T08:46:57.000Z</time>
      </trkpt>
      <trkpt lat="47.23833" lon="-2.27997">
        <ele>5.5999999046326</ele>
        <time>2020-03-15T08:46:58.000Z</time>
      </trkpt>
      <trkpt lat="47.23835" lon="-2.27989">
        <ele>5.1999998092651</ele>
        <time>2020-03-15T08:46:59.000Z</time>
      </trkpt>
      <trkpt lat="47.23837" lon="-2.2798">
        <ele>4.5999999046326</ele>
        <time>2020-03-15T08:47:00.000Z</time>
      </trkpt>
      <trkpt lat="47.23839" lon="-2.27972">
        <ele>4</ele>
        <time>2020-03-15T08:47:01.000Z</time>
      </trkpt>
      <trkpt lat="47.23842" lon="-2.27963">
        <ele>3.4000000953674</ele>
        <time>2020-03-15T08:47:02.000Z</time>
      </trkpt>
      <trkpt lat="47.23845" lon="-2.27955">
        <ele>2.7999999523163</ele>
        <time>2020-03-15T08:47:03.000Z</time>
      </trkpt>
      <trkpt lat="47.23848" lon="-2.27947">
        <ele>2.2000000476837</ele>
        <time>2020-03-15T08:47:04.000Z</time>
      </trkpt>
      <trkpt lat="47.23852" lon="-2.2794">
        <ele>2.2000000476837</ele>
        <time>2020-03-15T08:47:05.000Z</time>
      </trkpt>
      <trkpt lat="47.23856" lon="-2.27934">
        <ele>2.2000000476837</ele>
        <time>2020-03-15T08:47:06.000Z</time>
      </trkpt>
      <trkpt lat="47.23864" lon="-2.27922">
        <ele>1.7999999523163</ele>
        <time>2020-03-15T08:47:08.000Z</time>
      </trkpt>
      <trkpt lat="47.23869" lon="-2.27917">
        <ele>1.3999999761581</ele>
        <time>2020-03-15T08:47:09.000Z</time>
      </trkpt>
      <trkpt lat="47.23874" lon="-2.27912">
        <ele>1</ele>
        <time>2020-03-15T08:47:10.000Z</time>
      </trkpt>
      <trkpt lat="47.2388" lon="-2.27908">
        <ele>0.60000002384186</ele>
        <time>2020-03-15T08:47:11.000Z</time>
      </trkpt>
      <trkpt lat="47.23886" lon="-2.27905">
        <ele>0.20000000298023</ele>
        <time>2020-03-15T08:47:12.000Z</time>
      </trkpt>
      <trkpt lat="47.23892" lon="-2.27901">
        <ele>0.20000000298023</ele>
        <time>2020-03-15T08:47:13.000Z</time>
      </trkpt>
      <trkpt lat="47.239" lon="-2.27892">
        <ele>0.20000000298023</ele>
        <time>2020-03-15T08:47:15.000Z</time>
      </trkpt>
      <trkpt lat="47.23909" lon="-2.27884">
        <ele>-0.20000000298023</ele>
        <time>2020-03-15T08:47:18.000Z</time>
      </trkpt>
      <trkpt lat="47.23912" lon="-2.27883">
        <ele>-0.60000002384186</ele>
        <time>2020-03-15T08:47:19.000Z</time>
      </trkpt>
      <trkpt lat="47.23914" lon="-2.27882">
        <ele>-1</ele>
        <time>2020-03-15T08:47:20.000Z</time>
      </trkpt>
      <trkpt lat="47.23917" lon="-2.27881">
        <ele>-1.6000000238419</ele>
        <time>2020-03-15T08:47:21.000Z</time>
      </trkpt>
      <trkpt lat="47.23919" lon="-2.2788">
        <ele>-2</ele>
        <time>2020-03-15T08:47:22.000Z</time>
      </trkpt>
      <trkpt lat="47.23921" lon="-2.2788">
        <ele>-2</ele>
        <time>2020-03-15T08:47:23.000Z</time>
      </trkpt>
      <trkpt lat="47.23923" lon="-2.27879">
        <ele>-2</ele>
        <time>2020-03-15T08:47:24.000Z</time>
      </trkpt>
      <trkpt lat="47.23934" lon="-2.27876">
        <ele>-2</ele>
        <time>2020-03-15T08:47:31.000Z</time>
      </trkpt>
      <trkpt lat="47.23939" lon="-2.27873">
        <ele>-2</ele>
        <time>2020-03-15T08:47:36.000Z</time>
      </trkpt>
      <trkpt lat="47.23951" lon="-2.2787">
        <ele>-2</ele>
        <time>2020-03-15T08:47:42.000Z</time>
      </trkpt>
      <trkpt lat="47.23957" lon="-2.27867">
        <ele>-2</ele>
        <time>2020-03-15T08:47:48.000Z</time>
      </trkpt>
      <trkpt lat="47.23968" lon="-2.27871">
        <ele>-2</ele>
        <time>2020-03-15T08:47:59.000Z</time>
      </trkpt>
      <trkpt lat="47.23972" lon="-2.27873">
        <ele>-2</ele>
        <time>2020-03-15T08:48:01.000Z</time>
      </trkpt>
      <trkpt lat="47.23982" lon="-2.27873">
        <ele>-2</ele>
        <time>2020-03-15T08:48:05.000Z</time>
      </trkpt>
      <trkpt lat="47.2399" lon="-2.27864">
        <ele>-2</ele>
        <time>2020-03-15T08:48:08.000Z</time>
      </trkpt>
      <trkpt lat="47.23995" lon="-2.27854">
        <ele>-2</ele>
        <time>2020-03-15T08:48:11.000Z</time>
      </trkpt>
      <trkpt lat="47.23997" lon="-2.27841">
        <ele>-2</ele>
        <time>2020-03-15T08:48:14.000Z</time>
      </trkpt>
      <trkpt lat="47.23997" lon="-2.27822">
        <ele>-2</ele>
        <time>2020-03-15T08:48:19.000Z</time>
      </trkpt>
      <trkpt lat="47.23998" lon="-2.27819">
        <ele>-1.6000000238419</ele>
        <time>2020-03-15T08:48:20.000Z</time>
      </trkpt>
      <trkpt lat="47.23998" lon="-2.27817">
        <ele>-1</ele>
        <time>2020-03-15T08:48:21.000Z</time>
      </trkpt>
      <trkpt lat="47.23999" lon="-2.27815">
        <ele>-0.60000002384186</ele>
        <time>2020-03-15T08:48:22.000Z</time>
      </trkpt>
      <trkpt lat="47.23999" lon="-2.27812">
        <ele>-0.20000000298023</ele>
        <time>2020-03-15T08:48:23.000Z</time>
      </trkpt>
      <trkpt lat="47.23999" lon="-2.27808">
        <ele>0.20000000298023</ele>
        <time>2020-03-15T08:48:24.000Z</time>
      </trkpt>
      <trkpt lat="47.23999" lon="-2.27804">
        <ele>0.20000000298023</ele>
        <time>2020-03-15T08:48:25.000Z</time>
      </trkpt>
      <trkpt lat="47.23996" lon="-2.27799">
        <ele>0.20000000298023</ele>
        <time>2020-03-15T08:48:28.000Z</time>
      </trkpt>
      <trkpt lat="47.23995" lon="-2.27799">
        <ele>0.20000000298023</ele>
        <time>2020-03-15T08:48:29.000Z</time>
      </trkpt>
      <trkpt lat="47.2399" lon="-2.278">
        <ele>0.20000000298023</ele>
        <time>2020-03-15T08:48:33.000Z</time>
      </trkpt>
      <trkpt lat="47.23987" lon="-2.27801">
        <ele>0.20000000298023</ele>
        <time>2020-03-15T08:48:35.000Z</time>
      </trkpt>
      <trkpt lat="47.23982" lon="-2.27793">
        <ele>0.20000000298023</ele>
        <time>2020-03-15T08:48:40.000Z</time>
      </trkpt>
      <trkpt lat="47.23981" lon="-2.27786">
        <ele>0.60000002384186</ele>
        <time>2020-03-15T08:48:42.000Z</time>
      </trkpt>
      <trkpt lat="47.2398" lon="-2.27783">
        <ele>1</ele>
        <time>2020-03-15T08:48:43.000Z</time>
      </trkpt>
      <trkpt lat="47.23979" lon="-2.27779">
        <ele>1.3999999761581</ele>
        <time>2020-03-15T08:48:44.000Z</time>
      </trkpt>
      <trkpt lat="47.23978" lon="-2.27776">
        <ele>2</ele>
        <time>2020-03-15T08:48:45.000Z</time>
      </trkpt>
      <trkpt lat="47.23978" lon="-2.27773">
        <ele>2.4000000953674</ele>
        <time>2020-03-15T08:48:46.000Z</time>
      </trkpt>
      <trkpt lat="47.23977" lon="-2.27763">
        <ele>2.7999999523163</ele>
        <time>2020-03-15T08:48:50.000Z</time>
      </trkpt>
      <trkpt lat="47.23977" lon="-2.27761">
        <ele>3.2000000476837</ele>
        <time>2020-03-15T08:48:51.000Z</time>
      </trkpt>
      <trkpt lat="47.23977" lon="-2.27759">
        <ele>3.5999999046326</ele>
        <time>2020-03-15T08:48:52.000Z</time>
      </trkpt>
      <trkpt lat="47.23977" lon="-2.27757">
        <ele>4</ele>
        <time>2020-03-15T08:48:53.000Z</time>
      </trkpt>
      <trkpt lat="47.23977" lon="-2.27755">
        <ele>4.5999999046326</ele>
        <time>2020-03-15T08:48:54.000Z</time>
      </trkpt>
      <trkpt lat="47.23976" lon="-2.2775">
        <ele>5</ele>
        <time>2020-03-15T08:48:57.000Z</time>
      </trkpt>
      <trkpt lat="47.23976" lon="-2.27748">
        <ele>5.4000000953674</ele>
        <time>2020-03-15T08:48:58.000Z</time>
      </trkpt>
      <trkpt lat="47.23976" lon="-2.27745">
        <ele>5.8000001907349</ele>
        <time>2020-03-15T08:48:59.000Z</time>
      </trkpt>
      <trkpt lat="47.23976" lon="-2.27743">
        <ele>6.1999998092651</ele>
        <time>2020-03-15T08:49:00.000Z</time>
      </trkpt>
      <trkpt lat="47.23974" lon="-2.2774">
        <ele>6.8000001907349</ele>
        <time>2020-03-15T08:49:01.000Z</time>
      </trkpt>
      <trkpt lat="47.23971" lon="-2.27727">
        <ele>7.5999999046326</ele>
        <time>2020-03-15T08:49:07.000Z</time>
      </trkpt>
      <trkpt lat="47.23971" lon="-2.27724">
        <ele>8</ele>
        <time>2020-03-15T08:49:08.000Z</time>
      </trkpt>
      <trkpt lat="47.2397" lon="-2.27722">
        <ele>8.3999996185303</ele>
        <time>2020-03-15T08:49:09.000Z</time>
      </trkpt>
      <trkpt lat="47.2397" lon="-2.2772">
        <ele>8.8000001907349</ele>
        <time>2020-03-15T08:49:10.000Z</time>
      </trkpt>
      <trkpt lat="47.23969" lon="-2.27718">
        <ele>8.8000001907349</ele>
        <time>2020-03-15T08:49:13.000Z</time>
      </trkpt>
      <trkpt lat="47.23964" lon="-2.27701">
        <ele>13</ele>
        <time>2020-03-15T08:49:40.000Z</time>
      </trkpt>
      <trkpt lat="47.23954" lon="-2.27707">
        <ele>13</ele>
        <time>2020-03-15T08:49:44.000Z</time>
      </trkpt>
      <trkpt lat="47.23933" lon="-2.27719">
        <ele>13</ele>
        <time>2020-03-15T08:49:50.000Z</time>
      </trkpt>
      <trkpt lat="47.23907" lon="-2.27732">
        <ele>13</ele>
        <time>2020-03-15T08:49:58.000Z</time>
      </trkpt>
      <trkpt lat="47.23881" lon="-2.27743">
        <ele>13</ele>
        <time>2020-03-15T08:50:06.000Z</time>
      </trkpt>
      <trkpt lat="47.23872" lon="-2.27747">
        <ele>13.39999961853</ele>
        <time>2020-03-15T08:50:09.000Z</time>
      </trkpt>
      <trkpt lat="47.2387" lon="-2.27748">
        <ele>13.800000190735</ele>
        <time>2020-03-15T08:50:10.000Z</time>
      </trkpt>
      <trkpt lat="47.23867" lon="-2.27749">
        <ele>14.199999809265</ele>
        <time>2020-03-15T08:50:11.000Z</time>
      </trkpt>
      <trkpt lat="47.23865" lon="-2.27749">
        <ele>14.800000190735</ele>
        <time>2020-03-15T08:50:12.000Z</time>
      </trkpt>
      <trkpt lat="47.23863" lon="-2.2775">
        <ele>15.199999809265</ele>
        <time>2020-03-15T08:50:13.000Z</time>
      </trkpt>
      <trkpt lat="47.23847" lon="-2.27753">
        <ele>15.199999809265</ele>
        <time>2020-03-15T08:50:20.000Z</time>
      </trkpt>
      <trkpt lat="47.23846" lon="-2.27754">
        <ele>15.199999809265</ele>
        <time>2020-03-15T08:50:21.000Z</time>
      </trkpt>
      <trkpt lat="47.23842" lon="-2.27758">
        <ele>15.199999809265</ele>
        <time>2020-03-15T08:50:24.000Z</time>
      </trkpt>
      <trkpt lat="47.23838" lon="-2.27761">
        <ele>15.199999809265</ele>
        <time>2020-03-15T08:50:29.000Z</time>
      </trkpt>
      <trkpt lat="47.23824" lon="-2.27769">
        <ele>15.199999809265</ele>
        <time>2020-03-15T08:50:37.000Z</time>
      </trkpt>
      <trkpt lat="47.23805" lon="-2.27779">
        <ele>15.199999809265</ele>
        <time>2020-03-15T08:50:46.000Z</time>
      </trkpt>
      <trkpt lat="47.23797" lon="-2.27785">
        <ele>15.199999809265</ele>
        <time>2020-03-15T08:50:52.000Z</time>
      </trkpt>
      <trkpt lat="47.23794" lon="-2.27786">
        <ele>14.60000038147</ele>
        <time>2020-03-15T08:50:55.000Z</time>
      </trkpt>
      <trkpt lat="47.23792" lon="-2.27787">
        <ele>14.199999809265</ele>
        <time>2020-03-15T08:50:56.000Z</time>
      </trkpt>
      <trkpt lat="47.2379" lon="-2.27787">
        <ele>13.800000190735</ele>
        <time>2020-03-15T08:50:57.000Z</time>
      </trkpt>
      <trkpt lat="47.23788" lon="-2.27787">
        <ele>13.39999961853</ele>
        <time>2020-03-15T08:50:58.000Z</time>
      </trkpt>
      <trkpt lat="47.23788" lon="-2.27787">
        <ele>13</ele>
        <time>2020-03-15T08:50:59.000Z</time>
      </trkpt>
      <trkpt lat="47.23781" lon="-2.2777">
        <ele>13</ele>
        <time>2020-03-15T08:51:16.000Z</time>
      </trkpt>
      <trkpt lat="47.23781" lon="-2.27765">
        <ele>13</ele>
        <time>2020-03-15T08:51:19.000Z</time>
      </trkpt>
      <trkpt lat="47.23782" lon="-2.27764">
        <ele>13</ele>
        <time>2020-03-15T08:51:21.000Z</time>
      </trkpt>
      <trkpt lat="47.23786" lon="-2.27748">
        <ele>13</ele>
        <time>2020-03-15T08:51:56.000Z</time>
      </trkpt>
      <trkpt lat="47.23789" lon="-2.27747">
        <ele>13</ele>
        <time>2020-03-15T08:51:58.000Z</time>
      </trkpt>
      <trkpt lat="47.23791" lon="-2.27746">
        <ele>13.800000190735</ele>
        <time>2020-03-15T08:52:00.000Z</time>
      </trkpt>
      <trkpt lat="47.23792" lon="-2.27746">
        <ele>14.199999809265</ele>
        <time>2020-03-15T08:52:01.000Z</time>
      </trkpt>
      <trkpt lat="47.23794" lon="-2.27746">
        <ele>14.60000038147</ele>
        <time>2020-03-15T08:52:02.000Z</time>
      </trkpt>
      <trkpt lat="47.23796" lon="-2.27744">
        <ele>15</ele>
        <time>2020-03-15T08:52:03.000Z</time>
      </trkpt>
      <trkpt lat="47.23798" lon="-2.27743">
        <ele>15</ele>
        <time>2020-03-15T08:52:04.000Z</time>
      </trkpt>
      <trkpt lat="47.23811" lon="-2.2773">
        <ele>15</ele>
        <time>2020-03-15T08:52:10.000Z</time>
      </trkpt>
      <trkpt lat="47.23812" lon="-2.27726">
        <ele>15.39999961853</ele>
        <time>2020-03-15T08:52:11.000Z</time>
      </trkpt>
      <trkpt lat="47.23813" lon="-2.27722">
        <ele>16</ele>
        <time>2020-03-15T08:52:12.000Z</time>
      </trkpt>
      <trkpt lat="47.23814" lon="-2.27718">
        <ele>16.39999961853</ele>
        <time>2020-03-15T08:52:13.000Z</time>
      </trkpt>
      <trkpt lat="47.23813" lon="-2.27715">
        <ele>16.799999237061</ele>
        <time>2020-03-15T08:52:14.000Z</time>
      </trkpt>
      <trkpt lat="47.23813" lon="-2.27712">
        <ele>17.39999961853</ele>
        <time>2020-03-15T08:52:15.000Z</time>
      </trkpt>
      <trkpt lat="47.23812" lon="-2.27699">
        <ele>17.799999237061</ele>
        <time>2020-03-15T08:52:20.000Z</time>
      </trkpt>
      <trkpt lat="47.23811" lon="-2.27697">
        <ele>18.200000762939</ele>
        <time>2020-03-15T08:52:21.000Z</time>
      </trkpt>
      <trkpt lat="47.2381" lon="-2.27694">
        <ele>18.60000038147</ele>
        <time>2020-03-15T08:52:22.000Z</time>
      </trkpt>
      <trkpt lat="47.2381" lon="-2.27691">
        <ele>19</ele>
        <time>2020-03-15T08:52:23.000Z</time>
      </trkpt>
      <trkpt lat="47.2381" lon="-2.27688">
        <ele>19.60000038147</ele>
        <time>2020-03-15T08:52:24.000Z</time>
      </trkpt>
      <trkpt lat="47.23811" lon="-2.27685">
        <ele>19.60000038147</ele>
        <time>2020-03-15T08:52:25.000Z</time>
      </trkpt>
      <trkpt lat="47.23811" lon="-2.27676">
        <ele>19</ele>
        <time>2020-03-15T08:52:28.000Z</time>
      </trkpt>
      <trkpt lat="47.23811" lon="-2.27673">
        <ele>18.60000038147</ele>
        <time>2020-03-15T08:52:29.000Z</time>
      </trkpt>
      <trkpt lat="47.23811" lon="-2.27669">
        <ele>18.200000762939</ele>
        <time>2020-03-15T08:52:30.000Z</time>
      </trkpt>
      <trkpt lat="47.23811" lon="-2.27665">
        <ele>17.60000038147</ele>
        <time>2020-03-15T08:52:31.000Z</time>
      </trkpt>
      <trkpt lat="47.23811" lon="-2.27661">
        <ele>17.200000762939</ele>
        <time>2020-03-15T08:52:32.000Z</time>
      </trkpt>
      <trkpt lat="47.23811" lon="-2.27657">
        <ele>16.60000038147</ele>
        <time>2020-03-15T08:52:33.000Z</time>
      </trkpt>
      <trkpt lat="47.23811" lon="-2.27654">
        <ele>16.200000762939</ele>
        <time>2020-03-15T08:52:34.000Z</time>
      </trkpt>
      <trkpt lat="47.23813" lon="-2.27652">
        <ele>15.60000038147</ele>
        <time>2020-03-15T08:52:35.000Z</time>
      </trkpt>
      <trkpt lat="47.23814" lon="-2.27651">
        <ele>15.199999809265</ele>
        <time>2020-03-15T08:52:36.000Z</time>
      </trkpt>
      <trkpt lat="47.23827" lon="-2.27648">
        <ele>15.199999809265</ele>
        <time>2020-03-15T08:52:42.000Z</time>
      </trkpt>
      <trkpt lat="47.23842" lon="-2.27642">
        <ele>15.199999809265</ele>
        <time>2020-03-15T08:52:49.000Z</time>
      </trkpt>
      <trkpt lat="47.23856" lon="-2.27637">
        <ele>15.199999809265</ele>
        <time>2020-03-15T08:52:56.000Z</time>
      </trkpt>
      <trkpt lat="47.23872" lon="-2.27632">
        <ele>15.199999809265</ele>
        <time>2020-03-15T08:53:04.000Z</time>
      </trkpt>
      <trkpt lat="47.23885" lon="-2.27627">
        <ele>15.199999809265</ele>
        <time>2020-03-15T08:53:10.000Z</time>
      </trkpt>
      <trkpt lat="47.23899" lon="-2.27627">
        <ele>15.199999809265</ele>
        <time>2020-03-15T08:53:15.000Z</time>
      </trkpt>
      <trkpt lat="47.23915" lon="-2.27634">
        <ele>15.199999809265</ele>
        <time>2020-03-15T08:53:22.000Z</time>
      </trkpt>
      <trkpt lat="47.23921" lon="-2.27642">
        <ele>15.60000038147</ele>
        <time>2020-03-15T08:53:25.000Z</time>
      </trkpt>
      <trkpt lat="47.23924" lon="-2.27645">
        <ele>16</ele>
        <time>2020-03-15T08:53:26.000Z</time>
      </trkpt>
      <trkpt lat="47.23926" lon="-2.27647">
        <ele>16.39999961853</ele>
        <time>2020-03-15T08:53:27.000Z</time>
      </trkpt>
      <trkpt lat="47.23928" lon="-2.2765">
        <ele>16.799999237061</ele>
        <time>2020-03-15T08:53:28.000Z</time>
      </trkpt>
      <trkpt lat="47.2393" lon="-2.27652">
        <ele>17.200000762939</ele>
        <time>2020-03-15T08:53:29.000Z</time>
      </trkpt>
      <trkpt lat="47.23944" lon="-2.2766">
        <ele>17.200000762939</ele>
        <time>2020-03-15T08:53:34.000Z</time>
      </trkpt>
      <trkpt lat="47.23974" lon="-2.27672">
        <ele>17.200000762939</ele>
        <time>2020-03-15T08:53:42.000Z</time>
      </trkpt>
      <trkpt lat="47.23982" lon="-2.27672">
        <ele>16.799999237061</ele>
        <time>2020-03-15T08:53:44.000Z</time>
      </trkpt>
      <trkpt lat="47.23986" lon="-2.2767">
        <ele>16.200000762939</ele>
        <time>2020-03-15T08:53:45.000Z</time>
      </trkpt>
      <trkpt lat="47.2399" lon="-2.27667">
        <ele>15.800000190735</ele>
        <time>2020-03-15T08:53:46.000Z</time>
      </trkpt>
      <trkpt lat="47.23994" lon="-2.27662">
        <ele>15.39999961853</ele>
        <time>2020-03-15T08:53:47.000Z</time>
      </trkpt>
      <trkpt lat="47.23998" lon="-2.27658">
        <ele>14.800000190735</ele>
        <time>2020-03-15T08:53:48.000Z</time>
      </trkpt>
      <trkpt lat="47.24011" lon="-2.27651">
        <ele>14.800000190735</ele>
        <time>2020-03-15T08:53:51.000Z</time>
      </trkpt>
      <trkpt lat="47.24016" lon="-2.2765">
        <ele>14.800000190735</ele>
        <time>2020-03-15T08:53:52.000Z</time>
      </trkpt>
      <trkpt lat="47.24026" lon="-2.27648">
        <ele>14.800000190735</ele>
        <time>2020-03-15T08:53:54.000Z</time>
      </trkpt>
      <trkpt lat="47.2404" lon="-2.27644">
        <ele>14.800000190735</ele>
        <time>2020-03-15T08:53:57.000Z</time>
      </trkpt>
      <trkpt lat="47.24044" lon="-2.27631">
        <ele>14.800000190735</ele>
        <time>2020-03-15T08:54:00.000Z</time>
      </trkpt>
      <trkpt lat="47.24036" lon="-2.27609">
        <ele>14.800000190735</ele>
        <time>2020-03-15T08:54:04.000Z</time>
      </trkpt>
      <trkpt lat="47.24034" lon="-2.27596">
        <ele>14.800000190735</ele>
        <time>2020-03-15T08:54:06.000Z</time>
      </trkpt>
      <trkpt lat="47.24034" lon="-2.27589">
        <ele>14.800000190735</ele>
        <time>2020-03-15T08:54:07.000Z</time>
      </trkpt>
      <trkpt lat="47.24035" lon="-2.27576">
        <ele>14.800000190735</ele>
        <time>2020-03-15T08:54:09.000Z</time>
      </trkpt>
      <trkpt lat="47.24038" lon="-2.2754">
        <ele>14.800000190735</ele>
        <time>2020-03-15T08:54:15.000Z</time>
      </trkpt>
      <trkpt lat="47.2404" lon="-2.27519">
        <ele>14.800000190735</ele>
        <time>2020-03-15T08:54:20.000Z</time>
      </trkpt>
      <trkpt lat="47.24042" lon="-2.27498">
        <ele>14.800000190735</ele>
        <time>2020-03-15T08:54:24.000Z</time>
      </trkpt>
      <trkpt lat="47.24043" lon="-2.27491">
        <ele>14.800000190735</ele>
        <time>2020-03-15T08:54:25.000Z</time>
      </trkpt>
      <trkpt lat="47.2405" lon="-2.27464">
        <ele>14.800000190735</ele>
        <time>2020-03-15T08:54:29.000Z</time>
      </trkpt>
      <trkpt lat="47.24054" lon="-2.27449">
        <ele>14.800000190735</ele>
        <time>2020-03-15T08:54:31.000Z</time>
      </trkpt>
      <trkpt lat="47.24058" lon="-2.27442">
        <ele>14.800000190735</ele>
        <time>2020-03-15T08:54:32.000Z</time>
      </trkpt>
      <trkpt lat="47.24071" lon="-2.2742">
        <ele>14.39999961853</ele>
        <time>2020-03-15T08:54:35.000Z</time>
      </trkpt>
      <trkpt lat="47.24075" lon="-2.27413">
        <ele>14</ele>
        <time>2020-03-15T08:54:36.000Z</time>
      </trkpt>
      <trkpt lat="47.2408" lon="-2.27405">
        <ele>13.39999961853</ele>
        <time>2020-03-15T08:54:37.000Z</time>
      </trkpt>
      <trkpt lat="47.24083" lon="-2.27396">
        <ele>13</ele>
        <time>2020-03-15T08:54:38.000Z</time>
      </trkpt>
      <trkpt lat="47.24086" lon="-2.27387">
        <ele>12.60000038147</ele>
        <time>2020-03-15T08:54:39.000Z</time>
      </trkpt>
      <trkpt lat="47.24088" lon="-2.27377">
        <ele>12.60000038147</ele>
        <time>2020-03-15T08:54:40.000Z</time>
      </trkpt>
      <trkpt lat="47.24093" lon="-2.27346">
        <ele>12.199999809265</ele>
        <time>2020-03-15T08:54:43.000Z</time>
      </trkpt>
      <trkpt lat="47.24094" lon="-2.27336">
        <ele>11.800000190735</ele>
        <time>2020-03-15T08:54:44.000Z</time>
      </trkpt>
      <trkpt lat="47.24095" lon="-2.27329">
        <ele>11.39999961853</ele>
        <time>2020-03-15T08:54:45.000Z</time>
      </trkpt>
      <trkpt lat="47.24098" lon="-2.27324">
        <ele>11</ele>
        <time>2020-03-15T08:54:46.000Z</time>
      </trkpt>
      <trkpt lat="47.24102" lon="-2.27321">
        <ele>10.60000038147</ele>
        <time>2020-03-15T08:54:47.000Z</time>
      </trkpt>
      <trkpt lat="47.24107" lon="-2.27319">
        <ele>10.60000038147</ele>
        <time>2020-03-15T08:54:48.000Z</time>
      </trkpt>
      <trkpt lat="47.24119" lon="-2.27321">
        <ele>10.60000038147</ele>
        <time>2020-03-15T08:54:50.000Z</time>
      </trkpt>
      <trkpt lat="47.24132" lon="-2.27323">
        <ele>10.60000038147</ele>
        <time>2020-03-15T08:54:52.000Z</time>
      </trkpt>
      <trkpt lat="47.24151" lon="-2.27327">
        <ele>10.60000038147</ele>
        <time>2020-03-15T08:54:55.000Z</time>
      </trkpt>
      <trkpt lat="47.24164" lon="-2.27326">
        <ele>10.60000038147</ele>
        <time>2020-03-15T08:54:57.000Z</time>
      </trkpt>
      <trkpt lat="47.24171" lon="-2.27325">
        <ele>10.60000038147</ele>
        <time>2020-03-15T08:54:58.000Z</time>
      </trkpt>
      <trkpt lat="47.24189" lon="-2.27316">
        <ele>10.60000038147</ele>
        <time>2020-03-15T08:55:01.000Z</time>
      </trkpt>
      <trkpt lat="47.242" lon="-2.27308">
        <ele>10.60000038147</ele>
        <time>2020-03-15T08:55:03.000Z</time>
      </trkpt>
      <trkpt lat="47.24219" lon="-2.27294">
        <ele>10.60000038147</ele>
        <time>2020-03-15T08:55:07.000Z</time>
      </trkpt>
      <trkpt lat="47.24224" lon="-2.27291">
        <ele>10.60000038147</ele>
        <time>2020-03-15T08:55:08.000Z</time>
      </trkpt>
      <trkpt lat="47.24249" lon="-2.27275">
        <ele>10.60000038147</ele>
        <time>2020-03-15T08:55:14.000Z</time>
      </trkpt>
      <trkpt lat="47.24252" lon="-2.27271">
        <ele>10.60000038147</ele>
        <time>2020-03-15T08:55:15.000Z</time>
      </trkpt>
      <trkpt lat="47.24263" lon="-2.27257">
        <ele>10.60000038147</ele>
        <time>2020-03-15T08:55:18.000Z</time>
      </trkpt>
      <trkpt lat="47.24285" lon="-2.27229">
        <ele>10.60000038147</ele>
        <time>2020-03-15T08:55:24.000Z</time>
      </trkpt>
      <trkpt lat="47.24288" lon="-2.27223">
        <ele>11</ele>
        <time>2020-03-15T08:55:25.000Z</time>
      </trkpt>
      <trkpt lat="47.24289" lon="-2.27218">
        <ele>11.60000038147</ele>
        <time>2020-03-15T08:55:26.000Z</time>
      </trkpt>
      <trkpt lat="47.2429" lon="-2.27213">
        <ele>12</ele>
        <time>2020-03-15T08:55:27.000Z</time>
      </trkpt>
      <trkpt lat="47.24291" lon="-2.27208">
        <ele>12.39999961853</ele>
        <time>2020-03-15T08:55:28.000Z</time>
      </trkpt>
      <trkpt lat="47.24292" lon="-2.27203">
        <ele>13</ele>
        <time>2020-03-15T08:55:29.000Z</time>
      </trkpt>
      <trkpt lat="47.24294" lon="-2.27194">
        <ele>13.39999961853</ele>
        <time>2020-03-15T08:55:31.000Z</time>
      </trkpt>
      <trkpt lat="47.24295" lon="-2.2719">
        <ele>13.800000190735</ele>
        <time>2020-03-15T08:55:32.000Z</time>
      </trkpt>
      <trkpt lat="47.24296" lon="-2.27187">
        <ele>14.199999809265</ele>
        <time>2020-03-15T08:55:33.000Z</time>
      </trkpt>
      <trkpt lat="47.24298" lon="-2.27184">
        <ele>14.60000038147</ele>
        <time>2020-03-15T08:55:34.000Z</time>
      </trkpt>
      <trkpt lat="47.243" lon="-2.27182">
        <ele>15</ele>
        <time>2020-03-15T08:55:35.000Z</time>
      </trkpt>
      <trkpt lat="47.24309" lon="-2.27164">
        <ele>15</ele>
        <time>2020-03-15T08:55:40.000Z</time>
      </trkpt>
      <trkpt lat="47.24315" lon="-2.27161">
        <ele>15</ele>
        <time>2020-03-15T08:55:42.000Z</time>
      </trkpt>
      <trkpt lat="47.24319" lon="-2.27161">
        <ele>15</ele>
        <time>2020-03-15T08:55:43.000Z</time>
      </trkpt>
      <trkpt lat="47.24339" lon="-2.27151">
        <ele>15</ele>
        <time>2020-03-15T08:55:48.000Z</time>
      </trkpt>
      <trkpt lat="47.24364" lon="-2.27133">
        <ele>15</ele>
        <time>2020-03-15T08:55:54.000Z</time>
      </trkpt>
      <trkpt lat="47.24384" lon="-2.27121">
        <ele>15</ele>
        <time>2020-03-15T08:55:58.000Z</time>
      </trkpt>
      <trkpt lat="47.24389" lon="-2.27117">
        <ele>15</ele>
        <time>2020-03-15T08:55:59.000Z</time>
      </trkpt>
      <trkpt lat="47.24407" lon="-2.27098">
        <ele>15</ele>
        <time>2020-03-15T08:56:03.000Z</time>
      </trkpt>
      <trkpt lat="47.2441" lon="-2.27092">
        <ele>15.39999961853</ele>
        <time>2020-03-15T08:56:04.000Z</time>
      </trkpt>
      <trkpt lat="47.24413" lon="-2.27087">
        <ele>15.800000190735</ele>
        <time>2020-03-15T08:56:05.000Z</time>
      </trkpt>
      <trkpt lat="47.24416" lon="-2.27081">
        <ele>16.200000762939</ele>
        <time>2020-03-15T08:56:06.000Z</time>
      </trkpt>
      <trkpt lat="47.24418" lon="-2.27076">
        <ele>16.60000038147</ele>
        <time>2020-03-15T08:56:07.000Z</time>
      </trkpt>
      <trkpt lat="47.24419" lon="-2.2707">
        <ele>17</ele>
        <time>2020-03-15T08:56:08.000Z</time>
      </trkpt>
      <trkpt lat="47.24419" lon="-2.27064">
        <ele>17</ele>
        <time>2020-03-15T08:56:09.000Z</time>
      </trkpt>
      <trkpt lat="47.24418" lon="-2.2705">
        <ele>17</ele>
        <time>2020-03-15T08:56:12.000Z</time>
      </trkpt>
      <trkpt lat="47.24418" lon="-2.27041">
        <ele>17</ele>
        <time>2020-03-15T08:56:14.000Z</time>
      </trkpt>
      <trkpt lat="47.24422" lon="-2.27016">
        <ele>17</ele>
        <time>2020-03-15T08:56:20.000Z</time>
      </trkpt>
      <trkpt lat="47.24426" lon="-2.2701">
        <ele>17</ele>
        <time>2020-03-15T08:56:22.000Z</time>
      </trkpt>
      <trkpt lat="47.24433" lon="-2.27004">
        <ele>17</ele>
        <time>2020-03-15T08:56:24.000Z</time>
      </trkpt>
      <trkpt lat="47.24443" lon="-2.26998">
        <ele>17</ele>
        <time>2020-03-15T08:56:26.000Z</time>
      </trkpt>
      <trkpt lat="47.24461" lon="-2.26982">
        <ele>17.39999961853</ele>
        <time>2020-03-15T08:56:30.000Z</time>
      </trkpt>
      <trkpt lat="47.24466" lon="-2.26978">
        <ele>17.799999237061</ele>
        <time>2020-03-15T08:56:31.000Z</time>
      </trkpt>
      <trkpt lat="47.2447" lon="-2.26973">
        <ele>18.60000038147</ele>
        <time>2020-03-15T08:56:32.000Z</time>
      </trkpt>
      <trkpt lat="47.24474" lon="-2.26968">
        <ele>19</ele>
        <time>2020-03-15T08:56:33.000Z</time>
      </trkpt>
      <trkpt lat="47.2448" lon="-2.26959">
        <ele>19</ele>
        <time>2020-03-15T08:56:35.000Z</time>
      </trkpt>
      <trkpt lat="47.24494" lon="-2.2694">
        <ele>19</ele>
        <time>2020-03-15T08:56:40.000Z</time>
      </trkpt>
      <trkpt lat="47.24502" lon="-2.26931">
        <ele>19.39999961853</ele>
        <time>2020-03-15T08:56:43.000Z</time>
      </trkpt>
      <trkpt lat="47.24505" lon="-2.26928">
        <ele>19.799999237061</ele>
        <time>2020-03-15T08:56:44.000Z</time>
      </trkpt>
      <trkpt lat="47.24508" lon="-2.26925">
        <ele>20.39999961853</ele>
        <time>2020-03-15T08:56:45.000Z</time>
      </trkpt>
      <trkpt lat="47.2451" lon="-2.26922">
        <ele>20.799999237061</ele>
        <time>2020-03-15T08:56:46.000Z</time>
      </trkpt>
      <trkpt lat="47.24513" lon="-2.26918">
        <ele>21.200000762939</ele>
        <time>2020-03-15T08:56:47.000Z</time>
      </trkpt>
      <trkpt lat="47.24524" lon="-2.26896">
        <ele>21.200000762939</ele>
        <time>2020-03-15T08:56:52.000Z</time>
      </trkpt>
      <trkpt lat="47.24528" lon="-2.26891">
        <ele>21.60000038147</ele>
        <time>2020-03-15T08:56:53.000Z</time>
      </trkpt>
      <trkpt lat="47.24532" lon="-2.26887">
        <ele>22</ele>
        <time>2020-03-15T08:56:54.000Z</time>
      </trkpt>
      <trkpt lat="47.24537" lon="-2.26882">
        <ele>22.39999961853</ele>
        <time>2020-03-15T08:56:55.000Z</time>
      </trkpt>
      <trkpt lat="47.24541" lon="-2.26877">
        <ele>22.799999237061</ele>
        <time>2020-03-15T08:56:56.000Z</time>
      </trkpt>
      <trkpt lat="47.24546" lon="-2.26872">
        <ele>23.200000762939</ele>
        <time>2020-03-15T08:56:57.000Z</time>
      </trkpt>
      <trkpt lat="47.2455" lon="-2.26868">
        <ele>23.200000762939</ele>
        <time>2020-03-15T08:56:58.000Z</time>
      </trkpt>
      <trkpt lat="47.24568" lon="-2.26853">
        <ele>23.200000762939</ele>
        <time>2020-03-15T08:57:02.000Z</time>
      </trkpt>
      <trkpt lat="47.24576" lon="-2.26845">
        <ele>23.200000762939</ele>
        <time>2020-03-15T08:57:04.000Z</time>
      </trkpt>
      <trkpt lat="47.24581" lon="-2.26843">
        <ele>23.200000762939</ele>
        <time>2020-03-15T08:57:05.000Z</time>
      </trkpt>
      <trkpt lat="47.24586" lon="-2.26842">
        <ele>23.200000762939</ele>
        <time>2020-03-15T08:57:06.000Z</time>
      </trkpt>
      <trkpt lat="47.246" lon="-2.2684">
        <ele>23.200000762939</ele>
        <time>2020-03-15T08:57:09.000Z</time>
      </trkpt>
      <trkpt lat="47.24604" lon="-2.26835">
        <ele>23.200000762939</ele>
        <time>2020-03-15T08:57:10.000Z</time>
      </trkpt>
      <trkpt lat="47.24616" lon="-2.26824">
        <ele>23.60000038147</ele>
        <time>2020-03-15T08:57:13.000Z</time>
      </trkpt>
      <trkpt lat="47.2462" lon="-2.2682">
        <ele>24</ele>
        <time>2020-03-15T08:57:14.000Z</time>
      </trkpt>
      <trkpt lat="47.24624" lon="-2.26816">
        <ele>24.39999961853</ele>
        <time>2020-03-15T08:57:15.000Z</time>
      </trkpt>
      <trkpt lat="47.24628" lon="-2.26813">
        <ele>24.799999237061</ele>
        <time>2020-03-15T08:57:16.000Z</time>
      </trkpt>
      <trkpt lat="47.24633" lon="-2.26811">
        <ele>25.200000762939</ele>
        <time>2020-03-15T08:57:17.000Z</time>
      </trkpt>
      <trkpt lat="47.24637" lon="-2.26811">
        <ele>25.200000762939</ele>
        <time>2020-03-15T08:57:18.000Z</time>
      </trkpt>
      <trkpt lat="47.24646" lon="-2.26809">
        <ele>25.200000762939</ele>
        <time>2020-03-15T08:57:20.000Z</time>
      </trkpt>
      <trkpt lat="47.24654" lon="-2.26803">
        <ele>25.200000762939</ele>
        <time>2020-03-15T08:57:22.000Z</time>
      </trkpt>
      <trkpt lat="47.24659" lon="-2.26801">
        <ele>25.60000038147</ele>
        <time>2020-03-15T08:57:23.000Z</time>
      </trkpt>
      <trkpt lat="47.24663" lon="-2.26798">
        <ele>26</ele>
        <time>2020-03-15T08:57:24.000Z</time>
      </trkpt>
      <trkpt lat="47.24667" lon="-2.26795">
        <ele>26.39999961853</ele>
        <time>2020-03-15T08:57:25.000Z</time>
      </trkpt>
      <trkpt lat="47.2467" lon="-2.26791">
        <ele>26.799999237061</ele>
        <time>2020-03-15T08:57:26.000Z</time>
      </trkpt>
      <trkpt lat="47.24674" lon="-2.26786">
        <ele>27.200000762939</ele>
        <time>2020-03-15T08:57:27.000Z</time>
      </trkpt>
      <trkpt lat="47.24677" lon="-2.26782">
        <ele>27.200000762939</ele>
        <time>2020-03-15T08:57:28.000Z</time>
      </trkpt>
      <trkpt lat="47.24691" lon="-2.26777">
        <ele>27.200000762939</ele>
        <time>2020-03-15T08:57:31.000Z</time>
      </trkpt>
      <trkpt lat="47.24696" lon="-2.26776">
        <ele>27.200000762939</ele>
        <time>2020-03-15T08:57:32.000Z</time>
      </trkpt>
      <trkpt lat="47.24725" lon="-2.26775">
        <ele>27.200000762939</ele>
        <time>2020-03-15T08:57:37.000Z</time>
      </trkpt>
      <trkpt lat="47.24746" lon="-2.26777">
        <ele>27.60000038147</ele>
        <time>2020-03-15T08:57:41.000Z</time>
      </trkpt>
      <trkpt lat="47.24751" lon="-2.26778">
        <ele>28</ele>
        <time>2020-03-15T08:57:42.000Z</time>
      </trkpt>
      <trkpt lat="47.24756" lon="-2.26779">
        <ele>28.39999961853</ele>
        <time>2020-03-15T08:57:43.000Z</time>
      </trkpt>
      <trkpt lat="47.24761" lon="-2.26779">
        <ele>28.799999237061</ele>
        <time>2020-03-15T08:57:44.000Z</time>
      </trkpt>
      <trkpt lat="47.24765" lon="-2.2678">
        <ele>29.200000762939</ele>
        <time>2020-03-15T08:57:45.000Z</time>
      </trkpt>
      <trkpt lat="47.24774" lon="-2.26781">
        <ele>29.200000762939</ele>
        <time>2020-03-15T08:57:47.000Z</time>
      </trkpt>
      <trkpt lat="47.24787" lon="-2.26787">
        <ele>29.200000762939</ele>
        <time>2020-03-15T08:57:50.000Z</time>
      </trkpt>
      <trkpt lat="47.24796" lon="-2.26791">
        <ele>29.60000038147</ele>
        <time>2020-03-15T08:57:52.000Z</time>
      </trkpt>
      <trkpt lat="47.24801" lon="-2.26792">
        <ele>30.200000762939</ele>
        <time>2020-03-15T08:57:53.000Z</time>
      </trkpt>
      <trkpt lat="47.24806" lon="-2.26794">
        <ele>30.60000038147</ele>
        <time>2020-03-15T08:57:54.000Z</time>
      </trkpt>
      <trkpt lat="47.2481" lon="-2.26796">
        <ele>31</ele>
        <time>2020-03-15T08:57:55.000Z</time>
      </trkpt>
      <trkpt lat="47.24815" lon="-2.26797">
        <ele>31.39999961853</ele>
        <time>2020-03-15T08:57:56.000Z</time>
      </trkpt>
      <trkpt lat="47.2482" lon="-2.26799">
        <ele>31.39999961853</ele>
        <time>2020-03-15T08:57:57.000Z</time>
      </trkpt>
      <trkpt lat="47.24834" lon="-2.26802">
        <ele>31.39999961853</ele>
        <time>2020-03-15T08:58:00.000Z</time>
      </trkpt>
      <trkpt lat="47.24843" lon="-2.26799">
        <ele>31.39999961853</ele>
        <time>2020-03-15T08:58:02.000Z</time>
      </trkpt>
      <trkpt lat="47.24859" lon="-2.26807">
        <ele>31.39999961853</ele>
        <time>2020-03-15T08:58:06.000Z</time>
      </trkpt>
      <trkpt lat="47.24864" lon="-2.26809">
        <ele>31.39999961853</ele>
        <time>2020-03-15T08:58:07.000Z</time>
      </trkpt>
      <trkpt lat="47.24868" lon="-2.2681">
        <ele>31.799999237061</ele>
        <time>2020-03-15T08:58:08.000Z</time>
      </trkpt>
      <trkpt lat="47.24873" lon="-2.26811">
        <ele>32.200000762939</ele>
        <time>2020-03-15T08:58:09.000Z</time>
      </trkpt>
      <trkpt lat="47.24878" lon="-2.26812">
        <ele>33</ele>
        <time>2020-03-15T08:58:10.000Z</time>
      </trkpt>
      <trkpt lat="47.24882" lon="-2.26815">
        <ele>33.400001525879</ele>
        <time>2020-03-15T08:58:11.000Z</time>
      </trkpt>
      <trkpt lat="47.24887" lon="-2.26817">
        <ele>33.400001525879</ele>
        <time>2020-03-15T08:58:12.000Z</time>
      </trkpt>
      <trkpt lat="47.24897" lon="-2.26821">
        <ele>33.400001525879</ele>
        <time>2020-03-15T08:58:14.000Z</time>
      </trkpt>
      <trkpt lat="47.24902" lon="-2.26822">
        <ele>33.400001525879</ele>
        <time>2020-03-15T08:58:15.000Z</time>
      </trkpt>
      <trkpt lat="47.24915" lon="-2.26828">
        <ele>33.400001525879</ele>
        <time>2020-03-15T08:58:18.000Z</time>
      </trkpt>
      <trkpt lat="47.24919" lon="-2.2683">
        <ele>33.400001525879</ele>
        <time>2020-03-15T08:58:19.000Z</time>
      </trkpt>
      <trkpt lat="47.24923" lon="-2.26833">
        <ele>33.400001525879</ele>
        <time>2020-03-15T08:58:20.000Z</time>
      </trkpt>
      <trkpt lat="47.24943" lon="-2.26847">
        <ele>33.799999237061</ele>
        <time>2020-03-15T08:58:25.000Z</time>
      </trkpt>
      <trkpt lat="47.24947" lon="-2.26849">
        <ele>34.400001525879</ele>
        <time>2020-03-15T08:58:26.000Z</time>
      </trkpt>
      <trkpt lat="47.24952" lon="-2.26851">
        <ele>34.799999237061</ele>
        <time>2020-03-15T08:58:27.000Z</time>
      </trkpt>
      <trkpt lat="47.24956" lon="-2.26854">
        <ele>35.200000762939</ele>
        <time>2020-03-15T08:58:28.000Z</time>
      </trkpt>
      <trkpt lat="47.24961" lon="-2.26857">
        <ele>35.599998474121</ele>
        <time>2020-03-15T08:58:29.000Z</time>
      </trkpt>
      <trkpt lat="47.24965" lon="-2.26861">
        <ele>35.599998474121</ele>
        <time>2020-03-15T08:58:30.000Z</time>
      </trkpt>
      <trkpt lat="47.24974" lon="-2.26868">
        <ele>35.599998474121</ele>
        <time>2020-03-15T08:58:32.000Z</time>
      </trkpt>
      <trkpt lat="47.24987" lon="-2.2687">
        <ele>35.599998474121</ele>
        <time>2020-03-15T08:58:35.000Z</time>
      </trkpt>
      <trkpt lat="47.24997" lon="-2.26869">
        <ele>35.599998474121</ele>
        <time>2020-03-15T08:58:37.000Z</time>
      </trkpt>
      <trkpt lat="47.25026" lon="-2.26863">
        <ele>35.599998474121</ele>
        <time>2020-03-15T08:58:43.000Z</time>
      </trkpt>
      <trkpt lat="47.25054" lon="-2.26858">
        <ele>35.599998474121</ele>
        <time>2020-03-15T08:58:49.000Z</time>
      </trkpt>
      <trkpt lat="47.25081" lon="-2.26864">
        <ele>35.599998474121</ele>
        <time>2020-03-15T08:58:54.000Z</time>
      </trkpt>
      <trkpt lat="47.25095" lon="-2.2688">
        <ele>35.599998474121</ele>
        <time>2020-03-15T08:58:57.000Z</time>
      </trkpt>
      <trkpt lat="47.25099" lon="-2.26886">
        <ele>35.599998474121</ele>
        <time>2020-03-15T08:58:58.000Z</time>
      </trkpt>
      <trkpt lat="47.25104" lon="-2.26891">
        <ele>35.599998474121</ele>
        <time>2020-03-15T08:58:59.000Z</time>
      </trkpt>
      <trkpt lat="47.25115" lon="-2.26896">
        <ele>35.599998474121</ele>
        <time>2020-03-15T08:59:01.000Z</time>
      </trkpt>
      <trkpt lat="47.25129" lon="-2.26909">
        <ele>35.599998474121</ele>
        <time>2020-03-15T08:59:04.000Z</time>
      </trkpt>
      <trkpt lat="47.25139" lon="-2.26936">
        <ele>35.599998474121</ele>
        <time>2020-03-15T08:59:08.000Z</time>
      </trkpt>
      <trkpt lat="47.25145" lon="-2.26935">
        <ele>35.599998474121</ele>
        <time>2020-03-15T08:59:10.000Z</time>
      </trkpt>
      <trkpt lat="47.25149" lon="-2.26918">
        <ele>35.599998474121</ele>
        <time>2020-03-15T08:59:13.000Z</time>
      </trkpt>
      <trkpt lat="47.2515" lon="-2.26911">
        <ele>35.599998474121</ele>
        <time>2020-03-15T08:59:14.000Z</time>
      </trkpt>
      <trkpt lat="47.25152" lon="-2.26891">
        <ele>35.599998474121</ele>
        <time>2020-03-15T08:59:17.000Z</time>
      </trkpt>
      <trkpt lat="47.25151" lon="-2.26879">
        <ele>35.599998474121</ele>
        <time>2020-03-15T08:59:19.000Z</time>
      </trkpt>
      <trkpt lat="47.25153" lon="-2.26855">
        <ele>35.599998474121</ele>
        <time>2020-03-15T08:59:24.000Z</time>
      </trkpt>
      <trkpt lat="47.25155" lon="-2.26848">
        <ele>35.599998474121</ele>
        <time>2020-03-15T08:59:28.000Z</time>
      </trkpt>
      <trkpt lat="47.25156" lon="-2.26843">
        <ele>35.599998474121</ele>
        <time>2020-03-15T09:00:00.000Z</time>
      </trkpt>
      <trkpt lat="47.25158" lon="-2.26837">
        <ele>35.599998474121</ele>
        <time>2020-03-15T09:00:02.000Z</time>
      </trkpt>
      <trkpt lat="47.25162" lon="-2.26814">
        <ele>35.599998474121</ele>
        <time>2020-03-15T09:00:07.000Z</time>
      </trkpt>
      <trkpt lat="47.25173" lon="-2.26793">
        <ele>35.599998474121</ele>
        <time>2020-03-15T09:00:11.000Z</time>
      </trkpt>
      <trkpt lat="47.25177" lon="-2.26783">
        <ele>35.599998474121</ele>
        <time>2020-03-15T09:00:13.000Z</time>
      </trkpt>
      <trkpt lat="47.2518" lon="-2.26769">
        <ele>35.599998474121</ele>
        <time>2020-03-15T09:00:15.000Z</time>
      </trkpt>
      <trkpt lat="47.25179" lon="-2.26738">
        <ele>35.599998474121</ele>
        <time>2020-03-15T09:00:19.000Z</time>
      </trkpt>
      <trkpt lat="47.25178" lon="-2.2673">
        <ele>35.599998474121</ele>
        <time>2020-03-15T09:00:20.000Z</time>
      </trkpt>
      <trkpt lat="47.25176" lon="-2.26657">
        <ele>35.599998474121</ele>
        <time>2020-03-15T09:00:29.000Z</time>
      </trkpt>
      <trkpt lat="47.25172" lon="-2.26602">
        <ele>35.599998474121</ele>
        <time>2020-03-15T09:00:36.000Z</time>
      </trkpt>
      <trkpt lat="47.25165" lon="-2.26556">
        <ele>35.200000762939</ele>
        <time>2020-03-15T09:00:42.000Z</time>
      </trkpt>
      <trkpt lat="47.25164" lon="-2.26548">
        <ele>34.599998474121</ele>
        <time>2020-03-15T09:00:43.000Z</time>
      </trkpt>
      <trkpt lat="47.25162" lon="-2.26539">
        <ele>34.200000762939</ele>
        <time>2020-03-15T09:00:44.000Z</time>
      </trkpt>
      <trkpt lat="47.25161" lon="-2.2653">
        <ele>33.799999237061</ele>
        <time>2020-03-15T09:00:45.000Z</time>
      </trkpt>
      <trkpt lat="47.25159" lon="-2.26522">
        <ele>33.400001525879</ele>
        <time>2020-03-15T09:00:46.000Z</time>
      </trkpt>
      <trkpt lat="47.25155" lon="-2.26507">
        <ele>33.400001525879</ele>
        <time>2020-03-15T09:00:48.000Z</time>
      </trkpt>
      <trkpt lat="47.25144" lon="-2.26467">
        <ele>32.799999237061</ele>
        <time>2020-03-15T09:00:53.000Z</time>
      </trkpt>
      <trkpt lat="47.25142" lon="-2.26459">
        <ele>32.400001525879</ele>
        <time>2020-03-15T09:00:54.000Z</time>
      </trkpt>
      <trkpt lat="47.2514" lon="-2.26452">
        <ele>32</ele>
        <time>2020-03-15T09:00:55.000Z</time>
      </trkpt>
      <trkpt lat="47.25139" lon="-2.26445">
        <ele>31.60000038147</ele>
        <time>2020-03-15T09:00:56.000Z</time>
      </trkpt>
      <trkpt lat="47.25137" lon="-2.26437">
        <ele>31.200000762939</ele>
        <time>2020-03-15T09:00:57.000Z</time>
      </trkpt>
      <trkpt lat="47.25131" lon="-2.26419">
        <ele>31.200000762939</ele>
        <time>2020-03-15T09:01:00.000Z</time>
      </trkpt>
      <trkpt lat="47.25128" lon="-2.26414">
        <ele>31.200000762939</ele>
        <time>2020-03-15T09:01:01.000Z</time>
      </trkpt>
      <trkpt lat="47.25119" lon="-2.26411">
        <ele>30.799999237061</ele>
        <time>2020-03-15T09:01:03.000Z</time>
      </trkpt>
      <trkpt lat="47.25115" lon="-2.26411">
        <ele>30</ele>
        <time>2020-03-15T09:01:04.000Z</time>
      </trkpt>
      <trkpt lat="47.2511" lon="-2.26412">
        <ele>29.39999961853</ele>
        <time>2020-03-15T09:01:05.000Z</time>
      </trkpt>
      <trkpt lat="47.25105" lon="-2.26411">
        <ele>29</ele>
        <time>2020-03-15T09:01:06.000Z</time>
      </trkpt>
      <trkpt lat="47.25094" lon="-2.26404">
        <ele>29</ele>
        <time>2020-03-15T09:01:08.000Z</time>
      </trkpt>
      <trkpt lat="47.25081" lon="-2.26384">
        <ele>29</ele>
        <time>2020-03-15T09:01:11.000Z</time>
      </trkpt>
      <trkpt lat="47.25076" lon="-2.26376">
        <ele>29</ele>
        <time>2020-03-15T09:01:12.000Z</time>
      </trkpt>
      <trkpt lat="47.25063" lon="-2.26341">
        <ele>29</ele>
        <time>2020-03-15T09:01:15.000Z</time>
      </trkpt>
      <trkpt lat="47.2506" lon="-2.26317">
        <ele>28.60000038147</ele>
        <time>2020-03-15T09:01:17.000Z</time>
      </trkpt>
      <trkpt lat="47.25059" lon="-2.26306">
        <ele>28.200000762939</ele>
        <time>2020-03-15T09:01:18.000Z</time>
      </trkpt>
      <trkpt lat="47.25059" lon="-2.26295">
        <ele>27.799999237061</ele>
        <time>2020-03-15T09:01:19.000Z</time>
      </trkpt>
      <trkpt lat="47.25059" lon="-2.26284">
        <ele>27.39999961853</ele>
        <time>2020-03-15T09:01:20.000Z</time>
      </trkpt>
      <trkpt lat="47.25061" lon="-2.26272">
        <ele>27</ele>
        <time>2020-03-15T09:01:21.000Z</time>
      </trkpt>
      <trkpt lat="47.25066" lon="-2.2625">
        <ele>27</ele>
        <time>2020-03-15T09:01:23.000Z</time>
      </trkpt>
      <trkpt lat="47.25079" lon="-2.26212">
        <ele>27</ele>
        <time>2020-03-15T09:01:27.000Z</time>
      </trkpt>
      <trkpt lat="47.2508" lon="-2.26201">
        <ele>27</ele>
        <time>2020-03-15T09:01:28.000Z</time>
      </trkpt>
      <trkpt lat="47.25083" lon="-2.26146">
        <ele>27</ele>
        <time>2020-03-15T09:01:34.000Z</time>
      </trkpt>
      <trkpt lat="47.25078" lon="-2.26137">
        <ele>27</ele>
        <time>2020-03-15T09:01:37.000Z</time>
      </trkpt>
      <trkpt lat="47.25068" lon="-2.26127">
        <ele>26.60000038147</ele>
        <time>2020-03-15T09:01:40.000Z</time>
      </trkpt>
      <trkpt lat="47.25066" lon="-2.2612">
        <ele>26</ele>
        <time>2020-03-15T09:01:41.000Z</time>
      </trkpt>
      <trkpt lat="47.25065" lon="-2.26112">
        <ele>25.60000038147</ele>
        <time>2020-03-15T09:01:42.000Z</time>
      </trkpt>
      <trkpt lat="47.25065" lon="-2.26103">
        <ele>25.200000762939</ele>
        <time>2020-03-15T09:01:43.000Z</time>
      </trkpt>
      <trkpt lat="47.25064" lon="-2.26095">
        <ele>24.60000038147</ele>
        <time>2020-03-15T09:01:44.000Z</time>
      </trkpt>
      <trkpt lat="47.25063" lon="-2.26077">
        <ele>24.200000762939</ele>
        <time>2020-03-15T09:01:46.000Z</time>
      </trkpt>
      <trkpt lat="47.25063" lon="-2.26068">
        <ele>23.799999237061</ele>
        <time>2020-03-15T09:01:47.000Z</time>
      </trkpt>
      <trkpt lat="47.25064" lon="-2.26058">
        <ele>23.39999961853</ele>
        <time>2020-03-15T09:01:48.000Z</time>
      </trkpt>
      <trkpt lat="47.25064" lon="-2.26047">
        <ele>22.799999237061</ele>
        <time>2020-03-15T09:01:49.000Z</time>
      </trkpt>
      <trkpt lat="47.25065" lon="-2.26035">
        <ele>22.39999961853</ele>
        <time>2020-03-15T09:01:50.000Z</time>
      </trkpt>
      <trkpt lat="47.25067" lon="-2.26012">
        <ele>22</ele>
        <time>2020-03-15T09:01:52.000Z</time>
      </trkpt>
      <trkpt lat="47.25067" lon="-2.25999">
        <ele>21.200000762939</ele>
        <time>2020-03-15T09:01:53.000Z</time>
      </trkpt>
      <trkpt lat="47.25067" lon="-2.25985">
        <ele>20.799999237061</ele>
        <time>2020-03-15T09:01:54.000Z</time>
      </trkpt>
      <trkpt lat="47.25067" lon="-2.25972">
        <ele>20.39999961853</ele>
        <time>2020-03-15T09:01:55.000Z</time>
      </trkpt>
      <trkpt lat="47.25067" lon="-2.2596">
        <ele>19.799999237061</ele>
        <time>2020-03-15T09:01:56.000Z</time>
      </trkpt>
      <trkpt lat="47.25068" lon="-2.25949">
        <ele>19.39999961853</ele>
        <time>2020-03-15T09:01:57.000Z</time>
      </trkpt>
      <trkpt lat="47.25069" lon="-2.25938">
        <ele>18.799999237061</ele>
        <time>2020-03-15T09:01:58.000Z</time>
      </trkpt>
      <trkpt lat="47.25069" lon="-2.25929">
        <ele>18.200000762939</ele>
        <time>2020-03-15T09:01:59.000Z</time>
      </trkpt>
      <trkpt lat="47.25069" lon="-2.2592">
        <ele>17.60000038147</ele>
        <time>2020-03-15T09:02:00.000Z</time>
      </trkpt>
      <trkpt lat="47.25068" lon="-2.25912">
        <ele>17</ele>
        <time>2020-03-15T09:02:01.000Z</time>
      </trkpt>
      <trkpt lat="47.25067" lon="-2.25905">
        <ele>16.200000762939</ele>
        <time>2020-03-15T09:02:02.000Z</time>
      </trkpt>
      <trkpt lat="47.25067" lon="-2.25898">
        <ele>15.60000038147</ele>
        <time>2020-03-15T09:02:03.000Z</time>
      </trkpt>
      <trkpt lat="47.25065" lon="-2.25879">
        <ele>15.60000038147</ele>
        <time>2020-03-15T09:02:06.000Z</time>
      </trkpt>
      <trkpt lat="47.25062" lon="-2.25877">
        <ele>15.60000038147</ele>
        <time>2020-03-15T09:02:07.000Z</time>
      </trkpt>
      <trkpt lat="47.25058" lon="-2.25877">
        <ele>15.60000038147</ele>
        <time>2020-03-15T09:02:09.000Z</time>
      </trkpt>
      <trkpt lat="47.25053" lon="-2.25892">
        <ele>15.60000038147</ele>
        <time>2020-03-15T09:02:12.000Z</time>
      </trkpt>
      <trkpt lat="47.25052" lon="-2.25899">
        <ele>16</ele>
        <time>2020-03-15T09:02:13.000Z</time>
      </trkpt>
      <trkpt lat="47.2505" lon="-2.25905">
        <ele>16.39999961853</ele>
        <time>2020-03-15T09:02:14.000Z</time>
      </trkpt>
      <trkpt lat="47.25048" lon="-2.25911">
        <ele>16.799999237061</ele>
        <time>2020-03-15T09:02:15.000Z</time>
      </trkpt>
      <trkpt lat="47.25046" lon="-2.25918">
        <ele>17.200000762939</ele>
        <time>2020-03-15T09:02:16.000Z</time>
      </trkpt>
      <trkpt lat="47.25045" lon="-2.25924">
        <ele>17.60000038147</ele>
        <time>2020-03-15T09:02:17.000Z</time>
      </trkpt>
      <trkpt lat="47.25044" lon="-2.2593">
        <ele>17.60000038147</ele>
        <time>2020-03-15T09:02:18.000Z</time>
      </trkpt>
      <trkpt lat="47.25042" lon="-2.2594">
        <ele>18.200000762939</ele>
        <time>2020-03-15T09:02:20.000Z</time>
      </trkpt>
      <trkpt lat="47.25041" lon="-2.25944">
        <ele>18.60000038147</ele>
        <time>2020-03-15T09:02:21.000Z</time>
      </trkpt>
      <trkpt lat="47.2504" lon="-2.25948">
        <ele>19</ele>
        <time>2020-03-15T09:02:22.000Z</time>
      </trkpt>
      <trkpt lat="47.2504" lon="-2.25951">
        <ele>19.39999961853</ele>
        <time>2020-03-15T09:02:23.000Z</time>
      </trkpt>
      <trkpt lat="47.2504" lon="-2.25955">
        <ele>20</ele>
        <time>2020-03-15T09:02:24.000Z</time>
      </trkpt>
      <trkpt lat="47.25041" lon="-2.25956">
        <ele>20</ele>
        <time>2020-03-15T09:02:25.000Z</time>
      </trkpt>
      <trkpt lat="47.25042" lon="-2.25953">
        <ele>20</ele>
        <time>2020-03-15T09:02:27.000Z</time>
      </trkpt>
      <trkpt lat="47.2505" lon="-2.25949">
        <ele>20</ele>
        <time>2020-03-15T09:02:33.000Z</time>
      </trkpt>
      <trkpt lat="47.25055" lon="-2.25954">
        <ele>19.39999961853</ele>
        <time>2020-03-15T09:02:35.000Z</time>
      </trkpt>
      <trkpt lat="47.25057" lon="-2.25958">
        <ele>19</ele>
        <time>2020-03-15T09:02:36.000Z</time>
      </trkpt>
      <trkpt lat="47.25059" lon="-2.25963">
        <ele>18.60000038147</ele>
        <time>2020-03-15T09:02:37.000Z</time>
      </trkpt>
      <trkpt lat="47.25061" lon="-2.25967">
        <ele>18</ele>
        <time>2020-03-15T09:02:38.000Z</time>
      </trkpt>
      <trkpt lat="47.25063" lon="-2.25972">
        <ele>17.60000038147</ele>
        <time>2020-03-15T09:02:39.000Z</time>
      </trkpt>
      <trkpt lat="47.25066" lon="-2.2599">
        <ele>17.60000038147</ele>
        <time>2020-03-15T09:02:42.000Z</time>
      </trkpt>
      <trkpt lat="47.25069" lon="-2.26026">
        <ele>17.60000038147</ele>
        <time>2020-03-15T09:02:48.000Z</time>
      </trkpt>
      <trkpt lat="47.2507" lon="-2.26041">
        <ele>18</ele>
        <time>2020-03-15T09:02:51.000Z</time>
      </trkpt>
      <trkpt lat="47.2507" lon="-2.26046">
        <ele>18.60000038147</ele>
        <time>2020-03-15T09:02:52.000Z</time>
      </trkpt>
      <trkpt lat="47.2507" lon="-2.26051">
        <ele>19</ele>
        <time>2020-03-15T09:02:53.000Z</time>
      </trkpt>
      <trkpt lat="47.25069" lon="-2.26055">
        <ele>19.39999961853</ele>
        <time>2020-03-15T09:02:54.000Z</time>
      </trkpt>
      <trkpt lat="47.25069" lon="-2.26059">
        <ele>19.799999237061</ele>
        <time>2020-03-15T09:02:55.000Z</time>
      </trkpt>
      <trkpt lat="47.25064" lon="-2.26087">
        <ele>20.200000762939</ele>
        <time>2020-03-15T09:03:01.000Z</time>
      </trkpt>
      <trkpt lat="47.25063" lon="-2.26091">
        <ele>20.799999237061</ele>
        <time>2020-03-15T09:03:02.000Z</time>
      </trkpt>
      <trkpt lat="47.25063" lon="-2.26095">
        <ele>21.200000762939</ele>
        <time>2020-03-15T09:03:03.000Z</time>
      </trkpt>
      <trkpt lat="47.25062" lon="-2.26098">
        <ele>21.60000038147</ele>
        <time>2020-03-15T09:03:04.000Z</time>
      </trkpt>
      <trkpt lat="47.25062" lon="-2.261">
        <ele>22</ele>
        <time>2020-03-15T09:03:05.000Z</time>
      </trkpt>
      <trkpt lat="47.25063" lon="-2.26103">
        <ele>22</ele>
        <time>2020-03-15T09:03:06.000Z</time>
      </trkpt>
      <trkpt lat="47.25066" lon="-2.26106">
        <ele>22.39999961853</ele>
        <time>2020-03-15T09:03:07.000Z</time>
      </trkpt>
      <trkpt lat="47.25069" lon="-2.26108">
        <ele>22.799999237061</ele>
        <time>2020-03-15T09:03:08.000Z</time>
      </trkpt>
      <trkpt lat="47.25071" lon="-2.26109">
        <ele>23.200000762939</ele>
        <time>2020-03-15T09:03:09.000Z</time>
      </trkpt>
      <trkpt lat="47.25074" lon="-2.2611">
        <ele>23.60000038147</ele>
        <time>2020-03-15T09:03:10.000Z</time>
      </trkpt>
      <trkpt lat="47.25076" lon="-2.2611">
        <ele>24</ele>
        <time>2020-03-15T09:03:11.000Z</time>
      </trkpt>
      <trkpt lat="47.25079" lon="-2.26109">
        <ele>24</ele>
        <time>2020-03-15T09:03:12.000Z</time>
      </trkpt>
      <trkpt lat="47.2508" lon="-2.26107">
        <ele>24</ele>
        <time>2020-03-15T09:03:13.000Z</time>
      </trkpt>
      <trkpt lat="47.25083" lon="-2.26097">
        <ele>24</ele>
        <time>2020-03-15T09:03:16.000Z</time>
      </trkpt>
      <trkpt lat="47.25084" lon="-2.26091">
        <ele>24</ele>
        <time>2020-03-15T09:03:17.000Z</time>
      </trkpt>
      <trkpt lat="47.2509" lon="-2.26066">
        <ele>24</ele>
        <time>2020-03-15T09:03:21.000Z</time>
      </trkpt>
      <trkpt lat="47.25091" lon="-2.26058">
        <ele>24</ele>
        <time>2020-03-15T09:03:22.000Z</time>
      </trkpt>
      <trkpt lat="47.25101" lon="-2.26004">
        <ele>24</ele>
        <time>2020-03-15T09:03:28.000Z</time>
      </trkpt>
      <trkpt lat="47.25112" lon="-2.25969">
        <ele>24</ele>
        <time>2020-03-15T09:03:32.000Z</time>
      </trkpt>
      <trkpt lat="47.25119" lon="-2.25955">
        <ele>24</ele>
        <time>2020-03-15T09:03:34.000Z</time>
      </trkpt>
      <trkpt lat="47.25146" lon="-2.25909">
        <ele>24</ele>
        <time>2020-03-15T09:03:41.000Z</time>
      </trkpt>
      <trkpt lat="47.25159" lon="-2.25871">
        <ele>24</ele>
        <time>2020-03-15T09:03:46.000Z</time>
      </trkpt>
      <trkpt lat="47.2517" lon="-2.25828">
        <ele>24</ele>
        <time>2020-03-15T09:03:51.000Z</time>
      </trkpt>
      <trkpt lat="47.25177" lon="-2.25802">
        <ele>24</ele>
        <time>2020-03-15T09:03:54.000Z</time>
      </trkpt>
      <trkpt lat="47.25193" lon="-2.25791">
        <ele>24</ele>
        <time>2020-03-15T09:03:57.000Z</time>
      </trkpt>
      <trkpt lat="47.25204" lon="-2.25794">
        <ele>24</ele>
        <time>2020-03-15T09:03:59.000Z</time>
      </trkpt>
      <trkpt lat="47.2521" lon="-2.25795">
        <ele>24</ele>
        <time>2020-03-15T09:04:00.000Z</time>
      </trkpt>
      <trkpt lat="47.25222" lon="-2.25797">
        <ele>24</ele>
        <time>2020-03-15T09:04:02.000Z</time>
      </trkpt>
      <trkpt lat="47.25231" lon="-2.25806">
        <ele>24</ele>
        <time>2020-03-15T09:04:04.000Z</time>
      </trkpt>
      <trkpt lat="47.25239" lon="-2.25824">
        <ele>24</ele>
        <time>2020-03-15T09:04:07.000Z</time>
      </trkpt>
      <trkpt lat="47.25242" lon="-2.2583">
        <ele>24</ele>
        <time>2020-03-15T09:04:08.000Z</time>
      </trkpt>
      <trkpt lat="47.25254" lon="-2.25836">
        <ele>24</ele>
        <time>2020-03-15T09:04:11.000Z</time>
      </trkpt>
      <trkpt lat="47.25262" lon="-2.25838">
        <ele>24</ele>
        <time>2020-03-15T09:04:13.000Z</time>
      </trkpt>
      <trkpt lat="47.25274" lon="-2.25843">
        <ele>24</ele>
        <time>2020-03-15T09:04:16.000Z</time>
      </trkpt>
      <trkpt lat="47.25296" lon="-2.25837">
        <ele>24</ele>
        <time>2020-03-15T09:04:20.000Z</time>
      </trkpt>
      <trkpt lat="47.25301" lon="-2.25833">
        <ele>24</ele>
        <time>2020-03-15T09:04:21.000Z</time>
      </trkpt>
      <trkpt lat="47.25306" lon="-2.25832">
        <ele>24</ele>
        <time>2020-03-15T09:04:22.000Z</time>
      </trkpt>
      <trkpt lat="47.25311" lon="-2.25834">
        <ele>23.60000038147</ele>
        <time>2020-03-15T09:04:23.000Z</time>
      </trkpt>
      <trkpt lat="47.25314" lon="-2.2584">
        <ele>23</ele>
        <time>2020-03-15T09:04:24.000Z</time>
      </trkpt>
      <trkpt lat="47.25316" lon="-2.25846">
        <ele>22.60000038147</ele>
        <time>2020-03-15T09:04:25.000Z</time>
      </trkpt>
      <trkpt lat="47.25317" lon="-2.25852">
        <ele>22.200000762939</ele>
        <time>2020-03-15T09:04:26.000Z</time>
      </trkpt>
      <trkpt lat="47.25319" lon="-2.25857">
        <ele>21.799999237061</ele>
        <time>2020-03-15T09:04:27.000Z</time>
      </trkpt>
      <trkpt lat="47.25322" lon="-2.25864">
        <ele>21.799999237061</ele>
        <time>2020-03-15T09:04:29.000Z</time>
      </trkpt>
      <trkpt lat="47.25326" lon="-2.25866">
        <ele>21.799999237061</ele>
        <time>2020-03-15T09:04:31.000Z</time>
      </trkpt>
      <trkpt lat="47.25334" lon="-2.25867">
        <ele>21.799999237061</ele>
        <time>2020-03-15T09:04:37.000Z</time>
      </trkpt>
      <trkpt lat="47.25334" lon="-2.25861">
        <ele>21.39999961853</ele>
        <time>2020-03-15T09:04:39.000Z</time>
      </trkpt>
      <trkpt lat="47.25334" lon="-2.25856">
        <ele>21</ele>
        <time>2020-03-15T09:04:40.000Z</time>
      </trkpt>
      <trkpt lat="47.25333" lon="-2.25851">
        <ele>20.60000038147</ele>
        <time>2020-03-15T09:04:41.000Z</time>
      </trkpt>
      <trkpt lat="47.25334" lon="-2.25846">
        <ele>20.200000762939</ele>
        <time>2020-03-15T09:04:42.000Z</time>
      </trkpt>
      <trkpt lat="47.25334" lon="-2.2584">
        <ele>19.799999237061</ele>
        <time>2020-03-15T09:04:43.000Z</time>
      </trkpt>
      <trkpt lat="47.25335" lon="-2.25825">
        <ele>19.799999237061</ele>
        <time>2020-03-15T09:04:45.000Z</time>
      </trkpt>
      <trkpt lat="47.25336" lon="-2.25817">
        <ele>19.39999961853</ele>
        <time>2020-03-15T09:04:46.000Z</time>
      </trkpt>
      <trkpt lat="47.25337" lon="-2.25808">
        <ele>18.39999961853</ele>
        <time>2020-03-15T09:04:47.000Z</time>
      </trkpt>
      <trkpt lat="47.25338" lon="-2.258">
        <ele>18</ele>
        <time>2020-03-15T09:04:48.000Z</time>
      </trkpt>
      <trkpt lat="47.25339" lon="-2.25791">
        <ele>17.60000038147</ele>
        <time>2020-03-15T09:04:49.000Z</time>
      </trkpt>
      <trkpt lat="47.25341" lon="-2.25772">
        <ele>17.60000038147</ele>
        <time>2020-03-15T09:04:52.000Z</time>
      </trkpt>
      <trkpt lat="47.25337" lon="-2.25742">
        <ele>17.60000038147</ele>
        <time>2020-03-15T09:04:57.000Z</time>
      </trkpt>
      <trkpt lat="47.25334" lon="-2.25706">
        <ele>17.60000038147</ele>
        <time>2020-03-15T09:05:02.000Z</time>
      </trkpt>
      <trkpt lat="47.25335" lon="-2.25658">
        <ele>17.60000038147</ele>
        <time>2020-03-15T09:05:08.000Z</time>
      </trkpt>
      <trkpt lat="47.25335" lon="-2.25637">
        <ele>17.60000038147</ele>
        <time>2020-03-15T09:05:12.000Z</time>
      </trkpt>
      <trkpt lat="47.25331" lon="-2.25602">
        <ele>17.60000038147</ele>
        <time>2020-03-15T09:05:18.000Z</time>
      </trkpt>
      <trkpt lat="47.2533" lon="-2.25576">
        <ele>17</ele>
        <time>2020-03-15T09:05:23.000Z</time>
      </trkpt>
      <trkpt lat="47.25329" lon="-2.25571">
        <ele>16.60000038147</ele>
        <time>2020-03-15T09:05:24.000Z</time>
      </trkpt>
      <trkpt lat="47.25329" lon="-2.25565">
        <ele>16.200000762939</ele>
        <time>2020-03-15T09:05:25.000Z</time>
      </trkpt>
      <trkpt lat="47.25328" lon="-2.25557">
        <ele>15.800000190735</ele>
        <time>2020-03-15T09:05:26.000Z</time>
      </trkpt>
      <trkpt lat="47.25326" lon="-2.2555">
        <ele>15.39999961853</ele>
        <time>2020-03-15T09:05:27.000Z</time>
      </trkpt>
      <trkpt lat="47.25323" lon="-2.25525">
        <ele>15.39999961853</ele>
        <time>2020-03-15T09:05:30.000Z</time>
      </trkpt>
      <trkpt lat="47.25323" lon="-2.25517">
        <ele>14.800000190735</ele>
        <time>2020-03-15T09:05:31.000Z</time>
      </trkpt>
      <trkpt lat="47.25322" lon="-2.25509">
        <ele>14.39999961853</ele>
        <time>2020-03-15T09:05:32.000Z</time>
      </trkpt>
      <trkpt lat="47.25322" lon="-2.25501">
        <ele>14</ele>
        <time>2020-03-15T09:05:33.000Z</time>
      </trkpt>
      <trkpt lat="47.25322" lon="-2.25494">
        <ele>13.60000038147</ele>
        <time>2020-03-15T09:05:34.000Z</time>
      </trkpt>
      <trkpt lat="47.25322" lon="-2.25488">
        <ele>13.199999809265</ele>
        <time>2020-03-15T09:05:35.000Z</time>
      </trkpt>
      <trkpt lat="47.25322" lon="-2.25481">
        <ele>12</ele>
        <time>2020-03-15T09:05:36.000Z</time>
      </trkpt>
      <trkpt lat="47.25322" lon="-2.25474">
        <ele>11.60000038147</ele>
        <time>2020-03-15T09:05:37.000Z</time>
      </trkpt>
      <trkpt lat="47.25322" lon="-2.25466">
        <ele>11</ele>
        <time>2020-03-15T09:05:38.000Z</time>
      </trkpt>
      <trkpt lat="47.25322" lon="-2.2546">
        <ele>10.39999961853</ele>
        <time>2020-03-15T09:05:39.000Z</time>
      </trkpt>
      <trkpt lat="47.25322" lon="-2.25453">
        <ele>10</ele>
        <time>2020-03-15T09:05:40.000Z</time>
      </trkpt>
      <trkpt lat="47.25323" lon="-2.25447">
        <ele>9.3999996185303</ele>
        <time>2020-03-15T09:05:41.000Z</time>
      </trkpt>
      <trkpt lat="47.25323" lon="-2.25442">
        <ele>8.8000001907349</ele>
        <time>2020-03-15T09:05:42.000Z</time>
      </trkpt>
      <trkpt lat="47.25325" lon="-2.25436">
        <ele>8.1999998092651</ele>
        <time>2020-03-15T09:05:43.000Z</time>
      </trkpt>
      <trkpt lat="47.25328" lon="-2.2543">
        <ele>7.8000001907349</ele>
        <time>2020-03-15T09:05:44.000Z</time>
      </trkpt>
      <trkpt lat="47.25329" lon="-2.25428">
        <ele>7.1999998092651</ele>
        <time>2020-03-15T09:05:45.000Z</time>
      </trkpt>
      <trkpt lat="47.25331" lon="-2.25428">
        <ele>6.5999999046326</ele>
        <time>2020-03-15T09:05:46.000Z</time>
      </trkpt>
      <trkpt lat="47.25333" lon="-2.25425">
        <ele>6.1999998092651</ele>
        <time>2020-03-15T09:05:47.000Z</time>
      </trkpt>
      <trkpt lat="47.25336" lon="-2.25422">
        <ele>5.5999999046326</ele>
        <time>2020-03-15T09:05:48.000Z</time>
      </trkpt>
      <trkpt lat="47.25338" lon="-2.25419">
        <ele>5</ele>
        <time>2020-03-15T09:05:49.000Z</time>
      </trkpt>
      <trkpt lat="47.25341" lon="-2.25414">
        <ele>4.4000000953674</ele>
        <time>2020-03-15T09:05:50.000Z</time>
      </trkpt>
      <trkpt lat="47.25342" lon="-2.2541">
        <ele>3.7999999523163</ele>
        <time>2020-03-15T09:05:51.000Z</time>
      </trkpt>
      <trkpt lat="47.25342" lon="-2.25407">
        <ele>3.2000000476837</ele>
        <time>2020-03-15T09:05:52.000Z</time>
      </trkpt>
      <trkpt lat="47.25343" lon="-2.25405">
        <ele>2.5999999046326</ele>
        <time>2020-03-15T09:05:53.000Z</time>
      </trkpt>
      <trkpt lat="47.25344" lon="-2.25404">
        <ele>2</ele>
        <time>2020-03-15T09:05:54.000Z</time>
      </trkpt>
      <trkpt lat="47.25345" lon="-2.25401">
        <ele>2</ele>
        <time>2020-03-15T09:05:57.000Z</time>
      </trkpt>
      <trkpt lat="47.2535" lon="-2.25388">
        <ele>2</ele>
        <time>2020-03-15T09:07:15.000Z</time>
      </trkpt>
      <trkpt lat="47.25358" lon="-2.25382">
        <ele>2</ele>
        <time>2020-03-15T09:07:20.000Z</time>
      </trkpt>
      <trkpt lat="47.25374" lon="-2.25375">
        <ele>2</ele>
        <time>2020-03-15T09:07:27.000Z</time>
      </trkpt>
      <trkpt lat="47.25382" lon="-2.25364">
        <ele>2</ele>
        <time>2020-03-15T09:07:31.000Z</time>
      </trkpt>
      <trkpt lat="47.25382" lon="-2.25354">
        <ele>2.4000000953674</ele>
        <time>2020-03-15T09:07:33.000Z</time>
      </trkpt>
      <trkpt lat="47.25381" lon="-2.2535">
        <ele>3</ele>
        <time>2020-03-15T09:07:34.000Z</time>
      </trkpt>
      <trkpt lat="47.25381" lon="-2.25345">
        <ele>3.4000000953674</ele>
        <time>2020-03-15T09:07:35.000Z</time>
      </trkpt>
      <trkpt lat="47.2538" lon="-2.2534">
        <ele>3.7999999523163</ele>
        <time>2020-03-15T09:07:36.000Z</time>
      </trkpt>
      <trkpt lat="47.2538" lon="-2.25337">
        <ele>4.1999998092651</ele>
        <time>2020-03-15T09:07:37.000Z</time>
      </trkpt>
      <trkpt lat="47.2538" lon="-2.25333">
        <ele>4.5999999046326</ele>
        <time>2020-03-15T09:07:38.000Z</time>
      </trkpt>
      <trkpt lat="47.25381" lon="-2.25328">
        <ele>5.1999998092651</ele>
        <time>2020-03-15T09:07:39.000Z</time>
      </trkpt>
      <trkpt lat="47.25381" lon="-2.25324">
        <ele>5.5999999046326</ele>
        <time>2020-03-15T09:07:40.000Z</time>
      </trkpt>
      <trkpt lat="47.25381" lon="-2.2532">
        <ele>6</ele>
        <time>2020-03-15T09:07:41.000Z</time>
      </trkpt>
      <trkpt lat="47.25382" lon="-2.25316">
        <ele>6.4000000953674</ele>
        <time>2020-03-15T09:07:42.000Z</time>
      </trkpt>
      <trkpt lat="47.25383" lon="-2.25311">
        <ele>7</ele>
        <time>2020-03-15T09:07:43.000Z</time>
      </trkpt>
      <trkpt lat="47.25383" lon="-2.25307">
        <ele>7.4000000953674</ele>
        <time>2020-03-15T09:07:44.000Z</time>
      </trkpt>
      <trkpt lat="47.25383" lon="-2.25302">
        <ele>8</ele>
        <time>2020-03-15T09:07:45.000Z</time>
      </trkpt>
      <trkpt lat="47.25383" lon="-2.25298">
        <ele>8.3999996185303</ele>
        <time>2020-03-15T09:07:46.000Z</time>
      </trkpt>
      <trkpt lat="47.25384" lon="-2.25292">
        <ele>8.8000001907349</ele>
        <time>2020-03-15T09:07:47.000Z</time>
      </trkpt>
      <trkpt lat="47.25384" lon="-2.25287">
        <ele>9.1999998092651</ele>
        <time>2020-03-15T09:07:48.000Z</time>
      </trkpt>
      <trkpt lat="47.25385" lon="-2.25282">
        <ele>9.6000003814697</ele>
        <time>2020-03-15T09:07:49.000Z</time>
      </trkpt>
      <trkpt lat="47.25386" lon="-2.25277">
        <ele>10</ele>
        <time>2020-03-15T09:07:50.000Z</time>
      </trkpt>
      <trkpt lat="47.25387" lon="-2.25272">
        <ele>10.39999961853</ele>
        <time>2020-03-15T09:07:51.000Z</time>
      </trkpt>
      <trkpt lat="47.25389" lon="-2.25256">
        <ele>11</ele>
        <time>2020-03-15T09:07:54.000Z</time>
      </trkpt>
      <trkpt lat="47.2539" lon="-2.25251">
        <ele>11.39999961853</ele>
        <time>2020-03-15T09:07:55.000Z</time>
      </trkpt>
      <trkpt lat="47.25391" lon="-2.25246">
        <ele>11.800000190735</ele>
        <time>2020-03-15T09:07:56.000Z</time>
      </trkpt>
      <trkpt lat="47.25392" lon="-2.25241">
        <ele>12.199999809265</ele>
        <time>2020-03-15T09:07:57.000Z</time>
      </trkpt>
      <trkpt lat="47.25393" lon="-2.25236">
        <ele>12.800000190735</ele>
        <time>2020-03-15T09:07:58.000Z</time>
      </trkpt>
      <trkpt lat="47.25397" lon="-2.25222">
        <ele>12.800000190735</ele>
        <time>2020-03-15T09:08:01.000Z</time>
      </trkpt>
      <trkpt lat="47.25397" lon="-2.25217">
        <ele>13.199999809265</ele>
        <time>2020-03-15T09:08:02.000Z</time>
      </trkpt>
      <trkpt lat="47.25398" lon="-2.25213">
        <ele>14</ele>
        <time>2020-03-15T09:08:03.000Z</time>
      </trkpt>
      <trkpt lat="47.25399" lon="-2.25209">
        <ele>14.39999961853</ele>
        <time>2020-03-15T09:08:04.000Z</time>
      </trkpt>
      <trkpt lat="47.25401" lon="-2.25206">
        <ele>14.800000190735</ele>
        <time>2020-03-15T09:08:05.000Z</time>
      </trkpt>
      <trkpt lat="47.25403" lon="-2.25204">
        <ele>14.800000190735</ele>
        <time>2020-03-15T09:08:06.000Z</time>
      </trkpt>
      <trkpt lat="47.25405" lon="-2.25204">
        <ele>14.800000190735</ele>
        <time>2020-03-15T09:08:07.000Z</time>
      </trkpt>
      <trkpt lat="47.25413" lon="-2.25206">
        <ele>14.800000190735</ele>
        <time>2020-03-15T09:08:10.000Z</time>
      </trkpt>
      <trkpt lat="47.25424" lon="-2.25204">
        <ele>15.199999809265</ele>
        <time>2020-03-15T09:08:12.000Z</time>
      </trkpt>
      <trkpt lat="47.25428" lon="-2.25201">
        <ele>15.60000038147</ele>
        <time>2020-03-15T09:08:13.000Z</time>
      </trkpt>
      <trkpt lat="47.25433" lon="-2.25198">
        <ele>16</ele>
        <time>2020-03-15T09:08:14.000Z</time>
      </trkpt>
      <trkpt lat="47.25437" lon="-2.25195">
        <ele>16.39999961853</ele>
        <time>2020-03-15T09:08:15.000Z</time>
      </trkpt>
      <trkpt lat="47.25442" lon="-2.25193">
        <ele>16.799999237061</ele>
        <time>2020-03-15T09:08:16.000Z</time>
      </trkpt>
      <trkpt lat="47.2545" lon="-2.25191">
        <ele>16.799999237061</ele>
        <time>2020-03-15T09:08:18.000Z</time>
      </trkpt>
      <trkpt lat="47.25455" lon="-2.2519">
        <ele>16.799999237061</ele>
        <time>2020-03-15T09:08:19.000Z</time>
      </trkpt>
      <trkpt lat="47.25465" lon="-2.25191">
        <ele>16.799999237061</ele>
        <time>2020-03-15T09:08:21.000Z</time>
      </trkpt>
      <trkpt lat="47.2549" lon="-2.25193">
        <ele>16.799999237061</ele>
        <time>2020-03-15T09:08:26.000Z</time>
      </trkpt>
      <trkpt lat="47.2551" lon="-2.25195">
        <ele>16.799999237061</ele>
        <time>2020-03-15T09:08:30.000Z</time>
      </trkpt>
      <trkpt lat="47.2552" lon="-2.25193">
        <ele>16.799999237061</ele>
        <time>2020-03-15T09:08:32.000Z</time>
      </trkpt>
      <trkpt lat="47.25541" lon="-2.25186">
        <ele>17.200000762939</ele>
        <time>2020-03-15T09:08:37.000Z</time>
      </trkpt>
      <trkpt lat="47.25544" lon="-2.25185">
        <ele>17.60000038147</ele>
        <time>2020-03-15T09:08:38.000Z</time>
      </trkpt>
      <trkpt lat="47.25548" lon="-2.25184">
        <ele>18.200000762939</ele>
        <time>2020-03-15T09:08:39.000Z</time>
      </trkpt>
      <trkpt lat="47.25551" lon="-2.25182">
        <ele>18.60000038147</ele>
        <time>2020-03-15T09:08:40.000Z</time>
      </trkpt>
      <trkpt lat="47.25555" lon="-2.25181">
        <ele>19</ele>
        <time>2020-03-15T09:08:41.000Z</time>
      </trkpt>
      <trkpt lat="47.2556" lon="-2.25174">
        <ele>19</ele>
        <time>2020-03-15T09:08:43.000Z</time>
      </trkpt>
      <trkpt lat="47.25562" lon="-2.25169">
        <ele>19</ele>
        <time>2020-03-15T09:08:44.000Z</time>
      </trkpt>
      <trkpt lat="47.25563" lon="-2.25164">
        <ele>19.39999961853</ele>
        <time>2020-03-15T09:08:45.000Z</time>
      </trkpt>
      <trkpt lat="47.25563" lon="-2.25158">
        <ele>19.799999237061</ele>
        <time>2020-03-15T09:08:46.000Z</time>
      </trkpt>
      <trkpt lat="47.25563" lon="-2.25152">
        <ele>20.200000762939</ele>
        <time>2020-03-15T09:08:47.000Z</time>
      </trkpt>
      <trkpt lat="47.25563" lon="-2.25146">
        <ele>20.60000038147</ele>
        <time>2020-03-15T09:08:48.000Z</time>
      </trkpt>
      <trkpt lat="47.25564" lon="-2.25141">
        <ele>21</ele>
        <time>2020-03-15T09:08:49.000Z</time>
      </trkpt>
      <trkpt lat="47.25572" lon="-2.25128">
        <ele>21</ele>
        <time>2020-03-15T09:08:52.000Z</time>
      </trkpt>
      <trkpt lat="47.25581" lon="-2.2513">
        <ele>21.39999961853</ele>
        <time>2020-03-15T09:08:54.000Z</time>
      </trkpt>
      <trkpt lat="47.25585" lon="-2.25131">
        <ele>21.799999237061</ele>
        <time>2020-03-15T09:08:55.000Z</time>
      </trkpt>
      <trkpt lat="47.25589" lon="-2.25132">
        <ele>22.200000762939</ele>
        <time>2020-03-15T09:08:56.000Z</time>
      </trkpt>
      <trkpt lat="47.25593" lon="-2.25133">
        <ele>22.60000038147</ele>
        <time>2020-03-15T09:08:57.000Z</time>
      </trkpt>
      <trkpt lat="47.25597" lon="-2.25134">
        <ele>23</ele>
        <time>2020-03-15T09:08:58.000Z</time>
      </trkpt>
      <trkpt lat="47.25611" lon="-2.2514">
        <ele>23</ele>
        <time>2020-03-15T09:09:02.000Z</time>
      </trkpt>
      <trkpt lat="47.25619" lon="-2.25143">
        <ele>23.39999961853</ele>
        <time>2020-03-15T09:09:04.000Z</time>
      </trkpt>
      <trkpt lat="47.25622" lon="-2.25145">
        <ele>24</ele>
        <time>2020-03-15T09:09:05.000Z</time>
      </trkpt>
      <trkpt lat="47.25625" lon="-2.25146">
        <ele>24.39999961853</ele>
        <time>2020-03-15T09:09:06.000Z</time>
      </trkpt>
      <trkpt lat="47.25629" lon="-2.25147">
        <ele>24.799999237061</ele>
        <time>2020-03-15T09:09:07.000Z</time>
      </trkpt>
      <trkpt lat="47.25632" lon="-2.25149">
        <ele>25.200000762939</ele>
        <time>2020-03-15T09:09:08.000Z</time>
      </trkpt>
      <trkpt lat="47.25636" lon="-2.2515">
        <ele>25.200000762939</ele>
        <time>2020-03-15T09:09:09.000Z</time>
      </trkpt>
      <trkpt lat="47.25644" lon="-2.25155">
        <ele>25.60000038147</ele>
        <time>2020-03-15T09:09:12.000Z</time>
      </trkpt>
      <trkpt lat="47.25647" lon="-2.25157">
        <ele>26</ele>
        <time>2020-03-15T09:09:13.000Z</time>
      </trkpt>
      <trkpt lat="47.2565" lon="-2.25159">
        <ele>26.39999961853</ele>
        <time>2020-03-15T09:09:14.000Z</time>
      </trkpt>
      <trkpt lat="47.25652" lon="-2.2516">
        <ele>26.799999237061</ele>
        <time>2020-03-15T09:09:15.000Z</time>
      </trkpt>
      <trkpt lat="47.25655" lon="-2.2516">
        <ele>27.200000762939</ele>
        <time>2020-03-15T09:09:16.000Z</time>
      </trkpt>
      <trkpt lat="47.25658" lon="-2.25159">
        <ele>27.200000762939</ele>
        <time>2020-03-15T09:09:18.000Z</time>
      </trkpt>
      <trkpt lat="47.25659" lon="-2.25157">
        <ele>27.200000762939</ele>
        <time>2020-03-15T09:09:19.000Z</time>
      </trkpt>
      <trkpt lat="47.25661" lon="-2.25157">
        <ele>27.60000038147</ele>
        <time>2020-03-15T09:09:22.000Z</time>
      </trkpt>
      <trkpt lat="47.25661" lon="-2.25158">
        <ele>28</ele>
        <time>2020-03-15T09:09:23.000Z</time>
      </trkpt>
      <trkpt lat="47.25661" lon="-2.25161">
        <ele>28.39999961853</ele>
        <time>2020-03-15T09:09:24.000Z</time>
      </trkpt>
      <trkpt lat="47.25661" lon="-2.25164">
        <ele>28.799999237061</ele>
        <time>2020-03-15T09:09:25.000Z</time>
      </trkpt>
      <trkpt lat="47.25661" lon="-2.25168">
        <ele>29.200000762939</ele>
        <time>2020-03-15T09:09:26.000Z</time>
      </trkpt>
      <trkpt lat="47.25662" lon="-2.25173">
        <ele>29.200000762939</ele>
        <time>2020-03-15T09:09:27.000Z</time>
      </trkpt>
      <trkpt lat="47.25661" lon="-2.25205">
        <ele>29.200000762939</ele>
        <time>2020-03-15T09:09:33.000Z</time>
      </trkpt>
      <trkpt lat="47.25653" lon="-2.25241">
        <ele>29.200000762939</ele>
        <time>2020-03-15T09:09:39.000Z</time>
      </trkpt>
      <trkpt lat="47.25648" lon="-2.25267">
        <ele>29.200000762939</ele>
        <time>2020-03-15T09:09:43.000Z</time>
      </trkpt>
      <trkpt lat="47.25646" lon="-2.25288">
        <ele>29.200000762939</ele>
        <time>2020-03-15T09:09:46.000Z</time>
      </trkpt>
      <trkpt lat="47.2564" lon="-2.2534">
        <ele>29.200000762939</ele>
        <time>2020-03-15T09:09:53.000Z</time>
      </trkpt>
      <trkpt lat="47.25629" lon="-2.25398">
        <ele>29.200000762939</ele>
        <time>2020-03-15T09:10:01.000Z</time>
      </trkpt>
      <trkpt lat="47.25627" lon="-2.25405">
        <ele>29.799999237061</ele>
        <time>2020-03-15T09:10:02.000Z</time>
      </trkpt>
      <trkpt lat="47.25625" lon="-2.25413">
        <ele>30.200000762939</ele>
        <time>2020-03-15T09:10:03.000Z</time>
      </trkpt>
      <trkpt lat="47.25623" lon="-2.25419">
        <ele>30.60000038147</ele>
        <time>2020-03-15T09:10:04.000Z</time>
      </trkpt>
      <trkpt lat="47.25619" lon="-2.25425">
        <ele>31</ele>
        <time>2020-03-15T09:10:05.000Z</time>
      </trkpt>
      <trkpt lat="47.25616" lon="-2.2543">
        <ele>31.39999961853</ele>
        <time>2020-03-15T09:10:06.000Z</time>
      </trkpt>
      <trkpt lat="47.25588" lon="-2.25478">
        <ele>31.39999961853</ele>
        <time>2020-03-15T09:10:14.000Z</time>
      </trkpt>
      <trkpt lat="47.25577" lon="-2.25496">
        <ele>31</ele>
        <time>2020-03-15T09:10:17.000Z</time>
      </trkpt>
      <trkpt lat="47.25575" lon="-2.25502">
        <ele>30.60000038147</ele>
        <time>2020-03-15T09:10:18.000Z</time>
      </trkpt>
      <trkpt lat="47.25572" lon="-2.2551">
        <ele>30.200000762939</ele>
        <time>2020-03-15T09:10:19.000Z</time>
      </trkpt>
      <trkpt lat="47.25571" lon="-2.25517">
        <ele>29.799999237061</ele>
        <time>2020-03-15T09:10:20.000Z</time>
      </trkpt>
      <trkpt lat="47.25571" lon="-2.25525">
        <ele>29.39999961853</ele>
        <time>2020-03-15T09:10:21.000Z</time>
      </trkpt>
      <trkpt lat="47.25574" lon="-2.25547">
        <ele>29</ele>
        <time>2020-03-15T09:10:24.000Z</time>
      </trkpt>
      <trkpt lat="47.25576" lon="-2.25555">
        <ele>28.60000038147</ele>
        <time>2020-03-15T09:10:25.000Z</time>
      </trkpt>
      <trkpt lat="47.25577" lon="-2.25562">
        <ele>28.200000762939</ele>
        <time>2020-03-15T09:10:26.000Z</time>
      </trkpt>
      <trkpt lat="47.25578" lon="-2.2557">
        <ele>27.799999237061</ele>
        <time>2020-03-15T09:10:27.000Z</time>
      </trkpt>
      <trkpt lat="47.25579" lon="-2.25577">
        <ele>27.39999961853</ele>
        <time>2020-03-15T09:10:28.000Z</time>
      </trkpt>
      <trkpt lat="47.25585" lon="-2.25604">
        <ele>27.39999961853</ele>
        <time>2020-03-15T09:10:32.000Z</time>
      </trkpt>
      <trkpt lat="47.25595" lon="-2.25628">
        <ele>27.39999961853</ele>
        <time>2020-03-15T09:10:37.000Z</time>
      </trkpt>
      <trkpt lat="47.25604" lon="-2.25648">
        <ele>27.39999961853</ele>
        <time>2020-03-15T09:10:42.000Z</time>
      </trkpt>
      <trkpt lat="47.2561" lon="-2.25661">
        <ele>27.799999237061</ele>
        <time>2020-03-15T09:10:45.000Z</time>
      </trkpt>
      <trkpt lat="47.25612" lon="-2.25666">
        <ele>28.200000762939</ele>
        <time>2020-03-15T09:10:46.000Z</time>
      </trkpt>
      <trkpt lat="47.25614" lon="-2.25671">
        <ele>28.60000038147</ele>
        <time>2020-03-15T09:10:47.000Z</time>
      </trkpt>
      <trkpt lat="47.25616" lon="-2.25677">
        <ele>29.200000762939</ele>
        <time>2020-03-15T09:10:48.000Z</time>
      </trkpt>
      <trkpt lat="47.25618" lon="-2.25683">
        <ele>29.60000038147</ele>
        <time>2020-03-15T09:10:49.000Z</time>
      </trkpt>
      <trkpt lat="47.25628" lon="-2.25727">
        <ele>29.60000038147</ele>
        <time>2020-03-15T09:10:56.000Z</time>
      </trkpt>
      <trkpt lat="47.25629" lon="-2.25755">
        <ele>29.60000038147</ele>
        <time>2020-03-15T09:11:00.000Z</time>
      </trkpt>
      <trkpt lat="47.2563" lon="-2.25761">
        <ele>29.60000038147</ele>
        <time>2020-03-15T09:11:01.000Z</time>
      </trkpt>
      <trkpt lat="47.25637" lon="-2.25784">
        <ele>30</ele>
        <time>2020-03-15T09:11:05.000Z</time>
      </trkpt>
      <trkpt lat="47.25639" lon="-2.25789">
        <ele>30.39999961853</ele>
        <time>2020-03-15T09:11:06.000Z</time>
      </trkpt>
      <trkpt lat="47.25641" lon="-2.25793">
        <ele>31</ele>
        <time>2020-03-15T09:11:07.000Z</time>
      </trkpt>
      <trkpt lat="47.25643" lon="-2.25797">
        <ele>31.39999961853</ele>
        <time>2020-03-15T09:11:08.000Z</time>
      </trkpt>
      <trkpt lat="47.25646" lon="-2.25801">
        <ele>31.799999237061</ele>
        <time>2020-03-15T09:11:09.000Z</time>
      </trkpt>
      <trkpt lat="47.25651" lon="-2.2582">
        <ele>31.799999237061</ele>
        <time>2020-03-15T09:11:14.000Z</time>
      </trkpt>
      <trkpt lat="47.25653" lon="-2.25831">
        <ele>31.799999237061</ele>
        <time>2020-03-15T09:11:19.000Z</time>
      </trkpt>
      <trkpt lat="47.25656" lon="-2.25844">
        <ele>31.799999237061</ele>
        <time>2020-03-15T09:11:24.000Z</time>
      </trkpt>
      <trkpt lat="47.25662" lon="-2.25843">
        <ele>31.799999237061</ele>
        <time>2020-03-15T09:11:28.000Z</time>
      </trkpt>
      <trkpt lat="47.25661" lon="-2.25832">
        <ele>31.799999237061</ele>
        <time>2020-03-15T09:11:32.000Z</time>
      </trkpt>
      <trkpt lat="47.25661" lon="-2.25829">
        <ele>31.799999237061</ele>
        <time>2020-03-15T09:11:33.000Z</time>
      </trkpt>
      <trkpt lat="47.25664" lon="-2.25811">
        <ele>31.799999237061</ele>
        <time>2020-03-15T09:11:39.000Z</time>
      </trkpt>
      <trkpt lat="47.25663" lon="-2.2581">
        <ele>31.799999237061</ele>
        <time>2020-03-15T09:11:40.000Z</time>
      </trkpt>
      <trkpt lat="47.25655" lon="-2.25798">
        <ele>31.799999237061</ele>
        <time>2020-03-15T09:11:46.000Z</time>
      </trkpt>
      <trkpt lat="47.25654" lon="-2.25795">
        <ele>31.799999237061</ele>
        <time>2020-03-15T09:11:47.000Z</time>
      </trkpt>
      <trkpt lat="47.25654" lon="-2.25785">
        <ele>31.799999237061</ele>
        <time>2020-03-15T09:11:53.000Z</time>
      </trkpt>
      <trkpt lat="47.25655" lon="-2.25785">
        <ele>31.799999237061</ele>
        <time>2020-03-15T09:11:55.000Z</time>
      </trkpt>
      <trkpt lat="47.25656" lon="-2.2579">
        <ele>31.799999237061</ele>
        <time>2020-03-15T09:11:58.000Z</time>
      </trkpt>
      <trkpt lat="47.25655" lon="-2.25793">
        <ele>31.799999237061</ele>
        <time>2020-03-15T09:12:01.000Z</time>
      </trkpt>
      <trkpt lat="47.25654" lon="-2.25794">
        <ele>31.799999237061</ele>
        <time>2020-03-15T09:12:03.000Z</time>
      </trkpt>
      <trkpt lat="47.25653" lon="-2.25793">
        <ele>31.799999237061</ele>
        <time>2020-03-15T09:12:05.000Z</time>
      </trkpt>
      <trkpt lat="47.25652" lon="-2.25787">
        <ele>31.799999237061</ele>
        <time>2020-03-15T09:12:08.000Z</time>
      </trkpt>
      <trkpt lat="47.25656" lon="-2.25787">
        <ele>31.799999237061</ele>
        <time>2020-03-15T09:12:12.000Z</time>
      </trkpt>
      <trkpt lat="47.25657" lon="-2.25798">
        <ele>31.799999237061</ele>
        <time>2020-03-15T09:12:17.000Z</time>
      </trkpt>
      <trkpt lat="47.25657" lon="-2.25801">
        <ele>31.799999237061</ele>
        <time>2020-03-15T09:12:18.000Z</time>
      </trkpt>
      <trkpt lat="47.25656" lon="-2.25804">
        <ele>31.799999237061</ele>
        <time>2020-03-15T09:12:21.000Z</time>
      </trkpt>
      <trkpt lat="47.25656" lon="-2.25808">
        <ele>31.799999237061</ele>
        <time>2020-03-15T09:12:31.000Z</time>
      </trkpt>
      <trkpt lat="47.25656" lon="-2.25821">
        <ele>31.799999237061</ele>
        <time>2020-03-15T09:12:35.000Z</time>
      </trkpt>
      <trkpt lat="47.25656" lon="-2.25852">
        <ele>31.799999237061</ele>
        <time>2020-03-15T09:12:41.000Z</time>
      </trkpt>
      <trkpt lat="47.25657" lon="-2.25887">
        <ele>31.799999237061</ele>
        <time>2020-03-15T09:12:48.000Z</time>
      </trkpt>
      <trkpt lat="47.25656" lon="-2.25911">
        <ele>31.799999237061</ele>
        <time>2020-03-15T09:12:53.000Z</time>
      </trkpt>
      <trkpt lat="47.25654" lon="-2.25927">
        <ele>31.799999237061</ele>
        <time>2020-03-15T09:12:58.000Z</time>
      </trkpt>
      <trkpt lat="47.25654" lon="-2.2593">
        <ele>32.200000762939</ele>
        <time>2020-03-15T09:12:59.000Z</time>
      </trkpt>
      <trkpt lat="47.25653" lon="-2.25933">
        <ele>32.599998474121</ele>
        <time>2020-03-15T09:13:00.000Z</time>
      </trkpt>
      <trkpt lat="47.25652" lon="-2.25935">
        <ele>33</ele>
        <time>2020-03-15T09:13:01.000Z</time>
      </trkpt>
      <trkpt lat="47.2565" lon="-2.25936">
        <ele>33.400001525879</ele>
        <time>2020-03-15T09:13:02.000Z</time>
      </trkpt>
      <trkpt lat="47.25648" lon="-2.25936">
        <ele>33.799999237061</ele>
        <time>2020-03-15T09:13:03.000Z</time>
      </trkpt>
      <trkpt lat="47.25643" lon="-2.25937">
        <ele>33.799999237061</ele>
        <time>2020-03-15T09:13:05.000Z</time>
      </trkpt>
      <trkpt lat="47.25633" lon="-2.2594">
        <ele>33.799999237061</ele>
        <time>2020-03-15T09:13:09.000Z</time>
      </trkpt>
      <trkpt lat="47.25615" lon="-2.25943">
        <ele>33.799999237061</ele>
        <time>2020-03-15T09:13:16.000Z</time>
      </trkpt>
      <trkpt lat="47.25596" lon="-2.25948">
        <ele>33.799999237061</ele>
        <time>2020-03-15T09:13:22.000Z</time>
      </trkpt>
      <trkpt lat="47.25585" lon="-2.25956">
        <ele>33.799999237061</ele>
        <time>2020-03-15T09:13:26.000Z</time>
      </trkpt>
      <trkpt lat="47.25583" lon="-2.25959">
        <ele>33.400001525879</ele>
        <time>2020-03-15T09:13:27.000Z</time>
      </trkpt>
      <trkpt lat="47.25581" lon="-2.2596">
        <ele>33</ele>
        <time>2020-03-15T09:13:28.000Z</time>
      </trkpt>
      <trkpt lat="47.25579" lon="-2.2596">
        <ele>32.599998474121</ele>
        <time>2020-03-15T09:13:29.000Z</time>
      </trkpt>
      <trkpt lat="47.25577" lon="-2.25958">
        <ele>32.200000762939</ele>
        <time>2020-03-15T09:13:30.000Z</time>
      </trkpt>
      <trkpt lat="47.25577" lon="-2.25957">
        <ele>31.799999237061</ele>
        <time>2020-03-15T09:13:31.000Z</time>
      </trkpt>
      <trkpt lat="47.25575" lon="-2.25949">
        <ele>31.39999961853</ele>
        <time>2020-03-15T09:13:34.000Z</time>
      </trkpt>
      <trkpt lat="47.25572" lon="-2.25945">
        <ele>30.799999237061</ele>
        <time>2020-03-15T09:13:35.000Z</time>
      </trkpt>
      <trkpt lat="47.25569" lon="-2.25943">
        <ele>30.39999961853</ele>
        <time>2020-03-15T09:13:36.000Z</time>
      </trkpt>
      <trkpt lat="47.25566" lon="-2.25943">
        <ele>30</ele>
        <time>2020-03-15T09:13:37.000Z</time>
      </trkpt>
      <trkpt lat="47.25563" lon="-2.25944">
        <ele>29.60000038147</ele>
        <time>2020-03-15T09:13:38.000Z</time>
      </trkpt>
      <trkpt lat="47.25556" lon="-2.25952">
        <ele>29.60000038147</ele>
        <time>2020-03-15T09:13:41.000Z</time>
      </trkpt>
      <trkpt lat="47.25556" lon="-2.2597">
        <ele>29.60000038147</ele>
        <time>2020-03-15T09:13:45.000Z</time>
      </trkpt>
      <trkpt lat="47.2555" lon="-2.25977">
        <ele>29.60000038147</ele>
        <time>2020-03-15T09:13:48.000Z</time>
      </trkpt>
      <trkpt lat="47.25541" lon="-2.25978">
        <ele>29.60000038147</ele>
        <time>2020-03-15T09:13:50.000Z</time>
      </trkpt>
      <trkpt lat="47.2553" lon="-2.25978">
        <ele>29.60000038147</ele>
        <time>2020-03-15T09:13:52.000Z</time>
      </trkpt>
      <trkpt lat="47.25511" lon="-2.25982">
        <ele>29.200000762939</ele>
        <time>2020-03-15T09:13:55.000Z</time>
      </trkpt>
      <trkpt lat="47.25505" lon="-2.25984">
        <ele>28.60000038147</ele>
        <time>2020-03-15T09:13:56.000Z</time>
      </trkpt>
      <trkpt lat="47.25498" lon="-2.25986">
        <ele>28.200000762939</ele>
        <time>2020-03-15T09:13:57.000Z</time>
      </trkpt>
      <trkpt lat="47.25491" lon="-2.25988">
        <ele>27.799999237061</ele>
        <time>2020-03-15T09:13:58.000Z</time>
      </trkpt>
      <trkpt lat="47.25484" lon="-2.25992">
        <ele>27.200000762939</ele>
        <time>2020-03-15T09:13:59.000Z</time>
      </trkpt>
      <trkpt lat="47.25462" lon="-2.26005">
        <ele>26.799999237061</ele>
        <time>2020-03-15T09:14:02.000Z</time>
      </trkpt>
      <trkpt lat="47.25454" lon="-2.26009">
        <ele>26.200000762939</ele>
        <time>2020-03-15T09:14:03.000Z</time>
      </trkpt>
      <trkpt lat="47.25447" lon="-2.26013">
        <ele>25.799999237061</ele>
        <time>2020-03-15T09:14:04.000Z</time>
      </trkpt>
      <trkpt lat="47.25441" lon="-2.26017">
        <ele>25.200000762939</ele>
        <time>2020-03-15T09:14:05.000Z</time>
      </trkpt>
      <trkpt lat="47.25437" lon="-2.2602">
        <ele>24.60000038147</ele>
        <time>2020-03-15T09:14:06.000Z</time>
      </trkpt>
      <trkpt lat="47.25433" lon="-2.26023">
        <ele>24</ele>
        <time>2020-03-15T09:14:07.000Z</time>
      </trkpt>
      <trkpt lat="47.2543" lon="-2.26025">
        <ele>23.200000762939</ele>
        <time>2020-03-15T09:14:08.000Z</time>
      </trkpt>
      <trkpt lat="47.25427" lon="-2.26026">
        <ele>22.60000038147</ele>
        <time>2020-03-15T09:14:09.000Z</time>
      </trkpt>
      <trkpt lat="47.25424" lon="-2.26027">
        <ele>21.799999237061</ele>
        <time>2020-03-15T09:14:10.000Z</time>
      </trkpt>
      <trkpt lat="47.25421" lon="-2.26027">
        <ele>21</ele>
        <time>2020-03-15T09:14:11.000Z</time>
      </trkpt>
      <trkpt lat="47.25418" lon="-2.26026">
        <ele>20.200000762939</ele>
        <time>2020-03-15T09:14:12.000Z</time>
      </trkpt>
      <trkpt lat="47.25409" lon="-2.26025">
        <ele>20.200000762939</ele>
        <time>2020-03-15T09:14:16.000Z</time>
      </trkpt>
      <trkpt lat="47.25393" lon="-2.26029">
        <ele>20.200000762939</ele>
        <time>2020-03-15T09:14:20.000Z</time>
      </trkpt>
      <trkpt lat="47.25373" lon="-2.26021">
        <ele>20.200000762939</ele>
        <time>2020-03-15T09:14:25.000Z</time>
      </trkpt>
      <trkpt lat="47.25364" lon="-2.26018">
        <ele>20.60000038147</ele>
        <time>2020-03-15T09:14:29.000Z</time>
      </trkpt>
      <trkpt lat="47.25362" lon="-2.26018">
        <ele>21</ele>
        <time>2020-03-15T09:14:30.000Z</time>
      </trkpt>
      <trkpt lat="47.25359" lon="-2.26017">
        <ele>21.39999961853</ele>
        <time>2020-03-15T09:14:31.000Z</time>
      </trkpt>
      <trkpt lat="47.25356" lon="-2.26017">
        <ele>21.799999237061</ele>
        <time>2020-03-15T09:14:32.000Z</time>
      </trkpt>
      <trkpt lat="47.25354" lon="-2.26019">
        <ele>22.200000762939</ele>
        <time>2020-03-15T09:14:33.000Z</time>
      </trkpt>
      <trkpt lat="47.25354" lon="-2.26023">
        <ele>22.200000762939</ele>
        <time>2020-03-15T09:14:34.000Z</time>
      </trkpt>
      <trkpt lat="47.25353" lon="-2.26026">
        <ele>22.60000038147</ele>
        <time>2020-03-15T09:14:35.000Z</time>
      </trkpt>
      <trkpt lat="47.25351" lon="-2.26026">
        <ele>23.200000762939</ele>
        <time>2020-03-15T09:14:36.000Z</time>
      </trkpt>
      <trkpt lat="47.2535" lon="-2.26025">
        <ele>23.60000038147</ele>
        <time>2020-03-15T09:14:37.000Z</time>
      </trkpt>
      <trkpt lat="47.25349" lon="-2.26026">
        <ele>24.39999961853</ele>
        <time>2020-03-15T09:14:38.000Z</time>
      </trkpt>
      <trkpt lat="47.25338" lon="-2.26023">
        <ele>24.39999961853</ele>
        <time>2020-03-15T09:14:42.000Z</time>
      </trkpt>
      <trkpt lat="47.25325" lon="-2.26018">
        <ele>24.39999961853</ele>
        <time>2020-03-15T09:14:48.000Z</time>
      </trkpt>
      <trkpt lat="47.25325" lon="-2.26016">
        <ele>24.39999961853</ele>
        <time>2020-03-15T09:14:49.000Z</time>
      </trkpt>
      <trkpt lat="47.25324" lon="-2.26011">
        <ele>24.39999961853</ele>
        <time>2020-03-15T09:14:53.000Z</time>
      </trkpt>
      <trkpt lat="47.25326" lon="-2.2601">
        <ele>24.39999961853</ele>
        <time>2020-03-15T09:14:56.000Z</time>
      </trkpt>
      <trkpt lat="47.25329" lon="-2.26012">
        <ele>24.39999961853</ele>
        <time>2020-03-15T09:14:58.000Z</time>
      </trkpt>
      <trkpt lat="47.25338" lon="-2.26013">
        <ele>24.39999961853</ele>
        <time>2020-03-15T09:15:04.000Z</time>
      </trkpt>
      <trkpt lat="47.25356" lon="-2.26015">
        <ele>24.39999961853</ele>
        <time>2020-03-15T09:15:11.000Z</time>
      </trkpt>
      <trkpt lat="47.25369" lon="-2.26017">
        <ele>24</ele>
        <time>2020-03-15T09:15:14.000Z</time>
      </trkpt>
      <trkpt lat="47.25373" lon="-2.2602">
        <ele>23.39999961853</ele>
        <time>2020-03-15T09:15:15.000Z</time>
      </trkpt>
      <trkpt lat="47.25376" lon="-2.26023">
        <ele>23</ele>
        <time>2020-03-15T09:15:16.000Z</time>
      </trkpt>
      <trkpt lat="47.25378" lon="-2.26027">
        <ele>22.60000038147</ele>
        <time>2020-03-15T09:15:17.000Z</time>
      </trkpt>
      <trkpt lat="47.25381" lon="-2.26029">
        <ele>22</ele>
        <time>2020-03-15T09:15:18.000Z</time>
      </trkpt>
      <trkpt lat="47.25383" lon="-2.26032">
        <ele>21.60000038147</ele>
        <time>2020-03-15T09:15:19.000Z</time>
      </trkpt>
      <trkpt lat="47.25384" lon="-2.26033">
        <ele>21.200000762939</ele>
        <time>2020-03-15T09:15:20.000Z</time>
      </trkpt>
      <trkpt lat="47.25386" lon="-2.26035">
        <ele>20.60000038147</ele>
        <time>2020-03-15T09:15:21.000Z</time>
      </trkpt>
      <trkpt lat="47.25387" lon="-2.26037">
        <ele>20.200000762939</ele>
        <time>2020-03-15T09:15:22.000Z</time>
      </trkpt>
      <trkpt lat="47.25388" lon="-2.26039">
        <ele>19.799999237061</ele>
        <time>2020-03-15T09:15:23.000Z</time>
      </trkpt>
      <trkpt lat="47.2539" lon="-2.26047">
        <ele>19.799999237061</ele>
        <time>2020-03-15T09:15:26.000Z</time>
      </trkpt>
      <trkpt lat="47.25393" lon="-2.26072">
        <ele>19.799999237061</ele>
        <time>2020-03-15T09:15:31.000Z</time>
      </trkpt>
      <trkpt lat="47.25397" lon="-2.26098">
        <ele>19.799999237061</ele>
        <time>2020-03-15T09:15:37.000Z</time>
      </trkpt>
      <trkpt lat="47.25406" lon="-2.26127">
        <ele>19.39999961853</ele>
        <time>2020-03-15T09:15:42.000Z</time>
      </trkpt>
      <trkpt lat="47.25409" lon="-2.26135">
        <ele>18.799999237061</ele>
        <time>2020-03-15T09:15:43.000Z</time>
      </trkpt>
      <trkpt lat="47.25411" lon="-2.26143">
        <ele>18.39999961853</ele>
        <time>2020-03-15T09:15:44.000Z</time>
      </trkpt>
      <trkpt lat="47.25414" lon="-2.2615">
        <ele>18</ele>
        <time>2020-03-15T09:15:45.000Z</time>
      </trkpt>
      <trkpt lat="47.25417" lon="-2.26156">
        <ele>17.60000038147</ele>
        <time>2020-03-15T09:15:46.000Z</time>
      </trkpt>
      <trkpt lat="47.25422" lon="-2.26167">
        <ele>17.60000038147</ele>
        <time>2020-03-15T09:15:48.000Z</time>
      </trkpt>
      <trkpt lat="47.25428" lon="-2.26202">
        <ele>17.60000038147</ele>
        <time>2020-03-15T09:15:53.000Z</time>
      </trkpt>
      <trkpt lat="47.25424" lon="-2.26224">
        <ele>17.60000038147</ele>
        <time>2020-03-15T09:15:57.000Z</time>
      </trkpt>
      <trkpt lat="47.25422" lon="-2.26241">
        <ele>18</ele>
        <time>2020-03-15T09:16:01.000Z</time>
      </trkpt>
      <trkpt lat="47.25422" lon="-2.26246">
        <ele>18.39999961853</ele>
        <time>2020-03-15T09:16:02.000Z</time>
      </trkpt>
      <trkpt lat="47.25423" lon="-2.26249">
        <ele>18.799999237061</ele>
        <time>2020-03-15T09:16:03.000Z</time>
      </trkpt>
      <trkpt lat="47.25422" lon="-2.26254">
        <ele>19.200000762939</ele>
        <time>2020-03-15T09:16:04.000Z</time>
      </trkpt>
      <trkpt lat="47.25421" lon="-2.26258">
        <ele>19.799999237061</ele>
        <time>2020-03-15T09:16:05.000Z</time>
      </trkpt>
      <trkpt lat="47.25419" lon="-2.26268">
        <ele>19.799999237061</ele>
        <time>2020-03-15T09:16:08.000Z</time>
      </trkpt>
      <trkpt lat="47.2542" lon="-2.26281">
        <ele>19.799999237061</ele>
        <time>2020-03-15T09:16:13.000Z</time>
      </trkpt>
      <trkpt lat="47.25421" lon="-2.26288">
        <ele>19.799999237061</ele>
        <time>2020-03-15T09:16:15.000Z</time>
      </trkpt>
      <trkpt lat="47.25423" lon="-2.26293">
        <ele>19.799999237061</ele>
        <time>2020-03-15T09:16:17.000Z</time>
      </trkpt>
      <trkpt lat="47.25427" lon="-2.26297">
        <ele>19.799999237061</ele>
        <time>2020-03-15T09:16:20.000Z</time>
      </trkpt>
      <trkpt lat="47.25429" lon="-2.26299">
        <ele>20.200000762939</ele>
        <time>2020-03-15T09:16:22.000Z</time>
      </trkpt>
      <trkpt lat="47.2543" lon="-2.263">
        <ele>20.60000038147</ele>
        <time>2020-03-15T09:16:23.000Z</time>
      </trkpt>
      <trkpt lat="47.25431" lon="-2.26301">
        <ele>21</ele>
        <time>2020-03-15T09:16:24.000Z</time>
      </trkpt>
      <trkpt lat="47.25434" lon="-2.26303">
        <ele>21.39999961853</ele>
        <time>2020-03-15T09:16:25.000Z</time>
      </trkpt>
      <trkpt lat="47.25436" lon="-2.26303">
        <ele>21.799999237061</ele>
        <time>2020-03-15T09:16:26.000Z</time>
      </trkpt>
      <trkpt lat="47.25453" lon="-2.26311">
        <ele>21.799999237061</ele>
        <time>2020-03-15T09:16:31.000Z</time>
      </trkpt>
      <trkpt lat="47.2546" lon="-2.26325">
        <ele>22.200000762939</ele>
        <time>2020-03-15T09:16:34.000Z</time>
      </trkpt>
      <trkpt lat="47.25461" lon="-2.26331">
        <ele>22.60000038147</ele>
        <time>2020-03-15T09:16:35.000Z</time>
      </trkpt>
      <trkpt lat="47.25463" lon="-2.26336">
        <ele>23</ele>
        <time>2020-03-15T09:16:36.000Z</time>
      </trkpt>
      <trkpt lat="47.25464" lon="-2.26343">
        <ele>23.60000038147</ele>
        <time>2020-03-15T09:16:37.000Z</time>
      </trkpt>
      <trkpt lat="47.25465" lon="-2.26349">
        <ele>24</ele>
        <time>2020-03-15T09:16:38.000Z</time>
      </trkpt>
      <trkpt lat="47.25464" lon="-2.2637">
        <ele>24</ele>
        <time>2020-03-15T09:16:41.000Z</time>
      </trkpt>
      <trkpt lat="47.25462" lon="-2.26378">
        <ele>24</ele>
        <time>2020-03-15T09:16:42.000Z</time>
      </trkpt>
      <trkpt lat="47.25458" lon="-2.26407">
        <ele>24</ele>
        <time>2020-03-15T09:16:46.000Z</time>
      </trkpt>
      <trkpt lat="47.25455" lon="-2.26418">
        <ele>24</ele>
        <time>2020-03-15T09:16:48.000Z</time>
      </trkpt>
      <trkpt lat="47.25453" lon="-2.26434">
        <ele>24</ele>
        <time>2020-03-15T09:16:51.000Z</time>
      </trkpt>
      <trkpt lat="47.25455" lon="-2.26446">
        <ele>24</ele>
        <time>2020-03-15T09:16:53.000Z</time>
      </trkpt>
      <trkpt lat="47.25456" lon="-2.2646">
        <ele>24</ele>
        <time>2020-03-15T09:16:55.000Z</time>
      </trkpt>
      <trkpt lat="47.25458" lon="-2.26479">
        <ele>24</ele>
        <time>2020-03-15T09:16:58.000Z</time>
      </trkpt>
      <trkpt lat="47.25461" lon="-2.26488">
        <ele>24</ele>
        <time>2020-03-15T09:17:00.000Z</time>
      </trkpt>
      <trkpt lat="47.25467" lon="-2.26495">
        <ele>24.39999961853</ele>
        <time>2020-03-15T09:17:02.000Z</time>
      </trkpt>
      <trkpt lat="47.25468" lon="-2.26499">
        <ele>24.799999237061</ele>
        <time>2020-03-15T09:17:03.000Z</time>
      </trkpt>
      <trkpt lat="47.2547" lon="-2.26502">
        <ele>25.200000762939</ele>
        <time>2020-03-15T09:17:04.000Z</time>
      </trkpt>
      <trkpt lat="47.25471" lon="-2.26506">
        <ele>25.60000038147</ele>
        <time>2020-03-15T09:17:05.000Z</time>
      </trkpt>
      <trkpt lat="47.25472" lon="-2.2651">
        <ele>26.60000038147</ele>
        <time>2020-03-15T09:17:06.000Z</time>
      </trkpt>
      <trkpt lat="47.25473" lon="-2.26514">
        <ele>27</ele>
        <time>2020-03-15T09:17:07.000Z</time>
      </trkpt>
      <trkpt lat="47.25474" lon="-2.26517">
        <ele>27.39999961853</ele>
        <time>2020-03-15T09:17:08.000Z</time>
      </trkpt>
      <trkpt lat="47.25474" lon="-2.26521">
        <ele>27.799999237061</ele>
        <time>2020-03-15T09:17:09.000Z</time>
      </trkpt>
      <trkpt lat="47.25475" lon="-2.26526">
        <ele>28.39999961853</ele>
        <time>2020-03-15T09:17:10.000Z</time>
      </trkpt>
      <trkpt lat="47.25477" lon="-2.26541">
        <ele>28.799999237061</ele>
        <time>2020-03-15T09:17:13.000Z</time>
      </trkpt>
      <trkpt lat="47.25479" lon="-2.26547">
        <ele>29.200000762939</ele>
        <time>2020-03-15T09:17:14.000Z</time>
      </trkpt>
      <trkpt lat="47.2548" lon="-2.26553">
        <ele>29.60000038147</ele>
        <time>2020-03-15T09:17:15.000Z</time>
      </trkpt>
      <trkpt lat="47.25482" lon="-2.26558">
        <ele>30</ele>
        <time>2020-03-15T09:17:16.000Z</time>
      </trkpt>
      <trkpt lat="47.25483" lon="-2.26563">
        <ele>30.39999961853</ele>
        <time>2020-03-15T09:17:17.000Z</time>
      </trkpt>
      <trkpt lat="47.2549" lon="-2.26595">
        <ele>30.39999961853</ele>
        <time>2020-03-15T09:17:23.000Z</time>
      </trkpt>
      <trkpt lat="47.25488" lon="-2.26634">
        <ele>30.39999961853</ele>
        <time>2020-03-15T09:17:29.000Z</time>
      </trkpt>
      <trkpt lat="47.25488" lon="-2.26673">
        <ele>30.39999961853</ele>
        <time>2020-03-15T09:17:35.000Z</time>
      </trkpt>
      <trkpt lat="47.25485" lon="-2.26692">
        <ele>31</ele>
        <time>2020-03-15T09:17:39.000Z</time>
      </trkpt>
      <trkpt lat="47.25483" lon="-2.26696">
        <ele>31.39999961853</ele>
        <time>2020-03-15T09:17:40.000Z</time>
      </trkpt>
      <trkpt lat="47.25482" lon="-2.26699">
        <ele>31.799999237061</ele>
        <time>2020-03-15T09:17:41.000Z</time>
      </trkpt>
      <trkpt lat="47.25481" lon="-2.26703">
        <ele>32.200000762939</ele>
        <time>2020-03-15T09:17:42.000Z</time>
      </trkpt>
      <trkpt lat="47.25479" lon="-2.26707">
        <ele>32.599998474121</ele>
        <time>2020-03-15T09:17:43.000Z</time>
      </trkpt>
      <trkpt lat="47.25476" lon="-2.26716">
        <ele>32.599998474121</ele>
        <time>2020-03-15T09:17:46.000Z</time>
      </trkpt>
      <trkpt lat="47.25475" lon="-2.2672">
        <ele>32.599998474121</ele>
        <time>2020-03-15T09:17:50.000Z</time>
      </trkpt>
      <trkpt lat="47.25475" lon="-2.26722">
        <ele>32.599998474121</ele>
        <time>2020-03-15T09:21:13.000Z</time>
      </trkpt>
      <trkpt lat="47.25479" lon="-2.26739">
        <ele>32.599998474121</ele>
        <time>2020-03-15T09:21:18.000Z</time>
      </trkpt>
      <trkpt lat="47.25487" lon="-2.26757">
        <ele>33</ele>
        <time>2020-03-15T09:21:22.000Z</time>
      </trkpt>
      <trkpt lat="47.2549" lon="-2.26762">
        <ele>33.400001525879</ele>
        <time>2020-03-15T09:21:23.000Z</time>
      </trkpt>
      <trkpt lat="47.25494" lon="-2.26767">
        <ele>34</ele>
        <time>2020-03-15T09:21:24.000Z</time>
      </trkpt>
      <trkpt lat="47.25497" lon="-2.26772">
        <ele>34.400001525879</ele>
        <time>2020-03-15T09:21:25.000Z</time>
      </trkpt>
      <trkpt lat="47.25499" lon="-2.26778">
        <ele>34.799999237061</ele>
        <time>2020-03-15T09:21:26.000Z</time>
      </trkpt>
      <trkpt lat="47.25514" lon="-2.26799">
        <ele>34.799999237061</ele>
        <time>2020-03-15T09:21:31.000Z</time>
      </trkpt>
      <trkpt lat="47.25518" lon="-2.26803">
        <ele>34.799999237061</ele>
        <time>2020-03-15T09:21:32.000Z</time>
      </trkpt>
      <trkpt lat="47.25531" lon="-2.26818">
        <ele>35.200000762939</ele>
        <time>2020-03-15T09:21:36.000Z</time>
      </trkpt>
      <trkpt lat="47.25534" lon="-2.26821">
        <ele>35.599998474121</ele>
        <time>2020-03-15T09:21:37.000Z</time>
      </trkpt>
      <trkpt lat="47.25538" lon="-2.26825">
        <ele>36.400001525879</ele>
        <time>2020-03-15T09:21:38.000Z</time>
      </trkpt>
      <trkpt lat="47.25541" lon="-2.26828">
        <ele>36.799999237061</ele>
        <time>2020-03-15T09:21:39.000Z</time>
      </trkpt>
      <trkpt lat="47.2556" lon="-2.26843">
        <ele>36.799999237061</ele>
        <time>2020-03-15T09:21:45.000Z</time>
      </trkpt>
      <trkpt lat="47.25569" lon="-2.26849">
        <ele>37.200000762939</ele>
        <time>2020-03-15T09:21:48.000Z</time>
      </trkpt>
      <trkpt lat="47.25573" lon="-2.26851">
        <ele>37.599998474121</ele>
        <time>2020-03-15T09:21:49.000Z</time>
      </trkpt>
      <trkpt lat="47.25576" lon="-2.26853">
        <ele>38</ele>
        <time>2020-03-15T09:21:50.000Z</time>
      </trkpt>
      <trkpt lat="47.2558" lon="-2.26854">
        <ele>38.400001525879</ele>
        <time>2020-03-15T09:21:51.000Z</time>
      </trkpt>
      <trkpt lat="47.25584" lon="-2.26856">
        <ele>39</ele>
        <time>2020-03-15T09:21:52.000Z</time>
      </trkpt>
      <trkpt lat="47.25606" lon="-2.26868">
        <ele>39.400001525879</ele>
        <time>2020-03-15T09:21:58.000Z</time>
      </trkpt>
      <trkpt lat="47.25609" lon="-2.26869">
        <ele>39.799999237061</ele>
        <time>2020-03-15T09:21:59.000Z</time>
      </trkpt>
      <trkpt lat="47.25612" lon="-2.2687">
        <ele>40.200000762939</ele>
        <time>2020-03-15T09:22:00.000Z</time>
      </trkpt>
      <trkpt lat="47.25615" lon="-2.26872">
        <ele>40.599998474121</ele>
        <time>2020-03-15T09:22:01.000Z</time>
      </trkpt>
      <trkpt lat="47.25618" lon="-2.26874">
        <ele>41</ele>
        <time>2020-03-15T09:22:02.000Z</time>
      </trkpt>
      <trkpt lat="47.25627" lon="-2.26872">
        <ele>41</ele>
        <time>2020-03-15T09:22:05.000Z</time>
      </trkpt>
      <trkpt lat="47.25637" lon="-2.26852">
        <ele>41</ele>
        <time>2020-03-15T09:22:09.000Z</time>
      </trkpt>
      <trkpt lat="47.25643" lon="-2.26842">
        <ele>41.400001525879</ele>
        <time>2020-03-15T09:22:11.000Z</time>
      </trkpt>
      <trkpt lat="47.25647" lon="-2.26836">
        <ele>41.799999237061</ele>
        <time>2020-03-15T09:22:12.000Z</time>
      </trkpt>
      <trkpt lat="47.25651" lon="-2.26832">
        <ele>42.400001525879</ele>
        <time>2020-03-15T09:22:13.000Z</time>
      </trkpt>
      <trkpt lat="47.25656" lon="-2.26828">
        <ele>42.799999237061</ele>
        <time>2020-03-15T09:22:14.000Z</time>
      </trkpt>
      <trkpt lat="47.25661" lon="-2.26825">
        <ele>43.200000762939</ele>
        <time>2020-03-15T09:22:15.000Z</time>
      </trkpt>
      <trkpt lat="47.25676" lon="-2.26821">
        <ele>43.200000762939</ele>
        <time>2020-03-15T09:22:18.000Z</time>
      </trkpt>
      <trkpt lat="47.25681" lon="-2.2682">
        <ele>43.200000762939</ele>
        <time>2020-03-15T09:22:19.000Z</time>
      </trkpt>
      <trkpt lat="47.25687" lon="-2.26819">
        <ele>43.200000762939</ele>
        <time>2020-03-15T09:22:20.000Z</time>
      </trkpt>
      <trkpt lat="47.25703" lon="-2.26822">
        <ele>43.200000762939</ele>
        <time>2020-03-15T09:22:23.000Z</time>
      </trkpt>
      <trkpt lat="47.25714" lon="-2.26825">
        <ele>43.200000762939</ele>
        <time>2020-03-15T09:22:25.000Z</time>
      </trkpt>
      <trkpt lat="47.25723" lon="-2.26833">
        <ele>43.200000762939</ele>
        <time>2020-03-15T09:22:27.000Z</time>
      </trkpt>
      <trkpt lat="47.25732" lon="-2.26844">
        <ele>43.200000762939</ele>
        <time>2020-03-15T09:22:29.000Z</time>
      </trkpt>
      <trkpt lat="47.25739" lon="-2.26858">
        <ele>43.200000762939</ele>
        <time>2020-03-15T09:22:31.000Z</time>
      </trkpt>
      <trkpt lat="47.25744" lon="-2.26872">
        <ele>43.200000762939</ele>
        <time>2020-03-15T09:22:33.000Z</time>
      </trkpt>
      <trkpt lat="47.25749" lon="-2.26893">
        <ele>43.200000762939</ele>
        <time>2020-03-15T09:22:36.000Z</time>
      </trkpt>
      <trkpt lat="47.2576" lon="-2.26899">
        <ele>43.200000762939</ele>
        <time>2020-03-15T09:22:39.000Z</time>
      </trkpt>
      <trkpt lat="47.25772" lon="-2.26894">
        <ele>43.200000762939</ele>
        <time>2020-03-15T09:22:42.000Z</time>
      </trkpt>
      <trkpt lat="47.25777" lon="-2.26893">
        <ele>43.200000762939</ele>
        <time>2020-03-15T09:22:43.000Z</time>
      </trkpt>
      <trkpt lat="47.25801" lon="-2.26884">
        <ele>43.200000762939</ele>
        <time>2020-03-15T09:22:48.000Z</time>
      </trkpt>
      <trkpt lat="47.2584" lon="-2.26864">
        <ele>42.799999237061</ele>
        <time>2020-03-15T09:22:55.000Z</time>
      </trkpt>
      <trkpt lat="47.25845" lon="-2.26861">
        <ele>42.200000762939</ele>
        <time>2020-03-15T09:22:56.000Z</time>
      </trkpt>
      <trkpt lat="47.25851" lon="-2.26859">
        <ele>41.799999237061</ele>
        <time>2020-03-15T09:22:57.000Z</time>
      </trkpt>
      <trkpt lat="47.25857" lon="-2.26856">
        <ele>41.400001525879</ele>
        <time>2020-03-15T09:22:58.000Z</time>
      </trkpt>
      <trkpt lat="47.25863" lon="-2.26853">
        <ele>41</ele>
        <time>2020-03-15T09:22:59.000Z</time>
      </trkpt>
      <trkpt lat="47.25882" lon="-2.26845">
        <ele>41</ele>
        <time>2020-03-15T09:23:02.000Z</time>
      </trkpt>
      <trkpt lat="47.25908" lon="-2.26831">
        <ele>41</ele>
        <time>2020-03-15T09:23:06.000Z</time>
      </trkpt>
      <trkpt lat="47.25914" lon="-2.26826">
        <ele>41</ele>
        <time>2020-03-15T09:23:07.000Z</time>
      </trkpt>
      <trkpt lat="47.25927" lon="-2.26819">
        <ele>41</ele>
        <time>2020-03-15T09:23:09.000Z</time>
      </trkpt>
      <trkpt lat="47.25941" lon="-2.26816">
        <ele>41</ele>
        <time>2020-03-15T09:23:11.000Z</time>
      </trkpt>
      <trkpt lat="47.25948" lon="-2.26814">
        <ele>40.599998474121</ele>
        <time>2020-03-15T09:23:12.000Z</time>
      </trkpt>
      <trkpt lat="47.25955" lon="-2.26812">
        <ele>40.200000762939</ele>
        <time>2020-03-15T09:23:13.000Z</time>
      </trkpt>
      <trkpt lat="47.25963" lon="-2.2681">
        <ele>39.799999237061</ele>
        <time>2020-03-15T09:23:14.000Z</time>
      </trkpt>
      <trkpt lat="47.25969" lon="-2.26808">
        <ele>39.400001525879</ele>
        <time>2020-03-15T09:23:15.000Z</time>
      </trkpt>
      <trkpt lat="47.25976" lon="-2.26807">
        <ele>39</ele>
        <time>2020-03-15T09:23:16.000Z</time>
      </trkpt>
      <trkpt lat="47.2599" lon="-2.2682">
        <ele>39</ele>
        <time>2020-03-15T09:23:19.000Z</time>
      </trkpt>
      <trkpt lat="47.25996" lon="-2.26843">
        <ele>39</ele>
        <time>2020-03-15T09:23:22.000Z</time>
      </trkpt>
      <trkpt lat="47.25996" lon="-2.26852">
        <ele>39</ele>
        <time>2020-03-15T09:23:23.000Z</time>
      </trkpt>
      <trkpt lat="47.26001" lon="-2.26888">
        <ele>39</ele>
        <time>2020-03-15T09:23:27.000Z</time>
      </trkpt>
      <trkpt lat="47.26013" lon="-2.2692">
        <ele>39</ele>
        <time>2020-03-15T09:23:31.000Z</time>
      </trkpt>
      <trkpt lat="47.26026" lon="-2.26939">
        <ele>39</ele>
        <time>2020-03-15T09:23:34.000Z</time>
      </trkpt>
      <trkpt lat="47.2604" lon="-2.26957">
        <ele>39</ele>
        <time>2020-03-15T09:23:37.000Z</time>
      </trkpt>
      <trkpt lat="47.26056" lon="-2.26981">
        <ele>39</ele>
        <time>2020-03-15T09:23:41.000Z</time>
      </trkpt>
      <trkpt lat="47.2606" lon="-2.26988">
        <ele>39</ele>
        <time>2020-03-15T09:23:42.000Z</time>
      </trkpt>
      <trkpt lat="47.2607" lon="-2.27009">
        <ele>39</ele>
        <time>2020-03-15T09:23:45.000Z</time>
      </trkpt>
      <trkpt lat="47.26075" lon="-2.27026">
        <ele>39</ele>
        <time>2020-03-15T09:23:47.000Z</time>
      </trkpt>
      <trkpt lat="47.26088" lon="-2.27082">
        <ele>39</ele>
        <time>2020-03-15T09:23:53.000Z</time>
      </trkpt>
      <trkpt lat="47.26098" lon="-2.27145">
        <ele>39</ele>
        <time>2020-03-15T09:24:00.000Z</time>
      </trkpt>
      <trkpt lat="47.26107" lon="-2.27177">
        <ele>39</ele>
        <time>2020-03-15T09:24:04.000Z</time>
      </trkpt>
      <trkpt lat="47.26123" lon="-2.27215">
        <ele>39</ele>
        <time>2020-03-15T09:24:09.000Z</time>
      </trkpt>
      <trkpt lat="47.26143" lon="-2.27272">
        <ele>39</ele>
        <time>2020-03-15T09:24:16.000Z</time>
      </trkpt>
      <trkpt lat="47.26147" lon="-2.27299">
        <ele>39</ele>
        <time>2020-03-15T09:24:19.000Z</time>
      </trkpt>
      <trkpt lat="47.26151" lon="-2.27313">
        <ele>39</ele>
        <time>2020-03-15T09:24:21.000Z</time>
      </trkpt>
      <trkpt lat="47.26166" lon="-2.27317">
        <ele>39</ele>
        <time>2020-03-15T09:24:24.000Z</time>
      </trkpt>
      <trkpt lat="47.26178" lon="-2.27316">
        <ele>39</ele>
        <time>2020-03-15T09:24:26.000Z</time>
      </trkpt>
      <trkpt lat="47.26197" lon="-2.27311">
        <ele>39</ele>
        <time>2020-03-15T09:24:29.000Z</time>
      </trkpt>
      <trkpt lat="47.2621" lon="-2.27311">
        <ele>39</ele>
        <time>2020-03-15T09:24:31.000Z</time>
      </trkpt>
      <trkpt lat="47.2623" lon="-2.27315">
        <ele>39</ele>
        <time>2020-03-15T09:24:34.000Z</time>
      </trkpt>
      <trkpt lat="47.26242" lon="-2.27317">
        <ele>39</ele>
        <time>2020-03-15T09:24:36.000Z</time>
      </trkpt>
      <trkpt lat="47.26263" lon="-2.27319">
        <ele>39</ele>
        <time>2020-03-15T09:24:39.000Z</time>
      </trkpt>
      <trkpt lat="47.26276" lon="-2.2732">
        <ele>39</ele>
        <time>2020-03-15T09:24:41.000Z</time>
      </trkpt>
      <trkpt lat="47.26295" lon="-2.27322">
        <ele>38.400001525879</ele>
        <time>2020-03-15T09:24:44.000Z</time>
      </trkpt>
      <trkpt lat="47.26302" lon="-2.27322">
        <ele>38</ele>
        <time>2020-03-15T09:24:45.000Z</time>
      </trkpt>
      <trkpt lat="47.26308" lon="-2.27323">
        <ele>37.599998474121</ele>
        <time>2020-03-15T09:24:46.000Z</time>
      </trkpt>
      <trkpt lat="47.26315" lon="-2.27324">
        <ele>37.200000762939</ele>
        <time>2020-03-15T09:24:47.000Z</time>
      </trkpt>
      <trkpt lat="47.26321" lon="-2.27325">
        <ele>36.799999237061</ele>
        <time>2020-03-15T09:24:48.000Z</time>
      </trkpt>
      <trkpt lat="47.2634" lon="-2.27328">
        <ele>36.799999237061</ele>
        <time>2020-03-15T09:24:51.000Z</time>
      </trkpt>
      <trkpt lat="47.26386" lon="-2.27329">
        <ele>36.799999237061</ele>
        <time>2020-03-15T09:24:58.000Z</time>
      </trkpt>
      <trkpt lat="47.26399" lon="-2.27329">
        <ele>36.400001525879</ele>
        <time>2020-03-15T09:25:00.000Z</time>
      </trkpt>
      <trkpt lat="47.26406" lon="-2.27329">
        <ele>36</ele>
        <time>2020-03-15T09:25:01.000Z</time>
      </trkpt>
      <trkpt lat="47.26412" lon="-2.2733">
        <ele>35.599998474121</ele>
        <time>2020-03-15T09:25:02.000Z</time>
      </trkpt>
      <trkpt lat="47.26418" lon="-2.27332">
        <ele>35.200000762939</ele>
        <time>2020-03-15T09:25:03.000Z</time>
      </trkpt>
      <trkpt lat="47.26423" lon="-2.27335">
        <ele>34.799999237061</ele>
        <time>2020-03-15T09:25:04.000Z</time>
      </trkpt>
      <trkpt lat="47.26434" lon="-2.27353">
        <ele>34.799999237061</ele>
        <time>2020-03-15T09:25:07.000Z</time>
      </trkpt>
      <trkpt lat="47.26437" lon="-2.27361">
        <ele>34.799999237061</ele>
        <time>2020-03-15T09:25:08.000Z</time>
      </trkpt>
      <trkpt lat="47.26453" lon="-2.27402">
        <ele>34.799999237061</ele>
        <time>2020-03-15T09:25:14.000Z</time>
      </trkpt>
      <trkpt lat="47.26456" lon="-2.27409">
        <ele>34.799999237061</ele>
        <time>2020-03-15T09:25:15.000Z</time>
      </trkpt>
      <trkpt lat="47.26467" lon="-2.27445">
        <ele>34.799999237061</ele>
        <time>2020-03-15T09:25:20.000Z</time>
      </trkpt>
      <trkpt lat="47.26471" lon="-2.27459">
        <ele>34.799999237061</ele>
        <time>2020-03-15T09:25:22.000Z</time>
      </trkpt>
      <trkpt lat="47.26474" lon="-2.27467">
        <ele>34.400001525879</ele>
        <time>2020-03-15T09:25:23.000Z</time>
      </trkpt>
      <trkpt lat="47.26476" lon="-2.27474">
        <ele>34</ele>
        <time>2020-03-15T09:25:24.000Z</time>
      </trkpt>
      <trkpt lat="47.26478" lon="-2.27482">
        <ele>33.599998474121</ele>
        <time>2020-03-15T09:25:25.000Z</time>
      </trkpt>
      <trkpt lat="47.26481" lon="-2.27489">
        <ele>33.200000762939</ele>
        <time>2020-03-15T09:25:26.000Z</time>
      </trkpt>
      <trkpt lat="47.26483" lon="-2.27497">
        <ele>32.799999237061</ele>
        <time>2020-03-15T09:25:27.000Z</time>
      </trkpt>
      <trkpt lat="47.26484" lon="-2.27505">
        <ele>32.799999237061</ele>
        <time>2020-03-15T09:25:28.000Z</time>
      </trkpt>
      <trkpt lat="47.26488" lon="-2.27533">
        <ele>32.799999237061</ele>
        <time>2020-03-15T09:25:31.000Z</time>
      </trkpt>
      <trkpt lat="47.26494" lon="-2.27567">
        <ele>32.200000762939</ele>
        <time>2020-03-15T09:25:35.000Z</time>
      </trkpt>
      <trkpt lat="47.26496" lon="-2.27573">
        <ele>31.799999237061</ele>
        <time>2020-03-15T09:25:36.000Z</time>
      </trkpt>
      <trkpt lat="47.26499" lon="-2.27575">
        <ele>31.39999961853</ele>
        <time>2020-03-15T09:25:37.000Z</time>
      </trkpt>
      <trkpt lat="47.26503" lon="-2.27575">
        <ele>30.39999961853</ele>
        <time>2020-03-15T09:25:38.000Z</time>
      </trkpt>
      <trkpt lat="47.26513" lon="-2.27574">
        <ele>30.39999961853</ele>
        <time>2020-03-15T09:25:40.000Z</time>
      </trkpt>
      <trkpt lat="47.26529" lon="-2.27575">
        <ele>30.39999961853</ele>
        <time>2020-03-15T09:25:43.000Z</time>
      </trkpt>
      <trkpt lat="47.26538" lon="-2.2758">
        <ele>30.39999961853</ele>
        <time>2020-03-15T09:25:45.000Z</time>
      </trkpt>
      <trkpt lat="47.26542" lon="-2.27581">
        <ele>30.39999961853</ele>
        <time>2020-03-15T09:25:46.000Z</time>
      </trkpt>
      <trkpt lat="47.26557" lon="-2.27581">
        <ele>30</ele>
        <time>2020-03-15T09:25:49.000Z</time>
      </trkpt>
      <trkpt lat="47.26562" lon="-2.2758">
        <ele>29.60000038147</ele>
        <time>2020-03-15T09:25:50.000Z</time>
      </trkpt>
      <trkpt lat="47.26567" lon="-2.2758">
        <ele>29.200000762939</ele>
        <time>2020-03-15T09:25:51.000Z</time>
      </trkpt>
      <trkpt lat="47.26572" lon="-2.27581">
        <ele>28.799999237061</ele>
        <time>2020-03-15T09:25:52.000Z</time>
      </trkpt>
      <trkpt lat="47.26577" lon="-2.27582">
        <ele>28.39999961853</ele>
        <time>2020-03-15T09:25:53.000Z</time>
      </trkpt>
      <trkpt lat="47.26587" lon="-2.27585">
        <ele>28.39999961853</ele>
        <time>2020-03-15T09:25:55.000Z</time>
      </trkpt>
      <trkpt lat="47.26603" lon="-2.27592">
        <ele>28.39999961853</ele>
        <time>2020-03-15T09:26:00.000Z</time>
      </trkpt>
      <trkpt lat="47.26614" lon="-2.27598">
        <ele>28.39999961853</ele>
        <time>2020-03-15T09:26:06.000Z</time>
      </trkpt>
      <trkpt lat="47.26626" lon="-2.27605">
        <ele>28.39999961853</ele>
        <time>2020-03-15T09:26:14.000Z</time>
      </trkpt>
      <trkpt lat="47.2664" lon="-2.27611">
        <ele>28.39999961853</ele>
        <time>2020-03-15T09:26:20.000Z</time>
      </trkpt>
      <trkpt lat="47.26658" lon="-2.27621">
        <ele>28.39999961853</ele>
        <time>2020-03-15T09:26:27.000Z</time>
      </trkpt>
      <trkpt lat="47.26679" lon="-2.27628">
        <ele>28.39999961853</ele>
        <time>2020-03-15T09:26:34.000Z</time>
      </trkpt>
      <trkpt lat="47.26697" lon="-2.27637">
        <ele>28.39999961853</ele>
        <time>2020-03-15T09:26:39.000Z</time>
      </trkpt>
      <trkpt lat="47.2672" lon="-2.27644">
        <ele>28.39999961853</ele>
        <time>2020-03-15T09:26:45.000Z</time>
      </trkpt>
      <trkpt lat="47.26733" lon="-2.27648">
        <ele>28.39999961853</ele>
        <time>2020-03-15T09:26:48.000Z</time>
      </trkpt>
      <trkpt lat="47.26747" lon="-2.2765">
        <ele>28.39999961853</ele>
        <time>2020-03-15T09:26:51.000Z</time>
      </trkpt>
      <trkpt lat="47.2676" lon="-2.27639">
        <ele>28.39999961853</ele>
        <time>2020-03-15T09:26:54.000Z</time>
      </trkpt>
      <trkpt lat="47.26761" lon="-2.2762">
        <ele>28.39999961853</ele>
        <time>2020-03-15T09:26:57.000Z</time>
      </trkpt>
      <trkpt lat="47.2676" lon="-2.27612">
        <ele>28.39999961853</ele>
        <time>2020-03-15T09:26:58.000Z</time>
      </trkpt>
      <trkpt lat="47.26755" lon="-2.27575">
        <ele>28.39999961853</ele>
        <time>2020-03-15T09:27:03.000Z</time>
      </trkpt>
      <trkpt lat="47.26751" lon="-2.27516">
        <ele>28.39999961853</ele>
        <time>2020-03-15T09:27:11.000Z</time>
      </trkpt>
      <trkpt lat="47.26751" lon="-2.27503">
        <ele>28.799999237061</ele>
        <time>2020-03-15T09:27:13.000Z</time>
      </trkpt>
      <trkpt lat="47.26751" lon="-2.27496">
        <ele>29.39999961853</ele>
        <time>2020-03-15T09:27:14.000Z</time>
      </trkpt>
      <trkpt lat="47.26751" lon="-2.27489">
        <ele>29.799999237061</ele>
        <time>2020-03-15T09:27:15.000Z</time>
      </trkpt>
      <trkpt lat="47.26752" lon="-2.27482">
        <ele>30.200000762939</ele>
        <time>2020-03-15T09:27:16.000Z</time>
      </trkpt>
      <trkpt lat="47.26752" lon="-2.27474">
        <ele>30.799999237061</ele>
        <time>2020-03-15T09:27:17.000Z</time>
      </trkpt>
      <trkpt lat="47.26752" lon="-2.27466">
        <ele>30.799999237061</ele>
        <time>2020-03-15T09:27:18.000Z</time>
      </trkpt>
      <trkpt lat="47.26755" lon="-2.27415">
        <ele>30.799999237061</ele>
        <time>2020-03-15T09:27:25.000Z</time>
      </trkpt>
      <trkpt lat="47.26758" lon="-2.27411">
        <ele>30.799999237061</ele>
        <time>2020-03-15T09:27:26.000Z</time>
      </trkpt>
      <trkpt lat="47.26765" lon="-2.2741">
        <ele>30.799999237061</ele>
        <time>2020-03-15T09:27:28.000Z</time>
      </trkpt>
      <trkpt lat="47.26775" lon="-2.2741">
        <ele>30.799999237061</ele>
        <time>2020-03-15T09:27:30.000Z</time>
      </trkpt>
      <trkpt lat="47.26787" lon="-2.27409">
        <ele>30.799999237061</ele>
        <time>2020-03-15T09:27:32.000Z</time>
      </trkpt>
      <trkpt lat="47.26814" lon="-2.27407">
        <ele>30.799999237061</ele>
        <time>2020-03-15T09:27:37.000Z</time>
      </trkpt>
      <trkpt lat="47.26829" lon="-2.27404">
        <ele>30.39999961853</ele>
        <time>2020-03-15T09:27:40.000Z</time>
      </trkpt>
      <trkpt lat="47.26834" lon="-2.27402">
        <ele>29.799999237061</ele>
        <time>2020-03-15T09:27:41.000Z</time>
      </trkpt>
      <trkpt lat="47.26839" lon="-2.274">
        <ele>29</ele>
        <time>2020-03-15T09:27:42.000Z</time>
      </trkpt>
      <trkpt lat="47.26843" lon="-2.27398">
        <ele>28.39999961853</ele>
        <time>2020-03-15T09:27:43.000Z</time>
      </trkpt>
      <trkpt lat="47.26869" lon="-2.27387">
        <ele>28</ele>
        <time>2020-03-15T09:27:48.000Z</time>
      </trkpt>
      <trkpt lat="47.26874" lon="-2.27386">
        <ele>27.60000038147</ele>
        <time>2020-03-15T09:27:49.000Z</time>
      </trkpt>
      <trkpt lat="47.26877" lon="-2.27385">
        <ele>27.200000762939</ele>
        <time>2020-03-15T09:27:50.000Z</time>
      </trkpt>
      <trkpt lat="47.26881" lon="-2.27384">
        <ele>26.799999237061</ele>
        <time>2020-03-15T09:27:51.000Z</time>
      </trkpt>
      <trkpt lat="47.26884" lon="-2.27382">
        <ele>26.39999961853</ele>
        <time>2020-03-15T09:27:52.000Z</time>
      </trkpt>
      <trkpt lat="47.26888" lon="-2.27381">
        <ele>26.39999961853</ele>
        <time>2020-03-15T09:27:53.000Z</time>
      </trkpt>
      <trkpt lat="47.26901" lon="-2.27374">
        <ele>26</ele>
        <time>2020-03-15T09:27:57.000Z</time>
      </trkpt>
      <trkpt lat="47.26904" lon="-2.27373">
        <ele>25.39999961853</ele>
        <time>2020-03-15T09:27:58.000Z</time>
      </trkpt>
      <trkpt lat="47.26905" lon="-2.27373">
        <ele>25</ele>
        <time>2020-03-15T09:27:59.000Z</time>
      </trkpt>
      <trkpt lat="47.26907" lon="-2.27372">
        <ele>24.60000038147</ele>
        <time>2020-03-15T09:28:00.000Z</time>
      </trkpt>
      <trkpt lat="47.26908" lon="-2.2737">
        <ele>24.200000762939</ele>
        <time>2020-03-15T09:28:01.000Z</time>
      </trkpt>
      <trkpt lat="47.26911" lon="-2.27365">
        <ele>24.200000762939</ele>
        <time>2020-03-15T09:28:03.000Z</time>
      </trkpt>
      <trkpt lat="47.26916" lon="-2.27352">
        <ele>24.200000762939</ele>
        <time>2020-03-15T09:28:09.000Z</time>
      </trkpt>
      <trkpt lat="47.2692" lon="-2.27336">
        <ele>24.200000762939</ele>
        <time>2020-03-15T09:28:14.000Z</time>
      </trkpt>
      <trkpt lat="47.26924" lon="-2.27321">
        <ele>24.200000762939</ele>
        <time>2020-03-15T09:28:19.000Z</time>
      </trkpt>
      <trkpt lat="47.26924" lon="-2.27319">
        <ele>24.200000762939</ele>
        <time>2020-03-15T09:28:20.000Z</time>
      </trkpt>
      <trkpt lat="47.26923" lon="-2.27312">
        <ele>24.200000762939</ele>
        <time>2020-03-15T09:28:23.000Z</time>
      </trkpt>
      <trkpt lat="47.26925" lon="-2.27302">
        <ele>24.200000762939</ele>
        <time>2020-03-15T09:28:27.000Z</time>
      </trkpt>
      <trkpt lat="47.26928" lon="-2.27291">
        <ele>24.200000762939</ele>
        <time>2020-03-15T09:28:30.000Z</time>
      </trkpt>
      <trkpt lat="47.2693" lon="-2.27275">
        <ele>24.200000762939</ele>
        <time>2020-03-15T09:28:34.000Z</time>
      </trkpt>
      <trkpt lat="47.26932" lon="-2.27271">
        <ele>24.200000762939</ele>
        <time>2020-03-15T09:28:35.000Z</time>
      </trkpt>
      <trkpt lat="47.26945" lon="-2.27264">
        <ele>24.200000762939</ele>
        <time>2020-03-15T09:28:39.000Z</time>
      </trkpt>
      <trkpt lat="47.26954" lon="-2.27252">
        <ele>24.200000762939</ele>
        <time>2020-03-15T09:28:43.000Z</time>
      </trkpt>
      <trkpt lat="47.26961" lon="-2.27241">
        <ele>24.200000762939</ele>
        <time>2020-03-15T09:28:46.000Z</time>
      </trkpt>
      <trkpt lat="47.26963" lon="-2.2723">
        <ele>24.200000762939</ele>
        <time>2020-03-15T09:28:49.000Z</time>
      </trkpt>
      <trkpt lat="47.26961" lon="-2.27218">
        <ele>24.200000762939</ele>
        <time>2020-03-15T09:28:54.000Z</time>
      </trkpt>
      <trkpt lat="47.26961" lon="-2.27217">
        <ele>24.200000762939</ele>
        <time>2020-03-15T09:28:55.000Z</time>
      </trkpt>
      <trkpt lat="47.26961" lon="-2.27214">
        <ele>24.200000762939</ele>
        <time>2020-03-15T09:28:58.000Z</time>
      </trkpt>
      <trkpt lat="47.26966" lon="-2.27202">
        <ele>24.200000762939</ele>
        <time>2020-03-15T09:29:14.000Z</time>
      </trkpt>
      <trkpt lat="47.26968" lon="-2.27201">
        <ele>24.200000762939</ele>
        <time>2020-03-15T09:29:15.000Z</time>
      </trkpt>
      <trkpt lat="47.26976" lon="-2.27194">
        <ele>24.200000762939</ele>
        <time>2020-03-15T09:29:20.000Z</time>
      </trkpt>
      <trkpt lat="47.26976" lon="-2.2719">
        <ele>24.200000762939</ele>
        <time>2020-03-15T09:29:22.000Z</time>
      </trkpt>
      <trkpt lat="47.26978" lon="-2.2718">
        <ele>24.200000762939</ele>
        <time>2020-03-15T09:29:26.000Z</time>
      </trkpt>
      <trkpt lat="47.26979" lon="-2.27179">
        <ele>24.200000762939</ele>
        <time>2020-03-15T09:29:27.000Z</time>
      </trkpt>
      <trkpt lat="47.26982" lon="-2.27179">
        <ele>24.200000762939</ele>
        <time>2020-03-15T09:29:29.000Z</time>
      </trkpt>
      <trkpt lat="47.26987" lon="-2.27181">
        <ele>24.200000762939</ele>
        <time>2020-03-15T09:29:32.000Z</time>
      </trkpt>
      <trkpt lat="47.2699" lon="-2.27175">
        <ele>24.200000762939</ele>
        <time>2020-03-15T09:29:36.000Z</time>
      </trkpt>
      <trkpt lat="47.27001" lon="-2.2717">
        <ele>24.200000762939</ele>
        <time>2020-03-15T09:29:41.000Z</time>
      </trkpt>
      <trkpt lat="47.27008" lon="-2.27175">
        <ele>23.799999237061</ele>
        <time>2020-03-15T09:29:46.000Z</time>
      </trkpt>
      <trkpt lat="47.2701" lon="-2.27175">
        <ele>23.39999961853</ele>
        <time>2020-03-15T09:29:47.000Z</time>
      </trkpt>
      <trkpt lat="47.27011" lon="-2.27175">
        <ele>23</ele>
        <time>2020-03-15T09:29:48.000Z</time>
      </trkpt>
      <trkpt lat="47.27012" lon="-2.27174">
        <ele>22.39999961853</ele>
        <time>2020-03-15T09:29:49.000Z</time>
      </trkpt>
      <trkpt lat="47.27013" lon="-2.27173">
        <ele>22</ele>
        <time>2020-03-15T09:29:50.000Z</time>
      </trkpt>
      <trkpt lat="47.27015" lon="-2.27171">
        <ele>22</ele>
        <time>2020-03-15T09:29:52.000Z</time>
      </trkpt>
      <trkpt lat="47.27018" lon="-2.27166">
        <ele>22</ele>
        <time>2020-03-15T09:29:54.000Z</time>
      </trkpt>
      <trkpt lat="47.27023" lon="-2.27159">
        <ele>22</ele>
        <time>2020-03-15T09:29:58.000Z</time>
      </trkpt>
      <trkpt lat="47.27027" lon="-2.27153">
        <ele>21.60000038147</ele>
        <time>2020-03-15T09:30:00.000Z</time>
      </trkpt>
      <trkpt lat="47.27028" lon="-2.2715">
        <ele>21.200000762939</ele>
        <time>2020-03-15T09:30:01.000Z</time>
      </trkpt>
      <trkpt lat="47.27029" lon="-2.27145">
        <ele>20.799999237061</ele>
        <time>2020-03-15T09:30:02.000Z</time>
      </trkpt>
      <trkpt lat="47.27029" lon="-2.27142">
        <ele>20.39999961853</ele>
        <time>2020-03-15T09:30:03.000Z</time>
      </trkpt>
      <trkpt lat="47.27028" lon="-2.27138">
        <ele>20</ele>
        <time>2020-03-15T09:30:04.000Z</time>
      </trkpt>
      <trkpt lat="47.27026" lon="-2.27131">
        <ele>20</ele>
        <time>2020-03-15T09:30:06.000Z</time>
      </trkpt>
      <trkpt lat="47.27022" lon="-2.27124">
        <ele>20</ele>
        <time>2020-03-15T09:30:08.000Z</time>
      </trkpt>
      <trkpt lat="47.27017" lon="-2.27113">
        <ele>20.39999961853</ele>
        <time>2020-03-15T09:30:13.000Z</time>
      </trkpt>
      <trkpt lat="47.27016" lon="-2.27111">
        <ele>20.799999237061</ele>
        <time>2020-03-15T09:30:14.000Z</time>
      </trkpt>
      <trkpt lat="47.27016" lon="-2.27108">
        <ele>21.200000762939</ele>
        <time>2020-03-15T09:30:15.000Z</time>
      </trkpt>
      <trkpt lat="47.27016" lon="-2.27106">
        <ele>21.60000038147</ele>
        <time>2020-03-15T09:30:16.000Z</time>
      </trkpt>
      <trkpt lat="47.27015" lon="-2.27103">
        <ele>22</ele>
        <time>2020-03-15T09:30:17.000Z</time>
      </trkpt>
      <trkpt lat="47.27013" lon="-2.27096">
        <ele>22</ele>
        <time>2020-03-15T09:30:19.000Z</time>
      </trkpt>
      <trkpt lat="47.27008" lon="-2.27076">
        <ele>22</ele>
        <time>2020-03-15T09:30:24.000Z</time>
      </trkpt>
      <trkpt lat="47.26997" lon="-2.27047">
        <ele>22</ele>
        <time>2020-03-15T09:30:30.000Z</time>
      </trkpt>
      <trkpt lat="47.26979" lon="-2.27018">
        <ele>22</ele>
        <time>2020-03-15T09:30:36.000Z</time>
      </trkpt>
      <trkpt lat="47.26958" lon="-2.2699">
        <ele>22</ele>
        <time>2020-03-15T09:30:42.000Z</time>
      </trkpt>
      <trkpt lat="47.26953" lon="-2.26978">
        <ele>22</ele>
        <time>2020-03-15T09:30:44.000Z</time>
      </trkpt>
      <trkpt lat="47.26951" lon="-2.26965">
        <ele>22</ele>
        <time>2020-03-15T09:30:46.000Z</time>
      </trkpt>
      <trkpt lat="47.26951" lon="-2.26949">
        <ele>22</ele>
        <time>2020-03-15T09:30:48.000Z</time>
      </trkpt>
      <trkpt lat="47.26954" lon="-2.26922">
        <ele>22</ele>
        <time>2020-03-15T09:30:51.000Z</time>
      </trkpt>
      <trkpt lat="47.26954" lon="-2.26893">
        <ele>21.60000038147</ele>
        <time>2020-03-15T09:30:54.000Z</time>
      </trkpt>
      <trkpt lat="47.26954" lon="-2.26884">
        <ele>21</ele>
        <time>2020-03-15T09:30:55.000Z</time>
      </trkpt>
      <trkpt lat="47.26953" lon="-2.26875">
        <ele>20.60000038147</ele>
        <time>2020-03-15T09:30:56.000Z</time>
      </trkpt>
      <trkpt lat="47.26953" lon="-2.26865">
        <ele>20.200000762939</ele>
        <time>2020-03-15T09:30:57.000Z</time>
      </trkpt>
      <trkpt lat="47.26953" lon="-2.26856">
        <ele>19.799999237061</ele>
        <time>2020-03-15T09:30:58.000Z</time>
      </trkpt>
      <trkpt lat="47.26949" lon="-2.2683">
        <ele>19.799999237061</ele>
        <time>2020-03-15T09:31:01.000Z</time>
      </trkpt>
      <trkpt lat="47.26937" lon="-2.26797">
        <ele>19.799999237061</ele>
        <time>2020-03-15T09:31:05.000Z</time>
      </trkpt>
      <trkpt lat="47.26935" lon="-2.26789">
        <ele>19.799999237061</ele>
        <time>2020-03-15T09:31:06.000Z</time>
      </trkpt>
      <trkpt lat="47.2693" lon="-2.26771">
        <ele>19.799999237061</ele>
        <time>2020-03-15T09:31:08.000Z</time>
      </trkpt>
      <trkpt lat="47.26927" lon="-2.26755">
        <ele>19.799999237061</ele>
        <time>2020-03-15T09:31:10.000Z</time>
      </trkpt>
      <trkpt lat="47.26923" lon="-2.26738">
        <ele>19.799999237061</ele>
        <time>2020-03-15T09:31:12.000Z</time>
      </trkpt>
      <trkpt lat="47.2692" lon="-2.26717">
        <ele>19.799999237061</ele>
        <time>2020-03-15T09:31:15.000Z</time>
      </trkpt>
      <trkpt lat="47.26918" lon="-2.26704">
        <ele>19.799999237061</ele>
        <time>2020-03-15T09:31:17.000Z</time>
      </trkpt>
      <trkpt lat="47.26913" lon="-2.26685">
        <ele>19.799999237061</ele>
        <time>2020-03-15T09:31:20.000Z</time>
      </trkpt>
      <trkpt lat="47.2691" lon="-2.26672">
        <ele>20.200000762939</ele>
        <time>2020-03-15T09:31:22.000Z</time>
      </trkpt>
      <trkpt lat="47.26908" lon="-2.26665">
        <ele>20.799999237061</ele>
        <time>2020-03-15T09:31:23.000Z</time>
      </trkpt>
      <trkpt lat="47.26905" lon="-2.26659">
        <ele>21.200000762939</ele>
        <time>2020-03-15T09:31:24.000Z</time>
      </trkpt>
      <trkpt lat="47.26903" lon="-2.26652">
        <ele>22</ele>
        <time>2020-03-15T09:31:25.000Z</time>
      </trkpt>
      <trkpt lat="47.26898" lon="-2.26638">
        <ele>22</ele>
        <time>2020-03-15T09:31:27.000Z</time>
      </trkpt>
      <trkpt lat="47.26888" lon="-2.26611">
        <ele>22</ele>
        <time>2020-03-15T09:31:31.000Z</time>
      </trkpt>
      <trkpt lat="47.26883" lon="-2.26601">
        <ele>22</ele>
        <time>2020-03-15T09:31:33.000Z</time>
      </trkpt>
      <trkpt lat="47.26872" lon="-2.26569">
        <ele>22</ele>
        <time>2020-03-15T09:31:38.000Z</time>
      </trkpt>
      <trkpt lat="47.26869" lon="-2.26558">
        <ele>22</ele>
        <time>2020-03-15T09:31:41.000Z</time>
      </trkpt>
      <trkpt lat="47.26869" lon="-2.26557">
        <ele>22</ele>
        <time>2020-03-15T09:31:43.000Z</time>
      </trkpt>
      <trkpt lat="47.26869" lon="-2.26554">
        <ele>22</ele>
        <time>2020-03-15T09:31:51.000Z</time>
      </trkpt>
      <trkpt lat="47.26869" lon="-2.26551">
        <ele>22</ele>
        <time>2020-03-15T09:31:52.000Z</time>
      </trkpt>
      <trkpt lat="47.26878" lon="-2.26541">
        <ele>22</ele>
        <time>2020-03-15T09:31:55.000Z</time>
      </trkpt>
      <trkpt lat="47.26882" lon="-2.26538">
        <ele>22</ele>
        <time>2020-03-15T09:31:56.000Z</time>
      </trkpt>
      <trkpt lat="47.26897" lon="-2.2653">
        <ele>22</ele>
        <time>2020-03-15T09:31:59.000Z</time>
      </trkpt>
      <trkpt lat="47.26932" lon="-2.26516">
        <ele>22</ele>
        <time>2020-03-15T09:32:05.000Z</time>
      </trkpt>
      <trkpt lat="47.26962" lon="-2.26498">
        <ele>22</ele>
        <time>2020-03-15T09:32:10.000Z</time>
      </trkpt>
      <trkpt lat="47.26973" lon="-2.2649">
        <ele>22</ele>
        <time>2020-03-15T09:32:12.000Z</time>
      </trkpt>
      <trkpt lat="47.26997" lon="-2.26461">
        <ele>22</ele>
        <time>2020-03-15T09:32:17.000Z</time>
      </trkpt>
      <trkpt lat="47.27028" lon="-2.26416">
        <ele>22</ele>
        <time>2020-03-15T09:32:24.000Z</time>
      </trkpt>
      <trkpt lat="47.2706" lon="-2.26371">
        <ele>22</ele>
        <time>2020-03-15T09:32:31.000Z</time>
      </trkpt>
      <trkpt lat="47.27094" lon="-2.26323">
        <ele>22</ele>
        <time>2020-03-15T09:32:38.000Z</time>
      </trkpt>
      <trkpt lat="47.27114" lon="-2.26292">
        <ele>22</ele>
        <time>2020-03-15T09:32:42.000Z</time>
      </trkpt>
      <trkpt lat="47.27124" lon="-2.26278">
        <ele>22</ele>
        <time>2020-03-15T09:32:44.000Z</time>
      </trkpt>
      <trkpt lat="47.27157" lon="-2.26234">
        <ele>22</ele>
        <time>2020-03-15T09:32:50.000Z</time>
      </trkpt>
      <trkpt lat="47.27196" lon="-2.26194">
        <ele>21.60000038147</ele>
        <time>2020-03-15T09:32:56.000Z</time>
      </trkpt>
      <trkpt lat="47.27202" lon="-2.26188">
        <ele>21.200000762939</ele>
        <time>2020-03-15T09:32:57.000Z</time>
      </trkpt>
      <trkpt lat="47.27209" lon="-2.26183">
        <ele>20.799999237061</ele>
        <time>2020-03-15T09:32:58.000Z</time>
      </trkpt>
      <trkpt lat="47.27215" lon="-2.26178">
        <ele>20.39999961853</ele>
        <time>2020-03-15T09:32:59.000Z</time>
      </trkpt>
      <trkpt lat="47.27222" lon="-2.26173">
        <ele>20</ele>
        <time>2020-03-15T09:33:00.000Z</time>
      </trkpt>
      <trkpt lat="47.27237" lon="-2.26163">
        <ele>20</ele>
        <time>2020-03-15T09:33:02.000Z</time>
      </trkpt>
      <trkpt lat="47.27281" lon="-2.26142">
        <ele>20</ele>
        <time>2020-03-15T09:33:08.000Z</time>
      </trkpt>
      <trkpt lat="47.27321" lon="-2.26131">
        <ele>20</ele>
        <time>2020-03-15T09:33:14.000Z</time>
      </trkpt>
      <trkpt lat="47.27342" lon="-2.26119">
        <ele>19.60000038147</ele>
        <time>2020-03-15T09:33:18.000Z</time>
      </trkpt>
      <trkpt lat="47.27348" lon="-2.26118">
        <ele>19.200000762939</ele>
        <time>2020-03-15T09:33:19.000Z</time>
      </trkpt>
      <trkpt lat="47.27353" lon="-2.26119">
        <ele>18.60000038147</ele>
        <time>2020-03-15T09:33:20.000Z</time>
      </trkpt>
      <trkpt lat="47.27358" lon="-2.26123">
        <ele>18.200000762939</ele>
        <time>2020-03-15T09:33:21.000Z</time>
      </trkpt>
      <trkpt lat="47.27362" lon="-2.26129">
        <ele>17.799999237061</ele>
        <time>2020-03-15T09:33:22.000Z</time>
      </trkpt>
      <trkpt lat="47.27369" lon="-2.2614">
        <ele>17.799999237061</ele>
        <time>2020-03-15T09:33:24.000Z</time>
      </trkpt>
      <trkpt lat="47.27384" lon="-2.26165">
        <ele>17.799999237061</ele>
        <time>2020-03-15T09:33:29.000Z</time>
      </trkpt>
      <trkpt lat="47.27409" lon="-2.26204">
        <ele>17.799999237061</ele>
        <time>2020-03-15T09:33:36.000Z</time>
      </trkpt>
      <trkpt lat="47.27425" lon="-2.2623">
        <ele>17.799999237061</ele>
        <time>2020-03-15T09:33:40.000Z</time>
      </trkpt>
      <trkpt lat="47.27436" lon="-2.2624">
        <ele>17.799999237061</ele>
        <time>2020-03-15T09:33:42.000Z</time>
      </trkpt>
      <trkpt lat="47.27458" lon="-2.26263">
        <ele>17.39999961853</ele>
        <time>2020-03-15T09:33:46.000Z</time>
      </trkpt>
      <trkpt lat="47.27465" lon="-2.26268">
        <ele>17</ele>
        <time>2020-03-15T09:33:47.000Z</time>
      </trkpt>
      <trkpt lat="47.27471" lon="-2.26272">
        <ele>16.60000038147</ele>
        <time>2020-03-15T09:33:48.000Z</time>
      </trkpt>
      <trkpt lat="47.27478" lon="-2.26276">
        <ele>16.200000762939</ele>
        <time>2020-03-15T09:33:49.000Z</time>
      </trkpt>
      <trkpt lat="47.27485" lon="-2.26279">
        <ele>15.800000190735</ele>
        <time>2020-03-15T09:33:50.000Z</time>
      </trkpt>
      <trkpt lat="47.27492" lon="-2.26282">
        <ele>15.800000190735</ele>
        <time>2020-03-15T09:33:51.000Z</time>
      </trkpt>
      <trkpt lat="47.27507" lon="-2.26284">
        <ele>15.800000190735</ele>
        <time>2020-03-15T09:33:53.000Z</time>
      </trkpt>
      <trkpt lat="47.27514" lon="-2.26284">
        <ele>15.39999961853</ele>
        <time>2020-03-15T09:33:54.000Z</time>
      </trkpt>
      <trkpt lat="47.27522" lon="-2.26284">
        <ele>15</ele>
        <time>2020-03-15T09:33:55.000Z</time>
      </trkpt>
      <trkpt lat="47.2753" lon="-2.26284">
        <ele>14.60000038147</ele>
        <time>2020-03-15T09:33:56.000Z</time>
      </trkpt>
      <trkpt lat="47.27537" lon="-2.26283">
        <ele>14</ele>
        <time>2020-03-15T09:33:57.000Z</time>
      </trkpt>
      <trkpt lat="47.27545" lon="-2.26282">
        <ele>13.60000038147</ele>
        <time>2020-03-15T09:33:58.000Z</time>
      </trkpt>
      <trkpt lat="47.27552" lon="-2.26282">
        <ele>13.60000038147</ele>
        <time>2020-03-15T09:33:59.000Z</time>
      </trkpt>
      <trkpt lat="47.27597" lon="-2.26284">
        <ele>13.60000038147</ele>
        <time>2020-03-15T09:34:05.000Z</time>
      </trkpt>
      <trkpt lat="47.27624" lon="-2.26298">
        <ele>13.60000038147</ele>
        <time>2020-03-15T09:34:09.000Z</time>
      </trkpt>
      <trkpt lat="47.27635" lon="-2.26309">
        <ele>13.60000038147</ele>
        <time>2020-03-15T09:34:11.000Z</time>
      </trkpt>
      <trkpt lat="47.2765" lon="-2.26329">
        <ele>13.60000038147</ele>
        <time>2020-03-15T09:34:14.000Z</time>
      </trkpt>
      <trkpt lat="47.27657" lon="-2.26339">
        <ele>13.60000038147</ele>
        <time>2020-03-15T09:34:16.000Z</time>
      </trkpt>
      <trkpt lat="47.27664" lon="-2.26335">
        <ele>12.800000190735</ele>
        <time>2020-03-15T09:34:18.000Z</time>
      </trkpt>
      <trkpt lat="47.27665" lon="-2.26329">
        <ele>12.39999961853</ele>
        <time>2020-03-15T09:34:19.000Z</time>
      </trkpt>
      <trkpt lat="47.27666" lon="-2.26322">
        <ele>12</ele>
        <time>2020-03-15T09:34:20.000Z</time>
      </trkpt>
      <trkpt lat="47.27667" lon="-2.26314">
        <ele>11.39999961853</ele>
        <time>2020-03-15T09:34:21.000Z</time>
      </trkpt>
      <trkpt lat="47.27662" lon="-2.26287">
        <ele>11.39999961853</ele>
        <time>2020-03-15T09:34:25.000Z</time>
      </trkpt>
      <trkpt lat="47.27656" lon="-2.26267">
        <ele>11.39999961853</ele>
        <time>2020-03-15T09:34:29.000Z</time>
      </trkpt>
      <trkpt lat="47.27656" lon="-2.26263">
        <ele>11.39999961853</ele>
        <time>2020-03-15T09:34:30.000Z</time>
      </trkpt>
      <trkpt lat="47.27651" lon="-2.2625">
        <ele>11.39999961853</ele>
        <time>2020-03-15T09:34:33.000Z</time>
      </trkpt>
      <trkpt lat="47.27648" lon="-2.26246">
        <ele>11.39999961853</ele>
        <time>2020-03-15T09:34:34.000Z</time>
      </trkpt>
      <trkpt lat="47.27637" lon="-2.26232">
        <ele>11.39999961853</ele>
        <time>2020-03-15T09:34:38.000Z</time>
      </trkpt>
      <trkpt lat="47.27633" lon="-2.26225">
        <ele>11.39999961853</ele>
        <time>2020-03-15T09:34:40.000Z</time>
      </trkpt>
      <trkpt lat="47.27626" lon="-2.26204">
        <ele>11.39999961853</ele>
        <time>2020-03-15T09:34:44.000Z</time>
      </trkpt>
      <trkpt lat="47.27625" lon="-2.26187">
        <ele>11.39999961853</ele>
        <time>2020-03-15T09:34:48.000Z</time>
      </trkpt>
      <trkpt lat="47.27622" lon="-2.26174">
        <ele>11.39999961853</ele>
        <time>2020-03-15T09:34:51.000Z</time>
      </trkpt>
      <trkpt lat="47.27623" lon="-2.26171">
        <ele>11.39999961853</ele>
        <time>2020-03-15T09:34:52.000Z</time>
      </trkpt>
      <trkpt lat="47.2763" lon="-2.26171">
        <ele>11.39999961853</ele>
        <time>2020-03-15T09:34:56.000Z</time>
      </trkpt>
      <trkpt lat="47.27638" lon="-2.26164">
        <ele>11.39999961853</ele>
        <time>2020-03-15T09:35:00.000Z</time>
      </trkpt>
      <trkpt lat="47.27642" lon="-2.2616">
        <ele>11.39999961853</ele>
        <time>2020-03-15T09:35:02.000Z</time>
      </trkpt>
      <trkpt lat="47.27649" lon="-2.26152">
        <ele>11.39999961853</ele>
        <time>2020-03-15T09:35:05.000Z</time>
      </trkpt>
      <trkpt lat="47.27661" lon="-2.26142">
        <ele>11.39999961853</ele>
        <time>2020-03-15T09:35:10.000Z</time>
      </trkpt>
      <trkpt lat="47.27677" lon="-2.26123">
        <ele>11.39999961853</ele>
        <time>2020-03-15T09:35:16.000Z</time>
      </trkpt>
      <trkpt lat="47.27693" lon="-2.26112">
        <ele>11.39999961853</ele>
        <time>2020-03-15T09:35:20.000Z</time>
      </trkpt>
      <trkpt lat="47.27703" lon="-2.261">
        <ele>11.39999961853</ele>
        <time>2020-03-15T09:35:23.000Z</time>
      </trkpt>
      <trkpt lat="47.27706" lon="-2.26094">
        <ele>11.39999961853</ele>
        <time>2020-03-15T09:35:24.000Z</time>
      </trkpt>
      <trkpt lat="47.27724" lon="-2.26084">
        <ele>11.39999961853</ele>
        <time>2020-03-15T09:35:28.000Z</time>
      </trkpt>
      <trkpt lat="47.27728" lon="-2.2608">
        <ele>11.39999961853</ele>
        <time>2020-03-15T09:35:29.000Z</time>
      </trkpt>
      <trkpt lat="47.27733" lon="-2.26067">
        <ele>11.39999961853</ele>
        <time>2020-03-15T09:35:31.000Z</time>
      </trkpt>
      <trkpt lat="47.27739" lon="-2.26056">
        <ele>11.39999961853</ele>
        <time>2020-03-15T09:35:33.000Z</time>
      </trkpt>
      <trkpt lat="47.27754" lon="-2.26028">
        <ele>11.39999961853</ele>
        <time>2020-03-15T09:35:38.000Z</time>
      </trkpt>
      <trkpt lat="47.27768" lon="-2.26002">
        <ele>11.39999961853</ele>
        <time>2020-03-15T09:35:44.000Z</time>
      </trkpt>
      <trkpt lat="47.27776" lon="-2.25997">
        <ele>11.39999961853</ele>
        <time>2020-03-15T09:35:49.000Z</time>
      </trkpt>
      <trkpt lat="47.27787" lon="-2.25979">
        <ele>11.39999961853</ele>
        <time>2020-03-15T09:35:56.000Z</time>
      </trkpt>
      <trkpt lat="47.27786" lon="-2.25967">
        <ele>11.39999961853</ele>
        <time>2020-03-15T09:36:00.000Z</time>
      </trkpt>
      <trkpt lat="47.27786" lon="-2.25949">
        <ele>11.39999961853</ele>
        <time>2020-03-15T09:36:04.000Z</time>
      </trkpt>
      <trkpt lat="47.27787" lon="-2.25943">
        <ele>11.39999961853</ele>
        <time>2020-03-15T09:36:05.000Z</time>
      </trkpt>
      <trkpt lat="47.27786" lon="-2.25931">
        <ele>11.39999961853</ele>
        <time>2020-03-15T09:36:07.000Z</time>
      </trkpt>
      <trkpt lat="47.27781" lon="-2.25914">
        <ele>11.39999961853</ele>
        <time>2020-03-15T09:36:10.000Z</time>
      </trkpt>
      <trkpt lat="47.27771" lon="-2.259">
        <ele>11.39999961853</ele>
        <time>2020-03-15T09:36:13.000Z</time>
      </trkpt>
      <trkpt lat="47.27766" lon="-2.25889">
        <ele>11.39999961853</ele>
        <time>2020-03-15T09:36:15.000Z</time>
      </trkpt>
      <trkpt lat="47.27753" lon="-2.2586">
        <ele>11.39999961853</ele>
        <time>2020-03-15T09:36:20.000Z</time>
      </trkpt>
      <trkpt lat="47.27749" lon="-2.25856">
        <ele>11.39999961853</ele>
        <time>2020-03-15T09:36:21.000Z</time>
      </trkpt>
      <trkpt lat="47.2773" lon="-2.2585">
        <ele>11.39999961853</ele>
        <time>2020-03-15T09:36:25.000Z</time>
      </trkpt>
      <trkpt lat="47.27725" lon="-2.2585">
        <ele>11.39999961853</ele>
        <time>2020-03-15T09:36:26.000Z</time>
      </trkpt>
      <trkpt lat="47.27712" lon="-2.25847">
        <ele>11.39999961853</ele>
        <time>2020-03-15T09:36:29.000Z</time>
      </trkpt>
      <trkpt lat="47.27703" lon="-2.25842">
        <ele>11.39999961853</ele>
        <time>2020-03-15T09:36:31.000Z</time>
      </trkpt>
      <trkpt lat="47.2769" lon="-2.25836">
        <ele>11.39999961853</ele>
        <time>2020-03-15T09:36:34.000Z</time>
      </trkpt>
      <trkpt lat="47.27686" lon="-2.25835">
        <ele>11.39999961853</ele>
        <time>2020-03-15T09:36:35.000Z</time>
      </trkpt>
      <trkpt lat="47.27679" lon="-2.2583">
        <ele>11.39999961853</ele>
        <time>2020-03-15T09:36:37.000Z</time>
      </trkpt>
      <trkpt lat="47.27674" lon="-2.25824">
        <ele>11.39999961853</ele>
        <time>2020-03-15T09:36:39.000Z</time>
      </trkpt>
      <trkpt lat="47.27672" lon="-2.25818">
        <ele>11.39999961853</ele>
        <time>2020-03-15T09:36:42.000Z</time>
      </trkpt>
      <trkpt lat="47.27673" lon="-2.25811">
        <ele>11.39999961853</ele>
        <time>2020-03-15T09:36:45.000Z</time>
      </trkpt>
      <trkpt lat="47.27672" lon="-2.25808">
        <ele>11.39999961853</ele>
        <time>2020-03-15T09:36:47.000Z</time>
      </trkpt>
      <trkpt lat="47.27671" lon="-2.25798">
        <ele>11.39999961853</ele>
        <time>2020-03-15T09:36:51.000Z</time>
      </trkpt>
      <trkpt lat="47.27671" lon="-2.25794">
        <ele>11.39999961853</ele>
        <time>2020-03-15T09:36:52.000Z</time>
      </trkpt>
      <trkpt lat="47.2767" lon="-2.2579">
        <ele>11.39999961853</ele>
        <time>2020-03-15T09:36:54.000Z</time>
      </trkpt>
      <trkpt lat="47.27667" lon="-2.25788">
        <ele>11.39999961853</ele>
        <time>2020-03-15T09:36:57.000Z</time>
      </trkpt>
      <trkpt lat="47.27666" lon="-2.25784">
        <ele>11.39999961853</ele>
        <time>2020-03-15T09:36:59.000Z</time>
      </trkpt>
      <trkpt lat="47.27666" lon="-2.25779">
        <ele>11.39999961853</ele>
        <time>2020-03-15T09:37:02.000Z</time>
      </trkpt>
      <trkpt lat="47.27659" lon="-2.25755">
        <ele>11.39999961853</ele>
        <time>2020-03-15T09:37:44.000Z</time>
      </trkpt>
      <trkpt lat="47.2766" lon="-2.25747">
        <ele>11.39999961853</ele>
        <time>2020-03-15T09:37:46.000Z</time>
      </trkpt>
      <trkpt lat="47.27659" lon="-2.25737">
        <ele>11.39999961853</ele>
        <time>2020-03-15T09:37:48.000Z</time>
      </trkpt>
      <trkpt lat="47.27658" lon="-2.25728">
        <ele>11.39999961853</ele>
        <time>2020-03-15T09:37:50.000Z</time>
      </trkpt>
      <trkpt lat="47.27656" lon="-2.25693">
        <ele>11.39999961853</ele>
        <time>2020-03-15T09:37:57.000Z</time>
      </trkpt>
      <trkpt lat="47.27654" lon="-2.25665">
        <ele>11.39999961853</ele>
        <time>2020-03-15T09:38:03.000Z</time>
      </trkpt>
      <trkpt lat="47.2765" lon="-2.25638">
        <ele>11.39999961853</ele>
        <time>2020-03-15T09:38:09.000Z</time>
      </trkpt>
      <trkpt lat="47.27645" lon="-2.25645">
        <ele>11.39999961853</ele>
        <time>2020-03-15T09:38:12.000Z</time>
      </trkpt>
      <trkpt lat="47.27632" lon="-2.25643">
        <ele>11.39999961853</ele>
        <time>2020-03-15T09:38:16.000Z</time>
      </trkpt>
      <trkpt lat="47.27622" lon="-2.25646">
        <ele>11.39999961853</ele>
        <time>2020-03-15T09:38:19.000Z</time>
      </trkpt>
      <trkpt lat="47.27619" lon="-2.25644">
        <ele>11.39999961853</ele>
        <time>2020-03-15T09:38:20.000Z</time>
      </trkpt>
      <trkpt lat="47.2761" lon="-2.25638">
        <ele>11.39999961853</ele>
        <time>2020-03-15T09:38:24.000Z</time>
      </trkpt>
      <trkpt lat="47.27602" lon="-2.25639">
        <ele>11.39999961853</ele>
        <time>2020-03-15T09:38:28.000Z</time>
      </trkpt>
      <trkpt lat="47.27601" lon="-2.25631">
        <ele>11.39999961853</ele>
        <time>2020-03-15T09:38:31.000Z</time>
      </trkpt>
      <trkpt lat="47.27598" lon="-2.25628">
        <ele>11.39999961853</ele>
        <time>2020-03-15T09:38:33.000Z</time>
      </trkpt>
      <trkpt lat="47.27592" lon="-2.2562">
        <ele>11.39999961853</ele>
        <time>2020-03-15T09:38:36.000Z</time>
      </trkpt>
      <trkpt lat="47.27587" lon="-2.25617">
        <ele>11.39999961853</ele>
        <time>2020-03-15T09:38:38.000Z</time>
      </trkpt>
      <trkpt lat="47.2758" lon="-2.25617">
        <ele>11.39999961853</ele>
        <time>2020-03-15T09:38:40.000Z</time>
      </trkpt>
      <trkpt lat="47.27568" lon="-2.25609">
        <ele>11.39999961853</ele>
        <time>2020-03-15T09:38:44.000Z</time>
      </trkpt>
      <trkpt lat="47.27562" lon="-2.25586">
        <ele>11.39999961853</ele>
        <time>2020-03-15T09:38:48.000Z</time>
      </trkpt>
      <trkpt lat="47.2756" lon="-2.25579">
        <ele>11.39999961853</ele>
        <time>2020-03-15T09:38:49.000Z</time>
      </trkpt>
      <trkpt lat="47.2755" lon="-2.25539">
        <ele>11.39999961853</ele>
        <time>2020-03-15T09:38:54.000Z</time>
      </trkpt>
      <trkpt lat="47.27546" lon="-2.25525">
        <ele>11.39999961853</ele>
        <time>2020-03-15T09:38:56.000Z</time>
      </trkpt>
      <trkpt lat="47.27536" lon="-2.255">
        <ele>11.39999961853</ele>
        <time>2020-03-15T09:39:00.000Z</time>
      </trkpt>
      <trkpt lat="47.27519" lon="-2.25476">
        <ele>11.39999961853</ele>
        <time>2020-03-15T09:39:05.000Z</time>
      </trkpt>
      <trkpt lat="47.27516" lon="-2.25472">
        <ele>11.39999961853</ele>
        <time>2020-03-15T09:39:06.000Z</time>
      </trkpt>
      <trkpt lat="47.27512" lon="-2.25467">
        <ele>11.39999961853</ele>
        <time>2020-03-15T09:39:07.000Z</time>
      </trkpt>
      <trkpt lat="47.27505" lon="-2.25458">
        <ele>11.39999961853</ele>
        <time>2020-03-15T09:39:10.000Z</time>
      </trkpt>
      <trkpt lat="47.27503" lon="-2.25456">
        <ele>11.39999961853</ele>
        <time>2020-03-15T09:39:11.000Z</time>
      </trkpt>
      <trkpt lat="47.27489" lon="-2.25448">
        <ele>11.39999961853</ele>
        <time>2020-03-15T09:39:16.000Z</time>
      </trkpt>
      <trkpt lat="47.27466" lon="-2.2545">
        <ele>11.39999961853</ele>
        <time>2020-03-15T09:39:21.000Z</time>
      </trkpt>
      <trkpt lat="47.27461" lon="-2.25448">
        <ele>11.39999961853</ele>
        <time>2020-03-15T09:39:22.000Z</time>
      </trkpt>
      <trkpt lat="47.27457" lon="-2.25446">
        <ele>11.39999961853</ele>
        <time>2020-03-15T09:39:23.000Z</time>
      </trkpt>
      <trkpt lat="47.27441" lon="-2.25438">
        <ele>11.39999961853</ele>
        <time>2020-03-15T09:39:27.000Z</time>
      </trkpt>
      <trkpt lat="47.27438" lon="-2.25433">
        <ele>11.39999961853</ele>
        <time>2020-03-15T09:39:28.000Z</time>
      </trkpt>
      <trkpt lat="47.27429" lon="-2.25422">
        <ele>11.39999961853</ele>
        <time>2020-03-15T09:39:31.000Z</time>
      </trkpt>
      <trkpt lat="47.27425" lon="-2.25418">
        <ele>11.39999961853</ele>
        <time>2020-03-15T09:39:32.000Z</time>
      </trkpt>
      <trkpt lat="47.27419" lon="-2.25408">
        <ele>11.39999961853</ele>
        <time>2020-03-15T09:39:35.000Z</time>
      </trkpt>
      <trkpt lat="47.27412" lon="-2.25389">
        <ele>11.39999961853</ele>
        <time>2020-03-15T09:39:40.000Z</time>
      </trkpt>
      <trkpt lat="47.27404" lon="-2.25375">
        <ele>11.39999961853</ele>
        <time>2020-03-15T09:39:44.000Z</time>
      </trkpt>
      <trkpt lat="47.27403" lon="-2.25354">
        <ele>11.39999961853</ele>
        <time>2020-03-15T09:39:48.000Z</time>
      </trkpt>
      <trkpt lat="47.27403" lon="-2.25348">
        <ele>11.39999961853</ele>
        <time>2020-03-15T09:39:49.000Z</time>
      </trkpt>
      <trkpt lat="47.27398" lon="-2.25321">
        <ele>11.39999961853</ele>
        <time>2020-03-15T09:39:54.000Z</time>
      </trkpt>
      <trkpt lat="47.27395" lon="-2.25299">
        <ele>11.39999961853</ele>
        <time>2020-03-15T09:39:59.000Z</time>
      </trkpt>
      <trkpt lat="47.27395" lon="-2.25294">
        <ele>11.39999961853</ele>
        <time>2020-03-15T09:40:00.000Z</time>
      </trkpt>
      <trkpt lat="47.27392" lon="-2.25269">
        <ele>11.39999961853</ele>
        <time>2020-03-15T09:40:05.000Z</time>
      </trkpt>
      <trkpt lat="47.27387" lon="-2.25234">
        <ele>11.39999961853</ele>
        <time>2020-03-15T09:40:11.000Z</time>
      </trkpt>
      <trkpt lat="47.27386" lon="-2.25226">
        <ele>11.39999961853</ele>
        <time>2020-03-15T09:40:14.000Z</time>
      </trkpt>
      <trkpt lat="47.27389" lon="-2.25234">
        <ele>11.39999961853</ele>
        <time>2020-03-15T09:40:58.000Z</time>
      </trkpt>
      <trkpt lat="47.27396" lon="-2.25252">
        <ele>11.39999961853</ele>
        <time>2020-03-15T09:41:04.000Z</time>
      </trkpt>
      <trkpt lat="47.27403" lon="-2.25271">
        <ele>11.39999961853</ele>
        <time>2020-03-15T09:41:10.000Z</time>
      </trkpt>
      <trkpt lat="47.27403" lon="-2.25271">
        <ele>11.39999961853</ele>
        <time>2020-03-15T09:41:11.000Z</time>
      </trkpt>
      <trkpt lat="47.27402" lon="-2.25274">
        <ele>11.39999961853</ele>
        <time>2020-03-15T09:41:12.000Z</time>
      </trkpt>
      <trkpt lat="47.274" lon="-2.25288">
        <ele>11.39999961853</ele>
        <time>2020-03-15T09:41:16.000Z</time>
      </trkpt>
      <trkpt lat="47.27401" lon="-2.25305">
        <ele>11.39999961853</ele>
        <time>2020-03-15T09:41:20.000Z</time>
      </trkpt>
      <trkpt lat="47.27402" lon="-2.2531">
        <ele>11.39999961853</ele>
        <time>2020-03-15T09:41:21.000Z</time>
      </trkpt>
      <trkpt lat="47.27405" lon="-2.25334">
        <ele>11.39999961853</ele>
        <time>2020-03-15T09:41:26.000Z</time>
      </trkpt>
      <trkpt lat="47.27407" lon="-2.25338">
        <ele>11.39999961853</ele>
        <time>2020-03-15T09:41:27.000Z</time>
      </trkpt>
      <trkpt lat="47.27411" lon="-2.25339">
        <ele>11.39999961853</ele>
        <time>2020-03-15T09:41:29.000Z</time>
      </trkpt>
      <trkpt lat="47.27416" lon="-2.25348">
        <ele>11.39999961853</ele>
        <time>2020-03-15T09:41:32.000Z</time>
      </trkpt>
      <trkpt lat="47.27417" lon="-2.25352">
        <ele>11.39999961853</ele>
        <time>2020-03-15T09:41:33.000Z</time>
      </trkpt>
      <trkpt lat="47.27423" lon="-2.25374">
        <ele>11.39999961853</ele>
        <time>2020-03-15T09:41:39.000Z</time>
      </trkpt>
      <trkpt lat="47.27425" lon="-2.25388">
        <ele>11.39999961853</ele>
        <time>2020-03-15T09:41:44.000Z</time>
      </trkpt>
      <trkpt lat="47.27433" lon="-2.25396">
        <ele>11.39999961853</ele>
        <time>2020-03-15T09:41:49.000Z</time>
      </trkpt>
      <trkpt lat="47.27443" lon="-2.25382">
        <ele>11.39999961853</ele>
        <time>2020-03-15T09:41:53.000Z</time>
      </trkpt>
      <trkpt lat="47.27451" lon="-2.25359">
        <ele>11.39999961853</ele>
        <time>2020-03-15T09:41:57.000Z</time>
      </trkpt>
      <trkpt lat="47.27452" lon="-2.25354">
        <ele>11.39999961853</ele>
        <time>2020-03-15T09:41:58.000Z</time>
      </trkpt>
      <trkpt lat="47.27452" lon="-2.25336">
        <ele>11.39999961853</ele>
        <time>2020-03-15T09:42:02.000Z</time>
      </trkpt>
      <trkpt lat="47.27448" lon="-2.25313">
        <ele>11.39999961853</ele>
        <time>2020-03-15T09:42:06.000Z</time>
      </trkpt>
      <trkpt lat="47.27442" lon="-2.25288">
        <ele>11.39999961853</ele>
        <time>2020-03-15T09:42:10.000Z</time>
      </trkpt>
      <trkpt lat="47.27437" lon="-2.25276">
        <ele>11.39999961853</ele>
        <time>2020-03-15T09:42:12.000Z</time>
      </trkpt>
      <trkpt lat="47.27422" lon="-2.25239">
        <ele>11.39999961853</ele>
        <time>2020-03-15T09:42:17.000Z</time>
      </trkpt>
      <trkpt lat="47.274" lon="-2.25193">
        <ele>11.39999961853</ele>
        <time>2020-03-15T09:42:24.000Z</time>
      </trkpt>
      <trkpt lat="47.27384" lon="-2.25158">
        <ele>11.39999961853</ele>
        <time>2020-03-15T09:42:30.000Z</time>
      </trkpt>
      <trkpt lat="47.27382" lon="-2.25153">
        <ele>11.39999961853</ele>
        <time>2020-03-15T09:42:31.000Z</time>
      </trkpt>
      <trkpt lat="47.27368" lon="-2.25116">
        <ele>11.39999961853</ele>
        <time>2020-03-15T09:42:38.000Z</time>
      </trkpt>
      <trkpt lat="47.27358" lon="-2.25098">
        <ele>11.39999961853</ele>
        <time>2020-03-15T09:42:44.000Z</time>
      </trkpt>
      <trkpt lat="47.27351" lon="-2.25084">
        <ele>11.39999961853</ele>
        <time>2020-03-15T09:42:50.000Z</time>
      </trkpt>
      <trkpt lat="47.27346" lon="-2.25082">
        <ele>11.39999961853</ele>
        <time>2020-03-15T09:42:55.000Z</time>
      </trkpt>
      <trkpt lat="47.27345" lon="-2.25048">
        <ele>11.39999961853</ele>
        <time>2020-03-15T09:56:09.000Z</time>
      </trkpt>
      <trkpt lat="47.27346" lon="-2.2504">
        <ele>11.39999961853</ele>
        <time>2020-03-15T09:56:12.000Z</time>
      </trkpt>
      <trkpt lat="47.27355" lon="-2.25016">
        <ele>11.39999961853</ele>
        <time>2020-03-15T09:56:18.000Z</time>
      </trkpt>
      <trkpt lat="47.27368" lon="-2.24992">
        <ele>11.39999961853</ele>
        <time>2020-03-15T09:56:24.000Z</time>
      </trkpt>
      <trkpt lat="47.27387" lon="-2.2497">
        <ele>11.39999961853</ele>
        <time>2020-03-15T09:56:30.000Z</time>
      </trkpt>
      <trkpt lat="47.27399" lon="-2.24964">
        <ele>11.39999961853</ele>
        <time>2020-03-15T09:56:33.000Z</time>
      </trkpt>
      <trkpt lat="47.2741" lon="-2.24959">
        <ele>11.39999961853</ele>
        <time>2020-03-15T09:56:36.000Z</time>
      </trkpt>
      <trkpt lat="47.27419" lon="-2.2495">
        <ele>11.39999961853</ele>
        <time>2020-03-15T09:56:39.000Z</time>
      </trkpt>
      <trkpt lat="47.27424" lon="-2.24943">
        <ele>11.39999961853</ele>
        <time>2020-03-15T09:56:41.000Z</time>
      </trkpt>
      <trkpt lat="47.27427" lon="-2.24931">
        <ele>11.39999961853</ele>
        <time>2020-03-15T09:56:44.000Z</time>
      </trkpt>
      <trkpt lat="47.27427" lon="-2.24926">
        <ele>11.39999961853</ele>
        <time>2020-03-15T09:56:45.000Z</time>
      </trkpt>
      <trkpt lat="47.27426" lon="-2.24915">
        <ele>11.39999961853</ele>
        <time>2020-03-15T09:56:48.000Z</time>
      </trkpt>
      <trkpt lat="47.27424" lon="-2.24906">
        <ele>11.39999961853</ele>
        <time>2020-03-15T09:56:50.000Z</time>
      </trkpt>
      <trkpt lat="47.27414" lon="-2.24883">
        <ele>11.39999961853</ele>
        <time>2020-03-15T09:56:56.000Z</time>
      </trkpt>
      <trkpt lat="47.27407" lon="-2.24872">
        <ele>11.39999961853</ele>
        <time>2020-03-15T09:57:02.000Z</time>
      </trkpt>
      <trkpt lat="47.27417" lon="-2.24846">
        <ele>11.39999961853</ele>
        <time>2020-03-15T09:57:10.000Z</time>
      </trkpt>
      <trkpt lat="47.27419" lon="-2.24839">
        <ele>11.39999961853</ele>
        <time>2020-03-15T09:57:11.000Z</time>
      </trkpt>
      <trkpt lat="47.27427" lon="-2.24818">
        <ele>11.39999961853</ele>
        <time>2020-03-15T09:57:17.000Z</time>
      </trkpt>
      <trkpt lat="47.27431" lon="-2.24806">
        <ele>11.39999961853</ele>
        <time>2020-03-15T09:57:23.000Z</time>
      </trkpt>
      <trkpt lat="47.27431" lon="-2.24805">
        <ele>11.39999961853</ele>
        <time>2020-03-15T09:57:24.000Z</time>
      </trkpt>
      <trkpt lat="47.27435" lon="-2.2479">
        <ele>11.39999961853</ele>
        <time>2020-03-15T09:57:31.000Z</time>
      </trkpt>
      <trkpt lat="47.27443" lon="-2.24774">
        <ele>11.39999961853</ele>
        <time>2020-03-15T09:57:37.000Z</time>
      </trkpt>
      <trkpt lat="47.27443" lon="-2.24771">
        <ele>11.39999961853</ele>
        <time>2020-03-15T09:57:38.000Z</time>
      </trkpt>
      <trkpt lat="47.27442" lon="-2.24762">
        <ele>11.39999961853</ele>
        <time>2020-03-15T09:57:42.000Z</time>
      </trkpt>
      <trkpt lat="47.27439" lon="-2.2474">
        <ele>11.39999961853</ele>
        <time>2020-03-15T09:57:49.000Z</time>
      </trkpt>
      <trkpt lat="47.27438" lon="-2.24725">
        <ele>11.39999961853</ele>
        <time>2020-03-15T09:57:56.000Z</time>
      </trkpt>
      <trkpt lat="47.2744" lon="-2.24716">
        <ele>11.39999961853</ele>
        <time>2020-03-15T09:58:00.000Z</time>
      </trkpt>
      <trkpt lat="47.2744" lon="-2.24712">
        <ele>11.39999961853</ele>
        <time>2020-03-15T09:58:02.000Z</time>
      </trkpt>
      <trkpt lat="47.2744" lon="-2.24708">
        <ele>11.39999961853</ele>
        <time>2020-03-15T09:58:04.000Z</time>
      </trkpt>
      <trkpt lat="47.2744" lon="-2.24688">
        <ele>11.39999961853</ele>
        <time>2020-03-15T09:58:12.000Z</time>
      </trkpt>
      <trkpt lat="47.2744" lon="-2.24669">
        <ele>11.39999961853</ele>
        <time>2020-03-15T09:58:19.000Z</time>
      </trkpt>
      <trkpt lat="47.27437" lon="-2.24644">
        <ele>11.39999961853</ele>
        <time>2020-03-15T09:58:25.000Z</time>
      </trkpt>
      <trkpt lat="47.27432" lon="-2.24604">
        <ele>11.39999961853</ele>
        <time>2020-03-15T09:58:32.000Z</time>
      </trkpt>
      <trkpt lat="47.27436" lon="-2.24562">
        <ele>11.39999961853</ele>
        <time>2020-03-15T09:58:39.000Z</time>
      </trkpt>
      <trkpt lat="47.27441" lon="-2.24507">
        <ele>11.39999961853</ele>
        <time>2020-03-15T09:58:47.000Z</time>
      </trkpt>
      <trkpt lat="47.27442" lon="-2.24492">
        <ele>11.39999961853</ele>
        <time>2020-03-15T09:58:49.000Z</time>
      </trkpt>
      <trkpt lat="47.27442" lon="-2.24464">
        <ele>11.39999961853</ele>
        <time>2020-03-15T09:58:53.000Z</time>
      </trkpt>
      <trkpt lat="47.27442" lon="-2.24454">
        <ele>11.39999961853</ele>
        <time>2020-03-15T09:58:54.000Z</time>
      </trkpt>
      <trkpt lat="47.27441" lon="-2.24441">
        <ele>11.39999961853</ele>
        <time>2020-03-15T09:58:57.000Z</time>
      </trkpt>
      <trkpt lat="47.27441" lon="-2.2441">
        <ele>11.39999961853</ele>
        <time>2020-03-15T09:59:03.000Z</time>
      </trkpt>
      <trkpt lat="47.27441" lon="-2.24391">
        <ele>11.39999961853</ele>
        <time>2020-03-15T09:59:06.000Z</time>
      </trkpt>
      <trkpt lat="47.27442" lon="-2.24369">
        <ele>11.39999961853</ele>
        <time>2020-03-15T09:59:09.000Z</time>
      </trkpt>
      <trkpt lat="47.27441" lon="-2.24355">
        <ele>11.39999961853</ele>
        <time>2020-03-15T09:59:11.000Z</time>
      </trkpt>
      <trkpt lat="47.27442" lon="-2.24327">
        <ele>11.39999961853</ele>
        <time>2020-03-15T09:59:15.000Z</time>
      </trkpt>
      <trkpt lat="47.27453" lon="-2.24315">
        <ele>11.39999961853</ele>
        <time>2020-03-15T09:59:18.000Z</time>
      </trkpt>
      <trkpt lat="47.27469" lon="-2.2431">
        <ele>11.39999961853</ele>
        <time>2020-03-15T09:59:21.000Z</time>
      </trkpt>
      <trkpt lat="47.27474" lon="-2.24308">
        <ele>11.39999961853</ele>
        <time>2020-03-15T09:59:22.000Z</time>
      </trkpt>
      <trkpt lat="47.27476" lon="-2.24303">
        <ele>11.39999961853</ele>
        <time>2020-03-15T09:59:23.000Z</time>
      </trkpt>
      <trkpt lat="47.27478" lon="-2.24295">
        <ele>11.39999961853</ele>
        <time>2020-03-15T09:59:25.000Z</time>
      </trkpt>
      <trkpt lat="47.27477" lon="-2.24282">
        <ele>11.39999961853</ele>
        <time>2020-03-15T09:59:27.000Z</time>
      </trkpt>
      <trkpt lat="47.27477" lon="-2.24276">
        <ele>11.39999961853</ele>
        <time>2020-03-15T09:59:28.000Z</time>
      </trkpt>
      <trkpt lat="47.27475" lon="-2.24242">
        <ele>11.39999961853</ele>
        <time>2020-03-15T09:59:34.000Z</time>
      </trkpt>
      <trkpt lat="47.27474" lon="-2.24226">
        <ele>11.39999961853</ele>
        <time>2020-03-15T09:59:38.000Z</time>
      </trkpt>
      <trkpt lat="47.27476" lon="-2.24224">
        <ele>11.39999961853</ele>
        <time>2020-03-15T09:59:39.000Z</time>
      </trkpt>
      <trkpt lat="47.2749" lon="-2.24224">
        <ele>11.39999961853</ele>
        <time>2020-03-15T09:59:45.000Z</time>
      </trkpt>
      <trkpt lat="47.27494" lon="-2.24226">
        <ele>12</ele>
        <time>2020-03-15T09:59:47.000Z</time>
      </trkpt>
      <trkpt lat="47.27496" lon="-2.24228">
        <ele>12.39999961853</ele>
        <time>2020-03-15T09:59:48.000Z</time>
      </trkpt>
      <trkpt lat="47.27499" lon="-2.24231">
        <ele>12.800000190735</ele>
        <time>2020-03-15T09:59:49.000Z</time>
      </trkpt>
      <trkpt lat="47.27501" lon="-2.24232">
        <ele>13.199999809265</ele>
        <time>2020-03-15T09:59:50.000Z</time>
      </trkpt>
      <trkpt lat="47.27503" lon="-2.24235">
        <ele>13.800000190735</ele>
        <time>2020-03-15T09:59:51.000Z</time>
      </trkpt>
      <trkpt lat="47.27511" lon="-2.24243">
        <ele>14.199999809265</ele>
        <time>2020-03-15T09:59:54.000Z</time>
      </trkpt>
      <trkpt lat="47.27514" lon="-2.24246">
        <ele>14.60000038147</ele>
        <time>2020-03-15T09:59:55.000Z</time>
      </trkpt>
      <trkpt lat="47.27517" lon="-2.24249">
        <ele>15</ele>
        <time>2020-03-15T09:59:56.000Z</time>
      </trkpt>
      <trkpt lat="47.27519" lon="-2.24251">
        <ele>15.60000038147</ele>
        <time>2020-03-15T09:59:57.000Z</time>
      </trkpt>
      <trkpt lat="47.27521" lon="-2.24252">
        <ele>16</ele>
        <time>2020-03-15T09:59:58.000Z</time>
      </trkpt>
      <trkpt lat="47.27523" lon="-2.24251">
        <ele>16</ele>
        <time>2020-03-15T10:00:00.000Z</time>
      </trkpt>
      <trkpt lat="47.27527" lon="-2.24253">
        <ele>16</ele>
        <time>2020-03-15T10:00:03.000Z</time>
      </trkpt>
      <trkpt lat="47.27529" lon="-2.24256">
        <ele>16</ele>
        <time>2020-03-15T10:00:04.000Z</time>
      </trkpt>
      <trkpt lat="47.27542" lon="-2.24263">
        <ele>16</ele>
        <time>2020-03-15T10:00:09.000Z</time>
      </trkpt>
      <trkpt lat="47.27566" lon="-2.24264">
        <ele>16</ele>
        <time>2020-03-15T10:00:15.000Z</time>
      </trkpt>
      <trkpt lat="47.27572" lon="-2.24267">
        <ele>16</ele>
        <time>2020-03-15T10:00:17.000Z</time>
      </trkpt>
      <trkpt lat="47.27579" lon="-2.24272">
        <ele>16</ele>
        <time>2020-03-15T10:00:19.000Z</time>
      </trkpt>
      <trkpt lat="47.27595" lon="-2.24295">
        <ele>16</ele>
        <time>2020-03-15T10:00:24.000Z</time>
      </trkpt>
      <trkpt lat="47.27606" lon="-2.24317">
        <ele>16</ele>
        <time>2020-03-15T10:00:30.000Z</time>
      </trkpt>
      <trkpt lat="47.27612" lon="-2.24317">
        <ele>16</ele>
        <time>2020-03-15T10:00:32.000Z</time>
      </trkpt>
      <trkpt lat="47.27619" lon="-2.24316">
        <ele>16</ele>
        <time>2020-03-15T10:00:35.000Z</time>
      </trkpt>
      <trkpt lat="47.27626" lon="-2.24319">
        <ele>16</ele>
        <time>2020-03-15T10:00:37.000Z</time>
      </trkpt>
      <trkpt lat="47.27636" lon="-2.24321">
        <ele>16</ele>
        <time>2020-03-15T10:00:40.000Z</time>
      </trkpt>
      <trkpt lat="47.27638" lon="-2.24321">
        <ele>16</ele>
        <time>2020-03-15T10:00:41.000Z</time>
      </trkpt>
      <trkpt lat="47.27642" lon="-2.24317">
        <ele>16</ele>
        <time>2020-03-15T10:00:43.000Z</time>
      </trkpt>
      <trkpt lat="47.2765" lon="-2.24311">
        <ele>16</ele>
        <time>2020-03-15T10:00:46.000Z</time>
      </trkpt>
      <trkpt lat="47.2766" lon="-2.24309">
        <ele>16.39999961853</ele>
        <time>2020-03-15T10:00:48.000Z</time>
      </trkpt>
      <trkpt lat="47.27664" lon="-2.2431">
        <ele>16.799999237061</ele>
        <time>2020-03-15T10:00:49.000Z</time>
      </trkpt>
      <trkpt lat="47.27667" lon="-2.24311">
        <ele>17.200000762939</ele>
        <time>2020-03-15T10:00:50.000Z</time>
      </trkpt>
      <trkpt lat="47.2767" lon="-2.24314">
        <ele>17.60000038147</ele>
        <time>2020-03-15T10:00:51.000Z</time>
      </trkpt>
      <trkpt lat="47.27671" lon="-2.24318">
        <ele>18.200000762939</ele>
        <time>2020-03-15T10:00:52.000Z</time>
      </trkpt>
      <trkpt lat="47.27678" lon="-2.2433">
        <ele>18.200000762939</ele>
        <time>2020-03-15T10:00:55.000Z</time>
      </trkpt>
      <trkpt lat="47.27679" lon="-2.24335">
        <ele>18.200000762939</ele>
        <time>2020-03-15T10:00:56.000Z</time>
      </trkpt>
      <trkpt lat="47.27671" lon="-2.24374">
        <ele>18.200000762939</ele>
        <time>2020-03-15T10:01:03.000Z</time>
      </trkpt>
      <trkpt lat="47.27671" lon="-2.24383">
        <ele>18.200000762939</ele>
        <time>2020-03-15T10:01:05.000Z</time>
      </trkpt>
      <trkpt lat="47.27672" lon="-2.24385">
        <ele>18.200000762939</ele>
        <time>2020-03-15T10:01:06.000Z</time>
      </trkpt>
      <trkpt lat="47.27684" lon="-2.24382">
        <ele>18.200000762939</ele>
        <time>2020-03-15T10:01:09.000Z</time>
      </trkpt>
      <trkpt lat="47.2771" lon="-2.24368">
        <ele>18.200000762939</ele>
        <time>2020-03-15T10:01:14.000Z</time>
      </trkpt>
      <trkpt lat="47.2772" lon="-2.24363">
        <ele>18.200000762939</ele>
        <time>2020-03-15T10:01:16.000Z</time>
      </trkpt>
      <trkpt lat="47.2773" lon="-2.2436">
        <ele>18.200000762939</ele>
        <time>2020-03-15T10:01:18.000Z</time>
      </trkpt>
      <trkpt lat="47.27751" lon="-2.24353">
        <ele>18.200000762939</ele>
        <time>2020-03-15T10:01:22.000Z</time>
      </trkpt>
      <trkpt lat="47.27778" lon="-2.24344">
        <ele>18.60000038147</ele>
        <time>2020-03-15T10:01:27.000Z</time>
      </trkpt>
      <trkpt lat="47.27784" lon="-2.24343">
        <ele>19</ele>
        <time>2020-03-15T10:01:28.000Z</time>
      </trkpt>
      <trkpt lat="47.2779" lon="-2.24342">
        <ele>19.60000038147</ele>
        <time>2020-03-15T10:01:29.000Z</time>
      </trkpt>
      <trkpt lat="47.27796" lon="-2.24342">
        <ele>20</ele>
        <time>2020-03-15T10:01:30.000Z</time>
      </trkpt>
      <trkpt lat="47.27802" lon="-2.24342">
        <ele>20.60000038147</ele>
        <time>2020-03-15T10:01:31.000Z</time>
      </trkpt>
      <trkpt lat="47.27808" lon="-2.24342">
        <ele>20.60000038147</ele>
        <time>2020-03-15T10:01:32.000Z</time>
      </trkpt>
      <trkpt lat="47.2782" lon="-2.24343">
        <ele>20.60000038147</ele>
        <time>2020-03-15T10:01:34.000Z</time>
      </trkpt>
      <trkpt lat="47.27869" lon="-2.24349">
        <ele>20.60000038147</ele>
        <time>2020-03-15T10:01:42.000Z</time>
      </trkpt>
      <trkpt lat="47.27875" lon="-2.24347">
        <ele>20.60000038147</ele>
        <time>2020-03-15T10:01:43.000Z</time>
      </trkpt>
      <trkpt lat="47.27892" lon="-2.2434">
        <ele>20.60000038147</ele>
        <time>2020-03-15T10:01:46.000Z</time>
      </trkpt>
      <trkpt lat="47.27898" lon="-2.24342">
        <ele>21</ele>
        <time>2020-03-15T10:01:47.000Z</time>
      </trkpt>
      <trkpt lat="47.27904" lon="-2.24346">
        <ele>21.39999961853</ele>
        <time>2020-03-15T10:01:48.000Z</time>
      </trkpt>
      <trkpt lat="47.2791" lon="-2.2435">
        <ele>21.799999237061</ele>
        <time>2020-03-15T10:01:49.000Z</time>
      </trkpt>
      <trkpt lat="47.27915" lon="-2.24354">
        <ele>22.200000762939</ele>
        <time>2020-03-15T10:01:50.000Z</time>
      </trkpt>
      <trkpt lat="47.27921" lon="-2.24357">
        <ele>22.60000038147</ele>
        <time>2020-03-15T10:01:51.000Z</time>
      </trkpt>
      <trkpt lat="47.27934" lon="-2.2436">
        <ele>22.60000038147</ele>
        <time>2020-03-15T10:01:53.000Z</time>
      </trkpt>
      <trkpt lat="47.27989" lon="-2.24367">
        <ele>22.60000038147</ele>
        <time>2020-03-15T10:02:02.000Z</time>
      </trkpt>
      <trkpt lat="47.28038" lon="-2.24369">
        <ele>23</ele>
        <time>2020-03-15T10:02:10.000Z</time>
      </trkpt>
      <trkpt lat="47.28044" lon="-2.24367">
        <ele>23.39999961853</ele>
        <time>2020-03-15T10:02:11.000Z</time>
      </trkpt>
      <trkpt lat="47.28049" lon="-2.24363">
        <ele>23.799999237061</ele>
        <time>2020-03-15T10:02:12.000Z</time>
      </trkpt>
      <trkpt lat="47.28055" lon="-2.24359">
        <ele>24.200000762939</ele>
        <time>2020-03-15T10:02:13.000Z</time>
      </trkpt>
      <trkpt lat="47.2806" lon="-2.24353">
        <ele>24.60000038147</ele>
        <time>2020-03-15T10:02:14.000Z</time>
      </trkpt>
      <trkpt lat="47.2808" lon="-2.24324">
        <ele>24.60000038147</ele>
        <time>2020-03-15T10:02:18.000Z</time>
      </trkpt>
      <trkpt lat="47.28108" lon="-2.24276">
        <ele>24.60000038147</ele>
        <time>2020-03-15T10:02:24.000Z</time>
      </trkpt>
      <trkpt lat="47.28141" lon="-2.2422">
        <ele>24.60000038147</ele>
        <time>2020-03-15T10:02:31.000Z</time>
      </trkpt>
      <trkpt lat="47.28146" lon="-2.24212">
        <ele>24.200000762939</ele>
        <time>2020-03-15T10:02:32.000Z</time>
      </trkpt>
      <trkpt lat="47.28151" lon="-2.24203">
        <ele>23.799999237061</ele>
        <time>2020-03-15T10:02:33.000Z</time>
      </trkpt>
      <trkpt lat="47.28156" lon="-2.24195">
        <ele>23.39999961853</ele>
        <time>2020-03-15T10:02:34.000Z</time>
      </trkpt>
      <trkpt lat="47.28161" lon="-2.24186">
        <ele>23</ele>
        <time>2020-03-15T10:02:35.000Z</time>
      </trkpt>
      <trkpt lat="47.28165" lon="-2.24176">
        <ele>22.60000038147</ele>
        <time>2020-03-15T10:02:36.000Z</time>
      </trkpt>
      <trkpt lat="47.28169" lon="-2.24167">
        <ele>22.60000038147</ele>
        <time>2020-03-15T10:02:37.000Z</time>
      </trkpt>
      <trkpt lat="47.28175" lon="-2.24133">
        <ele>22.60000038147</ele>
        <time>2020-03-15T10:02:40.000Z</time>
      </trkpt>
      <trkpt lat="47.28176" lon="-2.2411">
        <ele>22.200000762939</ele>
        <time>2020-03-15T10:02:42.000Z</time>
      </trkpt>
      <trkpt lat="47.28176" lon="-2.24101">
        <ele>21.799999237061</ele>
        <time>2020-03-15T10:02:43.000Z</time>
      </trkpt>
      <trkpt lat="47.28176" lon="-2.24093">
        <ele>21.39999961853</ele>
        <time>2020-03-15T10:02:44.000Z</time>
      </trkpt>
      <trkpt lat="47.28176" lon="-2.24086">
        <ele>20.799999237061</ele>
        <time>2020-03-15T10:02:45.000Z</time>
      </trkpt>
      <trkpt lat="47.28176" lon="-2.2408">
        <ele>20.200000762939</ele>
        <time>2020-03-15T10:02:46.000Z</time>
      </trkpt>
      <trkpt lat="47.28176" lon="-2.24074">
        <ele>19.60000038147</ele>
        <time>2020-03-15T10:02:47.000Z</time>
      </trkpt>
      <trkpt lat="47.28176" lon="-2.24066">
        <ele>19</ele>
        <time>2020-03-15T10:02:48.000Z</time>
      </trkpt>
      <trkpt lat="47.28176" lon="-2.24059">
        <ele>18.39999961853</ele>
        <time>2020-03-15T10:02:49.000Z</time>
      </trkpt>
      <trkpt lat="47.28176" lon="-2.24033">
        <ele>17.60000038147</ele>
        <time>2020-03-15T10:02:52.000Z</time>
      </trkpt>
      <trkpt lat="47.28177" lon="-2.24023">
        <ele>17.200000762939</ele>
        <time>2020-03-15T10:02:53.000Z</time>
      </trkpt>
      <trkpt lat="47.28178" lon="-2.24014">
        <ele>16.799999237061</ele>
        <time>2020-03-15T10:02:54.000Z</time>
      </trkpt>
      <trkpt lat="47.28179" lon="-2.24004">
        <ele>16.39999961853</ele>
        <time>2020-03-15T10:02:55.000Z</time>
      </trkpt>
      <trkpt lat="47.28181" lon="-2.23994">
        <ele>16.39999961853</ele>
        <time>2020-03-15T10:02:56.000Z</time>
      </trkpt>
      <trkpt lat="47.28188" lon="-2.23976">
        <ele>16</ele>
        <time>2020-03-15T10:02:58.000Z</time>
      </trkpt>
      <trkpt lat="47.28192" lon="-2.23968">
        <ele>15.60000038147</ele>
        <time>2020-03-15T10:02:59.000Z</time>
      </trkpt>
      <trkpt lat="47.28196" lon="-2.23959">
        <ele>15.199999809265</ele>
        <time>2020-03-15T10:03:00.000Z</time>
      </trkpt>
      <trkpt lat="47.28201" lon="-2.23951">
        <ele>14.800000190735</ele>
        <time>2020-03-15T10:03:01.000Z</time>
      </trkpt>
      <trkpt lat="47.28205" lon="-2.23943">
        <ele>14.39999961853</ele>
        <time>2020-03-15T10:03:02.000Z</time>
      </trkpt>
      <trkpt lat="47.28213" lon="-2.23925">
        <ele>14.39999961853</ele>
        <time>2020-03-15T10:03:04.000Z</time>
      </trkpt>
      <trkpt lat="47.28217" lon="-2.23918">
        <ele>14.39999961853</ele>
        <time>2020-03-15T10:03:05.000Z</time>
      </trkpt>
      <trkpt lat="47.28227" lon="-2.23905">
        <ele>14.39999961853</ele>
        <time>2020-03-15T10:03:07.000Z</time>
      </trkpt>
      <trkpt lat="47.28232" lon="-2.23899">
        <ele>13.800000190735</ele>
        <time>2020-03-15T10:03:08.000Z</time>
      </trkpt>
      <trkpt lat="47.28236" lon="-2.23892">
        <ele>13.39999961853</ele>
        <time>2020-03-15T10:03:09.000Z</time>
      </trkpt>
      <trkpt lat="47.2824" lon="-2.23884">
        <ele>13</ele>
        <time>2020-03-15T10:03:10.000Z</time>
      </trkpt>
      <trkpt lat="47.28244" lon="-2.23876">
        <ele>12.60000038147</ele>
        <time>2020-03-15T10:03:11.000Z</time>
      </trkpt>
      <trkpt lat="47.28248" lon="-2.23868">
        <ele>12.199999809265</ele>
        <time>2020-03-15T10:03:12.000Z</time>
      </trkpt>
      <trkpt lat="47.2826" lon="-2.23833">
        <ele>12.199999809265</ele>
        <time>2020-03-15T10:03:16.000Z</time>
      </trkpt>
      <trkpt lat="47.28261" lon="-2.23796">
        <ele>11.60000038147</ele>
        <time>2020-03-15T10:03:20.000Z</time>
      </trkpt>
      <trkpt lat="47.2826" lon="-2.23786">
        <ele>11.199999809265</ele>
        <time>2020-03-15T10:03:21.000Z</time>
      </trkpt>
      <trkpt lat="47.28259" lon="-2.23778">
        <ele>10.60000038147</ele>
        <time>2020-03-15T10:03:22.000Z</time>
      </trkpt>
      <trkpt lat="47.2826" lon="-2.2377">
        <ele>10.199999809265</ele>
        <time>2020-03-15T10:03:23.000Z</time>
      </trkpt>
      <trkpt lat="47.28263" lon="-2.23763">
        <ele>9.6000003814697</ele>
        <time>2020-03-15T10:03:24.000Z</time>
      </trkpt>
      <trkpt lat="47.28268" lon="-2.23759">
        <ele>9.6000003814697</ele>
        <time>2020-03-15T10:03:25.000Z</time>
      </trkpt>
      <trkpt lat="47.2828" lon="-2.23757">
        <ele>9.6000003814697</ele>
        <time>2020-03-15T10:03:27.000Z</time>
      </trkpt>
      <trkpt lat="47.28287" lon="-2.23756">
        <ele>9.1999998092651</ele>
        <time>2020-03-15T10:03:28.000Z</time>
      </trkpt>
      <trkpt lat="47.28295" lon="-2.23755">
        <ele>8.8000001907349</ele>
        <time>2020-03-15T10:03:29.000Z</time>
      </trkpt>
      <trkpt lat="47.28302" lon="-2.23754">
        <ele>8.3999996185303</ele>
        <time>2020-03-15T10:03:30.000Z</time>
      </trkpt>
      <trkpt lat="47.28309" lon="-2.23753">
        <ele>8</ele>
        <time>2020-03-15T10:03:31.000Z</time>
      </trkpt>
      <trkpt lat="47.28316" lon="-2.23751">
        <ele>7.4000000953674</ele>
        <time>2020-03-15T10:03:32.000Z</time>
      </trkpt>
      <trkpt lat="47.28324" lon="-2.2375">
        <ele>7.4000000953674</ele>
        <time>2020-03-15T10:03:33.000Z</time>
      </trkpt>
      <trkpt lat="47.28345" lon="-2.23746">
        <ele>7.4000000953674</ele>
        <time>2020-03-15T10:03:36.000Z</time>
      </trkpt>
      <trkpt lat="47.28361" lon="-2.23746">
        <ele>7.4000000953674</ele>
        <time>2020-03-15T10:03:38.000Z</time>
      </trkpt>
      <trkpt lat="47.28404" lon="-2.23745">
        <ele>7</ele>
        <time>2020-03-15T10:03:43.000Z</time>
      </trkpt>
      <trkpt lat="47.28413" lon="-2.23745">
        <ele>6.5999999046326</ele>
        <time>2020-03-15T10:03:44.000Z</time>
      </trkpt>
      <trkpt lat="47.28423" lon="-2.23747">
        <ele>6.1999998092651</ele>
        <time>2020-03-15T10:03:45.000Z</time>
      </trkpt>
      <trkpt lat="47.28432" lon="-2.23749">
        <ele>5.8000001907349</ele>
        <time>2020-03-15T10:03:46.000Z</time>
      </trkpt>
      <trkpt lat="47.28441" lon="-2.2375">
        <ele>5.4000000953674</ele>
        <time>2020-03-15T10:03:47.000Z</time>
      </trkpt>
      <trkpt lat="47.2845" lon="-2.23751">
        <ele>5.4000000953674</ele>
        <time>2020-03-15T10:03:48.000Z</time>
      </trkpt>
      <trkpt lat="47.28501" lon="-2.23754">
        <ele>5.4000000953674</ele>
        <time>2020-03-15T10:03:54.000Z</time>
      </trkpt>
      <trkpt lat="47.28517" lon="-2.23752">
        <ele>5</ele>
        <time>2020-03-15T10:03:56.000Z</time>
      </trkpt>
      <trkpt lat="47.28525" lon="-2.23749">
        <ele>4.5999999046326</ele>
        <time>2020-03-15T10:03:57.000Z</time>
      </trkpt>
      <trkpt lat="47.28533" lon="-2.23745">
        <ele>4.1999998092651</ele>
        <time>2020-03-15T10:03:58.000Z</time>
      </trkpt>
      <trkpt lat="47.2854" lon="-2.23741">
        <ele>3.7999999523163</ele>
        <time>2020-03-15T10:03:59.000Z</time>
      </trkpt>
      <trkpt lat="47.28547" lon="-2.23736">
        <ele>3.4000000953674</ele>
        <time>2020-03-15T10:04:00.000Z</time>
      </trkpt>
      <trkpt lat="47.28554" lon="-2.23731">
        <ele>3.4000000953674</ele>
        <time>2020-03-15T10:04:01.000Z</time>
      </trkpt>
      <trkpt lat="47.28567" lon="-2.23722">
        <ele>3.4000000953674</ele>
        <time>2020-03-15T10:04:03.000Z</time>
      </trkpt>
      <trkpt lat="47.28584" lon="-2.2371">
        <ele>3</ele>
        <time>2020-03-15T10:04:06.000Z</time>
      </trkpt>
      <trkpt lat="47.2859" lon="-2.23704">
        <ele>2.5999999046326</ele>
        <time>2020-03-15T10:04:07.000Z</time>
      </trkpt>
      <trkpt lat="47.28595" lon="-2.23698">
        <ele>2.2000000476837</ele>
        <time>2020-03-15T10:04:08.000Z</time>
      </trkpt>
      <trkpt lat="47.28599" lon="-2.2369">
        <ele>1.7999999523163</ele>
        <time>2020-03-15T10:04:09.000Z</time>
      </trkpt>
      <trkpt lat="47.28603" lon="-2.23682">
        <ele>1.3999999761581</ele>
        <time>2020-03-15T10:04:10.000Z</time>
      </trkpt>
      <trkpt lat="47.28608" lon="-2.23663">
        <ele>1.3999999761581</ele>
        <time>2020-03-15T10:04:12.000Z</time>
      </trkpt>
      <trkpt lat="47.28609" lon="-2.23621">
        <ele>1.3999999761581</ele>
        <time>2020-03-15T10:04:16.000Z</time>
      </trkpt>
      <trkpt lat="47.28607" lon="-2.23603">
        <ele>1.3999999761581</ele>
        <time>2020-03-15T10:04:18.000Z</time>
      </trkpt>
      <trkpt lat="47.28604" lon="-2.23595">
        <ele>1.3999999761581</ele>
        <time>2020-03-15T10:04:19.000Z</time>
      </trkpt>
      <trkpt lat="47.28595" lon="-2.23578">
        <ele>1.3999999761581</ele>
        <time>2020-03-15T10:04:22.000Z</time>
      </trkpt>
      <trkpt lat="47.28594" lon="-2.23574">
        <ele>1.3999999761581</ele>
        <time>2020-03-15T10:04:23.000Z</time>
      </trkpt>
      <trkpt lat="47.28592" lon="-2.23564">
        <ele>1.3999999761581</ele>
        <time>2020-03-15T10:04:26.000Z</time>
      </trkpt>
      <trkpt lat="47.28594" lon="-2.23562">
        <ele>1.3999999761581</ele>
        <time>2020-03-15T10:04:27.000Z</time>
      </trkpt>
      <trkpt lat="47.28597" lon="-2.2356">
        <ele>1.3999999761581</ele>
        <time>2020-03-15T10:04:31.000Z</time>
      </trkpt>
      <trkpt lat="47.28598" lon="-2.23558">
        <ele>1.3999999761581</ele>
        <time>2020-03-15T10:04:34.000Z</time>
      </trkpt>
      <trkpt lat="47.28597" lon="-2.23556">
        <ele>1.3999999761581</ele>
        <time>2020-03-15T10:04:37.000Z</time>
      </trkpt>
      <trkpt lat="47.28595" lon="-2.23555">
        <ele>1.3999999761581</ele>
        <time>2020-03-15T10:04:38.000Z</time>
      </trkpt>
      <trkpt lat="47.28586" lon="-2.23549">
        <ele>1.3999999761581</ele>
        <time>2020-03-15T10:04:41.000Z</time>
      </trkpt>
      <trkpt lat="47.28583" lon="-2.23545">
        <ele>1.3999999761581</ele>
        <time>2020-03-15T10:04:42.000Z</time>
      </trkpt>
      <trkpt lat="47.28581" lon="-2.23541">
        <ele>1.3999999761581</ele>
        <time>2020-03-15T10:04:43.000Z</time>
      </trkpt>
      <trkpt lat="47.28579" lon="-2.23531">
        <ele>1.3999999761581</ele>
        <time>2020-03-15T10:04:45.000Z</time>
      </trkpt>
      <trkpt lat="47.28576" lon="-2.23523">
        <ele>1.3999999761581</ele>
        <time>2020-03-15T10:04:48.000Z</time>
      </trkpt>
      <trkpt lat="47.28575" lon="-2.2352">
        <ele>1</ele>
        <time>2020-03-15T10:04:51.000Z</time>
      </trkpt>
      <trkpt lat="47.28574" lon="-2.23511">
        <ele>-0.80000001192093</ele>
        <time>2020-03-15T10:04:59.000Z</time>
      </trkpt>
      <trkpt lat="47.28574" lon="-2.23505">
        <ele>-0.80000001192093</ele>
        <time>2020-03-15T10:05:01.000Z</time>
      </trkpt>
      <trkpt lat="47.28576" lon="-2.23484">
        <ele>-0.80000001192093</ele>
        <time>2020-03-15T10:05:06.000Z</time>
      </trkpt>
      <trkpt lat="47.28578" lon="-2.2346">
        <ele>-0.80000001192093</ele>
        <time>2020-03-15T10:05:11.000Z</time>
      </trkpt>
      <trkpt lat="47.28576" lon="-2.23428">
        <ele>-0.80000001192093</ele>
        <time>2020-03-15T10:05:16.000Z</time>
      </trkpt>
      <trkpt lat="47.28576" lon="-2.23421">
        <ele>-0.80000001192093</ele>
        <time>2020-03-15T10:05:17.000Z</time>
      </trkpt>
      <trkpt lat="47.28577" lon="-2.23407">
        <ele>-0.40000000596046</ele>
        <time>2020-03-15T10:05:19.000Z</time>
      </trkpt>
      <trkpt lat="47.28578" lon="-2.234">
        <ele>0.60000002384186</ele>
        <time>2020-03-15T10:05:20.000Z</time>
      </trkpt>
      <trkpt lat="47.2858" lon="-2.23392">
        <ele>1</ele>
        <time>2020-03-15T10:05:21.000Z</time>
      </trkpt>
      <trkpt lat="47.28581" lon="-2.23385">
        <ele>1.3999999761581</ele>
        <time>2020-03-15T10:05:22.000Z</time>
      </trkpt>
      <trkpt lat="47.28582" lon="-2.23378">
        <ele>1.3999999761581</ele>
        <time>2020-03-15T10:05:23.000Z</time>
      </trkpt>
      <trkpt lat="47.28582" lon="-2.2337">
        <ele>1.3999999761581</ele>
        <time>2020-03-15T10:05:24.000Z</time>
      </trkpt>
      <trkpt lat="47.28584" lon="-2.23349">
        <ele>1.3999999761581</ele>
        <time>2020-03-15T10:05:27.000Z</time>
      </trkpt>
      <trkpt lat="47.28584" lon="-2.23327">
        <ele>1.3999999761581</ele>
        <time>2020-03-15T10:05:30.000Z</time>
      </trkpt>
      <trkpt lat="47.28586" lon="-2.23304">
        <ele>1.3999999761581</ele>
        <time>2020-03-15T10:05:34.000Z</time>
      </trkpt>
      <trkpt lat="47.28599" lon="-2.23301">
        <ele>1.3999999761581</ele>
        <time>2020-03-15T10:05:37.000Z</time>
      </trkpt>
      <trkpt lat="47.28609" lon="-2.23305">
        <ele>1.3999999761581</ele>
        <time>2020-03-15T10:05:39.000Z</time>
      </trkpt>
      <trkpt lat="47.28615" lon="-2.23306">
        <ele>1.3999999761581</ele>
        <time>2020-03-15T10:05:40.000Z</time>
      </trkpt>
      <trkpt lat="47.28625" lon="-2.23307">
        <ele>1.3999999761581</ele>
        <time>2020-03-15T10:05:42.000Z</time>
      </trkpt>
      <trkpt lat="47.28639" lon="-2.23303">
        <ele>1.3999999761581</ele>
        <time>2020-03-15T10:05:46.000Z</time>
      </trkpt>
      <trkpt lat="47.28652" lon="-2.23307">
        <ele>1.3999999761581</ele>
        <time>2020-03-15T10:05:50.000Z</time>
      </trkpt>
      <trkpt lat="47.28655" lon="-2.23326">
        <ele>1.3999999761581</ele>
        <time>2020-03-15T10:05:54.000Z</time>
      </trkpt>
      <trkpt lat="47.28657" lon="-2.23351">
        <ele>1.3999999761581</ele>
        <time>2020-03-15T10:06:00.000Z</time>
      </trkpt>
      <trkpt lat="47.28666" lon="-2.23356">
        <ele>1.3999999761581</ele>
        <time>2020-03-15T10:06:05.000Z</time>
      </trkpt>
      <trkpt lat="47.28669" lon="-2.23348">
        <ele>1.3999999761581</ele>
        <time>2020-03-15T10:06:08.000Z</time>
      </trkpt>
      <trkpt lat="47.28669" lon="-2.23344">
        <ele>1.3999999761581</ele>
        <time>2020-03-15T10:06:09.000Z</time>
      </trkpt>
      <trkpt lat="47.28672" lon="-2.23321">
        <ele>1.3999999761581</ele>
        <time>2020-03-15T10:06:16.000Z</time>
      </trkpt>
      <trkpt lat="47.28674" lon="-2.23307">
        <ele>1.3999999761581</ele>
        <time>2020-03-15T10:06:22.000Z</time>
      </trkpt>
      <trkpt lat="47.28676" lon="-2.23289">
        <ele>1.3999999761581</ele>
        <time>2020-03-15T10:06:27.000Z</time>
      </trkpt>
      <trkpt lat="47.28677" lon="-2.23284">
        <ele>1.3999999761581</ele>
        <time>2020-03-15T10:06:28.000Z</time>
      </trkpt>
      <trkpt lat="47.2868" lon="-2.23276">
        <ele>1.3999999761581</ele>
        <time>2020-03-15T10:06:30.000Z</time>
      </trkpt>
      <trkpt lat="47.28684" lon="-2.23267">
        <ele>1.3999999761581</ele>
        <time>2020-03-15T10:06:32.000Z</time>
      </trkpt>
      <trkpt lat="47.28687" lon="-2.23257">
        <ele>1.3999999761581</ele>
        <time>2020-03-15T10:06:35.000Z</time>
      </trkpt>
      <trkpt lat="47.28688" lon="-2.2325">
        <ele>1.3999999761581</ele>
        <time>2020-03-15T10:06:38.000Z</time>
      </trkpt>
      <trkpt lat="47.28686" lon="-2.23244">
        <ele>1.3999999761581</ele>
        <time>2020-03-15T10:06:40.000Z</time>
      </trkpt>
      <trkpt lat="47.28682" lon="-2.23218">
        <ele>1.3999999761581</ele>
        <time>2020-03-15T10:06:45.000Z</time>
      </trkpt>
      <trkpt lat="47.28679" lon="-2.23201">
        <ele>1.3999999761581</ele>
        <time>2020-03-15T10:06:47.000Z</time>
      </trkpt>
      <trkpt lat="47.2867" lon="-2.23189">
        <ele>1.3999999761581</ele>
        <time>2020-03-15T10:06:49.000Z</time>
      </trkpt>
      <trkpt lat="47.28651" lon="-2.23182">
        <ele>1.3999999761581</ele>
        <time>2020-03-15T10:06:52.000Z</time>
      </trkpt>
      <trkpt lat="47.28636" lon="-2.23186">
        <ele>1.3999999761581</ele>
        <time>2020-03-15T10:06:55.000Z</time>
      </trkpt>
      <trkpt lat="47.28607" lon="-2.23205">
        <ele>1.3999999761581</ele>
        <time>2020-03-15T10:07:02.000Z</time>
      </trkpt>
      <trkpt lat="47.28598" lon="-2.23222">
        <ele>1.3999999761581</ele>
        <time>2020-03-15T10:07:06.000Z</time>
      </trkpt>
      <trkpt lat="47.28594" lon="-2.23245">
        <ele>1.3999999761581</ele>
        <time>2020-03-15T10:07:10.000Z</time>
      </trkpt>
      <trkpt lat="47.28593" lon="-2.23252">
        <ele>1.3999999761581</ele>
        <time>2020-03-15T10:07:11.000Z</time>
      </trkpt>
      <trkpt lat="47.28594" lon="-2.23272">
        <ele>1.3999999761581</ele>
        <time>2020-03-15T10:07:14.000Z</time>
      </trkpt>
      <trkpt lat="47.28603" lon="-2.23296">
        <ele>1.3999999761581</ele>
        <time>2020-03-15T10:07:18.000Z</time>
      </trkpt>
      <trkpt lat="47.28626" lon="-2.23305">
        <ele>1.3999999761581</ele>
        <time>2020-03-15T10:07:23.000Z</time>
      </trkpt>
      <trkpt lat="47.28633" lon="-2.23303">
        <ele>1.3999999761581</ele>
        <time>2020-03-15T10:07:25.000Z</time>
      </trkpt>
      <trkpt lat="47.2864" lon="-2.23302">
        <ele>1.3999999761581</ele>
        <time>2020-03-15T10:07:27.000Z</time>
      </trkpt>
      <trkpt lat="47.28659" lon="-2.23307">
        <ele>1.3999999761581</ele>
        <time>2020-03-15T10:07:32.000Z</time>
      </trkpt>
      <trkpt lat="47.28664" lon="-2.23306">
        <ele>1.3999999761581</ele>
        <time>2020-03-15T10:07:34.000Z</time>
      </trkpt>
      <trkpt lat="47.28667" lon="-2.23304">
        <ele>1.3999999761581</ele>
        <time>2020-03-15T10:07:36.000Z</time>
      </trkpt>
      <trkpt lat="47.28668" lon="-2.23304">
        <ele>1.3999999761581</ele>
        <time>2020-03-15T10:07:37.000Z</time>
      </trkpt>
      <trkpt lat="47.28672" lon="-2.23317">
        <ele>1.3999999761581</ele>
        <time>2020-03-15T10:07:41.000Z</time>
      </trkpt>
      <trkpt lat="47.28673" lon="-2.23322">
        <ele>1.3999999761581</ele>
        <time>2020-03-15T10:07:42.000Z</time>
      </trkpt>
      <trkpt lat="47.28673" lon="-2.23334">
        <ele>1.3999999761581</ele>
        <time>2020-03-15T10:07:44.000Z</time>
      </trkpt>
      <trkpt lat="47.28672" lon="-2.23347">
        <ele>1.3999999761581</ele>
        <time>2020-03-15T10:07:46.000Z</time>
      </trkpt>
      <trkpt lat="47.2867" lon="-2.23356">
        <ele>1.3999999761581</ele>
        <time>2020-03-15T10:07:48.000Z</time>
      </trkpt>
      <trkpt lat="47.28669" lon="-2.23357">
        <ele>1.3999999761581</ele>
        <time>2020-03-15T10:07:49.000Z</time>
      </trkpt>
      <trkpt lat="47.28661" lon="-2.23353">
        <ele>1.3999999761581</ele>
        <time>2020-03-15T10:07:52.000Z</time>
      </trkpt>
      <trkpt lat="47.28659" lon="-2.23352">
        <ele>1.3999999761581</ele>
        <time>2020-03-15T10:07:53.000Z</time>
      </trkpt>
      <trkpt lat="47.28654" lon="-2.23352">
        <ele>1.3999999761581</ele>
        <time>2020-03-15T10:07:56.000Z</time>
      </trkpt>
      <trkpt lat="47.28652" lon="-2.23351">
        <ele>1.3999999761581</ele>
        <time>2020-03-15T10:07:58.000Z</time>
      </trkpt>
      <trkpt lat="47.28651" lon="-2.23351">
        <ele>1.3999999761581</ele>
        <time>2020-03-15T10:07:59.000Z</time>
      </trkpt>
      <trkpt lat="47.2865" lon="-2.23362">
        <ele>1.3999999761581</ele>
        <time>2020-03-15T10:08:39.000Z</time>
      </trkpt>
      <trkpt lat="47.2865" lon="-2.23369">
        <ele>1.3999999761581</ele>
        <time>2020-03-15T10:08:41.000Z</time>
      </trkpt>
      <trkpt lat="47.28649" lon="-2.23376">
        <ele>1.3999999761581</ele>
        <time>2020-03-15T10:08:43.000Z</time>
      </trkpt>
      <trkpt lat="47.28648" lon="-2.23392">
        <ele>1.3999999761581</ele>
        <time>2020-03-15T10:08:47.000Z</time>
      </trkpt>
      <trkpt lat="47.2865" lon="-2.23413">
        <ele>1.3999999761581</ele>
        <time>2020-03-15T10:08:53.000Z</time>
      </trkpt>
      <trkpt lat="47.28655" lon="-2.23434">
        <ele>1.3999999761581</ele>
        <time>2020-03-15T10:08:59.000Z</time>
      </trkpt>
      <trkpt lat="47.28661" lon="-2.23458">
        <ele>1.3999999761581</ele>
        <time>2020-03-15T10:09:04.000Z</time>
      </trkpt>
      <trkpt lat="47.2866" lon="-2.23483">
        <ele>1.3999999761581</ele>
        <time>2020-03-15T10:09:09.000Z</time>
      </trkpt>
      <trkpt lat="47.28654" lon="-2.23519">
        <ele>1.3999999761581</ele>
        <time>2020-03-15T10:09:15.000Z</time>
      </trkpt>
      <trkpt lat="47.28655" lon="-2.23547">
        <ele>1.3999999761581</ele>
        <time>2020-03-15T10:09:20.000Z</time>
      </trkpt>
      <trkpt lat="47.28659" lon="-2.23556">
        <ele>1.3999999761581</ele>
        <time>2020-03-15T10:09:23.000Z</time>
      </trkpt>
      <trkpt lat="47.28664" lon="-2.2356">
        <ele>1.3999999761581</ele>
        <time>2020-03-15T10:09:25.000Z</time>
      </trkpt>
      <trkpt lat="47.28679" lon="-2.23574">
        <ele>1.3999999761581</ele>
        <time>2020-03-15T10:09:30.000Z</time>
      </trkpt>
      <trkpt lat="47.28697" lon="-2.236">
        <ele>1.3999999761581</ele>
        <time>2020-03-15T10:09:36.000Z</time>
      </trkpt>
      <trkpt lat="47.28718" lon="-2.23635">
        <ele>1.3999999761581</ele>
        <time>2020-03-15T10:09:43.000Z</time>
      </trkpt>
      <trkpt lat="47.28738" lon="-2.23676">
        <ele>1.3999999761581</ele>
        <time>2020-03-15T10:09:50.000Z</time>
      </trkpt>
      <trkpt lat="47.28766" lon="-2.23719">
        <ele>1.3999999761581</ele>
        <time>2020-03-15T10:09:58.000Z</time>
      </trkpt>
      <trkpt lat="47.28794" lon="-2.23762">
        <ele>1.3999999761581</ele>
        <time>2020-03-15T10:10:05.000Z</time>
      </trkpt>
      <trkpt lat="47.28817" lon="-2.23806">
        <ele>1.3999999761581</ele>
        <time>2020-03-15T10:10:12.000Z</time>
      </trkpt>
      <trkpt lat="47.2882" lon="-2.23822">
        <ele>1.3999999761581</ele>
        <time>2020-03-15T10:10:15.000Z</time>
      </trkpt>
      <trkpt lat="47.28819" lon="-2.23827">
        <ele>1.3999999761581</ele>
        <time>2020-03-15T10:10:16.000Z</time>
      </trkpt>
      <trkpt lat="47.28812" lon="-2.23844">
        <ele>1.3999999761581</ele>
        <time>2020-03-15T10:10:20.000Z</time>
      </trkpt>
      <trkpt lat="47.28813" lon="-2.23868">
        <ele>1.3999999761581</ele>
        <time>2020-03-15T10:10:24.000Z</time>
      </trkpt>
      <trkpt lat="47.28808" lon="-2.23895">
        <ele>1.3999999761581</ele>
        <time>2020-03-15T10:10:29.000Z</time>
      </trkpt>
      <trkpt lat="47.28806" lon="-2.23901">
        <ele>1.3999999761581</ele>
        <time>2020-03-15T10:10:30.000Z</time>
      </trkpt>
      <trkpt lat="47.28804" lon="-2.23924">
        <ele>1.3999999761581</ele>
        <time>2020-03-15T10:10:34.000Z</time>
      </trkpt>
      <trkpt lat="47.288" lon="-2.23959">
        <ele>1.3999999761581</ele>
        <time>2020-03-15T10:10:39.000Z</time>
      </trkpt>
      <trkpt lat="47.28793" lon="-2.2402">
        <ele>1.3999999761581</ele>
        <time>2020-03-15T10:10:47.000Z</time>
      </trkpt>
      <trkpt lat="47.28788" lon="-2.24061">
        <ele>1.3999999761581</ele>
        <time>2020-03-15T10:10:52.000Z</time>
      </trkpt>
      <trkpt lat="47.28787" lon="-2.24106">
        <ele>1.3999999761581</ele>
        <time>2020-03-15T10:10:57.000Z</time>
      </trkpt>
      <trkpt lat="47.28786" lon="-2.24152">
        <ele>1.3999999761581</ele>
        <time>2020-03-15T10:11:03.000Z</time>
      </trkpt>
      <trkpt lat="47.28786" lon="-2.24159">
        <ele>1.3999999761581</ele>
        <time>2020-03-15T10:11:04.000Z</time>
      </trkpt>
      <trkpt lat="47.28786" lon="-2.24192">
        <ele>1.3999999761581</ele>
        <time>2020-03-15T10:11:09.000Z</time>
      </trkpt>
      <trkpt lat="47.28783" lon="-2.24248">
        <ele>1.3999999761581</ele>
        <time>2020-03-15T10:11:17.000Z</time>
      </trkpt>
      <trkpt lat="47.28772" lon="-2.24257">
        <ele>1.3999999761581</ele>
        <time>2020-03-15T10:11:20.000Z</time>
      </trkpt>
      <trkpt lat="47.28762" lon="-2.24259">
        <ele>1.3999999761581</ele>
        <time>2020-03-15T10:11:22.000Z</time>
      </trkpt>
      <trkpt lat="47.28742" lon="-2.2426">
        <ele>1.3999999761581</ele>
        <time>2020-03-15T10:11:26.000Z</time>
      </trkpt>
      <trkpt lat="47.28727" lon="-2.24259">
        <ele>1.3999999761581</ele>
        <time>2020-03-15T10:11:29.000Z</time>
      </trkpt>
      <trkpt lat="47.28712" lon="-2.24259">
        <ele>1.3999999761581</ele>
        <time>2020-03-15T10:11:32.000Z</time>
      </trkpt>
      <trkpt lat="47.28699" lon="-2.24259">
        <ele>1.3999999761581</ele>
        <time>2020-03-15T10:11:36.000Z</time>
      </trkpt>
      <trkpt lat="47.28698" lon="-2.24261">
        <ele>1.3999999761581</ele>
        <time>2020-03-15T10:11:37.000Z</time>
      </trkpt>
      <trkpt lat="47.28694" lon="-2.24267">
        <ele>1.3999999761581</ele>
        <time>2020-03-15T10:11:39.000Z</time>
      </trkpt>
      <trkpt lat="47.28686" lon="-2.24285">
        <ele>1.3999999761581</ele>
        <time>2020-03-15T10:11:43.000Z</time>
      </trkpt>
      <trkpt lat="47.28683" lon="-2.24298">
        <ele>1.3999999761581</ele>
        <time>2020-03-15T10:11:45.000Z</time>
      </trkpt>
      <trkpt lat="47.28676" lon="-2.24325">
        <ele>1.7999999523163</ele>
        <time>2020-03-15T10:11:49.000Z</time>
      </trkpt>
      <trkpt lat="47.28675" lon="-2.24332">
        <ele>2.2000000476837</ele>
        <time>2020-03-15T10:11:50.000Z</time>
      </trkpt>
      <trkpt lat="47.28672" lon="-2.2434">
        <ele>2.5999999046326</ele>
        <time>2020-03-15T10:11:51.000Z</time>
      </trkpt>
      <trkpt lat="47.2867" lon="-2.24347">
        <ele>3</ele>
        <time>2020-03-15T10:11:52.000Z</time>
      </trkpt>
      <trkpt lat="47.28669" lon="-2.24354">
        <ele>3.4000000953674</ele>
        <time>2020-03-15T10:11:53.000Z</time>
      </trkpt>
      <trkpt lat="47.28663" lon="-2.24376">
        <ele>3.4000000953674</ele>
        <time>2020-03-15T10:11:56.000Z</time>
      </trkpt>
      <trkpt lat="47.28654" lon="-2.2441">
        <ele>3.4000000953674</ele>
        <time>2020-03-15T10:12:00.000Z</time>
      </trkpt>
      <trkpt lat="47.28652" lon="-2.24418">
        <ele>3.4000000953674</ele>
        <time>2020-03-15T10:12:01.000Z</time>
      </trkpt>
      <trkpt lat="47.28637" lon="-2.2448">
        <ele>3.4000000953674</ele>
        <time>2020-03-15T10:12:09.000Z</time>
      </trkpt>
      <trkpt lat="47.28624" lon="-2.24528">
        <ele>3.4000000953674</ele>
        <time>2020-03-15T10:12:15.000Z</time>
      </trkpt>
      <trkpt lat="47.28617" lon="-2.24556">
        <ele>3.4000000953674</ele>
        <time>2020-03-15T10:12:19.000Z</time>
      </trkpt>
      <trkpt lat="47.28614" lon="-2.24571">
        <ele>3.4000000953674</ele>
        <time>2020-03-15T10:12:21.000Z</time>
      </trkpt>
      <trkpt lat="47.28611" lon="-2.24585">
        <ele>3.4000000953674</ele>
        <time>2020-03-15T10:12:23.000Z</time>
      </trkpt>
      <trkpt lat="47.28607" lon="-2.24605">
        <ele>3.4000000953674</ele>
        <time>2020-03-15T10:12:26.000Z</time>
      </trkpt>
      <trkpt lat="47.28608" lon="-2.24611">
        <ele>3.4000000953674</ele>
        <time>2020-03-15T10:12:27.000Z</time>
      </trkpt>
      <trkpt lat="47.2862" lon="-2.24635">
        <ele>3.4000000953674</ele>
        <time>2020-03-15T10:12:31.000Z</time>
      </trkpt>
      <trkpt lat="47.28634" lon="-2.24659">
        <ele>3.4000000953674</ele>
        <time>2020-03-15T10:12:35.000Z</time>
      </trkpt>
      <trkpt lat="47.28642" lon="-2.24678">
        <ele>3.4000000953674</ele>
        <time>2020-03-15T10:12:38.000Z</time>
      </trkpt>
      <trkpt lat="47.28655" lon="-2.24707">
        <ele>3.4000000953674</ele>
        <time>2020-03-15T10:12:44.000Z</time>
      </trkpt>
      <trkpt lat="47.28648" lon="-2.24718">
        <ele>3.4000000953674</ele>
        <time>2020-03-15T10:12:47.000Z</time>
      </trkpt>
      <trkpt lat="47.28634" lon="-2.24723">
        <ele>3.4000000953674</ele>
        <time>2020-03-15T10:12:51.000Z</time>
      </trkpt>
      <trkpt lat="47.2863" lon="-2.24724">
        <ele>3.4000000953674</ele>
        <time>2020-03-15T10:12:52.000Z</time>
      </trkpt>
      <trkpt lat="47.28618" lon="-2.24727">
        <ele>3.4000000953674</ele>
        <time>2020-03-15T10:12:54.000Z</time>
      </trkpt>
      <trkpt lat="47.28612" lon="-2.24729">
        <ele>3.4000000953674</ele>
        <time>2020-03-15T10:12:55.000Z</time>
      </trkpt>
      <trkpt lat="47.28575" lon="-2.24737">
        <ele>3.4000000953674</ele>
        <time>2020-03-15T10:13:01.000Z</time>
      </trkpt>
      <trkpt lat="47.2855" lon="-2.24749">
        <ele>3.4000000953674</ele>
        <time>2020-03-15T10:13:05.000Z</time>
      </trkpt>
      <trkpt lat="47.28539" lon="-2.24755">
        <ele>3.4000000953674</ele>
        <time>2020-03-15T10:13:07.000Z</time>
      </trkpt>
      <trkpt lat="47.28513" lon="-2.2477">
        <ele>3.4000000953674</ele>
        <time>2020-03-15T10:13:12.000Z</time>
      </trkpt>
      <trkpt lat="47.28488" lon="-2.24788">
        <ele>3.4000000953674</ele>
        <time>2020-03-15T10:13:17.000Z</time>
      </trkpt>
      <trkpt lat="47.28477" lon="-2.24793">
        <ele>3.4000000953674</ele>
        <time>2020-03-15T10:13:19.000Z</time>
      </trkpt>
      <trkpt lat="47.28463" lon="-2.24799">
        <ele>3.4000000953674</ele>
        <time>2020-03-15T10:13:22.000Z</time>
      </trkpt>
      <trkpt lat="47.28438" lon="-2.24814">
        <ele>3.4000000953674</ele>
        <time>2020-03-15T10:13:28.000Z</time>
      </trkpt>
      <trkpt lat="47.2843" lon="-2.24819">
        <ele>4</ele>
        <time>2020-03-15T10:13:30.000Z</time>
      </trkpt>
      <trkpt lat="47.28426" lon="-2.24821">
        <ele>4.4000000953674</ele>
        <time>2020-03-15T10:13:31.000Z</time>
      </trkpt>
      <trkpt lat="47.28421" lon="-2.24823">
        <ele>4.8000001907349</ele>
        <time>2020-03-15T10:13:32.000Z</time>
      </trkpt>
      <trkpt lat="47.28414" lon="-2.24826">
        <ele>5.1999998092651</ele>
        <time>2020-03-15T10:13:33.000Z</time>
      </trkpt>
      <trkpt lat="47.28408" lon="-2.24828">
        <ele>5.5999999046326</ele>
        <time>2020-03-15T10:13:34.000Z</time>
      </trkpt>
      <trkpt lat="47.28403" lon="-2.2483">
        <ele>5.5999999046326</ele>
        <time>2020-03-15T10:13:35.000Z</time>
      </trkpt>
      <trkpt lat="47.28396" lon="-2.24837">
        <ele>5.1999998092651</ele>
        <time>2020-03-15T10:13:37.000Z</time>
      </trkpt>
      <trkpt lat="47.28395" lon="-2.24841">
        <ele>4.5999999046326</ele>
        <time>2020-03-15T10:13:38.000Z</time>
      </trkpt>
      <trkpt lat="47.28396" lon="-2.24846">
        <ele>4.1999998092651</ele>
        <time>2020-03-15T10:13:39.000Z</time>
      </trkpt>
      <trkpt lat="47.28396" lon="-2.24853">
        <ele>3.5999999046326</ele>
        <time>2020-03-15T10:13:40.000Z</time>
      </trkpt>
      <trkpt lat="47.28397" lon="-2.2486">
        <ele>3.2000000476837</ele>
        <time>2020-03-15T10:13:41.000Z</time>
      </trkpt>
      <trkpt lat="47.284" lon="-2.24883">
        <ele>3.2000000476837</ele>
        <time>2020-03-15T10:13:44.000Z</time>
      </trkpt>
      <trkpt lat="47.28405" lon="-2.24945">
        <ele>3.2000000476837</ele>
        <time>2020-03-15T10:13:52.000Z</time>
      </trkpt>
      <trkpt lat="47.28407" lon="-2.24998">
        <ele>4</ele>
        <time>2020-03-15T10:13:59.000Z</time>
      </trkpt>
      <trkpt lat="47.28408" lon="-2.25005">
        <ele>4.5999999046326</ele>
        <time>2020-03-15T10:14:00.000Z</time>
      </trkpt>
      <trkpt lat="47.28409" lon="-2.25012">
        <ele>5</ele>
        <time>2020-03-15T10:14:01.000Z</time>
      </trkpt>
      <trkpt lat="47.28409" lon="-2.25018">
        <ele>5.4000000953674</ele>
        <time>2020-03-15T10:14:02.000Z</time>
      </trkpt>
      <trkpt lat="47.28409" lon="-2.25025">
        <ele>5.8000001907349</ele>
        <time>2020-03-15T10:14:03.000Z</time>
      </trkpt>
      <trkpt lat="47.28409" lon="-2.25032">
        <ele>6.1999998092651</ele>
        <time>2020-03-15T10:14:04.000Z</time>
      </trkpt>
      <trkpt lat="47.28409" lon="-2.25038">
        <ele>6.5999999046326</ele>
        <time>2020-03-15T10:14:05.000Z</time>
      </trkpt>
      <trkpt lat="47.2841" lon="-2.25045">
        <ele>7</ele>
        <time>2020-03-15T10:14:06.000Z</time>
      </trkpt>
      <trkpt lat="47.2841" lon="-2.25051">
        <ele>7.4000000953674</ele>
        <time>2020-03-15T10:14:07.000Z</time>
      </trkpt>
      <trkpt lat="47.28411" lon="-2.25064">
        <ele>7.8000001907349</ele>
        <time>2020-03-15T10:14:09.000Z</time>
      </trkpt>
      <trkpt lat="47.28412" lon="-2.2507">
        <ele>8.1999998092651</ele>
        <time>2020-03-15T10:14:10.000Z</time>
      </trkpt>
      <trkpt lat="47.28412" lon="-2.25076">
        <ele>8.6000003814697</ele>
        <time>2020-03-15T10:14:11.000Z</time>
      </trkpt>
      <trkpt lat="47.28414" lon="-2.25081">
        <ele>9</ele>
        <time>2020-03-15T10:14:12.000Z</time>
      </trkpt>
      <trkpt lat="47.28416" lon="-2.25084">
        <ele>9.3999996185303</ele>
        <time>2020-03-15T10:14:13.000Z</time>
      </trkpt>
      <trkpt lat="47.28427" lon="-2.25084">
        <ele>9.3999996185303</ele>
        <time>2020-03-15T10:14:16.000Z</time>
      </trkpt>
      <trkpt lat="47.28431" lon="-2.25086">
        <ele>9.8000001907349</ele>
        <time>2020-03-15T10:14:17.000Z</time>
      </trkpt>
      <trkpt lat="47.28435" lon="-2.25089">
        <ele>10.199999809265</ele>
        <time>2020-03-15T10:14:18.000Z</time>
      </trkpt>
      <trkpt lat="47.28437" lon="-2.25094">
        <ele>10.60000038147</ele>
        <time>2020-03-15T10:14:19.000Z</time>
      </trkpt>
      <trkpt lat="47.28438" lon="-2.25099">
        <ele>11</ele>
        <time>2020-03-15T10:14:20.000Z</time>
      </trkpt>
      <trkpt lat="47.28438" lon="-2.25104">
        <ele>11.60000038147</ele>
        <time>2020-03-15T10:14:21.000Z</time>
      </trkpt>
      <trkpt lat="47.28437" lon="-2.2511">
        <ele>11.60000038147</ele>
        <time>2020-03-15T10:14:22.000Z</time>
      </trkpt>
      <trkpt lat="47.28435" lon="-2.25131">
        <ele>12</ele>
        <time>2020-03-15T10:14:26.000Z</time>
      </trkpt>
      <trkpt lat="47.28434" lon="-2.25136">
        <ele>12.39999961853</ele>
        <time>2020-03-15T10:14:27.000Z</time>
      </trkpt>
      <trkpt lat="47.28433" lon="-2.25142">
        <ele>12.800000190735</ele>
        <time>2020-03-15T10:14:28.000Z</time>
      </trkpt>
      <trkpt lat="47.28433" lon="-2.25147">
        <ele>13.39999961853</ele>
        <time>2020-03-15T10:14:29.000Z</time>
      </trkpt>
      <trkpt lat="47.28432" lon="-2.25152">
        <ele>13.800000190735</ele>
        <time>2020-03-15T10:14:30.000Z</time>
      </trkpt>
      <trkpt lat="47.2843" lon="-2.25167">
        <ele>14.199999809265</ele>
        <time>2020-03-15T10:14:33.000Z</time>
      </trkpt>
      <trkpt lat="47.28429" lon="-2.25172">
        <ele>14.60000038147</ele>
        <time>2020-03-15T10:14:34.000Z</time>
      </trkpt>
      <trkpt lat="47.28429" lon="-2.25177">
        <ele>15.199999809265</ele>
        <time>2020-03-15T10:14:35.000Z</time>
      </trkpt>
      <trkpt lat="47.28428" lon="-2.25183">
        <ele>15.60000038147</ele>
        <time>2020-03-15T10:14:36.000Z</time>
      </trkpt>
      <trkpt lat="47.28428" lon="-2.25188">
        <ele>16</ele>
        <time>2020-03-15T10:14:37.000Z</time>
      </trkpt>
      <trkpt lat="47.28425" lon="-2.25204">
        <ele>16.39999961853</ele>
        <time>2020-03-15T10:14:40.000Z</time>
      </trkpt>
      <trkpt lat="47.28424" lon="-2.25208">
        <ele>16.799999237061</ele>
        <time>2020-03-15T10:14:41.000Z</time>
      </trkpt>
      <trkpt lat="47.28423" lon="-2.25213">
        <ele>17.200000762939</ele>
        <time>2020-03-15T10:14:42.000Z</time>
      </trkpt>
      <trkpt lat="47.28423" lon="-2.25217">
        <ele>17.60000038147</ele>
        <time>2020-03-15T10:14:43.000Z</time>
      </trkpt>
      <trkpt lat="47.28422" lon="-2.25221">
        <ele>18</ele>
        <time>2020-03-15T10:14:44.000Z</time>
      </trkpt>
      <trkpt lat="47.2842" lon="-2.25234">
        <ele>18</ele>
        <time>2020-03-15T10:14:47.000Z</time>
      </trkpt>
      <trkpt lat="47.28419" lon="-2.25238">
        <ele>18.60000038147</ele>
        <time>2020-03-15T10:14:48.000Z</time>
      </trkpt>
      <trkpt lat="47.28418" lon="-2.25243">
        <ele>19.39999961853</ele>
        <time>2020-03-15T10:14:49.000Z</time>
      </trkpt>
      <trkpt lat="47.28417" lon="-2.25247">
        <ele>19.799999237061</ele>
        <time>2020-03-15T10:14:50.000Z</time>
      </trkpt>
      <trkpt lat="47.28416" lon="-2.25252">
        <ele>20.200000762939</ele>
        <time>2020-03-15T10:14:51.000Z</time>
      </trkpt>
      <trkpt lat="47.28414" lon="-2.25257">
        <ele>20.200000762939</ele>
        <time>2020-03-15T10:14:52.000Z</time>
      </trkpt>
      <trkpt lat="47.28402" lon="-2.25276">
        <ele>20.200000762939</ele>
        <time>2020-03-15T10:14:56.000Z</time>
      </trkpt>
      <trkpt lat="47.28391" lon="-2.25312">
        <ele>20.200000762939</ele>
        <time>2020-03-15T10:15:02.000Z</time>
      </trkpt>
      <trkpt lat="47.28391" lon="-2.25318">
        <ele>20.60000038147</ele>
        <time>2020-03-15T10:15:03.000Z</time>
      </trkpt>
      <trkpt lat="47.2839" lon="-2.25323">
        <ele>21.200000762939</ele>
        <time>2020-03-15T10:15:04.000Z</time>
      </trkpt>
      <trkpt lat="47.28389" lon="-2.25329">
        <ele>21.60000038147</ele>
        <time>2020-03-15T10:15:05.000Z</time>
      </trkpt>
      <trkpt lat="47.28388" lon="-2.25334">
        <ele>22</ele>
        <time>2020-03-15T10:15:06.000Z</time>
      </trkpt>
      <trkpt lat="47.28387" lon="-2.2534">
        <ele>22.39999961853</ele>
        <time>2020-03-15T10:15:07.000Z</time>
      </trkpt>
      <trkpt lat="47.28385" lon="-2.25364">
        <ele>22.39999961853</ele>
        <time>2020-03-15T10:15:11.000Z</time>
      </trkpt>
      <trkpt lat="47.28386" lon="-2.25381">
        <ele>23.200000762939</ele>
        <time>2020-03-15T10:15:14.000Z</time>
      </trkpt>
      <trkpt lat="47.28385" lon="-2.25387">
        <ele>23.60000038147</ele>
        <time>2020-03-15T10:15:15.000Z</time>
      </trkpt>
      <trkpt lat="47.28385" lon="-2.25393">
        <ele>24</ele>
        <time>2020-03-15T10:15:16.000Z</time>
      </trkpt>
      <trkpt lat="47.28385" lon="-2.254">
        <ele>24.39999961853</ele>
        <time>2020-03-15T10:15:17.000Z</time>
      </trkpt>
      <trkpt lat="47.2838" lon="-2.25452">
        <ele>24.39999961853</ele>
        <time>2020-03-15T10:15:24.000Z</time>
      </trkpt>
      <trkpt lat="47.28378" lon="-2.25496">
        <ele>24.39999961853</ele>
        <time>2020-03-15T10:15:30.000Z</time>
      </trkpt>
      <trkpt lat="47.28373" lon="-2.25545">
        <ele>24.39999961853</ele>
        <time>2020-03-15T10:15:36.000Z</time>
      </trkpt>
      <trkpt lat="47.28366" lon="-2.25614">
        <ele>24.39999961853</ele>
        <time>2020-03-15T10:15:45.000Z</time>
      </trkpt>
      <trkpt lat="47.28365" lon="-2.25634">
        <ele>24.39999961853</ele>
        <time>2020-03-15T10:15:48.000Z</time>
      </trkpt>
      <trkpt lat="47.28367" lon="-2.25639">
        <ele>24.39999961853</ele>
        <time>2020-03-15T10:15:49.000Z</time>
      </trkpt>
      <trkpt lat="47.2838" lon="-2.25644">
        <ele>24.39999961853</ele>
        <time>2020-03-15T10:15:52.000Z</time>
      </trkpt>
      <trkpt lat="47.28387" lon="-2.2566">
        <ele>24.39999961853</ele>
        <time>2020-03-15T10:15:55.000Z</time>
      </trkpt>
      <trkpt lat="47.28384" lon="-2.25685">
        <ele>24.39999961853</ele>
        <time>2020-03-15T10:15:59.000Z</time>
      </trkpt>
      <trkpt lat="47.28384" lon="-2.25703">
        <ele>24.39999961853</ele>
        <time>2020-03-15T10:16:03.000Z</time>
      </trkpt>
      <trkpt lat="47.28384" lon="-2.25705">
        <ele>24.39999961853</ele>
        <time>2020-03-15T10:16:05.000Z</time>
      </trkpt>
      <trkpt lat="47.28384" lon="-2.25726">
        <ele>24.39999961853</ele>
        <time>2020-03-15T10:16:33.000Z</time>
      </trkpt>
      <trkpt lat="47.28384" lon="-2.25728">
        <ele>24.39999961853</ele>
        <time>2020-03-15T10:16:34.000Z</time>
      </trkpt>
      <trkpt lat="47.28385" lon="-2.25746">
        <ele>24.39999961853</ele>
        <time>2020-03-15T10:16:40.000Z</time>
      </trkpt>
      <trkpt lat="47.28383" lon="-2.25773">
        <ele>24.39999961853</ele>
        <time>2020-03-15T10:16:46.000Z</time>
      </trkpt>
      <trkpt lat="47.28379" lon="-2.25799">
        <ele>24.39999961853</ele>
        <time>2020-03-15T10:16:52.000Z</time>
      </trkpt>
      <trkpt lat="47.28381" lon="-2.25808">
        <ele>24.39999961853</ele>
        <time>2020-03-15T10:16:55.000Z</time>
      </trkpt>
      <trkpt lat="47.28386" lon="-2.25813">
        <ele>24.39999961853</ele>
        <time>2020-03-15T10:16:57.000Z</time>
      </trkpt>
      <trkpt lat="47.28391" lon="-2.25819">
        <ele>24.39999961853</ele>
        <time>2020-03-15T10:16:59.000Z</time>
      </trkpt>
      <trkpt lat="47.284" lon="-2.25828">
        <ele>24.799999237061</ele>
        <time>2020-03-15T10:17:02.000Z</time>
      </trkpt>
      <trkpt lat="47.28402" lon="-2.25831">
        <ele>25.39999961853</ele>
        <time>2020-03-15T10:17:03.000Z</time>
      </trkpt>
      <trkpt lat="47.28404" lon="-2.25835">
        <ele>25.799999237061</ele>
        <time>2020-03-15T10:17:04.000Z</time>
      </trkpt>
      <trkpt lat="47.28405" lon="-2.25837">
        <ele>26.200000762939</ele>
        <time>2020-03-15T10:17:05.000Z</time>
      </trkpt>
      <trkpt lat="47.28405" lon="-2.25837">
        <ele>26.60000038147</ele>
        <time>2020-03-15T10:17:06.000Z</time>
      </trkpt>
      <trkpt lat="47.28406" lon="-2.2584">
        <ele>25.60000038147</ele>
        <time>2020-03-15T10:17:09.000Z</time>
      </trkpt>
      <trkpt lat="47.28407" lon="-2.25843">
        <ele>25.60000038147</ele>
        <time>2020-03-15T10:17:10.000Z</time>
      </trkpt>
      <trkpt lat="47.28407" lon="-2.25845">
        <ele>25.60000038147</ele>
        <time>2020-03-15T10:17:11.000Z</time>
      </trkpt>
      <trkpt lat="47.28406" lon="-2.2585">
        <ele>25.799999237061</ele>
        <time>2020-03-15T10:17:12.000Z</time>
      </trkpt>
      <trkpt lat="47.28406" lon="-2.25856">
        <ele>25.799999237061</ele>
        <time>2020-03-15T10:17:13.000Z</time>
      </trkpt>
      <trkpt lat="47.28409" lon="-2.25867">
        <ele>25.799999237061</ele>
        <time>2020-03-15T10:17:15.000Z</time>
      </trkpt>
      <trkpt lat="47.28411" lon="-2.25879">
        <ele>25.799999237061</ele>
        <time>2020-03-15T10:17:17.000Z</time>
      </trkpt>
      <trkpt lat="47.2841" lon="-2.25891">
        <ele>25.799999237061</ele>
        <time>2020-03-15T10:17:19.000Z</time>
      </trkpt>
      <trkpt lat="47.28407" lon="-2.2592">
        <ele>25.799999237061</ele>
        <time>2020-03-15T10:17:23.000Z</time>
      </trkpt>
      <trkpt lat="47.28404" lon="-2.2594">
        <ele>25.799999237061</ele>
        <time>2020-03-15T10:17:26.000Z</time>
      </trkpt>
      <trkpt lat="47.28404" lon="-2.25953">
        <ele>25.799999237061</ele>
        <time>2020-03-15T10:17:28.000Z</time>
      </trkpt>
      <trkpt lat="47.28406" lon="-2.25959">
        <ele>25.799999237061</ele>
        <time>2020-03-15T10:17:30.000Z</time>
      </trkpt>
      <trkpt lat="47.28408" lon="-2.25959">
        <ele>25.799999237061</ele>
        <time>2020-03-15T10:17:31.000Z</time>
      </trkpt>
      <trkpt lat="47.28421" lon="-2.2596">
        <ele>25.799999237061</ele>
        <time>2020-03-15T10:17:35.000Z</time>
      </trkpt>
      <trkpt lat="47.2843" lon="-2.2596">
        <ele>25.799999237061</ele>
        <time>2020-03-15T10:17:37.000Z</time>
      </trkpt>
      <trkpt lat="47.28446" lon="-2.25959">
        <ele>25.799999237061</ele>
        <time>2020-03-15T10:17:40.000Z</time>
      </trkpt>
      <trkpt lat="47.28481" lon="-2.2596">
        <ele>25.39999961853</ele>
        <time>2020-03-15T10:17:46.000Z</time>
      </trkpt>
      <trkpt lat="47.28487" lon="-2.25961">
        <ele>25</ele>
        <time>2020-03-15T10:17:47.000Z</time>
      </trkpt>
      <trkpt lat="47.28494" lon="-2.25961">
        <ele>24.60000038147</ele>
        <time>2020-03-15T10:17:49.000Z</time>
      </trkpt>
      <trkpt lat="47.28501" lon="-2.25962">
        <ele>24</ele>
        <time>2020-03-15T10:17:50.000Z</time>
      </trkpt>
      <trkpt lat="47.28508" lon="-2.25963">
        <ele>23.60000038147</ele>
        <time>2020-03-15T10:17:51.000Z</time>
      </trkpt>
      <trkpt lat="47.28522" lon="-2.25965">
        <ele>23.60000038147</ele>
        <time>2020-03-15T10:17:53.000Z</time>
      </trkpt>
      <trkpt lat="47.28575" lon="-2.25971">
        <ele>23.60000038147</ele>
        <time>2020-03-15T10:18:00.000Z</time>
      </trkpt>
      <trkpt lat="47.28601" lon="-2.25974">
        <ele>23.200000762939</ele>
        <time>2020-03-15T10:18:04.000Z</time>
      </trkpt>
      <trkpt lat="47.28606" lon="-2.25976">
        <ele>22.799999237061</ele>
        <time>2020-03-15T10:18:05.000Z</time>
      </trkpt>
      <trkpt lat="47.2861" lon="-2.25981">
        <ele>22.39999961853</ele>
        <time>2020-03-15T10:18:06.000Z</time>
      </trkpt>
      <trkpt lat="47.28612" lon="-2.25988">
        <ele>22</ele>
        <time>2020-03-15T10:18:07.000Z</time>
      </trkpt>
      <trkpt lat="47.28612" lon="-2.25996">
        <ele>21.60000038147</ele>
        <time>2020-03-15T10:18:08.000Z</time>
      </trkpt>
      <trkpt lat="47.2861" lon="-2.26012">
        <ele>21.60000038147</ele>
        <time>2020-03-15T10:18:10.000Z</time>
      </trkpt>
      <trkpt lat="47.28608" lon="-2.26037">
        <ele>21.60000038147</ele>
        <time>2020-03-15T10:18:13.000Z</time>
      </trkpt>
      <trkpt lat="47.28605" lon="-2.26119">
        <ele>21.60000038147</ele>
        <time>2020-03-15T10:18:22.000Z</time>
      </trkpt>
      <trkpt lat="47.28605" lon="-2.26197">
        <ele>21.60000038147</ele>
        <time>2020-03-15T10:18:30.000Z</time>
      </trkpt>
      <trkpt lat="47.28607" lon="-2.26207">
        <ele>21.60000038147</ele>
        <time>2020-03-15T10:18:31.000Z</time>
      </trkpt>
      <trkpt lat="47.28613" lon="-2.26225">
        <ele>21.60000038147</ele>
        <time>2020-03-15T10:18:33.000Z</time>
      </trkpt>
      <trkpt lat="47.28636" lon="-2.26273">
        <ele>21.60000038147</ele>
        <time>2020-03-15T10:18:39.000Z</time>
      </trkpt>
      <trkpt lat="47.28657" lon="-2.26331">
        <ele>21.60000038147</ele>
        <time>2020-03-15T10:18:46.000Z</time>
      </trkpt>
      <trkpt lat="47.2867" lon="-2.26359">
        <ele>21.60000038147</ele>
        <time>2020-03-15T10:18:50.000Z</time>
      </trkpt>
      <trkpt lat="47.28675" lon="-2.26365">
        <ele>21.60000038147</ele>
        <time>2020-03-15T10:18:51.000Z</time>
      </trkpt>
      <trkpt lat="47.28685" lon="-2.26375">
        <ele>21.60000038147</ele>
        <time>2020-03-15T10:18:53.000Z</time>
      </trkpt>
      <trkpt lat="47.28699" lon="-2.26387">
        <ele>21.60000038147</ele>
        <time>2020-03-15T10:18:56.000Z</time>
      </trkpt>
      <trkpt lat="47.28702" lon="-2.26392">
        <ele>21.60000038147</ele>
        <time>2020-03-15T10:18:57.000Z</time>
      </trkpt>
      <trkpt lat="47.28711" lon="-2.26401">
        <ele>21.60000038147</ele>
        <time>2020-03-15T10:19:00.000Z</time>
      </trkpt>
      <trkpt lat="47.28715" lon="-2.26401">
        <ele>21.60000038147</ele>
        <time>2020-03-15T10:19:01.000Z</time>
      </trkpt>
      <trkpt lat="47.2872" lon="-2.26393">
        <ele>21.60000038147</ele>
        <time>2020-03-15T10:19:03.000Z</time>
      </trkpt>
      <trkpt lat="47.28724" lon="-2.26371">
        <ele>21.60000038147</ele>
        <time>2020-03-15T10:19:06.000Z</time>
      </trkpt>
      <trkpt lat="47.28733" lon="-2.26357">
        <ele>21.60000038147</ele>
        <time>2020-03-15T10:19:09.000Z</time>
      </trkpt>
      <trkpt lat="47.28744" lon="-2.2636">
        <ele>21.60000038147</ele>
        <time>2020-03-15T10:19:12.000Z</time>
      </trkpt>
      <trkpt lat="47.28773" lon="-2.26363">
        <ele>21.60000038147</ele>
        <time>2020-03-15T10:19:19.000Z</time>
      </trkpt>
      <trkpt lat="47.28787" lon="-2.26364">
        <ele>21.60000038147</ele>
        <time>2020-03-15T10:19:23.000Z</time>
      </trkpt>
      <trkpt lat="47.28791" lon="-2.26366">
        <ele>22</ele>
        <time>2020-03-15T10:19:24.000Z</time>
      </trkpt>
      <trkpt lat="47.28795" lon="-2.26367">
        <ele>22.39999961853</ele>
        <time>2020-03-15T10:19:25.000Z</time>
      </trkpt>
      <trkpt lat="47.28799" lon="-2.26367">
        <ele>22.799999237061</ele>
        <time>2020-03-15T10:19:26.000Z</time>
      </trkpt>
      <trkpt lat="47.28802" lon="-2.26367">
        <ele>23.200000762939</ele>
        <time>2020-03-15T10:19:27.000Z</time>
      </trkpt>
      <trkpt lat="47.28806" lon="-2.26366">
        <ele>23.60000038147</ele>
        <time>2020-03-15T10:19:28.000Z</time>
      </trkpt>
      <trkpt lat="47.28815" lon="-2.26365">
        <ele>23.60000038147</ele>
        <time>2020-03-15T10:19:30.000Z</time>
      </trkpt>
      <trkpt lat="47.28839" lon="-2.2637">
        <ele>23.60000038147</ele>
        <time>2020-03-15T10:19:36.000Z</time>
      </trkpt>
      <trkpt lat="47.28857" lon="-2.26366">
        <ele>23.60000038147</ele>
        <time>2020-03-15T10:19:40.000Z</time>
      </trkpt>
      <trkpt lat="47.28877" lon="-2.26361">
        <ele>23.60000038147</ele>
        <time>2020-03-15T10:19:45.000Z</time>
      </trkpt>
      <trkpt lat="47.28879" lon="-2.26365">
        <ele>23.60000038147</ele>
        <time>2020-03-15T10:19:46.000Z</time>
      </trkpt>
      <trkpt lat="47.28882" lon="-2.26381">
        <ele>23.60000038147</ele>
        <time>2020-03-15T10:19:49.000Z</time>
      </trkpt>
      <trkpt lat="47.28884" lon="-2.26395">
        <ele>24</ele>
        <time>2020-03-15T10:19:51.000Z</time>
      </trkpt>
      <trkpt lat="47.28885" lon="-2.26401">
        <ele>24.39999961853</ele>
        <time>2020-03-15T10:19:52.000Z</time>
      </trkpt>
      <trkpt lat="47.28886" lon="-2.26408">
        <ele>24.799999237061</ele>
        <time>2020-03-15T10:19:53.000Z</time>
      </trkpt>
      <trkpt lat="47.28887" lon="-2.26415">
        <ele>25.200000762939</ele>
        <time>2020-03-15T10:19:54.000Z</time>
      </trkpt>
      <trkpt lat="47.28888" lon="-2.26421">
        <ele>25.60000038147</ele>
        <time>2020-03-15T10:19:55.000Z</time>
      </trkpt>
      <trkpt lat="47.28888" lon="-2.26427">
        <ele>25.60000038147</ele>
        <time>2020-03-15T10:19:56.000Z</time>
      </trkpt>
      <trkpt lat="47.28893" lon="-2.26468">
        <ele>25.60000038147</ele>
        <time>2020-03-15T10:20:03.000Z</time>
      </trkpt>
      <trkpt lat="47.28898" lon="-2.26482">
        <ele>25.60000038147</ele>
        <time>2020-03-15T10:20:06.000Z</time>
      </trkpt>
      <trkpt lat="47.28902" lon="-2.26484">
        <ele>25.60000038147</ele>
        <time>2020-03-15T10:20:07.000Z</time>
      </trkpt>
      <trkpt lat="47.28917" lon="-2.2648">
        <ele>25.60000038147</ele>
        <time>2020-03-15T10:20:10.000Z</time>
      </trkpt>
      <trkpt lat="47.28922" lon="-2.26477">
        <ele>25.60000038147</ele>
        <time>2020-03-15T10:20:11.000Z</time>
      </trkpt>
      <trkpt lat="47.28928" lon="-2.26476">
        <ele>25.60000038147</ele>
        <time>2020-03-15T10:20:12.000Z</time>
      </trkpt>
      <trkpt lat="47.28934" lon="-2.2648">
        <ele>25.60000038147</ele>
        <time>2020-03-15T10:20:13.000Z</time>
      </trkpt>
      <trkpt lat="47.28943" lon="-2.26503">
        <ele>25.60000038147</ele>
        <time>2020-03-15T10:20:16.000Z</time>
      </trkpt>
      <trkpt lat="47.28943" lon="-2.26512">
        <ele>25.60000038147</ele>
        <time>2020-03-15T10:20:17.000Z</time>
      </trkpt>
      <trkpt lat="47.28946" lon="-2.2652">
        <ele>25.60000038147</ele>
        <time>2020-03-15T10:20:18.000Z</time>
      </trkpt>
      <trkpt lat="47.28951" lon="-2.26526">
        <ele>25.60000038147</ele>
        <time>2020-03-15T10:20:19.000Z</time>
      </trkpt>
      <trkpt lat="47.28963" lon="-2.26531">
        <ele>25.60000038147</ele>
        <time>2020-03-15T10:20:21.000Z</time>
      </trkpt>
      <trkpt lat="47.28986" lon="-2.26531">
        <ele>25.60000038147</ele>
        <time>2020-03-15T10:20:24.000Z</time>
      </trkpt>
      <trkpt lat="47.28995" lon="-2.26529">
        <ele>25.200000762939</ele>
        <time>2020-03-15T10:20:25.000Z</time>
      </trkpt>
      <trkpt lat="47.29004" lon="-2.26529">
        <ele>24.799999237061</ele>
        <time>2020-03-15T10:20:26.000Z</time>
      </trkpt>
      <trkpt lat="47.29013" lon="-2.26529">
        <ele>24.39999961853</ele>
        <time>2020-03-15T10:20:27.000Z</time>
      </trkpt>
      <trkpt lat="47.29021" lon="-2.26528">
        <ele>23.799999237061</ele>
        <time>2020-03-15T10:20:28.000Z</time>
      </trkpt>
      <trkpt lat="47.29027" lon="-2.26528">
        <ele>23.200000762939</ele>
        <time>2020-03-15T10:20:29.000Z</time>
      </trkpt>
      <trkpt lat="47.29032" lon="-2.26529">
        <ele>22.60000038147</ele>
        <time>2020-03-15T10:20:30.000Z</time>
      </trkpt>
      <trkpt lat="47.29036" lon="-2.26534">
        <ele>22</ele>
        <time>2020-03-15T10:20:31.000Z</time>
      </trkpt>
      <trkpt lat="47.2904" lon="-2.26541">
        <ele>21.60000038147</ele>
        <time>2020-03-15T10:20:32.000Z</time>
      </trkpt>
      <trkpt lat="47.29041" lon="-2.26549">
        <ele>21</ele>
        <time>2020-03-15T10:20:33.000Z</time>
      </trkpt>
      <trkpt lat="47.29043" lon="-2.26558">
        <ele>20.60000038147</ele>
        <time>2020-03-15T10:20:34.000Z</time>
      </trkpt>
      <trkpt lat="47.29044" lon="-2.26567">
        <ele>20</ele>
        <time>2020-03-15T10:20:35.000Z</time>
      </trkpt>
      <trkpt lat="47.29046" lon="-2.26575">
        <ele>19.39999961853</ele>
        <time>2020-03-15T10:20:36.000Z</time>
      </trkpt>
      <trkpt lat="47.2905" lon="-2.26593">
        <ele>19.39999961853</ele>
        <time>2020-03-15T10:20:38.000Z</time>
      </trkpt>
      <trkpt lat="47.2905" lon="-2.26602">
        <ele>19.39999961853</ele>
        <time>2020-03-15T10:20:39.000Z</time>
      </trkpt>
      <trkpt lat="47.29053" lon="-2.2667">
        <ele>19.39999961853</ele>
        <time>2020-03-15T10:20:46.000Z</time>
      </trkpt>
      <trkpt lat="47.29055" lon="-2.26701">
        <ele>19.39999961853</ele>
        <time>2020-03-15T10:20:49.000Z</time>
      </trkpt>
      <trkpt lat="47.2906" lon="-2.26725">
        <ele>19.39999961853</ele>
        <time>2020-03-15T10:20:51.000Z</time>
      </trkpt>
      <trkpt lat="47.29061" lon="-2.26737">
        <ele>19</ele>
        <time>2020-03-15T10:20:52.000Z</time>
      </trkpt>
      <trkpt lat="47.29063" lon="-2.2675">
        <ele>18.60000038147</ele>
        <time>2020-03-15T10:20:53.000Z</time>
      </trkpt>
      <trkpt lat="47.29065" lon="-2.26764">
        <ele>18.200000762939</ele>
        <time>2020-03-15T10:20:54.000Z</time>
      </trkpt>
      <trkpt lat="47.29066" lon="-2.26776">
        <ele>17.799999237061</ele>
        <time>2020-03-15T10:20:55.000Z</time>
      </trkpt>
      <trkpt lat="47.29067" lon="-2.26789">
        <ele>17.200000762939</ele>
        <time>2020-03-15T10:20:56.000Z</time>
      </trkpt>
      <trkpt lat="47.29068" lon="-2.26802">
        <ele>16.799999237061</ele>
        <time>2020-03-15T10:20:57.000Z</time>
      </trkpt>
      <trkpt lat="47.29067" lon="-2.26815">
        <ele>16.200000762939</ele>
        <time>2020-03-15T10:20:58.000Z</time>
      </trkpt>
      <trkpt lat="47.29066" lon="-2.26828">
        <ele>15.800000190735</ele>
        <time>2020-03-15T10:20:59.000Z</time>
      </trkpt>
      <trkpt lat="47.29066" lon="-2.2684">
        <ele>15.199999809265</ele>
        <time>2020-03-15T10:21:00.000Z</time>
      </trkpt>
      <trkpt lat="47.29062" lon="-2.2688">
        <ele>15.199999809265</ele>
        <time>2020-03-15T10:21:04.000Z</time>
      </trkpt>
      <trkpt lat="47.29062" lon="-2.26884">
        <ele>14.800000190735</ele>
        <time>2020-03-15T10:21:05.000Z</time>
      </trkpt>
      <trkpt lat="47.29062" lon="-2.26887">
        <ele>14.39999961853</ele>
        <time>2020-03-15T10:21:06.000Z</time>
      </trkpt>
      <trkpt lat="47.29063" lon="-2.26891">
        <ele>14</ele>
        <time>2020-03-15T10:21:07.000Z</time>
      </trkpt>
      <trkpt lat="47.29064" lon="-2.26893">
        <ele>13.60000038147</ele>
        <time>2020-03-15T10:21:08.000Z</time>
      </trkpt>
      <trkpt lat="47.29065" lon="-2.26895">
        <ele>13.199999809265</ele>
        <time>2020-03-15T10:21:09.000Z</time>
      </trkpt>
      <trkpt lat="47.29067" lon="-2.26895">
        <ele>13.199999809265</ele>
        <time>2020-03-15T10:21:10.000Z</time>
      </trkpt>
      <trkpt lat="47.29068" lon="-2.26896">
        <ele>13.199999809265</ele>
        <time>2020-03-15T10:21:11.000Z</time>
      </trkpt>
      <trkpt lat="47.29071" lon="-2.26903">
        <ele>13.199999809265</ele>
        <time>2020-03-15T10:21:16.000Z</time>
      </trkpt>
      <trkpt lat="47.29071" lon="-2.26906">
        <ele>13.199999809265</ele>
        <time>2020-03-15T10:21:17.000Z</time>
      </trkpt>
      <trkpt lat="47.29073" lon="-2.26913">
        <ele>13.199999809265</ele>
        <time>2020-03-15T10:21:20.000Z</time>
      </trkpt>
      <trkpt lat="47.29076" lon="-2.26914">
        <ele>13.199999809265</ele>
        <time>2020-03-15T10:21:24.000Z</time>
      </trkpt>
      <trkpt lat="47.29078" lon="-2.26924">
        <ele>13.199999809265</ele>
        <time>2020-03-15T10:21:29.000Z</time>
      </trkpt>
      <trkpt lat="47.29078" lon="-2.26932">
        <ele>13.199999809265</ele>
        <time>2020-03-15T10:21:31.000Z</time>
      </trkpt>
      <trkpt lat="47.29078" lon="-2.26937">
        <ele>13.199999809265</ele>
        <time>2020-03-15T10:21:33.000Z</time>
      </trkpt>
      <trkpt lat="47.29077" lon="-2.26959">
        <ele>13.199999809265</ele>
        <time>2020-03-15T10:21:38.000Z</time>
      </trkpt>
      <trkpt lat="47.29076" lon="-2.26992">
        <ele>13.199999809265</ele>
        <time>2020-03-15T10:21:44.000Z</time>
      </trkpt>
      <trkpt lat="47.29077" lon="-2.27011">
        <ele>13.199999809265</ele>
        <time>2020-03-15T10:21:48.000Z</time>
      </trkpt>
      <trkpt lat="47.29079" lon="-2.2702">
        <ele>13.199999809265</ele>
        <time>2020-03-15T10:21:50.000Z</time>
      </trkpt>
      <trkpt lat="47.29078" lon="-2.27037">
        <ele>13.199999809265</ele>
        <time>2020-03-15T10:21:53.000Z</time>
      </trkpt>
      <trkpt lat="47.29076" lon="-2.27044">
        <ele>13.199999809265</ele>
        <time>2020-03-15T10:21:54.000Z</time>
      </trkpt>
      <trkpt lat="47.29075" lon="-2.27062">
        <ele>13.199999809265</ele>
        <time>2020-03-15T10:21:57.000Z</time>
      </trkpt>
      <trkpt lat="47.29073" lon="-2.27075">
        <ele>13.199999809265</ele>
        <time>2020-03-15T10:21:59.000Z</time>
      </trkpt>
      <trkpt lat="47.29072" lon="-2.27105">
        <ele>13.199999809265</ele>
        <time>2020-03-15T10:22:05.000Z</time>
      </trkpt>
      <trkpt lat="47.29068" lon="-2.27125">
        <ele>13.199999809265</ele>
        <time>2020-03-15T10:22:10.000Z</time>
      </trkpt>
      <trkpt lat="47.2907" lon="-2.2714">
        <ele>13.199999809265</ele>
        <time>2020-03-15T10:22:14.000Z</time>
      </trkpt>
      <trkpt lat="47.29071" lon="-2.27151">
        <ele>13.199999809265</ele>
        <time>2020-03-15T10:22:17.000Z</time>
      </trkpt>
      <trkpt lat="47.29069" lon="-2.27174">
        <ele>13.199999809265</ele>
        <time>2020-03-15T10:22:23.000Z</time>
      </trkpt>
      <trkpt lat="47.2907" lon="-2.27181">
        <ele>13.199999809265</ele>
        <time>2020-03-15T10:22:25.000Z</time>
      </trkpt>
      <trkpt lat="47.29074" lon="-2.27185">
        <ele>13.199999809265</ele>
        <time>2020-03-15T10:22:26.000Z</time>
      </trkpt>
      <trkpt lat="47.29086" lon="-2.27194">
        <ele>13.199999809265</ele>
        <time>2020-03-15T10:22:29.000Z</time>
      </trkpt>
      <trkpt lat="47.2909" lon="-2.27194">
        <ele>13.199999809265</ele>
        <time>2020-03-15T10:22:30.000Z</time>
      </trkpt>
      <trkpt lat="47.29103" lon="-2.27197">
        <ele>13.199999809265</ele>
        <time>2020-03-15T10:22:35.000Z</time>
      </trkpt>
      <trkpt lat="47.29103" lon="-2.27197">
        <ele>13.199999809265</ele>
        <time>2020-03-15T10:22:36.000Z</time>
      </trkpt>
      <trkpt lat="47.29115" lon="-2.27217">
        <ele>13.199999809265</ele>
        <time>2020-03-15T10:23:02.000Z</time>
      </trkpt>
      <trkpt lat="47.29114" lon="-2.27219">
        <ele>13.199999809265</ele>
        <time>2020-03-15T10:23:03.000Z</time>
      </trkpt>
      <trkpt lat="47.29111" lon="-2.27234">
        <ele>13.199999809265</ele>
        <time>2020-03-15T10:23:06.000Z</time>
      </trkpt>
      <trkpt lat="47.29107" lon="-2.27257">
        <ele>13.199999809265</ele>
        <time>2020-03-15T10:23:10.000Z</time>
      </trkpt>
      <trkpt lat="47.29105" lon="-2.27272">
        <ele>13.199999809265</ele>
        <time>2020-03-15T10:23:13.000Z</time>
      </trkpt>
      <trkpt lat="47.29105" lon="-2.27278">
        <ele>13.199999809265</ele>
        <time>2020-03-15T10:23:14.000Z</time>
      </trkpt>
      <trkpt lat="47.29101" lon="-2.2731">
        <ele>13.199999809265</ele>
        <time>2020-03-15T10:23:19.000Z</time>
      </trkpt>
      <trkpt lat="47.29094" lon="-2.27339">
        <ele>13.199999809265</ele>
        <time>2020-03-15T10:23:24.000Z</time>
      </trkpt>
      <trkpt lat="47.29096" lon="-2.27351">
        <ele>13.199999809265</ele>
        <time>2020-03-15T10:23:27.000Z</time>
      </trkpt>
      <trkpt lat="47.29098" lon="-2.27354">
        <ele>13.199999809265</ele>
        <time>2020-03-15T10:23:28.000Z</time>
      </trkpt>
      <trkpt lat="47.29105" lon="-2.27373">
        <ele>13.199999809265</ele>
        <time>2020-03-15T10:23:32.000Z</time>
      </trkpt>
      <trkpt lat="47.29114" lon="-2.27412">
        <ele>13.199999809265</ele>
        <time>2020-03-15T10:23:37.000Z</time>
      </trkpt>
      <trkpt lat="47.29112" lon="-2.27445">
        <ele>13.199999809265</ele>
        <time>2020-03-15T10:23:41.000Z</time>
      </trkpt>
      <trkpt lat="47.29107" lon="-2.27505">
        <ele>13.199999809265</ele>
        <time>2020-03-15T10:23:49.000Z</time>
      </trkpt>
      <trkpt lat="47.2911" lon="-2.27526">
        <ele>13.199999809265</ele>
        <time>2020-03-15T10:23:53.000Z</time>
      </trkpt>
      <trkpt lat="47.29113" lon="-2.27529">
        <ele>13.199999809265</ele>
        <time>2020-03-15T10:23:54.000Z</time>
      </trkpt>
      <trkpt lat="47.29126" lon="-2.27529">
        <ele>13.199999809265</ele>
        <time>2020-03-15T10:23:57.000Z</time>
      </trkpt>
      <trkpt lat="47.29132" lon="-2.27529">
        <ele>13.60000038147</ele>
        <time>2020-03-15T10:23:58.000Z</time>
      </trkpt>
      <trkpt lat="47.29137" lon="-2.27528">
        <ele>14</ele>
        <time>2020-03-15T10:23:59.000Z</time>
      </trkpt>
      <trkpt lat="47.29142" lon="-2.27528">
        <ele>14.39999961853</ele>
        <time>2020-03-15T10:24:00.000Z</time>
      </trkpt>
      <trkpt lat="47.29148" lon="-2.27528">
        <ele>14.800000190735</ele>
        <time>2020-03-15T10:24:01.000Z</time>
      </trkpt>
      <trkpt lat="47.29154" lon="-2.27528">
        <ele>15.199999809265</ele>
        <time>2020-03-15T10:24:02.000Z</time>
      </trkpt>
      <trkpt lat="47.2916" lon="-2.27528">
        <ele>15.199999809265</ele>
        <time>2020-03-15T10:24:03.000Z</time>
      </trkpt>
      <trkpt lat="47.29203" lon="-2.27528">
        <ele>15.199999809265</ele>
        <time>2020-03-15T10:24:10.000Z</time>
      </trkpt>
      <trkpt lat="47.29234" lon="-2.27529">
        <ele>15.199999809265</ele>
        <time>2020-03-15T10:24:16.000Z</time>
      </trkpt>
      <trkpt lat="47.29253" lon="-2.27528">
        <ele>15.199999809265</ele>
        <time>2020-03-15T10:24:20.000Z</time>
      </trkpt>
      <trkpt lat="47.2926" lon="-2.27524">
        <ele>15.199999809265</ele>
        <time>2020-03-15T10:24:22.000Z</time>
      </trkpt>
      <trkpt lat="47.29279" lon="-2.27517">
        <ele>15.199999809265</ele>
        <time>2020-03-15T10:24:26.000Z</time>
      </trkpt>
      <trkpt lat="47.29284" lon="-2.27519">
        <ele>15.199999809265</ele>
        <time>2020-03-15T10:24:27.000Z</time>
      </trkpt>
      <trkpt lat="47.29299" lon="-2.27527">
        <ele>15.199999809265</ele>
        <time>2020-03-15T10:24:30.000Z</time>
      </trkpt>
      <trkpt lat="47.2931" lon="-2.27531">
        <ele>15.199999809265</ele>
        <time>2020-03-15T10:24:32.000Z</time>
      </trkpt>
      <trkpt lat="47.29328" lon="-2.27533">
        <ele>15.199999809265</ele>
        <time>2020-03-15T10:24:35.000Z</time>
      </trkpt>
      <trkpt lat="47.29343" lon="-2.27532">
        <ele>15.199999809265</ele>
        <time>2020-03-15T10:24:38.000Z</time>
      </trkpt>
      <trkpt lat="47.29359" lon="-2.27529">
        <ele>15.199999809265</ele>
        <time>2020-03-15T10:24:41.000Z</time>
      </trkpt>
      <trkpt lat="47.29374" lon="-2.27523">
        <ele>15.199999809265</ele>
        <time>2020-03-15T10:24:44.000Z</time>
      </trkpt>
      <trkpt lat="47.29415" lon="-2.27514">
        <ele>15.199999809265</ele>
        <time>2020-03-15T10:24:51.000Z</time>
      </trkpt>
      <trkpt lat="47.29457" lon="-2.27515">
        <ele>15.199999809265</ele>
        <time>2020-03-15T10:24:58.000Z</time>
      </trkpt>
      <trkpt lat="47.29497" lon="-2.27525">
        <ele>15.199999809265</ele>
        <time>2020-03-15T10:25:05.000Z</time>
      </trkpt>
      <trkpt lat="47.29532" lon="-2.27537">
        <ele>15.199999809265</ele>
        <time>2020-03-15T10:25:11.000Z</time>
      </trkpt>
      <trkpt lat="47.29569" lon="-2.27551">
        <ele>14.800000190735</ele>
        <time>2020-03-15T10:25:17.000Z</time>
      </trkpt>
      <trkpt lat="47.29575" lon="-2.27554">
        <ele>14.39999961853</ele>
        <time>2020-03-15T10:25:18.000Z</time>
      </trkpt>
      <trkpt lat="47.29581" lon="-2.27557">
        <ele>14</ele>
        <time>2020-03-15T10:25:19.000Z</time>
      </trkpt>
      <trkpt lat="47.29588" lon="-2.27561">
        <ele>13.60000038147</ele>
        <time>2020-03-15T10:25:20.000Z</time>
      </trkpt>
      <trkpt lat="47.29594" lon="-2.27565">
        <ele>13.199999809265</ele>
        <time>2020-03-15T10:25:21.000Z</time>
      </trkpt>
      <trkpt lat="47.29628" lon="-2.27586">
        <ele>13.199999809265</ele>
        <time>2020-03-15T10:25:26.000Z</time>
      </trkpt>
      <trkpt lat="47.29665" lon="-2.2761">
        <ele>12.800000190735</ele>
        <time>2020-03-15T10:25:31.000Z</time>
      </trkpt>
      <trkpt lat="47.29672" lon="-2.27613">
        <ele>12.199999809265</ele>
        <time>2020-03-15T10:25:32.000Z</time>
      </trkpt>
      <trkpt lat="47.29679" lon="-2.27616">
        <ele>11.800000190735</ele>
        <time>2020-03-15T10:25:33.000Z</time>
      </trkpt>
      <trkpt lat="47.29687" lon="-2.27618">
        <ele>11</ele>
        <time>2020-03-15T10:25:34.000Z</time>
      </trkpt>
      <trkpt lat="47.29705" lon="-2.2762">
        <ele>11</ele>
        <time>2020-03-15T10:25:36.000Z</time>
      </trkpt>
      <trkpt lat="47.29742" lon="-2.27609">
        <ele>11</ele>
        <time>2020-03-15T10:25:40.000Z</time>
      </trkpt>
      <trkpt lat="47.29752" lon="-2.27603">
        <ele>11</ele>
        <time>2020-03-15T10:25:41.000Z</time>
      </trkpt>
      <trkpt lat="47.29781" lon="-2.27593">
        <ele>11</ele>
        <time>2020-03-15T10:25:44.000Z</time>
      </trkpt>
      <trkpt lat="47.29791" lon="-2.27593">
        <ele>11</ele>
        <time>2020-03-15T10:25:45.000Z</time>
      </trkpt>
      <trkpt lat="47.29819" lon="-2.27603">
        <ele>11</ele>
        <time>2020-03-15T10:25:48.000Z</time>
      </trkpt>
      <trkpt lat="47.29828" lon="-2.27609">
        <ele>11</ele>
        <time>2020-03-15T10:25:49.000Z</time>
      </trkpt>
      <trkpt lat="47.29854" lon="-2.27624">
        <ele>11</ele>
        <time>2020-03-15T10:25:52.000Z</time>
      </trkpt>
      <trkpt lat="47.29864" lon="-2.27624">
        <ele>11</ele>
        <time>2020-03-15T10:25:53.000Z</time>
      </trkpt>
      <trkpt lat="47.2989" lon="-2.27615">
        <ele>11</ele>
        <time>2020-03-15T10:25:56.000Z</time>
      </trkpt>
      <trkpt lat="47.29927" lon="-2.27597">
        <ele>10.60000038147</ele>
        <time>2020-03-15T10:26:01.000Z</time>
      </trkpt>
      <trkpt lat="47.29934" lon="-2.27597">
        <ele>10.199999809265</ele>
        <time>2020-03-15T10:26:02.000Z</time>
      </trkpt>
      <trkpt lat="47.29941" lon="-2.27596">
        <ele>9.6000003814697</ele>
        <time>2020-03-15T10:26:03.000Z</time>
      </trkpt>
      <trkpt lat="47.29948" lon="-2.27597">
        <ele>9.1999998092651</ele>
        <time>2020-03-15T10:26:04.000Z</time>
      </trkpt>
      <trkpt lat="47.29954" lon="-2.27601">
        <ele>8.8000001907349</ele>
        <time>2020-03-15T10:26:05.000Z</time>
      </trkpt>
      <trkpt lat="47.29962" lon="-2.27622">
        <ele>8.8000001907349</ele>
        <time>2020-03-15T10:26:08.000Z</time>
      </trkpt>
      <trkpt lat="47.29962" lon="-2.27651">
        <ele>8.8000001907349</ele>
        <time>2020-03-15T10:26:11.000Z</time>
      </trkpt>
      <trkpt lat="47.29959" lon="-2.27669">
        <ele>8.8000001907349</ele>
        <time>2020-03-15T10:26:13.000Z</time>
      </trkpt>
      <trkpt lat="47.29956" lon="-2.27705">
        <ele>8.8000001907349</ele>
        <time>2020-03-15T10:26:17.000Z</time>
      </trkpt>
      <trkpt lat="47.29949" lon="-2.27768">
        <ele>8.8000001907349</ele>
        <time>2020-03-15T10:26:24.000Z</time>
      </trkpt>
      <trkpt lat="47.29944" lon="-2.27828">
        <ele>8.8000001907349</ele>
        <time>2020-03-15T10:26:31.000Z</time>
      </trkpt>
      <trkpt lat="47.29938" lon="-2.27888">
        <ele>8.8000001907349</ele>
        <time>2020-03-15T10:26:38.000Z</time>
      </trkpt>
      <trkpt lat="47.29934" lon="-2.27951">
        <ele>8.8000001907349</ele>
        <time>2020-03-15T10:26:45.000Z</time>
      </trkpt>
      <trkpt lat="47.29933" lon="-2.2796">
        <ele>9.1999998092651</ele>
        <time>2020-03-15T10:26:46.000Z</time>
      </trkpt>
      <trkpt lat="47.29931" lon="-2.27969">
        <ele>10</ele>
        <time>2020-03-15T10:26:47.000Z</time>
      </trkpt>
      <trkpt lat="47.29931" lon="-2.27978">
        <ele>10.39999961853</ele>
        <time>2020-03-15T10:26:48.000Z</time>
      </trkpt>
      <trkpt lat="47.29932" lon="-2.27988">
        <ele>11</ele>
        <time>2020-03-15T10:26:49.000Z</time>
      </trkpt>
      <trkpt lat="47.29933" lon="-2.27998">
        <ele>11</ele>
        <time>2020-03-15T10:26:50.000Z</time>
      </trkpt>
      <trkpt lat="47.29943" lon="-2.28034">
        <ele>11</ele>
        <time>2020-03-15T10:26:54.000Z</time>
      </trkpt>
      <trkpt lat="47.2995" lon="-2.28048">
        <ele>11</ele>
        <time>2020-03-15T10:26:56.000Z</time>
      </trkpt>
      <trkpt lat="47.29963" lon="-2.28048">
        <ele>11</ele>
        <time>2020-03-15T10:26:58.000Z</time>
      </trkpt>
      <trkpt lat="47.29979" lon="-2.2804">
        <ele>11</ele>
        <time>2020-03-15T10:27:01.000Z</time>
      </trkpt>
      <trkpt lat="47.29984" lon="-2.28036">
        <ele>11</ele>
        <time>2020-03-15T10:27:02.000Z</time>
      </trkpt>
      <trkpt lat="47.29994" lon="-2.28041">
        <ele>11</ele>
        <time>2020-03-15T10:27:05.000Z</time>
      </trkpt>
      <trkpt lat="47.29989" lon="-2.28052">
        <ele>11</ele>
        <time>2020-03-15T10:27:08.000Z</time>
      </trkpt>
      <trkpt lat="47.29984" lon="-2.28068">
        <ele>11</ele>
        <time>2020-03-15T10:27:11.000Z</time>
      </trkpt>
      <trkpt lat="47.29982" lon="-2.28074">
        <ele>11</ele>
        <time>2020-03-15T10:27:12.000Z</time>
      </trkpt>
      <trkpt lat="47.29968" lon="-2.28125">
        <ele>11</ele>
        <time>2020-03-15T10:27:19.000Z</time>
      </trkpt>
      <trkpt lat="47.29956" lon="-2.28172">
        <ele>11</ele>
        <time>2020-03-15T10:27:25.000Z</time>
      </trkpt>
      <trkpt lat="47.29947" lon="-2.28203">
        <ele>11</ele>
        <time>2020-03-15T10:27:29.000Z</time>
      </trkpt>
      <trkpt lat="47.29947" lon="-2.2822">
        <ele>11</ele>
        <time>2020-03-15T10:27:31.000Z</time>
      </trkpt>
      <trkpt lat="47.2995" lon="-2.28245">
        <ele>11</ele>
        <time>2020-03-15T10:27:34.000Z</time>
      </trkpt>
      <trkpt lat="47.2995" lon="-2.28261">
        <ele>11</ele>
        <time>2020-03-15T10:27:36.000Z</time>
      </trkpt>
      <trkpt lat="47.29953" lon="-2.28294">
        <ele>11</ele>
        <time>2020-03-15T10:27:40.000Z</time>
      </trkpt>
      <trkpt lat="47.29952" lon="-2.28309">
        <ele>11</ele>
        <time>2020-03-15T10:27:42.000Z</time>
      </trkpt>
      <trkpt lat="47.29953" lon="-2.28333">
        <ele>11</ele>
        <time>2020-03-15T10:27:45.000Z</time>
      </trkpt>
      <trkpt lat="47.29952" lon="-2.2834">
        <ele>11</ele>
        <time>2020-03-15T10:27:46.000Z</time>
      </trkpt>
      <trkpt lat="47.29951" lon="-2.28364">
        <ele>11</ele>
        <time>2020-03-15T10:27:49.000Z</time>
      </trkpt>
      <trkpt lat="47.2995" lon="-2.28373">
        <ele>11</ele>
        <time>2020-03-15T10:27:50.000Z</time>
      </trkpt>
      <trkpt lat="47.29949" lon="-2.28381">
        <ele>11</ele>
        <time>2020-03-15T10:27:51.000Z</time>
      </trkpt>
      <trkpt lat="47.29949" lon="-2.2839">
        <ele>11</ele>
        <time>2020-03-15T10:27:52.000Z</time>
      </trkpt>
      <trkpt lat="47.29951" lon="-2.28415">
        <ele>11</ele>
        <time>2020-03-15T10:27:55.000Z</time>
      </trkpt>
      <trkpt lat="47.2994" lon="-2.28431">
        <ele>11</ele>
        <time>2020-03-15T10:27:58.000Z</time>
      </trkpt>
      <trkpt lat="47.29939" lon="-2.28449">
        <ele>10.60000038147</ele>
        <time>2020-03-15T10:28:00.000Z</time>
      </trkpt>
      <trkpt lat="47.29938" lon="-2.28457">
        <ele>10.199999809265</ele>
        <time>2020-03-15T10:28:01.000Z</time>
      </trkpt>
      <trkpt lat="47.29937" lon="-2.28466">
        <ele>9.1999998092651</ele>
        <time>2020-03-15T10:28:02.000Z</time>
      </trkpt>
      <trkpt lat="47.29936" lon="-2.28474">
        <ele>8.8000001907349</ele>
        <time>2020-03-15T10:28:03.000Z</time>
      </trkpt>
      <trkpt lat="47.29939" lon="-2.28485">
        <ele>8.8000001907349</ele>
        <time>2020-03-15T10:28:05.000Z</time>
      </trkpt>
      <trkpt lat="47.29937" lon="-2.28502">
        <ele>8.8000001907349</ele>
        <time>2020-03-15T10:28:08.000Z</time>
      </trkpt>
      <trkpt lat="47.29935" lon="-2.28509">
        <ele>8.8000001907349</ele>
        <time>2020-03-15T10:28:09.000Z</time>
      </trkpt>
      <trkpt lat="47.29927" lon="-2.28531">
        <ele>8.8000001907349</ele>
        <time>2020-03-15T10:28:12.000Z</time>
      </trkpt>
      <trkpt lat="47.29927" lon="-2.28539">
        <ele>8.8000001907349</ele>
        <time>2020-03-15T10:28:13.000Z</time>
      </trkpt>
      <trkpt lat="47.29934" lon="-2.2856">
        <ele>8.8000001907349</ele>
        <time>2020-03-15T10:28:16.000Z</time>
      </trkpt>
      <trkpt lat="47.29942" lon="-2.28577">
        <ele>8.8000001907349</ele>
        <time>2020-03-15T10:28:19.000Z</time>
      </trkpt>
      <trkpt lat="47.29938" lon="-2.28598">
        <ele>8.8000001907349</ele>
        <time>2020-03-15T10:28:22.000Z</time>
      </trkpt>
      <trkpt lat="47.29932" lon="-2.28635">
        <ele>8</ele>
        <time>2020-03-15T10:28:27.000Z</time>
      </trkpt>
      <trkpt lat="47.2993" lon="-2.28642">
        <ele>7.5999999046326</ele>
        <time>2020-03-15T10:28:28.000Z</time>
      </trkpt>
      <trkpt lat="47.29928" lon="-2.28649">
        <ele>7.1999998092651</ele>
        <time>2020-03-15T10:28:29.000Z</time>
      </trkpt>
      <trkpt lat="47.29927" lon="-2.28654">
        <ele>6.8000001907349</ele>
        <time>2020-03-15T10:28:30.000Z</time>
      </trkpt>
      <trkpt lat="47.29923" lon="-2.28662">
        <ele>6.8000001907349</ele>
        <time>2020-03-15T10:28:32.000Z</time>
      </trkpt>
      <trkpt lat="47.29917" lon="-2.28677">
        <ele>6.8000001907349</ele>
        <time>2020-03-15T10:28:36.000Z</time>
      </trkpt>
      <trkpt lat="47.29916" lon="-2.28681">
        <ele>6.8000001907349</ele>
        <time>2020-03-15T10:28:37.000Z</time>
      </trkpt>
      <trkpt lat="47.29909" lon="-2.28722">
        <ele>6.8000001907349</ele>
        <time>2020-03-15T10:28:44.000Z</time>
      </trkpt>
      <trkpt lat="47.29903" lon="-2.28752">
        <ele>6.8000001907349</ele>
        <time>2020-03-15T10:28:49.000Z</time>
      </trkpt>
      <trkpt lat="47.29902" lon="-2.28762">
        <ele>6</ele>
        <time>2020-03-15T10:28:51.000Z</time>
      </trkpt>
      <trkpt lat="47.29901" lon="-2.28768">
        <ele>5.5999999046326</ele>
        <time>2020-03-15T10:28:52.000Z</time>
      </trkpt>
      <trkpt lat="47.299" lon="-2.28773">
        <ele>5.1999998092651</ele>
        <time>2020-03-15T10:28:53.000Z</time>
      </trkpt>
      <trkpt lat="47.29899" lon="-2.28778">
        <ele>4.8000001907349</ele>
        <time>2020-03-15T10:28:54.000Z</time>
      </trkpt>
      <trkpt lat="47.29898" lon="-2.28791">
        <ele>4.8000001907349</ele>
        <time>2020-03-15T10:28:56.000Z</time>
      </trkpt>
      <trkpt lat="47.29894" lon="-2.28821">
        <ele>4.8000001907349</ele>
        <time>2020-03-15T10:29:01.000Z</time>
      </trkpt>
      <trkpt lat="47.29893" lon="-2.28834">
        <ele>4.8000001907349</ele>
        <time>2020-03-15T10:29:03.000Z</time>
      </trkpt>
      <trkpt lat="47.29889" lon="-2.28855">
        <ele>4.8000001907349</ele>
        <time>2020-03-15T10:29:06.000Z</time>
      </trkpt>
      <trkpt lat="47.29882" lon="-2.28884">
        <ele>4.8000001907349</ele>
        <time>2020-03-15T10:29:10.000Z</time>
      </trkpt>
      <trkpt lat="47.29877" lon="-2.28896">
        <ele>4.8000001907349</ele>
        <time>2020-03-15T10:29:12.000Z</time>
      </trkpt>
      <trkpt lat="47.29874" lon="-2.28921">
        <ele>4.8000001907349</ele>
        <time>2020-03-15T10:29:15.000Z</time>
      </trkpt>
      <trkpt lat="47.29874" lon="-2.28928">
        <ele>4.8000001907349</ele>
        <time>2020-03-15T10:29:16.000Z</time>
      </trkpt>
      <trkpt lat="47.29877" lon="-2.28938">
        <ele>4.8000001907349</ele>
        <time>2020-03-15T10:29:19.000Z</time>
      </trkpt>
      <trkpt lat="47.29875" lon="-2.28943">
        <ele>4.8000001907349</ele>
        <time>2020-03-15T10:29:22.000Z</time>
      </trkpt>
      <trkpt lat="47.29874" lon="-2.28942">
        <ele>4.8000001907349</ele>
        <time>2020-03-15T10:29:23.000Z</time>
      </trkpt>
      <trkpt lat="47.29876" lon="-2.28938">
        <ele>4.8000001907349</ele>
        <time>2020-03-15T10:29:26.000Z</time>
      </trkpt>
      <trkpt lat="47.29884" lon="-2.28941">
        <ele>4.8000001907349</ele>
        <time>2020-03-15T10:29:28.000Z</time>
      </trkpt>
      <trkpt lat="47.29889" lon="-2.28943">
        <ele>4.8000001907349</ele>
        <time>2020-03-15T10:29:29.000Z</time>
      </trkpt>
      <trkpt lat="47.29916" lon="-2.2895">
        <ele>4.8000001907349</ele>
        <time>2020-03-15T10:29:34.000Z</time>
      </trkpt>
      <trkpt lat="47.29924" lon="-2.28955">
        <ele>4.8000001907349</ele>
        <time>2020-03-15T10:29:36.000Z</time>
      </trkpt>
      <trkpt lat="47.29929" lon="-2.28966">
        <ele>4.8000001907349</ele>
        <time>2020-03-15T10:29:38.000Z</time>
      </trkpt>
      <trkpt lat="47.2995" lon="-2.29003">
        <ele>4.8000001907349</ele>
        <time>2020-03-15T10:29:44.000Z</time>
      </trkpt>
      <trkpt lat="47.29977" lon="-2.29046">
        <ele>4.8000001907349</ele>
        <time>2020-03-15T10:29:50.000Z</time>
      </trkpt>
      <trkpt lat="47.29985" lon="-2.29061">
        <ele>4.1999998092651</ele>
        <time>2020-03-15T10:29:52.000Z</time>
      </trkpt>
      <trkpt lat="47.29989" lon="-2.29071">
        <ele>3.7999999523163</ele>
        <time>2020-03-15T10:29:53.000Z</time>
      </trkpt>
      <trkpt lat="47.29993" lon="-2.29078">
        <ele>3.4000000953674</ele>
        <time>2020-03-15T10:29:54.000Z</time>
      </trkpt>
      <trkpt lat="47.29999" lon="-2.29085">
        <ele>2.7999999523163</ele>
        <time>2020-03-15T10:29:55.000Z</time>
      </trkpt>
      <trkpt lat="47.30005" lon="-2.29092">
        <ele>2.4000000953674</ele>
        <time>2020-03-15T10:29:56.000Z</time>
      </trkpt>
      <trkpt lat="47.30028" lon="-2.29115">
        <ele>2.4000000953674</ele>
        <time>2020-03-15T10:30:00.000Z</time>
      </trkpt>
      <trkpt lat="47.30058" lon="-2.29136">
        <ele>2.4000000953674</ele>
        <time>2020-03-15T10:30:05.000Z</time>
      </trkpt>
      <trkpt lat="47.30063" lon="-2.29142">
        <ele>2.4000000953674</ele>
        <time>2020-03-15T10:30:06.000Z</time>
      </trkpt>
      <trkpt lat="47.30078" lon="-2.29167">
        <ele>2.4000000953674</ele>
        <time>2020-03-15T10:30:09.000Z</time>
      </trkpt>
      <trkpt lat="47.30084" lon="-2.29175">
        <ele>2.4000000953674</ele>
        <time>2020-03-15T10:30:10.000Z</time>
      </trkpt>
      <trkpt lat="47.3012" lon="-2.29231">
        <ele>2.4000000953674</ele>
        <time>2020-03-15T10:30:17.000Z</time>
      </trkpt>
      <trkpt lat="47.30159" lon="-2.29291">
        <ele>2.4000000953674</ele>
        <time>2020-03-15T10:30:24.000Z</time>
      </trkpt>
      <trkpt lat="47.30197" lon="-2.29348">
        <ele>2.4000000953674</ele>
        <time>2020-03-15T10:30:31.000Z</time>
      </trkpt>
      <trkpt lat="47.30202" lon="-2.29357">
        <ele>2.4000000953674</ele>
        <time>2020-03-15T10:30:32.000Z</time>
      </trkpt>
      <trkpt lat="47.3021" lon="-2.29387">
        <ele>2.4000000953674</ele>
        <time>2020-03-15T10:30:35.000Z</time>
      </trkpt>
      <trkpt lat="47.30217" lon="-2.29414">
        <ele>2.4000000953674</ele>
        <time>2020-03-15T10:30:38.000Z</time>
      </trkpt>
      <trkpt lat="47.30215" lon="-2.29422">
        <ele>2</ele>
        <time>2020-03-15T10:30:39.000Z</time>
      </trkpt>
      <trkpt lat="47.30212" lon="-2.29429">
        <ele>1.6000000238419</ele>
        <time>2020-03-15T10:30:40.000Z</time>
      </trkpt>
      <trkpt lat="47.30209" lon="-2.29435">
        <ele>1.2000000476837</ele>
        <time>2020-03-15T10:30:41.000Z</time>
      </trkpt>
      <trkpt lat="47.30205" lon="-2.29442">
        <ele>0.80000001192093</ele>
        <time>2020-03-15T10:30:42.000Z</time>
      </trkpt>
      <trkpt lat="47.30201" lon="-2.2945">
        <ele>0.40000000596046</ele>
        <time>2020-03-15T10:30:43.000Z</time>
      </trkpt>
      <trkpt lat="47.30178" lon="-2.29496">
        <ele>0.40000000596046</ele>
        <time>2020-03-15T10:30:49.000Z</time>
      </trkpt>
      <trkpt lat="47.30155" lon="-2.29541">
        <ele>0.40000000596046</ele>
        <time>2020-03-15T10:30:55.000Z</time>
      </trkpt>
      <trkpt lat="47.30146" lon="-2.29561">
        <ele>0.40000000596046</ele>
        <time>2020-03-15T10:30:58.000Z</time>
      </trkpt>
      <trkpt lat="47.30143" lon="-2.29568">
        <ele>0.40000000596046</ele>
        <time>2020-03-15T10:30:59.000Z</time>
      </trkpt>
      <trkpt lat="47.30142" lon="-2.29595">
        <ele>0.40000000596046</ele>
        <time>2020-03-15T10:31:02.000Z</time>
      </trkpt>
      <trkpt lat="47.30142" lon="-2.29603">
        <ele>0.40000000596046</ele>
        <time>2020-03-15T10:31:03.000Z</time>
      </trkpt>
      <trkpt lat="47.30143" lon="-2.29641">
        <ele>0.40000000596046</ele>
        <time>2020-03-15T10:31:08.000Z</time>
      </trkpt>
      <trkpt lat="47.30143" lon="-2.29647">
        <ele>0.40000000596046</ele>
        <time>2020-03-15T10:31:09.000Z</time>
      </trkpt>
      <trkpt lat="47.30146" lon="-2.29652">
        <ele>0.40000000596046</ele>
        <time>2020-03-15T10:31:10.000Z</time>
      </trkpt>
      <trkpt lat="47.30153" lon="-2.29659">
        <ele>0.40000000596046</ele>
        <time>2020-03-15T10:31:12.000Z</time>
      </trkpt>
      <trkpt lat="47.30168" lon="-2.29667">
        <ele>0.40000000596046</ele>
        <time>2020-03-15T10:31:15.000Z</time>
      </trkpt>
      <trkpt lat="47.30174" lon="-2.2967">
        <ele>0.40000000596046</ele>
        <time>2020-03-15T10:31:16.000Z</time>
      </trkpt>
      <trkpt lat="47.30216" lon="-2.29693">
        <ele>0.40000000596046</ele>
        <time>2020-03-15T10:31:23.000Z</time>
      </trkpt>
      <trkpt lat="47.30252" lon="-2.29712">
        <ele>0.40000000596046</ele>
        <time>2020-03-15T10:31:29.000Z</time>
      </trkpt>
      <trkpt lat="47.3027" lon="-2.29713">
        <ele>0.40000000596046</ele>
        <time>2020-03-15T10:31:32.000Z</time>
      </trkpt>
      <trkpt lat="47.30282" lon="-2.29711">
        <ele>0.40000000596046</ele>
        <time>2020-03-15T10:31:34.000Z</time>
      </trkpt>
      <trkpt lat="47.30317" lon="-2.297">
        <ele>0.40000000596046</ele>
        <time>2020-03-15T10:31:40.000Z</time>
      </trkpt>
      <trkpt lat="47.30364" lon="-2.29686">
        <ele>0.40000000596046</ele>
        <time>2020-03-15T10:31:47.000Z</time>
      </trkpt>
      <trkpt lat="47.30412" lon="-2.2967">
        <ele>0.40000000596046</ele>
        <time>2020-03-15T10:31:54.000Z</time>
      </trkpt>
      <trkpt lat="47.30452" lon="-2.29656">
        <ele>0.40000000596046</ele>
        <time>2020-03-15T10:32:00.000Z</time>
      </trkpt>
      <trkpt lat="47.30483" lon="-2.29651">
        <ele>0.40000000596046</ele>
        <time>2020-03-15T10:32:05.000Z</time>
      </trkpt>
      <trkpt lat="47.30501" lon="-2.29643">
        <ele>0.40000000596046</ele>
        <time>2020-03-15T10:32:08.000Z</time>
      </trkpt>
      <trkpt lat="47.30513" lon="-2.29639">
        <ele>0.40000000596046</ele>
        <time>2020-03-15T10:32:10.000Z</time>
      </trkpt>
      <trkpt lat="47.30526" lon="-2.29634">
        <ele>0.40000000596046</ele>
        <time>2020-03-15T10:32:12.000Z</time>
      </trkpt>
      <trkpt lat="47.30539" lon="-2.29629">
        <ele>0.40000000596046</ele>
        <time>2020-03-15T10:32:14.000Z</time>
      </trkpt>
      <trkpt lat="47.30545" lon="-2.29628">
        <ele>0.40000000596046</ele>
        <time>2020-03-15T10:32:15.000Z</time>
      </trkpt>
      <trkpt lat="47.30585" lon="-2.29615">
        <ele>0.40000000596046</ele>
        <time>2020-03-15T10:32:21.000Z</time>
      </trkpt>
      <trkpt lat="47.30628" lon="-2.29606">
        <ele>0.40000000596046</ele>
        <time>2020-03-15T10:32:27.000Z</time>
      </trkpt>
      <trkpt lat="47.30648" lon="-2.29596">
        <ele>0.40000000596046</ele>
        <time>2020-03-15T10:32:30.000Z</time>
      </trkpt>
      <trkpt lat="47.30661" lon="-2.29591">
        <ele>0.40000000596046</ele>
        <time>2020-03-15T10:32:32.000Z</time>
      </trkpt>
      <trkpt lat="47.30673" lon="-2.29588">
        <ele>0.40000000596046</ele>
        <time>2020-03-15T10:32:34.000Z</time>
      </trkpt>
      <trkpt lat="47.3069" lon="-2.29583">
        <ele>0.40000000596046</ele>
        <time>2020-03-15T10:32:37.000Z</time>
      </trkpt>
      <trkpt lat="47.30725" lon="-2.29576">
        <ele>0.40000000596046</ele>
        <time>2020-03-15T10:32:43.000Z</time>
      </trkpt>
      <trkpt lat="47.30767" lon="-2.29563">
        <ele>0.40000000596046</ele>
        <time>2020-03-15T10:32:50.000Z</time>
      </trkpt>
      <trkpt lat="47.3079" lon="-2.29557">
        <ele>0.40000000596046</ele>
        <time>2020-03-15T10:32:54.000Z</time>
      </trkpt>
      <trkpt lat="47.308" lon="-2.29554">
        <ele>0.40000000596046</ele>
        <time>2020-03-15T10:32:56.000Z</time>
      </trkpt>
      <trkpt lat="47.30809" lon="-2.29547">
        <ele>0.40000000596046</ele>
        <time>2020-03-15T10:32:58.000Z</time>
      </trkpt>
      <trkpt lat="47.30814" lon="-2.29545">
        <ele>0.40000000596046</ele>
        <time>2020-03-15T10:32:59.000Z</time>
      </trkpt>
      <trkpt lat="47.30819" lon="-2.29544">
        <ele>0.40000000596046</ele>
        <time>2020-03-15T10:33:00.000Z</time>
      </trkpt>
      <trkpt lat="47.3084" lon="-2.29545">
        <ele>0.40000000596046</ele>
        <time>2020-03-15T10:33:04.000Z</time>
      </trkpt>
      <trkpt lat="47.30844" lon="-2.29546">
        <ele>0.40000000596046</ele>
        <time>2020-03-15T10:33:05.000Z</time>
      </trkpt>
      <trkpt lat="47.30849" lon="-2.29546">
        <ele>0.80000001192093</ele>
        <time>2020-03-15T10:33:06.000Z</time>
      </trkpt>
      <trkpt lat="47.30855" lon="-2.29547">
        <ele>1.2000000476837</ele>
        <time>2020-03-15T10:33:07.000Z</time>
      </trkpt>
      <trkpt lat="47.3086" lon="-2.29548">
        <ele>1.6000000238419</ele>
        <time>2020-03-15T10:33:08.000Z</time>
      </trkpt>
      <trkpt lat="47.30865" lon="-2.2955">
        <ele>2.2000000476837</ele>
        <time>2020-03-15T10:33:09.000Z</time>
      </trkpt>
      <trkpt lat="47.3087" lon="-2.29551">
        <ele>2.5999999046326</ele>
        <time>2020-03-15T10:33:10.000Z</time>
      </trkpt>
      <trkpt lat="47.30883" lon="-2.29555">
        <ele>2.5999999046326</ele>
        <time>2020-03-15T10:33:13.000Z</time>
      </trkpt>
      <trkpt lat="47.30891" lon="-2.29558">
        <ele>2.5999999046326</ele>
        <time>2020-03-15T10:33:15.000Z</time>
      </trkpt>
      <trkpt lat="47.30896" lon="-2.29559">
        <ele>2.5999999046326</ele>
        <time>2020-03-15T10:33:16.000Z</time>
      </trkpt>
      <trkpt lat="47.30932" lon="-2.2957">
        <ele>2.5999999046326</ele>
        <time>2020-03-15T10:33:23.000Z</time>
      </trkpt>
      <trkpt lat="47.30971" lon="-2.29581">
        <ele>2.5999999046326</ele>
        <time>2020-03-15T10:33:30.000Z</time>
      </trkpt>
      <trkpt lat="47.30986" lon="-2.29587">
        <ele>2.5999999046326</ele>
        <time>2020-03-15T10:33:33.000Z</time>
      </trkpt>
      <trkpt lat="47.31001" lon="-2.29597">
        <ele>2.5999999046326</ele>
        <time>2020-03-15T10:33:36.000Z</time>
      </trkpt>
      <trkpt lat="47.31013" lon="-2.29612">
        <ele>2.5999999046326</ele>
        <time>2020-03-15T10:33:39.000Z</time>
      </trkpt>
      <trkpt lat="47.3102" lon="-2.29627">
        <ele>2.5999999046326</ele>
        <time>2020-03-15T10:33:41.000Z</time>
      </trkpt>
      <trkpt lat="47.31037" lon="-2.29677">
        <ele>2.5999999046326</ele>
        <time>2020-03-15T10:33:47.000Z</time>
      </trkpt>
      <trkpt lat="47.31058" lon="-2.29746">
        <ele>3</ele>
        <time>2020-03-15T10:33:55.000Z</time>
      </trkpt>
      <trkpt lat="47.31061" lon="-2.29755">
        <ele>3.4000000953674</ele>
        <time>2020-03-15T10:33:56.000Z</time>
      </trkpt>
      <trkpt lat="47.31063" lon="-2.29763">
        <ele>3.7999999523163</ele>
        <time>2020-03-15T10:33:57.000Z</time>
      </trkpt>
      <trkpt lat="47.31065" lon="-2.29771">
        <ele>4.4000000953674</ele>
        <time>2020-03-15T10:33:58.000Z</time>
      </trkpt>
      <trkpt lat="47.31067" lon="-2.29779">
        <ele>4.8000001907349</ele>
        <time>2020-03-15T10:33:59.000Z</time>
      </trkpt>
      <trkpt lat="47.31077" lon="-2.2981">
        <ele>4.8000001907349</ele>
        <time>2020-03-15T10:34:03.000Z</time>
      </trkpt>
      <trkpt lat="47.31086" lon="-2.29841">
        <ele>5.1999998092651</ele>
        <time>2020-03-15T10:34:07.000Z</time>
      </trkpt>
      <trkpt lat="47.31088" lon="-2.29848">
        <ele>5.5999999046326</ele>
        <time>2020-03-15T10:34:08.000Z</time>
      </trkpt>
      <trkpt lat="47.3109" lon="-2.29855">
        <ele>6</ele>
        <time>2020-03-15T10:34:09.000Z</time>
      </trkpt>
      <trkpt lat="47.31092" lon="-2.29863">
        <ele>6.4000000953674</ele>
        <time>2020-03-15T10:34:10.000Z</time>
      </trkpt>
      <trkpt lat="47.31094" lon="-2.29871">
        <ele>6.8000001907349</ele>
        <time>2020-03-15T10:34:11.000Z</time>
      </trkpt>
      <trkpt lat="47.31109" lon="-2.29926">
        <ele>6.8000001907349</ele>
        <time>2020-03-15T10:34:18.000Z</time>
      </trkpt>
      <trkpt lat="47.31111" lon="-2.29934">
        <ele>7.1999998092651</ele>
        <time>2020-03-15T10:34:19.000Z</time>
      </trkpt>
      <trkpt lat="47.31113" lon="-2.29942">
        <ele>7.8000001907349</ele>
        <time>2020-03-15T10:34:20.000Z</time>
      </trkpt>
      <trkpt lat="47.31116" lon="-2.2995">
        <ele>8.1999998092651</ele>
        <time>2020-03-15T10:34:21.000Z</time>
      </trkpt>
      <trkpt lat="47.31118" lon="-2.29958">
        <ele>8.6000003814697</ele>
        <time>2020-03-15T10:34:22.000Z</time>
      </trkpt>
      <trkpt lat="47.3112" lon="-2.29966">
        <ele>9</ele>
        <time>2020-03-15T10:34:23.000Z</time>
      </trkpt>
      <trkpt lat="47.31128" lon="-2.2999">
        <ele>9</ele>
        <time>2020-03-15T10:34:26.000Z</time>
      </trkpt>
      <trkpt lat="47.31141" lon="-2.30027">
        <ele>9</ele>
        <time>2020-03-15T10:34:31.000Z</time>
      </trkpt>
      <trkpt lat="47.31145" lon="-2.3004">
        <ele>9</ele>
        <time>2020-03-15T10:34:33.000Z</time>
      </trkpt>
      <trkpt lat="47.3116" lon="-2.30097">
        <ele>9</ele>
        <time>2020-03-15T10:34:40.000Z</time>
      </trkpt>
      <trkpt lat="47.31172" lon="-2.30158">
        <ele>9</ele>
        <time>2020-03-15T10:34:47.000Z</time>
      </trkpt>
      <trkpt lat="47.31183" lon="-2.30223">
        <ele>9</ele>
        <time>2020-03-15T10:34:55.000Z</time>
      </trkpt>
      <trkpt lat="47.31184" lon="-2.30248">
        <ele>9.3999996185303</ele>
        <time>2020-03-15T10:34:58.000Z</time>
      </trkpt>
      <trkpt lat="47.31183" lon="-2.30256">
        <ele>9.8000001907349</ele>
        <time>2020-03-15T10:34:59.000Z</time>
      </trkpt>
      <trkpt lat="47.31183" lon="-2.30265">
        <ele>10.39999961853</ele>
        <time>2020-03-15T10:35:00.000Z</time>
      </trkpt>
      <trkpt lat="47.31183" lon="-2.30273">
        <ele>10.800000190735</ele>
        <time>2020-03-15T10:35:01.000Z</time>
      </trkpt>
      <trkpt lat="47.31182" lon="-2.30281">
        <ele>11.199999809265</ele>
        <time>2020-03-15T10:35:02.000Z</time>
      </trkpt>
      <trkpt lat="47.31176" lon="-2.30308">
        <ele>11.199999809265</ele>
        <time>2020-03-15T10:35:05.000Z</time>
      </trkpt>
      <trkpt lat="47.31168" lon="-2.30351">
        <ele>11.199999809265</ele>
        <time>2020-03-15T10:35:10.000Z</time>
      </trkpt>
      <trkpt lat="47.31169" lon="-2.30369">
        <ele>11.199999809265</ele>
        <time>2020-03-15T10:35:12.000Z</time>
      </trkpt>
      <trkpt lat="47.31178" lon="-2.30422">
        <ele>11.199999809265</ele>
        <time>2020-03-15T10:35:18.000Z</time>
      </trkpt>
      <trkpt lat="47.3118" lon="-2.30431">
        <ele>10.800000190735</ele>
        <time>2020-03-15T10:35:19.000Z</time>
      </trkpt>
      <trkpt lat="47.31182" lon="-2.30441">
        <ele>10.39999961853</ele>
        <time>2020-03-15T10:35:20.000Z</time>
      </trkpt>
      <trkpt lat="47.31184" lon="-2.3045">
        <ele>10</ele>
        <time>2020-03-15T10:35:21.000Z</time>
      </trkpt>
      <trkpt lat="47.31185" lon="-2.30459">
        <ele>9.6000003814697</ele>
        <time>2020-03-15T10:35:22.000Z</time>
      </trkpt>
      <trkpt lat="47.31187" lon="-2.30469">
        <ele>9.1999998092651</ele>
        <time>2020-03-15T10:35:23.000Z</time>
      </trkpt>
      <trkpt lat="47.31195" lon="-2.30505">
        <ele>9.1999998092651</ele>
        <time>2020-03-15T10:35:27.000Z</time>
      </trkpt>
      <trkpt lat="47.31205" lon="-2.30558">
        <ele>9.1999998092651</ele>
        <time>2020-03-15T10:35:33.000Z</time>
      </trkpt>
      <trkpt lat="47.31218" lon="-2.30622">
        <ele>9.1999998092651</ele>
        <time>2020-03-15T10:35:41.000Z</time>
      </trkpt>
      <trkpt lat="47.31231" lon="-2.30686">
        <ele>9.1999998092651</ele>
        <time>2020-03-15T10:35:50.000Z</time>
      </trkpt>
      <trkpt lat="47.31236" lon="-2.30712">
        <ele>9.1999998092651</ele>
        <time>2020-03-15T10:35:54.000Z</time>
      </trkpt>
      <trkpt lat="47.31238" lon="-2.30725">
        <ele>9.1999998092651</ele>
        <time>2020-03-15T10:35:56.000Z</time>
      </trkpt>
      <trkpt lat="47.31248" lon="-2.30772">
        <ele>9.1999998092651</ele>
        <time>2020-03-15T10:36:04.000Z</time>
      </trkpt>
      <trkpt lat="47.31256" lon="-2.308">
        <ele>9.1999998092651</ele>
        <time>2020-03-15T10:36:09.000Z</time>
      </trkpt>
      <trkpt lat="47.31262" lon="-2.30816">
        <ele>9.1999998092651</ele>
        <time>2020-03-15T10:36:12.000Z</time>
      </trkpt>
      <trkpt lat="47.31276" lon="-2.30851">
        <ele>9.6000003814697</ele>
        <time>2020-03-15T10:36:19.000Z</time>
      </trkpt>
      <trkpt lat="47.31278" lon="-2.30855">
        <ele>10</ele>
        <time>2020-03-15T10:36:20.000Z</time>
      </trkpt>
      <trkpt lat="47.3128" lon="-2.3086">
        <ele>10.39999961853</ele>
        <time>2020-03-15T10:36:21.000Z</time>
      </trkpt>
      <trkpt lat="47.31282" lon="-2.30864">
        <ele>11</ele>
        <time>2020-03-15T10:36:22.000Z</time>
      </trkpt>
      <trkpt lat="47.31284" lon="-2.30869">
        <ele>11.39999961853</ele>
        <time>2020-03-15T10:36:23.000Z</time>
      </trkpt>
      <trkpt lat="47.31296" lon="-2.30899">
        <ele>11.39999961853</ele>
        <time>2020-03-15T10:36:29.000Z</time>
      </trkpt>
      <trkpt lat="47.313" lon="-2.30908">
        <ele>11.800000190735</ele>
        <time>2020-03-15T10:36:31.000Z</time>
      </trkpt>
      <trkpt lat="47.31301" lon="-2.30913">
        <ele>12.199999809265</ele>
        <time>2020-03-15T10:36:32.000Z</time>
      </trkpt>
      <trkpt lat="47.31303" lon="-2.30918">
        <ele>12.60000038147</ele>
        <time>2020-03-15T10:36:33.000Z</time>
      </trkpt>
      <trkpt lat="47.31305" lon="-2.30922">
        <ele>13</ele>
        <time>2020-03-15T10:36:34.000Z</time>
      </trkpt>
      <trkpt lat="47.31307" lon="-2.30927">
        <ele>13.39999961853</ele>
        <time>2020-03-15T10:36:35.000Z</time>
      </trkpt>
      <trkpt lat="47.3131" lon="-2.30938">
        <ele>13.39999961853</ele>
        <time>2020-03-15T10:36:38.000Z</time>
      </trkpt>
      <trkpt lat="47.31311" lon="-2.30943">
        <ele>13.800000190735</ele>
        <time>2020-03-15T10:36:41.000Z</time>
      </trkpt>
      <trkpt lat="47.31312" lon="-2.30944">
        <ele>14.199999809265</ele>
        <time>2020-03-15T10:36:42.000Z</time>
      </trkpt>
      <trkpt lat="47.31313" lon="-2.30945">
        <ele>14.60000038147</ele>
        <time>2020-03-15T10:36:43.000Z</time>
      </trkpt>
      <trkpt lat="47.31314" lon="-2.30947">
        <ele>15</ele>
        <time>2020-03-15T10:36:44.000Z</time>
      </trkpt>
      <trkpt lat="47.31316" lon="-2.30948">
        <ele>15.39999961853</ele>
        <time>2020-03-15T10:36:45.000Z</time>
      </trkpt>
      <trkpt lat="47.31324" lon="-2.30957">
        <ele>15.39999961853</ele>
        <time>2020-03-15T10:36:49.000Z</time>
      </trkpt>
      <trkpt lat="47.31325" lon="-2.30962">
        <ele>15.39999961853</ele>
        <time>2020-03-15T10:36:50.000Z</time>
      </trkpt>
      <trkpt lat="47.31326" lon="-2.30971">
        <ele>15.39999961853</ele>
        <time>2020-03-15T10:36:52.000Z</time>
      </trkpt>
      <trkpt lat="47.31324" lon="-2.30977">
        <ele>15.39999961853</ele>
        <time>2020-03-15T10:36:54.000Z</time>
      </trkpt>
      <trkpt lat="47.31323" lon="-2.30981">
        <ele>15.39999961853</ele>
        <time>2020-03-15T10:36:56.000Z</time>
      </trkpt>
      <trkpt lat="47.31324" lon="-2.30983">
        <ele>15.39999961853</ele>
        <time>2020-03-15T10:36:57.000Z</time>
      </trkpt>
      <trkpt lat="47.31326" lon="-2.31">
        <ele>15.39999961853</ele>
        <time>2020-03-15T10:37:02.000Z</time>
      </trkpt>
      <trkpt lat="47.31332" lon="-2.31021">
        <ele>15.39999961853</ele>
        <time>2020-03-15T10:37:09.000Z</time>
      </trkpt>
      <trkpt lat="47.31341" lon="-2.31052">
        <ele>15.39999961853</ele>
        <time>2020-03-15T10:37:19.000Z</time>
      </trkpt>
      <trkpt lat="47.31348" lon="-2.31081">
        <ele>15.800000190735</ele>
        <time>2020-03-15T10:37:27.000Z</time>
      </trkpt>
      <trkpt lat="47.31349" lon="-2.31085">
        <ele>16.39999961853</ele>
        <time>2020-03-15T10:37:28.000Z</time>
      </trkpt>
      <trkpt lat="47.3135" lon="-2.31089">
        <ele>16.799999237061</ele>
        <time>2020-03-15T10:37:29.000Z</time>
      </trkpt>
      <trkpt lat="47.31351" lon="-2.31092">
        <ele>17.60000038147</ele>
        <time>2020-03-15T10:37:30.000Z</time>
      </trkpt>
      <trkpt lat="47.31356" lon="-2.31109">
        <ele>17.60000038147</ele>
        <time>2020-03-15T10:37:35.000Z</time>
      </trkpt>
      <trkpt lat="47.31362" lon="-2.31127">
        <ele>17.60000038147</ele>
        <time>2020-03-15T10:37:41.000Z</time>
      </trkpt>
      <trkpt lat="47.31371" lon="-2.31147">
        <ele>17.60000038147</ele>
        <time>2020-03-15T10:37:48.000Z</time>
      </trkpt>
      <trkpt lat="47.31383" lon="-2.3118">
        <ele>17.60000038147</ele>
        <time>2020-03-15T10:37:58.000Z</time>
      </trkpt>
      <trkpt lat="47.31393" lon="-2.31207">
        <ele>17.60000038147</ele>
        <time>2020-03-15T10:38:05.000Z</time>
      </trkpt>
      <trkpt lat="47.31399" lon="-2.31228">
        <ele>17.60000038147</ele>
        <time>2020-03-15T10:38:11.000Z</time>
      </trkpt>
      <trkpt lat="47.3139" lon="-2.31241">
        <ele>17.60000038147</ele>
        <time>2020-03-15T10:38:15.000Z</time>
      </trkpt>
      <trkpt lat="47.31378" lon="-2.31262">
        <ele>17.60000038147</ele>
        <time>2020-03-15T10:38:21.000Z</time>
      </trkpt>
      <trkpt lat="47.31369" lon="-2.3129">
        <ele>17.60000038147</ele>
        <time>2020-03-15T10:38:27.000Z</time>
      </trkpt>
      <trkpt lat="47.31369" lon="-2.31316">
        <ele>17.60000038147</ele>
        <time>2020-03-15T10:38:32.000Z</time>
      </trkpt>
      <trkpt lat="47.31373" lon="-2.31344">
        <ele>17.60000038147</ele>
        <time>2020-03-15T10:38:37.000Z</time>
      </trkpt>
      <trkpt lat="47.31382" lon="-2.31384">
        <ele>17.60000038147</ele>
        <time>2020-03-15T10:38:44.000Z</time>
      </trkpt>
      <trkpt lat="47.31396" lon="-2.31418">
        <ele>17.60000038147</ele>
        <time>2020-03-15T10:38:51.000Z</time>
      </trkpt>
      <trkpt lat="47.31416" lon="-2.31453">
        <ele>17.60000038147</ele>
        <time>2020-03-15T10:38:59.000Z</time>
      </trkpt>
      <trkpt lat="47.31427" lon="-2.31469">
        <ele>17.60000038147</ele>
        <time>2020-03-15T10:39:03.000Z</time>
      </trkpt>
      <trkpt lat="47.31428" lon="-2.31475">
        <ele>17.60000038147</ele>
        <time>2020-03-15T10:39:04.000Z</time>
      </trkpt>
      <trkpt lat="47.31427" lon="-2.3148">
        <ele>18</ele>
        <time>2020-03-15T10:39:05.000Z</time>
      </trkpt>
      <trkpt lat="47.31424" lon="-2.31486">
        <ele>18.39999961853</ele>
        <time>2020-03-15T10:39:06.000Z</time>
      </trkpt>
      <trkpt lat="47.31423" lon="-2.31491">
        <ele>18.799999237061</ele>
        <time>2020-03-15T10:39:07.000Z</time>
      </trkpt>
      <trkpt lat="47.31422" lon="-2.31497">
        <ele>19.39999961853</ele>
        <time>2020-03-15T10:39:08.000Z</time>
      </trkpt>
      <trkpt lat="47.31422" lon="-2.31503">
        <ele>19.799999237061</ele>
        <time>2020-03-15T10:39:09.000Z</time>
      </trkpt>
      <trkpt lat="47.31424" lon="-2.31516">
        <ele>19.799999237061</ele>
        <time>2020-03-15T10:39:11.000Z</time>
      </trkpt>
      <trkpt lat="47.3143" lon="-2.31568">
        <ele>19.799999237061</ele>
        <time>2020-03-15T10:39:19.000Z</time>
      </trkpt>
      <trkpt lat="47.31437" lon="-2.31617">
        <ele>19.799999237061</ele>
        <time>2020-03-15T10:39:27.000Z</time>
      </trkpt>
      <trkpt lat="47.31438" lon="-2.31624">
        <ele>19.799999237061</ele>
        <time>2020-03-15T10:39:28.000Z</time>
      </trkpt>
      <trkpt lat="47.31448" lon="-2.31662">
        <ele>19.799999237061</ele>
        <time>2020-03-15T10:39:34.000Z</time>
      </trkpt>
      <trkpt lat="47.31454" lon="-2.31689">
        <ele>19.799999237061</ele>
        <time>2020-03-15T10:39:38.000Z</time>
      </trkpt>
      <trkpt lat="47.31457" lon="-2.31703">
        <ele>19.799999237061</ele>
        <time>2020-03-15T10:39:40.000Z</time>
      </trkpt>
      <trkpt lat="47.31467" lon="-2.31752">
        <ele>20.200000762939</ele>
        <time>2020-03-15T10:39:48.000Z</time>
      </trkpt>
      <trkpt lat="47.31468" lon="-2.31758">
        <ele>20.60000038147</ele>
        <time>2020-03-15T10:39:49.000Z</time>
      </trkpt>
      <trkpt lat="47.3147" lon="-2.31764">
        <ele>21</ele>
        <time>2020-03-15T10:39:50.000Z</time>
      </trkpt>
      <trkpt lat="47.3147" lon="-2.31769">
        <ele>21.39999961853</ele>
        <time>2020-03-15T10:39:51.000Z</time>
      </trkpt>
      <trkpt lat="47.31469" lon="-2.31775">
        <ele>21.799999237061</ele>
        <time>2020-03-15T10:39:52.000Z</time>
      </trkpt>
      <trkpt lat="47.31462" lon="-2.31789">
        <ele>21.799999237061</ele>
        <time>2020-03-15T10:39:55.000Z</time>
      </trkpt>
      <trkpt lat="47.31458" lon="-2.31798">
        <ele>21.799999237061</ele>
        <time>2020-03-15T10:39:57.000Z</time>
      </trkpt>
      <trkpt lat="47.31456" lon="-2.31802">
        <ele>22.200000762939</ele>
        <time>2020-03-15T10:39:58.000Z</time>
      </trkpt>
      <trkpt lat="47.31453" lon="-2.31807">
        <ele>22.60000038147</ele>
        <time>2020-03-15T10:39:59.000Z</time>
      </trkpt>
      <trkpt lat="47.31451" lon="-2.31811">
        <ele>23</ele>
        <time>2020-03-15T10:40:00.000Z</time>
      </trkpt>
      <trkpt lat="47.31448" lon="-2.31816">
        <ele>23.39999961853</ele>
        <time>2020-03-15T10:40:01.000Z</time>
      </trkpt>
      <trkpt lat="47.31446" lon="-2.3182">
        <ele>23.799999237061</ele>
        <time>2020-03-15T10:40:02.000Z</time>
      </trkpt>
      <trkpt lat="47.31444" lon="-2.31825">
        <ele>23.799999237061</ele>
        <time>2020-03-15T10:40:03.000Z</time>
      </trkpt>
      <trkpt lat="47.31425" lon="-2.31865">
        <ele>23.799999237061</ele>
        <time>2020-03-15T10:40:11.000Z</time>
      </trkpt>
      <trkpt lat="47.31424" lon="-2.31871">
        <ele>23.799999237061</ele>
        <time>2020-03-15T10:40:12.000Z</time>
      </trkpt>
      <trkpt lat="47.3142" lon="-2.31897">
        <ele>23.799999237061</ele>
        <time>2020-03-15T10:40:16.000Z</time>
      </trkpt>
      <trkpt lat="47.31419" lon="-2.31904">
        <ele>23.799999237061</ele>
        <time>2020-03-15T10:40:17.000Z</time>
      </trkpt>
      <trkpt lat="47.31417" lon="-2.31937">
        <ele>23.799999237061</ele>
        <time>2020-03-15T10:40:22.000Z</time>
      </trkpt>
      <trkpt lat="47.31422" lon="-2.31962">
        <ele>23.799999237061</ele>
        <time>2020-03-15T10:40:26.000Z</time>
      </trkpt>
      <trkpt lat="47.31423" lon="-2.31969">
        <ele>23.799999237061</ele>
        <time>2020-03-15T10:40:27.000Z</time>
      </trkpt>
      <trkpt lat="47.31425" lon="-2.31975">
        <ele>23.799999237061</ele>
        <time>2020-03-15T10:40:28.000Z</time>
      </trkpt>
      <trkpt lat="47.31431" lon="-2.31995">
        <ele>23.39999961853</ele>
        <time>2020-03-15T10:40:31.000Z</time>
      </trkpt>
      <trkpt lat="47.31433" lon="-2.32001">
        <ele>23</ele>
        <time>2020-03-15T10:40:32.000Z</time>
      </trkpt>
      <trkpt lat="47.31436" lon="-2.32008">
        <ele>22.60000038147</ele>
        <time>2020-03-15T10:40:33.000Z</time>
      </trkpt>
      <trkpt lat="47.31438" lon="-2.32015">
        <ele>22.200000762939</ele>
        <time>2020-03-15T10:40:34.000Z</time>
      </trkpt>
      <trkpt lat="47.3144" lon="-2.32022">
        <ele>21.60000038147</ele>
        <time>2020-03-15T10:40:35.000Z</time>
      </trkpt>
      <trkpt lat="47.31453" lon="-2.32053">
        <ele>21.60000038147</ele>
        <time>2020-03-15T10:40:39.000Z</time>
      </trkpt>
      <trkpt lat="47.31476" lon="-2.32108">
        <ele>21.60000038147</ele>
        <time>2020-03-15T10:40:46.000Z</time>
      </trkpt>
      <trkpt lat="47.31488" lon="-2.32137">
        <ele>21.60000038147</ele>
        <time>2020-03-15T10:40:50.000Z</time>
      </trkpt>
      <trkpt lat="47.31492" lon="-2.32143">
        <ele>21.60000038147</ele>
        <time>2020-03-15T10:40:51.000Z</time>
      </trkpt>
      <trkpt lat="47.31506" lon="-2.32168">
        <ele>21.60000038147</ele>
        <time>2020-03-15T10:40:56.000Z</time>
      </trkpt>
      <trkpt lat="47.31511" lon="-2.32178">
        <ele>21.60000038147</ele>
        <time>2020-03-15T10:41:00.000Z</time>
      </trkpt>
      <trkpt lat="47.31511" lon="-2.32181">
        <ele>22.200000762939</ele>
        <time>2020-03-15T10:41:01.000Z</time>
      </trkpt>
      <trkpt lat="47.31509" lon="-2.32182">
        <ele>22.60000038147</ele>
        <time>2020-03-15T10:41:02.000Z</time>
      </trkpt>
      <trkpt lat="47.31506" lon="-2.32182">
        <ele>23</ele>
        <time>2020-03-15T10:41:03.000Z</time>
      </trkpt>
      <trkpt lat="47.31504" lon="-2.3218">
        <ele>23.39999961853</ele>
        <time>2020-03-15T10:41:04.000Z</time>
      </trkpt>
      <trkpt lat="47.31502" lon="-2.32178">
        <ele>23.799999237061</ele>
        <time>2020-03-15T10:41:05.000Z</time>
      </trkpt>
      <trkpt lat="47.315" lon="-2.32176">
        <ele>23.799999237061</ele>
        <time>2020-03-15T10:41:06.000Z</time>
      </trkpt>
      <trkpt lat="47.31492" lon="-2.32172">
        <ele>23.799999237061</ele>
        <time>2020-03-15T10:41:09.000Z</time>
      </trkpt>
      <trkpt lat="47.31483" lon="-2.32182">
        <ele>23.799999237061</ele>
        <time>2020-03-15T10:41:12.000Z</time>
      </trkpt>
      <trkpt lat="47.3148" lon="-2.32193">
        <ele>23.799999237061</ele>
        <time>2020-03-15T10:41:14.000Z</time>
      </trkpt>
      <trkpt lat="47.31473" lon="-2.32212">
        <ele>23.799999237061</ele>
        <time>2020-03-15T10:41:17.000Z</time>
      </trkpt>
      <trkpt lat="47.31458" lon="-2.32251">
        <ele>23.799999237061</ele>
        <time>2020-03-15T10:41:23.000Z</time>
      </trkpt>
      <trkpt lat="47.31443" lon="-2.32266">
        <ele>23.799999237061</ele>
        <time>2020-03-15T10:41:26.000Z</time>
      </trkpt>
      <trkpt lat="47.31424" lon="-2.32271">
        <ele>23.799999237061</ele>
        <time>2020-03-15T10:41:29.000Z</time>
      </trkpt>
      <trkpt lat="47.31418" lon="-2.32273">
        <ele>23.799999237061</ele>
        <time>2020-03-15T10:41:30.000Z</time>
      </trkpt>
      <trkpt lat="47.31373" lon="-2.32284">
        <ele>23.799999237061</ele>
        <time>2020-03-15T10:41:37.000Z</time>
      </trkpt>
      <trkpt lat="47.31345" lon="-2.32301">
        <ele>23.799999237061</ele>
        <time>2020-03-15T10:41:42.000Z</time>
      </trkpt>
      <trkpt lat="47.31339" lon="-2.32306">
        <ele>23.799999237061</ele>
        <time>2020-03-15T10:41:43.000Z</time>
      </trkpt>
      <trkpt lat="47.31301" lon="-2.32347">
        <ele>23.799999237061</ele>
        <time>2020-03-15T10:41:50.000Z</time>
      </trkpt>
      <trkpt lat="47.31259" lon="-2.32389">
        <ele>23.799999237061</ele>
        <time>2020-03-15T10:41:58.000Z</time>
      </trkpt>
      <trkpt lat="47.31223" lon="-2.32415">
        <ele>23.799999237061</ele>
        <time>2020-03-15T10:42:04.000Z</time>
      </trkpt>
      <trkpt lat="47.31189" lon="-2.32435">
        <ele>23.799999237061</ele>
        <time>2020-03-15T10:42:10.000Z</time>
      </trkpt>
      <trkpt lat="47.31185" lon="-2.3244">
        <ele>23.799999237061</ele>
        <time>2020-03-15T10:42:11.000Z</time>
      </trkpt>
      <trkpt lat="47.31179" lon="-2.32462">
        <ele>23.799999237061</ele>
        <time>2020-03-15T10:42:14.000Z</time>
      </trkpt>
      <trkpt lat="47.31179" lon="-2.32471">
        <ele>23.799999237061</ele>
        <time>2020-03-15T10:42:15.000Z</time>
      </trkpt>
      <trkpt lat="47.31177" lon="-2.32526">
        <ele>23.799999237061</ele>
        <time>2020-03-15T10:42:21.000Z</time>
      </trkpt>
      <trkpt lat="47.31177" lon="-2.3258">
        <ele>24.200000762939</ele>
        <time>2020-03-15T10:42:27.000Z</time>
      </trkpt>
      <trkpt lat="47.31177" lon="-2.32588">
        <ele>24.60000038147</ele>
        <time>2020-03-15T10:42:28.000Z</time>
      </trkpt>
      <trkpt lat="47.31177" lon="-2.32597">
        <ele>25.200000762939</ele>
        <time>2020-03-15T10:42:29.000Z</time>
      </trkpt>
      <trkpt lat="47.31178" lon="-2.32606">
        <ele>25.60000038147</ele>
        <time>2020-03-15T10:42:30.000Z</time>
      </trkpt>
      <trkpt lat="47.31178" lon="-2.32614">
        <ele>26</ele>
        <time>2020-03-15T10:42:31.000Z</time>
      </trkpt>
      <trkpt lat="47.31181" lon="-2.32632">
        <ele>26</ele>
        <time>2020-03-15T10:42:33.000Z</time>
      </trkpt>
      <trkpt lat="47.31184" lon="-2.32647">
        <ele>26</ele>
        <time>2020-03-15T10:42:35.000Z</time>
      </trkpt>
      <trkpt lat="47.31192" lon="-2.32669">
        <ele>26</ele>
        <time>2020-03-15T10:42:38.000Z</time>
      </trkpt>
      <trkpt lat="47.31208" lon="-2.32724">
        <ele>26</ele>
        <time>2020-03-15T10:42:45.000Z</time>
      </trkpt>
      <trkpt lat="47.31223" lon="-2.3274">
        <ele>26</ele>
        <time>2020-03-15T10:42:48.000Z</time>
      </trkpt>
      <trkpt lat="47.31229" lon="-2.32744">
        <ele>26</ele>
        <time>2020-03-15T10:42:49.000Z</time>
      </trkpt>
      <trkpt lat="47.31261" lon="-2.32765">
        <ele>26</ele>
        <time>2020-03-15T10:42:54.000Z</time>
      </trkpt>
      <trkpt lat="47.3128" lon="-2.3278">
        <ele>26</ele>
        <time>2020-03-15T10:42:57.000Z</time>
      </trkpt>
      <trkpt lat="47.31289" lon="-2.32795">
        <ele>26</ele>
        <time>2020-03-15T10:42:59.000Z</time>
      </trkpt>
      <trkpt lat="47.31323" lon="-2.32848">
        <ele>26</ele>
        <time>2020-03-15T10:43:06.000Z</time>
      </trkpt>
      <trkpt lat="47.31333" lon="-2.3286">
        <ele>26</ele>
        <time>2020-03-15T10:43:08.000Z</time>
      </trkpt>
      <trkpt lat="47.31346" lon="-2.32878">
        <ele>26</ele>
        <time>2020-03-15T10:43:11.000Z</time>
      </trkpt>
      <trkpt lat="47.31353" lon="-2.32891">
        <ele>26</ele>
        <time>2020-03-15T10:43:13.000Z</time>
      </trkpt>
      <trkpt lat="47.31353" lon="-2.32903">
        <ele>26</ele>
        <time>2020-03-15T10:43:15.000Z</time>
      </trkpt>
      <trkpt lat="47.31346" lon="-2.32915">
        <ele>26</ele>
        <time>2020-03-15T10:43:17.000Z</time>
      </trkpt>
      <trkpt lat="47.31335" lon="-2.32937">
        <ele>26</ele>
        <time>2020-03-15T10:43:20.000Z</time>
      </trkpt>
      <trkpt lat="47.31311" lon="-2.32984">
        <ele>26</ele>
        <time>2020-03-15T10:43:26.000Z</time>
      </trkpt>
      <trkpt lat="47.31281" lon="-2.33037">
        <ele>26</ele>
        <time>2020-03-15T10:43:33.000Z</time>
      </trkpt>
      <trkpt lat="47.31256" lon="-2.33078">
        <ele>26</ele>
        <time>2020-03-15T10:43:39.000Z</time>
      </trkpt>
      <trkpt lat="47.31237" lon="-2.3312">
        <ele>26</ele>
        <time>2020-03-15T10:43:45.000Z</time>
      </trkpt>
      <trkpt lat="47.31229" lon="-2.3314">
        <ele>26</ele>
        <time>2020-03-15T10:43:48.000Z</time>
      </trkpt>
      <trkpt lat="47.31224" lon="-2.33145">
        <ele>26</ele>
        <time>2020-03-15T10:43:49.000Z</time>
      </trkpt>
      <trkpt lat="47.31209" lon="-2.33152">
        <ele>26</ele>
        <time>2020-03-15T10:43:52.000Z</time>
      </trkpt>
      <trkpt lat="47.31204" lon="-2.33154">
        <ele>26</ele>
        <time>2020-03-15T10:43:53.000Z</time>
      </trkpt>
      <trkpt lat="47.31174" lon="-2.33171">
        <ele>26</ele>
        <time>2020-03-15T10:43:59.000Z</time>
      </trkpt>
      <trkpt lat="47.3117" lon="-2.33174">
        <ele>26.39999961853</ele>
        <time>2020-03-15T10:44:00.000Z</time>
      </trkpt>
      <trkpt lat="47.31165" lon="-2.33177">
        <ele>26.799999237061</ele>
        <time>2020-03-15T10:44:01.000Z</time>
      </trkpt>
      <trkpt lat="47.31161" lon="-2.3318">
        <ele>27.200000762939</ele>
        <time>2020-03-15T10:44:02.000Z</time>
      </trkpt>
      <trkpt lat="47.31156" lon="-2.33182">
        <ele>27.60000038147</ele>
        <time>2020-03-15T10:44:03.000Z</time>
      </trkpt>
      <trkpt lat="47.31152" lon="-2.33185">
        <ele>28</ele>
        <time>2020-03-15T10:44:04.000Z</time>
      </trkpt>
      <trkpt lat="47.3114" lon="-2.33192">
        <ele>28</ele>
        <time>2020-03-15T10:44:07.000Z</time>
      </trkpt>
      <trkpt lat="47.31118" lon="-2.33205">
        <ele>28</ele>
        <time>2020-03-15T10:44:13.000Z</time>
      </trkpt>
      <trkpt lat="47.31111" lon="-2.33213">
        <ele>28</ele>
        <time>2020-03-15T10:44:15.000Z</time>
      </trkpt>
      <trkpt lat="47.31109" lon="-2.33224">
        <ele>28</ele>
        <time>2020-03-15T10:44:17.000Z</time>
      </trkpt>
      <trkpt lat="47.31108" lon="-2.33236">
        <ele>28</ele>
        <time>2020-03-15T10:44:19.000Z</time>
      </trkpt>
      <trkpt lat="47.31105" lon="-2.33267">
        <ele>28</ele>
        <time>2020-03-15T10:44:24.000Z</time>
      </trkpt>
      <trkpt lat="47.31103" lon="-2.33292">
        <ele>28.39999961853</ele>
        <time>2020-03-15T10:44:28.000Z</time>
      </trkpt>
      <trkpt lat="47.31103" lon="-2.33299">
        <ele>29</ele>
        <time>2020-03-15T10:44:29.000Z</time>
      </trkpt>
      <trkpt lat="47.31102" lon="-2.33306">
        <ele>29.799999237061</ele>
        <time>2020-03-15T10:44:30.000Z</time>
      </trkpt>
      <trkpt lat="47.31102" lon="-2.33312">
        <ele>30.200000762939</ele>
        <time>2020-03-15T10:44:31.000Z</time>
      </trkpt>
      <trkpt lat="47.31098" lon="-2.33358">
        <ele>30.200000762939</ele>
        <time>2020-03-15T10:44:38.000Z</time>
      </trkpt>
      <trkpt lat="47.31097" lon="-2.33402">
        <ele>30.200000762939</ele>
        <time>2020-03-15T10:44:44.000Z</time>
      </trkpt>
      <trkpt lat="47.31097" lon="-2.33448">
        <ele>30.200000762939</ele>
        <time>2020-03-15T10:44:51.000Z</time>
      </trkpt>
      <trkpt lat="47.311" lon="-2.33485">
        <ele>30.200000762939</ele>
        <time>2020-03-15T10:44:56.000Z</time>
      </trkpt>
      <trkpt lat="47.31103" lon="-2.33499">
        <ele>30.200000762939</ele>
        <time>2020-03-15T10:44:58.000Z</time>
      </trkpt>
      <trkpt lat="47.31114" lon="-2.33547">
        <ele>30.200000762939</ele>
        <time>2020-03-15T10:45:05.000Z</time>
      </trkpt>
      <trkpt lat="47.31115" lon="-2.33555">
        <ele>30.60000038147</ele>
        <time>2020-03-15T10:45:06.000Z</time>
      </trkpt>
      <trkpt lat="47.31115" lon="-2.33563">
        <ele>31</ele>
        <time>2020-03-15T10:45:07.000Z</time>
      </trkpt>
      <trkpt lat="47.31116" lon="-2.33571">
        <ele>31.39999961853</ele>
        <time>2020-03-15T10:45:08.000Z</time>
      </trkpt>
      <trkpt lat="47.31116" lon="-2.33579">
        <ele>31.799999237061</ele>
        <time>2020-03-15T10:45:09.000Z</time>
      </trkpt>
      <trkpt lat="47.31116" lon="-2.33589">
        <ele>32.200000762939</ele>
        <time>2020-03-15T10:45:10.000Z</time>
      </trkpt>
      <trkpt lat="47.31116" lon="-2.33598">
        <ele>32.200000762939</ele>
        <time>2020-03-15T10:45:11.000Z</time>
      </trkpt>
      <trkpt lat="47.31114" lon="-2.33627">
        <ele>32.200000762939</ele>
        <time>2020-03-15T10:45:14.000Z</time>
      </trkpt>
      <trkpt lat="47.31111" lon="-2.33647">
        <ele>32.200000762939</ele>
        <time>2020-03-15T10:45:16.000Z</time>
      </trkpt>
      <trkpt lat="47.31101" lon="-2.33712">
        <ele>32.200000762939</ele>
        <time>2020-03-15T10:45:22.000Z</time>
      </trkpt>
      <trkpt lat="47.311" lon="-2.33722">
        <ele>32.200000762939</ele>
        <time>2020-03-15T10:45:23.000Z</time>
      </trkpt>
      <trkpt lat="47.31093" lon="-2.33751">
        <ele>32.200000762939</ele>
        <time>2020-03-15T10:45:26.000Z</time>
      </trkpt>
      <trkpt lat="47.31087" lon="-2.33768">
        <ele>32.200000762939</ele>
        <time>2020-03-15T10:45:28.000Z</time>
      </trkpt>
      <trkpt lat="47.31074" lon="-2.338">
        <ele>32.200000762939</ele>
        <time>2020-03-15T10:45:32.000Z</time>
      </trkpt>
      <trkpt lat="47.31069" lon="-2.33817">
        <ele>32.200000762939</ele>
        <time>2020-03-15T10:45:34.000Z</time>
      </trkpt>
      <trkpt lat="47.31067" lon="-2.33834">
        <ele>32.200000762939</ele>
        <time>2020-03-15T10:45:36.000Z</time>
      </trkpt>
      <trkpt lat="47.31065" lon="-2.33859">
        <ele>32.200000762939</ele>
        <time>2020-03-15T10:45:39.000Z</time>
      </trkpt>
      <trkpt lat="47.31064" lon="-2.33919">
        <ele>32.200000762939</ele>
        <time>2020-03-15T10:45:46.000Z</time>
      </trkpt>
      <trkpt lat="47.31065" lon="-2.33984">
        <ele>32.200000762939</ele>
        <time>2020-03-15T10:45:53.000Z</time>
      </trkpt>
      <trkpt lat="47.3107" lon="-2.34053">
        <ele>32.200000762939</ele>
        <time>2020-03-15T10:46:00.000Z</time>
      </trkpt>
      <trkpt lat="47.31082" lon="-2.34095">
        <ele>32.200000762939</ele>
        <time>2020-03-15T10:46:04.000Z</time>
      </trkpt>
      <trkpt lat="47.31086" lon="-2.34106">
        <ele>32.200000762939</ele>
        <time>2020-03-15T10:46:05.000Z</time>
      </trkpt>
      <trkpt lat="47.31101" lon="-2.34136">
        <ele>32.200000762939</ele>
        <time>2020-03-15T10:46:08.000Z</time>
      </trkpt>
      <trkpt lat="47.31107" lon="-2.34147">
        <ele>31.799999237061</ele>
        <time>2020-03-15T10:46:09.000Z</time>
      </trkpt>
      <trkpt lat="47.31113" lon="-2.34158">
        <ele>31.200000762939</ele>
        <time>2020-03-15T10:46:10.000Z</time>
      </trkpt>
      <trkpt lat="47.31119" lon="-2.34169">
        <ele>30.799999237061</ele>
        <time>2020-03-15T10:46:11.000Z</time>
      </trkpt>
      <trkpt lat="47.31125" lon="-2.34182">
        <ele>30.200000762939</ele>
        <time>2020-03-15T10:46:12.000Z</time>
      </trkpt>
      <trkpt lat="47.31131" lon="-2.34193">
        <ele>29.799999237061</ele>
        <time>2020-03-15T10:46:13.000Z</time>
      </trkpt>
      <trkpt lat="47.31137" lon="-2.34205">
        <ele>29.799999237061</ele>
        <time>2020-03-15T10:46:14.000Z</time>
      </trkpt>
      <trkpt lat="47.31144" lon="-2.34217">
        <ele>29.200000762939</ele>
        <time>2020-03-15T10:46:15.000Z</time>
      </trkpt>
      <trkpt lat="47.3115" lon="-2.34229">
        <ele>28.60000038147</ele>
        <time>2020-03-15T10:46:16.000Z</time>
      </trkpt>
      <trkpt lat="47.31156" lon="-2.34241">
        <ele>28</ele>
        <time>2020-03-15T10:46:17.000Z</time>
      </trkpt>
      <trkpt lat="47.31163" lon="-2.34253">
        <ele>27.60000038147</ele>
        <time>2020-03-15T10:46:18.000Z</time>
      </trkpt>
      <trkpt lat="47.31168" lon="-2.34265">
        <ele>27</ele>
        <time>2020-03-15T10:46:19.000Z</time>
      </trkpt>
      <trkpt lat="47.31173" lon="-2.34277">
        <ele>27</ele>
        <time>2020-03-15T10:46:20.000Z</time>
      </trkpt>
      <trkpt lat="47.31184" lon="-2.343">
        <ele>26.39999961853</ele>
        <time>2020-03-15T10:46:22.000Z</time>
      </trkpt>
      <trkpt lat="47.31189" lon="-2.34311">
        <ele>26</ele>
        <time>2020-03-15T10:46:23.000Z</time>
      </trkpt>
      <trkpt lat="47.31195" lon="-2.34322">
        <ele>25.60000038147</ele>
        <time>2020-03-15T10:46:24.000Z</time>
      </trkpt>
      <trkpt lat="47.31202" lon="-2.34332">
        <ele>25.200000762939</ele>
        <time>2020-03-15T10:46:25.000Z</time>
      </trkpt>
      <trkpt lat="47.31209" lon="-2.3434">
        <ele>24.60000038147</ele>
        <time>2020-03-15T10:46:26.000Z</time>
      </trkpt>
      <trkpt lat="47.31233" lon="-2.34355">
        <ele>24.60000038147</ele>
        <time>2020-03-15T10:46:29.000Z</time>
      </trkpt>
      <trkpt lat="47.31241" lon="-2.34358">
        <ele>24.60000038147</ele>
        <time>2020-03-15T10:46:30.000Z</time>
      </trkpt>
      <trkpt lat="47.31255" lon="-2.34367">
        <ele>24.60000038147</ele>
        <time>2020-03-15T10:46:32.000Z</time>
      </trkpt>
      <trkpt lat="47.31266" lon="-2.34381">
        <ele>24.60000038147</ele>
        <time>2020-03-15T10:46:34.000Z</time>
      </trkpt>
      <trkpt lat="47.31277" lon="-2.34414">
        <ele>24.60000038147</ele>
        <time>2020-03-15T10:46:38.000Z</time>
      </trkpt>
      <trkpt lat="47.31278" lon="-2.34436">
        <ele>24.60000038147</ele>
        <time>2020-03-15T10:46:40.000Z</time>
      </trkpt>
      <trkpt lat="47.3128" lon="-2.34468">
        <ele>25</ele>
        <time>2020-03-15T10:46:43.000Z</time>
      </trkpt>
      <trkpt lat="47.3128" lon="-2.34479">
        <ele>25.60000038147</ele>
        <time>2020-03-15T10:46:44.000Z</time>
      </trkpt>
      <trkpt lat="47.31281" lon="-2.34489">
        <ele>26</ele>
        <time>2020-03-15T10:46:45.000Z</time>
      </trkpt>
      <trkpt lat="47.31281" lon="-2.34499">
        <ele>26.39999961853</ele>
        <time>2020-03-15T10:46:46.000Z</time>
      </trkpt>
      <trkpt lat="47.31282" lon="-2.34509">
        <ele>26.799999237061</ele>
        <time>2020-03-15T10:46:47.000Z</time>
      </trkpt>
      <trkpt lat="47.31287" lon="-2.34558">
        <ele>26.799999237061</ele>
        <time>2020-03-15T10:46:52.000Z</time>
      </trkpt>
      <trkpt lat="47.31289" lon="-2.34576">
        <ele>27.200000762939</ele>
        <time>2020-03-15T10:46:54.000Z</time>
      </trkpt>
      <trkpt lat="47.3129" lon="-2.34586">
        <ele>27.60000038147</ele>
        <time>2020-03-15T10:46:55.000Z</time>
      </trkpt>
      <trkpt lat="47.3129" lon="-2.34594">
        <ele>28</ele>
        <time>2020-03-15T10:46:56.000Z</time>
      </trkpt>
      <trkpt lat="47.31291" lon="-2.34603">
        <ele>28.39999961853</ele>
        <time>2020-03-15T10:46:57.000Z</time>
      </trkpt>
      <trkpt lat="47.31292" lon="-2.34611">
        <ele>28.799999237061</ele>
        <time>2020-03-15T10:46:58.000Z</time>
      </trkpt>
      <trkpt lat="47.31293" lon="-2.34619">
        <ele>29.200000762939</ele>
        <time>2020-03-15T10:46:59.000Z</time>
      </trkpt>
      <trkpt lat="47.31294" lon="-2.34626">
        <ele>29.60000038147</ele>
        <time>2020-03-15T10:47:00.000Z</time>
      </trkpt>
      <trkpt lat="47.31295" lon="-2.34633">
        <ele>30</ele>
        <time>2020-03-15T10:47:01.000Z</time>
      </trkpt>
      <trkpt lat="47.31296" lon="-2.34639">
        <ele>30.39999961853</ele>
        <time>2020-03-15T10:47:02.000Z</time>
      </trkpt>
      <trkpt lat="47.31296" lon="-2.34646">
        <ele>31</ele>
        <time>2020-03-15T10:47:03.000Z</time>
      </trkpt>
      <trkpt lat="47.31298" lon="-2.34652">
        <ele>31</ele>
        <time>2020-03-15T10:47:04.000Z</time>
      </trkpt>
      <trkpt lat="47.31303" lon="-2.34669">
        <ele>31</ele>
        <time>2020-03-15T10:47:07.000Z</time>
      </trkpt>
      <trkpt lat="47.31296" lon="-2.34677">
        <ele>31</ele>
        <time>2020-03-15T10:47:09.000Z</time>
      </trkpt>
      <trkpt lat="47.31285" lon="-2.3469">
        <ele>31.39999961853</ele>
        <time>2020-03-15T10:47:12.000Z</time>
      </trkpt>
      <trkpt lat="47.31282" lon="-2.34695">
        <ele>31.799999237061</ele>
        <time>2020-03-15T10:47:13.000Z</time>
      </trkpt>
      <trkpt lat="47.3128" lon="-2.34701">
        <ele>32.200000762939</ele>
        <time>2020-03-15T10:47:14.000Z</time>
      </trkpt>
      <trkpt lat="47.31279" lon="-2.34707">
        <ele>32.799999237061</ele>
        <time>2020-03-15T10:47:15.000Z</time>
      </trkpt>
      <trkpt lat="47.31279" lon="-2.34713">
        <ele>33.200000762939</ele>
        <time>2020-03-15T10:47:16.000Z</time>
      </trkpt>
      <trkpt lat="47.31281" lon="-2.34726">
        <ele>33.200000762939</ele>
        <time>2020-03-15T10:47:18.000Z</time>
      </trkpt>
      <trkpt lat="47.31284" lon="-2.34753">
        <ele>33.200000762939</ele>
        <time>2020-03-15T10:47:22.000Z</time>
      </trkpt>
      <trkpt lat="47.31291" lon="-2.34795">
        <ele>33.200000762939</ele>
        <time>2020-03-15T10:47:29.000Z</time>
      </trkpt>
      <trkpt lat="47.31297" lon="-2.34832">
        <ele>33.200000762939</ele>
        <time>2020-03-15T10:47:35.000Z</time>
      </trkpt>
      <trkpt lat="47.31309" lon="-2.34882">
        <ele>33.200000762939</ele>
        <time>2020-03-15T10:47:43.000Z</time>
      </trkpt>
      <trkpt lat="47.31322" lon="-2.34922">
        <ele>33.200000762939</ele>
        <time>2020-03-15T10:47:49.000Z</time>
      </trkpt>
      <trkpt lat="47.31338" lon="-2.34977">
        <ele>33.200000762939</ele>
        <time>2020-03-15T10:47:56.000Z</time>
      </trkpt>
      <trkpt lat="47.31344" lon="-2.3501">
        <ele>33.200000762939</ele>
        <time>2020-03-15T10:48:00.000Z</time>
      </trkpt>
      <trkpt lat="47.31345" lon="-2.35027">
        <ele>33.200000762939</ele>
        <time>2020-03-15T10:48:02.000Z</time>
      </trkpt>
      <trkpt lat="47.31345" lon="-2.351">
        <ele>33.200000762939</ele>
        <time>2020-03-15T10:48:11.000Z</time>
      </trkpt>
      <trkpt lat="47.31343" lon="-2.35153">
        <ele>33.200000762939</ele>
        <time>2020-03-15T10:48:18.000Z</time>
      </trkpt>
      <trkpt lat="47.31343" lon="-2.3516">
        <ele>33.200000762939</ele>
        <time>2020-03-15T10:48:19.000Z</time>
      </trkpt>
      <trkpt lat="47.31341" lon="-2.35193">
        <ele>33.200000762939</ele>
        <time>2020-03-15T10:48:24.000Z</time>
      </trkpt>
      <trkpt lat="47.31341" lon="-2.352">
        <ele>33.200000762939</ele>
        <time>2020-03-15T10:48:25.000Z</time>
      </trkpt>
      <trkpt lat="47.31341" lon="-2.35213">
        <ele>33.200000762939</ele>
        <time>2020-03-15T10:48:27.000Z</time>
      </trkpt>
      <trkpt lat="47.3134" lon="-2.35228">
        <ele>33.200000762939</ele>
        <time>2020-03-15T10:48:29.000Z</time>
      </trkpt>
      <trkpt lat="47.3134" lon="-2.35285">
        <ele>33.200000762939</ele>
        <time>2020-03-15T10:48:36.000Z</time>
      </trkpt>
      <trkpt lat="47.31339" lon="-2.35332">
        <ele>33.200000762939</ele>
        <time>2020-03-15T10:48:42.000Z</time>
      </trkpt>
      <trkpt lat="47.31339" lon="-2.35374">
        <ele>33.200000762939</ele>
        <time>2020-03-15T10:48:48.000Z</time>
      </trkpt>
      <trkpt lat="47.31337" lon="-2.35413">
        <ele>33.200000762939</ele>
        <time>2020-03-15T10:48:54.000Z</time>
      </trkpt>
      <trkpt lat="47.31336" lon="-2.35445">
        <ele>33.200000762939</ele>
        <time>2020-03-15T10:48:59.000Z</time>
      </trkpt>
      <trkpt lat="47.31336" lon="-2.35478">
        <ele>33.200000762939</ele>
        <time>2020-03-15T10:49:05.000Z</time>
      </trkpt>
      <trkpt lat="47.31336" lon="-2.35483">
        <ele>33.200000762939</ele>
        <time>2020-03-15T10:49:06.000Z</time>
      </trkpt>
      <trkpt lat="47.31335" lon="-2.35504">
        <ele>33.200000762939</ele>
        <time>2020-03-15T10:49:10.000Z</time>
      </trkpt>
      <trkpt lat="47.31332" lon="-2.35537">
        <ele>33.200000762939</ele>
        <time>2020-03-15T10:49:15.000Z</time>
      </trkpt>
      <trkpt lat="47.31322" lon="-2.35559">
        <ele>33.200000762939</ele>
        <time>2020-03-15T10:49:19.000Z</time>
      </trkpt>
      <trkpt lat="47.31314" lon="-2.35566">
        <ele>33.200000762939</ele>
        <time>2020-03-15T10:49:21.000Z</time>
      </trkpt>
      <trkpt lat="47.31301" lon="-2.35575">
        <ele>33.200000762939</ele>
        <time>2020-03-15T10:49:24.000Z</time>
      </trkpt>
      <trkpt lat="47.31266" lon="-2.35603">
        <ele>33.200000762939</ele>
        <time>2020-03-15T10:49:32.000Z</time>
      </trkpt>
      <trkpt lat="47.31237" lon="-2.35629">
        <ele>33.200000762939</ele>
        <time>2020-03-15T10:49:39.000Z</time>
      </trkpt>
      <trkpt lat="47.31211" lon="-2.35653">
        <ele>33.599998474121</ele>
        <time>2020-03-15T10:49:46.000Z</time>
      </trkpt>
      <trkpt lat="47.31207" lon="-2.35657">
        <ele>34</ele>
        <time>2020-03-15T10:49:47.000Z</time>
      </trkpt>
      <trkpt lat="47.31204" lon="-2.35661">
        <ele>34.400001525879</ele>
        <time>2020-03-15T10:49:48.000Z</time>
      </trkpt>
      <trkpt lat="47.312" lon="-2.35664">
        <ele>34.799999237061</ele>
        <time>2020-03-15T10:49:49.000Z</time>
      </trkpt>
      <trkpt lat="47.31197" lon="-2.35668">
        <ele>35.200000762939</ele>
        <time>2020-03-15T10:49:50.000Z</time>
      </trkpt>
      <trkpt lat="47.31185" lon="-2.35687">
        <ele>35.200000762939</ele>
        <time>2020-03-15T10:49:54.000Z</time>
      </trkpt>
      <trkpt lat="47.31178" lon="-2.35714">
        <ele>35.200000762939</ele>
        <time>2020-03-15T10:49:58.000Z</time>
      </trkpt>
      <trkpt lat="47.31177" lon="-2.35721">
        <ele>35.200000762939</ele>
        <time>2020-03-15T10:49:59.000Z</time>
      </trkpt>
      <trkpt lat="47.3117" lon="-2.3575">
        <ele>35.200000762939</ele>
        <time>2020-03-15T10:50:03.000Z</time>
      </trkpt>
      <trkpt lat="47.31164" lon="-2.35762">
        <ele>35.200000762939</ele>
        <time>2020-03-15T10:50:05.000Z</time>
      </trkpt>
      <trkpt lat="47.31146" lon="-2.35777">
        <ele>35.200000762939</ele>
        <time>2020-03-15T10:50:09.000Z</time>
      </trkpt>
      <trkpt lat="47.31136" lon="-2.3578">
        <ele>35.200000762939</ele>
        <time>2020-03-15T10:50:11.000Z</time>
      </trkpt>
      <trkpt lat="47.31117" lon="-2.35785">
        <ele>35.200000762939</ele>
        <time>2020-03-15T10:50:15.000Z</time>
      </trkpt>
      <trkpt lat="47.31081" lon="-2.35793">
        <ele>35.200000762939</ele>
        <time>2020-03-15T10:50:22.000Z</time>
      </trkpt>
      <trkpt lat="47.31041" lon="-2.35803">
        <ele>35.599998474121</ele>
        <time>2020-03-15T10:50:30.000Z</time>
      </trkpt>
      <trkpt lat="47.31036" lon="-2.35805">
        <ele>36</ele>
        <time>2020-03-15T10:50:31.000Z</time>
      </trkpt>
      <trkpt lat="47.31032" lon="-2.35806">
        <ele>36.400001525879</ele>
        <time>2020-03-15T10:50:32.000Z</time>
      </trkpt>
      <trkpt lat="47.31027" lon="-2.35808">
        <ele>37</ele>
        <time>2020-03-15T10:50:33.000Z</time>
      </trkpt>
      <trkpt lat="47.31022" lon="-2.3581">
        <ele>37.400001525879</ele>
        <time>2020-03-15T10:50:34.000Z</time>
      </trkpt>
      <trkpt lat="47.31002" lon="-2.35817">
        <ele>37.400001525879</ele>
        <time>2020-03-15T10:50:38.000Z</time>
      </trkpt>
      <trkpt lat="47.30955" lon="-2.35839">
        <ele>37.400001525879</ele>
        <time>2020-03-15T10:50:48.000Z</time>
      </trkpt>
      <trkpt lat="47.3091" lon="-2.35863">
        <ele>37.400001525879</ele>
        <time>2020-03-15T10:50:57.000Z</time>
      </trkpt>
      <trkpt lat="47.30901" lon="-2.35867">
        <ele>37.400001525879</ele>
        <time>2020-03-15T10:50:59.000Z</time>
      </trkpt>
      <trkpt lat="47.30887" lon="-2.35869">
        <ele>37.400001525879</ele>
        <time>2020-03-15T10:51:02.000Z</time>
      </trkpt>
      <trkpt lat="47.30858" lon="-2.35858">
        <ele>37.400001525879</ele>
        <time>2020-03-15T10:51:08.000Z</time>
      </trkpt>
      <trkpt lat="47.30853" lon="-2.35855">
        <ele>37.400001525879</ele>
        <time>2020-03-15T10:51:09.000Z</time>
      </trkpt>
      <trkpt lat="47.30839" lon="-2.35845">
        <ele>37.400001525879</ele>
        <time>2020-03-15T10:51:12.000Z</time>
      </trkpt>
      <trkpt lat="47.30834" lon="-2.35841">
        <ele>37.400001525879</ele>
        <time>2020-03-15T10:51:13.000Z</time>
      </trkpt>
      <trkpt lat="47.30829" lon="-2.35837">
        <ele>37.400001525879</ele>
        <time>2020-03-15T10:51:14.000Z</time>
      </trkpt>
      <trkpt lat="47.30805" lon="-2.35822">
        <ele>37.400001525879</ele>
        <time>2020-03-15T10:51:19.000Z</time>
      </trkpt>
      <trkpt lat="47.3077" lon="-2.358">
        <ele>37.400001525879</ele>
        <time>2020-03-15T10:51:26.000Z</time>
      </trkpt>
      <trkpt lat="47.30765" lon="-2.35799">
        <ele>37.400001525879</ele>
        <time>2020-03-15T10:51:27.000Z</time>
      </trkpt>
      <trkpt lat="47.30748" lon="-2.35804">
        <ele>37.400001525879</ele>
        <time>2020-03-15T10:51:30.000Z</time>
      </trkpt>
      <trkpt lat="47.30734" lon="-2.35818">
        <ele>37.400001525879</ele>
        <time>2020-03-15T10:51:33.000Z</time>
      </trkpt>
      <trkpt lat="47.3073" lon="-2.35823">
        <ele>37.400001525879</ele>
        <time>2020-03-15T10:51:34.000Z</time>
      </trkpt>
      <trkpt lat="47.30693" lon="-2.35865">
        <ele>37.400001525879</ele>
        <time>2020-03-15T10:51:42.000Z</time>
      </trkpt>
      <trkpt lat="47.30665" lon="-2.35898">
        <ele>37.400001525879</ele>
        <time>2020-03-15T10:51:49.000Z</time>
      </trkpt>
      <trkpt lat="47.30651" lon="-2.35901">
        <ele>37.400001525879</ele>
        <time>2020-03-15T10:51:52.000Z</time>
      </trkpt>
      <trkpt lat="47.30631" lon="-2.35887">
        <ele>37.400001525879</ele>
        <time>2020-03-15T10:51:56.000Z</time>
      </trkpt>
      <trkpt lat="47.30598" lon="-2.35849">
        <ele>37.400001525879</ele>
        <time>2020-03-15T10:52:03.000Z</time>
      </trkpt>
      <trkpt lat="47.30589" lon="-2.35838">
        <ele>36.799999237061</ele>
        <time>2020-03-15T10:52:05.000Z</time>
      </trkpt>
      <trkpt lat="47.30585" lon="-2.35833">
        <ele>36.400001525879</ele>
        <time>2020-03-15T10:52:06.000Z</time>
      </trkpt>
      <trkpt lat="47.30581" lon="-2.35828">
        <ele>36</ele>
        <time>2020-03-15T10:52:07.000Z</time>
      </trkpt>
      <trkpt lat="47.30577" lon="-2.35823">
        <ele>35.599998474121</ele>
        <time>2020-03-15T10:52:08.000Z</time>
      </trkpt>
      <trkpt lat="47.30573" lon="-2.35817">
        <ele>35.200000762939</ele>
        <time>2020-03-15T10:52:09.000Z</time>
      </trkpt>
      <trkpt lat="47.30537" lon="-2.35773">
        <ele>35.200000762939</ele>
        <time>2020-03-15T10:52:17.000Z</time>
      </trkpt>
      <trkpt lat="47.30503" lon="-2.3573">
        <ele>35.200000762939</ele>
        <time>2020-03-15T10:52:25.000Z</time>
      </trkpt>
      <trkpt lat="47.30476" lon="-2.35695">
        <ele>35.200000762939</ele>
        <time>2020-03-15T10:52:32.000Z</time>
      </trkpt>
      <trkpt lat="47.30446" lon="-2.35666">
        <ele>35.200000762939</ele>
        <time>2020-03-15T10:52:39.000Z</time>
      </trkpt>
      <trkpt lat="47.30416" lon="-2.35639">
        <ele>35.200000762939</ele>
        <time>2020-03-15T10:52:46.000Z</time>
      </trkpt>
      <trkpt lat="47.30396" lon="-2.35607">
        <ele>35.200000762939</ele>
        <time>2020-03-15T10:52:52.000Z</time>
      </trkpt>
      <trkpt lat="47.3039" lon="-2.35598">
        <ele>35.200000762939</ele>
        <time>2020-03-15T10:52:54.000Z</time>
      </trkpt>
      <trkpt lat="47.30384" lon="-2.35596">
        <ele>35.200000762939</ele>
        <time>2020-03-15T10:52:56.000Z</time>
      </trkpt>
      <trkpt lat="47.30378" lon="-2.35597">
        <ele>35.200000762939</ele>
        <time>2020-03-15T10:52:58.000Z</time>
      </trkpt>
      <trkpt lat="47.30363" lon="-2.35599">
        <ele>35.200000762939</ele>
        <time>2020-03-15T10:53:02.000Z</time>
      </trkpt>
      <trkpt lat="47.30345" lon="-2.35598">
        <ele>35.200000762939</ele>
        <time>2020-03-15T10:53:06.000Z</time>
      </trkpt>
      <trkpt lat="47.30341" lon="-2.35598">
        <ele>35.200000762939</ele>
        <time>2020-03-15T10:53:07.000Z</time>
      </trkpt>
      <trkpt lat="47.30313" lon="-2.35592">
        <ele>35.200000762939</ele>
        <time>2020-03-15T10:53:13.000Z</time>
      </trkpt>
      <trkpt lat="47.30282" lon="-2.35585">
        <ele>35.200000762939</ele>
        <time>2020-03-15T10:53:19.000Z</time>
      </trkpt>
      <trkpt lat="47.30262" lon="-2.35581">
        <ele>35.200000762939</ele>
        <time>2020-03-15T10:53:23.000Z</time>
      </trkpt>
      <trkpt lat="47.30252" lon="-2.35581">
        <ele>35.200000762939</ele>
        <time>2020-03-15T10:53:25.000Z</time>
      </trkpt>
      <trkpt lat="47.30221" lon="-2.35576">
        <ele>35.200000762939</ele>
        <time>2020-03-15T10:53:31.000Z</time>
      </trkpt>
      <trkpt lat="47.30188" lon="-2.3558">
        <ele>35.200000762939</ele>
        <time>2020-03-15T10:53:37.000Z</time>
      </trkpt>
      <trkpt lat="47.30183" lon="-2.35581">
        <ele>35.200000762939</ele>
        <time>2020-03-15T10:53:38.000Z</time>
      </trkpt>
      <trkpt lat="47.30146" lon="-2.35598">
        <ele>35.200000762939</ele>
        <time>2020-03-15T10:53:45.000Z</time>
      </trkpt>
      <trkpt lat="47.30141" lon="-2.35602">
        <ele>35.200000762939</ele>
        <time>2020-03-15T10:53:46.000Z</time>
      </trkpt>
      <trkpt lat="47.30127" lon="-2.35614">
        <ele>35.200000762939</ele>
        <time>2020-03-15T10:53:49.000Z</time>
      </trkpt>
      <trkpt lat="47.30117" lon="-2.35616">
        <ele>35.200000762939</ele>
        <time>2020-03-15T10:53:51.000Z</time>
      </trkpt>
      <trkpt lat="47.30111" lon="-2.35618">
        <ele>35.200000762939</ele>
        <time>2020-03-15T10:53:52.000Z</time>
      </trkpt>
      <trkpt lat="47.30106" lon="-2.35621">
        <ele>35.200000762939</ele>
        <time>2020-03-15T10:53:53.000Z</time>
      </trkpt>
      <trkpt lat="47.30075" lon="-2.35642">
        <ele>35.200000762939</ele>
        <time>2020-03-15T10:53:59.000Z</time>
      </trkpt>
      <trkpt lat="47.3007" lon="-2.35645">
        <ele>35.200000762939</ele>
        <time>2020-03-15T10:54:00.000Z</time>
      </trkpt>
      <trkpt lat="47.30059" lon="-2.35651">
        <ele>35.200000762939</ele>
        <time>2020-03-15T10:54:02.000Z</time>
      </trkpt>
      <trkpt lat="47.30049" lon="-2.35657">
        <ele>35.200000762939</ele>
        <time>2020-03-15T10:54:04.000Z</time>
      </trkpt>
      <trkpt lat="47.29997" lon="-2.35688">
        <ele>35.200000762939</ele>
        <time>2020-03-15T10:54:14.000Z</time>
      </trkpt>
      <trkpt lat="47.29959" lon="-2.35711">
        <ele>35.200000762939</ele>
        <time>2020-03-15T10:54:21.000Z</time>
      </trkpt>
      <trkpt lat="47.29916" lon="-2.35745">
        <ele>35.200000762939</ele>
        <time>2020-03-15T10:54:29.000Z</time>
      </trkpt>
      <trkpt lat="47.29911" lon="-2.3575">
        <ele>34.599998474121</ele>
        <time>2020-03-15T10:54:30.000Z</time>
      </trkpt>
      <trkpt lat="47.29906" lon="-2.35754">
        <ele>34.200000762939</ele>
        <time>2020-03-15T10:54:32.000Z</time>
      </trkpt>
      <trkpt lat="47.299" lon="-2.35758">
        <ele>33.799999237061</ele>
        <time>2020-03-15T10:54:33.000Z</time>
      </trkpt>
      <trkpt lat="47.29895" lon="-2.35761">
        <ele>33.400001525879</ele>
        <time>2020-03-15T10:54:34.000Z</time>
      </trkpt>
      <trkpt lat="47.29889" lon="-2.35764">
        <ele>33</ele>
        <time>2020-03-15T10:54:35.000Z</time>
      </trkpt>
      <trkpt lat="47.29839" lon="-2.35786">
        <ele>33</ele>
        <time>2020-03-15T10:54:44.000Z</time>
      </trkpt>
      <trkpt lat="47.2981" lon="-2.35795">
        <ele>33.400001525879</ele>
        <time>2020-03-15T10:54:50.000Z</time>
      </trkpt>
      <trkpt lat="47.29806" lon="-2.35796">
        <ele>33.799999237061</ele>
        <time>2020-03-15T10:54:51.000Z</time>
      </trkpt>
      <trkpt lat="47.29801" lon="-2.35797">
        <ele>34.200000762939</ele>
        <time>2020-03-15T10:54:52.000Z</time>
      </trkpt>
      <trkpt lat="47.29797" lon="-2.35798">
        <ele>34.799999237061</ele>
        <time>2020-03-15T10:54:53.000Z</time>
      </trkpt>
      <trkpt lat="47.29793" lon="-2.358">
        <ele>35.200000762939</ele>
        <time>2020-03-15T10:54:54.000Z</time>
      </trkpt>
      <trkpt lat="47.29769" lon="-2.35807">
        <ele>35.200000762939</ele>
        <time>2020-03-15T10:54:59.000Z</time>
      </trkpt>
      <trkpt lat="47.29729" lon="-2.35826">
        <ele>35.200000762939</ele>
        <time>2020-03-15T10:55:07.000Z</time>
      </trkpt>
      <trkpt lat="47.29717" lon="-2.35834">
        <ele>35.200000762939</ele>
        <time>2020-03-15T10:55:09.000Z</time>
      </trkpt>
      <trkpt lat="47.29705" lon="-2.35843">
        <ele>35.200000762939</ele>
        <time>2020-03-15T10:55:11.000Z</time>
      </trkpt>
      <trkpt lat="47.297" lon="-2.35846">
        <ele>35.200000762939</ele>
        <time>2020-03-15T10:55:12.000Z</time>
      </trkpt>
      <trkpt lat="47.29679" lon="-2.35856">
        <ele>34.599998474121</ele>
        <time>2020-03-15T10:55:16.000Z</time>
      </trkpt>
      <trkpt lat="47.29675" lon="-2.35859">
        <ele>34.200000762939</ele>
        <time>2020-03-15T10:55:17.000Z</time>
      </trkpt>
      <trkpt lat="47.29671" lon="-2.35861">
        <ele>33.799999237061</ele>
        <time>2020-03-15T10:55:18.000Z</time>
      </trkpt>
      <trkpt lat="47.29667" lon="-2.35862">
        <ele>33.400001525879</ele>
        <time>2020-03-15T10:55:19.000Z</time>
      </trkpt>
      <trkpt lat="47.29662" lon="-2.35864">
        <ele>32.799999237061</ele>
        <time>2020-03-15T10:55:20.000Z</time>
      </trkpt>
      <trkpt lat="47.29653" lon="-2.35868">
        <ele>32.799999237061</ele>
        <time>2020-03-15T10:55:22.000Z</time>
      </trkpt>
      <trkpt lat="47.29648" lon="-2.3587">
        <ele>32.799999237061</ele>
        <time>2020-03-15T10:55:23.000Z</time>
      </trkpt>
      <trkpt lat="47.29617" lon="-2.35887">
        <ele>32.799999237061</ele>
        <time>2020-03-15T10:55:29.000Z</time>
      </trkpt>
      <trkpt lat="47.29582" lon="-2.35909">
        <ele>32.799999237061</ele>
        <time>2020-03-15T10:55:36.000Z</time>
      </trkpt>
      <trkpt lat="47.29577" lon="-2.35912">
        <ele>32.400001525879</ele>
        <time>2020-03-15T10:55:37.000Z</time>
      </trkpt>
      <trkpt lat="47.29573" lon="-2.35914">
        <ele>32</ele>
        <time>2020-03-15T10:55:38.000Z</time>
      </trkpt>
      <trkpt lat="47.29568" lon="-2.35917">
        <ele>31.60000038147</ele>
        <time>2020-03-15T10:55:39.000Z</time>
      </trkpt>
      <trkpt lat="47.29563" lon="-2.3592">
        <ele>31.200000762939</ele>
        <time>2020-03-15T10:55:40.000Z</time>
      </trkpt>
      <trkpt lat="47.29558" lon="-2.35923">
        <ele>30.799999237061</ele>
        <time>2020-03-15T10:55:41.000Z</time>
      </trkpt>
      <trkpt lat="47.29552" lon="-2.35926">
        <ele>30.799999237061</ele>
        <time>2020-03-15T10:55:42.000Z</time>
      </trkpt>
      <trkpt lat="47.29519" lon="-2.35946">
        <ele>30.799999237061</ele>
        <time>2020-03-15T10:55:49.000Z</time>
      </trkpt>
      <trkpt lat="47.29496" lon="-2.35962">
        <ele>30.799999237061</ele>
        <time>2020-03-15T10:55:55.000Z</time>
      </trkpt>
      <trkpt lat="47.29483" lon="-2.35975">
        <ele>30.799999237061</ele>
        <time>2020-03-15T10:56:01.000Z</time>
      </trkpt>
      <trkpt lat="47.29476" lon="-2.35984">
        <ele>30.799999237061</ele>
        <time>2020-03-15T10:56:07.000Z</time>
      </trkpt>
      <trkpt lat="47.29468" lon="-2.35997">
        <ele>30.799999237061</ele>
        <time>2020-03-15T10:56:11.000Z</time>
      </trkpt>
      <trkpt lat="47.29456" lon="-2.36004">
        <ele>30.799999237061</ele>
        <time>2020-03-15T10:56:14.000Z</time>
      </trkpt>
      <trkpt lat="47.29447" lon="-2.36011">
        <ele>30.799999237061</ele>
        <time>2020-03-15T10:56:16.000Z</time>
      </trkpt>
      <trkpt lat="47.29419" lon="-2.36037">
        <ele>30.799999237061</ele>
        <time>2020-03-15T10:56:23.000Z</time>
      </trkpt>
      <trkpt lat="47.29403" lon="-2.36049">
        <ele>30.799999237061</ele>
        <time>2020-03-15T10:56:27.000Z</time>
      </trkpt>
      <trkpt lat="47.29395" lon="-2.36056">
        <ele>30.799999237061</ele>
        <time>2020-03-15T10:56:29.000Z</time>
      </trkpt>
      <trkpt lat="47.29364" lon="-2.36088">
        <ele>30.799999237061</ele>
        <time>2020-03-15T10:56:36.000Z</time>
      </trkpt>
      <trkpt lat="47.29355" lon="-2.36097">
        <ele>30.799999237061</ele>
        <time>2020-03-15T10:56:38.000Z</time>
      </trkpt>
      <trkpt lat="47.29341" lon="-2.36107">
        <ele>30.799999237061</ele>
        <time>2020-03-15T10:56:41.000Z</time>
      </trkpt>
      <trkpt lat="47.29337" lon="-2.3611">
        <ele>30.799999237061</ele>
        <time>2020-03-15T10:56:42.000Z</time>
      </trkpt>
      <trkpt lat="47.29327" lon="-2.36117">
        <ele>30.799999237061</ele>
        <time>2020-03-15T10:56:44.000Z</time>
      </trkpt>
      <trkpt lat="47.29316" lon="-2.3612">
        <ele>30.799999237061</ele>
        <time>2020-03-15T10:56:46.000Z</time>
      </trkpt>
      <trkpt lat="47.293" lon="-2.36127">
        <ele>30.799999237061</ele>
        <time>2020-03-15T10:56:49.000Z</time>
      </trkpt>
      <trkpt lat="47.29283" lon="-2.36135">
        <ele>30.799999237061</ele>
        <time>2020-03-15T10:56:52.000Z</time>
      </trkpt>
      <trkpt lat="47.29239" lon="-2.36154">
        <ele>30.799999237061</ele>
        <time>2020-03-15T10:57:00.000Z</time>
      </trkpt>
      <trkpt lat="47.29208" lon="-2.36168">
        <ele>30.799999237061</ele>
        <time>2020-03-15T10:57:06.000Z</time>
      </trkpt>
      <trkpt lat="47.29202" lon="-2.3617">
        <ele>30.39999961853</ele>
        <time>2020-03-15T10:57:07.000Z</time>
      </trkpt>
      <trkpt lat="47.29197" lon="-2.36172">
        <ele>29.799999237061</ele>
        <time>2020-03-15T10:57:08.000Z</time>
      </trkpt>
      <trkpt lat="47.29192" lon="-2.36174">
        <ele>29.39999961853</ele>
        <time>2020-03-15T10:57:09.000Z</time>
      </trkpt>
      <trkpt lat="47.29187" lon="-2.36177">
        <ele>29</ele>
        <time>2020-03-15T10:57:10.000Z</time>
      </trkpt>
      <trkpt lat="47.29182" lon="-2.36179">
        <ele>28.60000038147</ele>
        <time>2020-03-15T10:57:11.000Z</time>
      </trkpt>
      <trkpt lat="47.29142" lon="-2.36196">
        <ele>28.60000038147</ele>
        <time>2020-03-15T10:57:19.000Z</time>
      </trkpt>
      <trkpt lat="47.29102" lon="-2.36212">
        <ele>28.60000038147</ele>
        <time>2020-03-15T10:57:27.000Z</time>
      </trkpt>
      <trkpt lat="47.29062" lon="-2.36231">
        <ele>28.60000038147</ele>
        <time>2020-03-15T10:57:35.000Z</time>
      </trkpt>
      <trkpt lat="47.29024" lon="-2.36246">
        <ele>28.60000038147</ele>
        <time>2020-03-15T10:57:42.000Z</time>
      </trkpt>
      <trkpt lat="47.28984" lon="-2.36265">
        <ele>28.60000038147</ele>
        <time>2020-03-15T10:57:49.000Z</time>
      </trkpt>
      <trkpt lat="47.28954" lon="-2.36279">
        <ele>28.200000762939</ele>
        <time>2020-03-15T10:57:54.000Z</time>
      </trkpt>
      <trkpt lat="47.28948" lon="-2.36281">
        <ele>27.60000038147</ele>
        <time>2020-03-15T10:57:55.000Z</time>
      </trkpt>
      <trkpt lat="47.28942" lon="-2.36284">
        <ele>27.200000762939</ele>
        <time>2020-03-15T10:57:56.000Z</time>
      </trkpt>
      <trkpt lat="47.28937" lon="-2.36286">
        <ele>26.799999237061</ele>
        <time>2020-03-15T10:57:57.000Z</time>
      </trkpt>
      <trkpt lat="47.28931" lon="-2.36288">
        <ele>26.39999961853</ele>
        <time>2020-03-15T10:57:58.000Z</time>
      </trkpt>
      <trkpt lat="47.28889" lon="-2.36307">
        <ele>26.39999961853</ele>
        <time>2020-03-15T10:58:06.000Z</time>
      </trkpt>
      <trkpt lat="47.28885" lon="-2.36308">
        <ele>26.39999961853</ele>
        <time>2020-03-15T10:58:07.000Z</time>
      </trkpt>
      <trkpt lat="47.28861" lon="-2.3632">
        <ele>26.39999961853</ele>
        <time>2020-03-15T10:58:12.000Z</time>
      </trkpt>
      <trkpt lat="47.28845" lon="-2.36323">
        <ele>26.799999237061</ele>
        <time>2020-03-15T10:58:16.000Z</time>
      </trkpt>
      <trkpt lat="47.28841" lon="-2.3632">
        <ele>27.200000762939</ele>
        <time>2020-03-15T10:58:17.000Z</time>
      </trkpt>
      <trkpt lat="47.28837" lon="-2.36316">
        <ele>27.60000038147</ele>
        <time>2020-03-15T10:58:18.000Z</time>
      </trkpt>
      <trkpt lat="47.28834" lon="-2.36311">
        <ele>28</ele>
        <time>2020-03-15T10:58:19.000Z</time>
      </trkpt>
      <trkpt lat="47.2883" lon="-2.36306">
        <ele>28.39999961853</ele>
        <time>2020-03-15T10:58:20.000Z</time>
      </trkpt>
      <trkpt lat="47.28823" lon="-2.36296">
        <ele>28.39999961853</ele>
        <time>2020-03-15T10:58:22.000Z</time>
      </trkpt>
      <trkpt lat="47.28802" lon="-2.36279">
        <ele>28.799999237061</ele>
        <time>2020-03-15T10:58:27.000Z</time>
      </trkpt>
      <trkpt lat="47.28799" lon="-2.36276">
        <ele>29.39999961853</ele>
        <time>2020-03-15T10:58:28.000Z</time>
      </trkpt>
      <trkpt lat="47.28795" lon="-2.36272">
        <ele>30.200000762939</ele>
        <time>2020-03-15T10:58:29.000Z</time>
      </trkpt>
      <trkpt lat="47.28792" lon="-2.36269">
        <ele>30.60000038147</ele>
        <time>2020-03-15T10:58:30.000Z</time>
      </trkpt>
      <trkpt lat="47.28776" lon="-2.3625">
        <ele>30.60000038147</ele>
        <time>2020-03-15T10:58:35.000Z</time>
      </trkpt>
      <trkpt lat="47.2876" lon="-2.36225">
        <ele>30.60000038147</ele>
        <time>2020-03-15T10:58:41.000Z</time>
      </trkpt>
      <trkpt lat="47.28751" lon="-2.36207">
        <ele>30.60000038147</ele>
        <time>2020-03-15T10:58:45.000Z</time>
      </trkpt>
      <trkpt lat="47.28749" lon="-2.36201">
        <ele>30.60000038147</ele>
        <time>2020-03-15T10:58:46.000Z</time>
      </trkpt>
      <trkpt lat="47.28743" lon="-2.3617">
        <ele>30.60000038147</ele>
        <time>2020-03-15T10:58:51.000Z</time>
      </trkpt>
      <trkpt lat="47.28732" lon="-2.36119">
        <ele>30.60000038147</ele>
        <time>2020-03-15T10:58:58.000Z</time>
      </trkpt>
      <trkpt lat="47.28713" lon="-2.36069">
        <ele>30.60000038147</ele>
        <time>2020-03-15T10:59:05.000Z</time>
      </trkpt>
      <trkpt lat="47.28691" lon="-2.3601">
        <ele>30.60000038147</ele>
        <time>2020-03-15T10:59:13.000Z</time>
      </trkpt>
      <trkpt lat="47.2867" lon="-2.35962">
        <ele>30.60000038147</ele>
        <time>2020-03-15T10:59:20.000Z</time>
      </trkpt>
      <trkpt lat="47.28657" lon="-2.3596">
        <ele>30.60000038147</ele>
        <time>2020-03-15T10:59:23.000Z</time>
      </trkpt>
      <trkpt lat="47.2863" lon="-2.3596">
        <ele>30.60000038147</ele>
        <time>2020-03-15T10:59:28.000Z</time>
      </trkpt>
      <trkpt lat="47.28624" lon="-2.35959">
        <ele>30.60000038147</ele>
        <time>2020-03-15T10:59:29.000Z</time>
      </trkpt>
      <trkpt lat="47.28609" lon="-2.35947">
        <ele>30.60000038147</ele>
        <time>2020-03-15T10:59:32.000Z</time>
      </trkpt>
      <trkpt lat="47.2859" lon="-2.35924">
        <ele>30.60000038147</ele>
        <time>2020-03-15T10:59:36.000Z</time>
      </trkpt>
      <trkpt lat="47.28586" lon="-2.35917">
        <ele>30.60000038147</ele>
        <time>2020-03-15T10:59:37.000Z</time>
      </trkpt>
      <trkpt lat="47.28567" lon="-2.35869">
        <ele>30.60000038147</ele>
        <time>2020-03-15T10:59:43.000Z</time>
      </trkpt>
      <trkpt lat="47.28551" lon="-2.3584">
        <ele>30.60000038147</ele>
        <time>2020-03-15T10:59:47.000Z</time>
      </trkpt>
      <trkpt lat="47.28546" lon="-2.35834">
        <ele>30.60000038147</ele>
        <time>2020-03-15T10:59:48.000Z</time>
      </trkpt>
      <trkpt lat="47.28526" lon="-2.35822">
        <ele>30.200000762939</ele>
        <time>2020-03-15T10:59:51.000Z</time>
      </trkpt>
      <trkpt lat="47.2852" lon="-2.3582">
        <ele>29.799999237061</ele>
        <time>2020-03-15T10:59:52.000Z</time>
      </trkpt>
      <trkpt lat="47.28513" lon="-2.35818">
        <ele>29.39999961853</ele>
        <time>2020-03-15T10:59:53.000Z</time>
      </trkpt>
      <trkpt lat="47.28507" lon="-2.35816">
        <ele>29</ele>
        <time>2020-03-15T10:59:54.000Z</time>
      </trkpt>
      <trkpt lat="47.28501" lon="-2.35814">
        <ele>28.39999961853</ele>
        <time>2020-03-15T10:59:55.000Z</time>
      </trkpt>
      <trkpt lat="47.28483" lon="-2.35811">
        <ele>28.39999961853</ele>
        <time>2020-03-15T10:59:58.000Z</time>
      </trkpt>
      <trkpt lat="47.28446" lon="-2.35799">
        <ele>28.39999961853</ele>
        <time>2020-03-15T11:00:04.000Z</time>
      </trkpt>
      <trkpt lat="47.28406" lon="-2.35785">
        <ele>28.39999961853</ele>
        <time>2020-03-15T11:00:11.000Z</time>
      </trkpt>
      <trkpt lat="47.28383" lon="-2.35775">
        <ele>28</ele>
        <time>2020-03-15T11:00:15.000Z</time>
      </trkpt>
      <trkpt lat="47.28377" lon="-2.35772">
        <ele>27.60000038147</ele>
        <time>2020-03-15T11:00:16.000Z</time>
      </trkpt>
      <trkpt lat="47.2837" lon="-2.35769">
        <ele>27.200000762939</ele>
        <time>2020-03-15T11:00:17.000Z</time>
      </trkpt>
      <trkpt lat="47.28364" lon="-2.35766">
        <ele>26.799999237061</ele>
        <time>2020-03-15T11:00:18.000Z</time>
      </trkpt>
      <trkpt lat="47.28358" lon="-2.35764">
        <ele>26.39999961853</ele>
        <time>2020-03-15T11:00:19.000Z</time>
      </trkpt>
      <trkpt lat="47.28332" lon="-2.3575">
        <ele>26.39999961853</ele>
        <time>2020-03-15T11:00:23.000Z</time>
      </trkpt>
      <trkpt lat="47.28297" lon="-2.35723">
        <ele>26.39999961853</ele>
        <time>2020-03-15T11:00:29.000Z</time>
      </trkpt>
      <trkpt lat="47.28278" lon="-2.35704">
        <ele>26</ele>
        <time>2020-03-15T11:00:32.000Z</time>
      </trkpt>
      <trkpt lat="47.28272" lon="-2.35698">
        <ele>25.200000762939</ele>
        <time>2020-03-15T11:00:33.000Z</time>
      </trkpt>
      <trkpt lat="47.28265" lon="-2.3569">
        <ele>24.799999237061</ele>
        <time>2020-03-15T11:00:34.000Z</time>
      </trkpt>
      <trkpt lat="47.28259" lon="-2.35681">
        <ele>24.39999961853</ele>
        <time>2020-03-15T11:00:35.000Z</time>
      </trkpt>
      <trkpt lat="47.28254" lon="-2.35673">
        <ele>24.39999961853</ele>
        <time>2020-03-15T11:00:36.000Z</time>
      </trkpt>
      <trkpt lat="47.28209" lon="-2.35616">
        <ele>24.39999961853</ele>
        <time>2020-03-15T11:00:44.000Z</time>
      </trkpt>
      <trkpt lat="47.28177" lon="-2.3558">
        <ele>24</ele>
        <time>2020-03-15T11:00:50.000Z</time>
      </trkpt>
      <trkpt lat="47.28171" lon="-2.35576">
        <ele>23.60000038147</ele>
        <time>2020-03-15T11:00:51.000Z</time>
      </trkpt>
      <trkpt lat="47.28165" lon="-2.35572">
        <ele>23.200000762939</ele>
        <time>2020-03-15T11:00:52.000Z</time>
      </trkpt>
      <trkpt lat="47.28159" lon="-2.35568">
        <ele>22.799999237061</ele>
        <time>2020-03-15T11:00:53.000Z</time>
      </trkpt>
      <trkpt lat="47.28152" lon="-2.35566">
        <ele>22.39999961853</ele>
        <time>2020-03-15T11:00:54.000Z</time>
      </trkpt>
      <trkpt lat="47.28145" lon="-2.35565">
        <ele>22.39999961853</ele>
        <time>2020-03-15T11:00:55.000Z</time>
      </trkpt>
      <trkpt lat="47.28125" lon="-2.35562">
        <ele>22</ele>
        <time>2020-03-15T11:00:58.000Z</time>
      </trkpt>
      <trkpt lat="47.28117" lon="-2.35561">
        <ele>21.60000038147</ele>
        <time>2020-03-15T11:00:59.000Z</time>
      </trkpt>
      <trkpt lat="47.2811" lon="-2.35561">
        <ele>21.200000762939</ele>
        <time>2020-03-15T11:01:00.000Z</time>
      </trkpt>
      <trkpt lat="47.28103" lon="-2.3556">
        <ele>20.799999237061</ele>
        <time>2020-03-15T11:01:01.000Z</time>
      </trkpt>
      <trkpt lat="47.28095" lon="-2.3556">
        <ele>20.39999961853</ele>
        <time>2020-03-15T11:01:02.000Z</time>
      </trkpt>
      <trkpt lat="47.28058" lon="-2.35558">
        <ele>19.799999237061</ele>
        <time>2020-03-15T11:01:07.000Z</time>
      </trkpt>
      <trkpt lat="47.2805" lon="-2.35558">
        <ele>19.39999961853</ele>
        <time>2020-03-15T11:01:08.000Z</time>
      </trkpt>
      <trkpt lat="47.28042" lon="-2.35557">
        <ele>18.799999237061</ele>
        <time>2020-03-15T11:01:09.000Z</time>
      </trkpt>
      <trkpt lat="47.28035" lon="-2.35557">
        <ele>18.39999961853</ele>
        <time>2020-03-15T11:01:10.000Z</time>
      </trkpt>
      <trkpt lat="47.28027" lon="-2.35556">
        <ele>17.799999237061</ele>
        <time>2020-03-15T11:01:11.000Z</time>
      </trkpt>
      <trkpt lat="47.28008" lon="-2.35554">
        <ele>17.799999237061</ele>
        <time>2020-03-15T11:01:14.000Z</time>
      </trkpt>
      <trkpt lat="47.28002" lon="-2.35549">
        <ele>17.799999237061</ele>
        <time>2020-03-15T11:01:15.000Z</time>
      </trkpt>
      <trkpt lat="47.27995" lon="-2.35532">
        <ele>17.39999961853</ele>
        <time>2020-03-15T11:01:17.000Z</time>
      </trkpt>
      <trkpt lat="47.27991" lon="-2.35522">
        <ele>17</ele>
        <time>2020-03-15T11:01:18.000Z</time>
      </trkpt>
      <trkpt lat="47.27987" lon="-2.35512">
        <ele>16.39999961853</ele>
        <time>2020-03-15T11:01:19.000Z</time>
      </trkpt>
      <trkpt lat="47.27983" lon="-2.35502">
        <ele>16</ele>
        <time>2020-03-15T11:01:20.000Z</time>
      </trkpt>
      <trkpt lat="47.27978" lon="-2.35493">
        <ele>15.60000038147</ele>
        <time>2020-03-15T11:01:21.000Z</time>
      </trkpt>
      <trkpt lat="47.27974" lon="-2.35484">
        <ele>14.800000190735</ele>
        <time>2020-03-15T11:01:22.000Z</time>
      </trkpt>
      <trkpt lat="47.2797" lon="-2.35476">
        <ele>14.39999961853</ele>
        <time>2020-03-15T11:01:23.000Z</time>
      </trkpt>
      <trkpt lat="47.27965" lon="-2.3547">
        <ele>13.800000190735</ele>
        <time>2020-03-15T11:01:24.000Z</time>
      </trkpt>
      <trkpt lat="47.27961" lon="-2.35465">
        <ele>13.39999961853</ele>
        <time>2020-03-15T11:01:25.000Z</time>
      </trkpt>
      <trkpt lat="47.27951" lon="-2.35459">
        <ele>13.39999961853</ele>
        <time>2020-03-15T11:01:27.000Z</time>
      </trkpt>
      <trkpt lat="47.27945" lon="-2.35456">
        <ele>13.39999961853</ele>
        <time>2020-03-15T11:01:28.000Z</time>
      </trkpt>
      <trkpt lat="47.27935" lon="-2.35447">
        <ele>13.39999961853</ele>
        <time>2020-03-15T11:01:30.000Z</time>
      </trkpt>
      <trkpt lat="47.27921" lon="-2.35432">
        <ele>13.39999961853</ele>
        <time>2020-03-15T11:01:33.000Z</time>
      </trkpt>
      <trkpt lat="47.27895" lon="-2.35397">
        <ele>13.39999961853</ele>
        <time>2020-03-15T11:01:39.000Z</time>
      </trkpt>
      <trkpt lat="47.2787" lon="-2.35365">
        <ele>13.39999961853</ele>
        <time>2020-03-15T11:01:45.000Z</time>
      </trkpt>
      <trkpt lat="47.27864" lon="-2.35361">
        <ele>13.39999961853</ele>
        <time>2020-03-15T11:01:46.000Z</time>
      </trkpt>
      <trkpt lat="47.27847" lon="-2.35362">
        <ele>13.39999961853</ele>
        <time>2020-03-15T11:01:49.000Z</time>
      </trkpt>
      <trkpt lat="47.2781" lon="-2.35362">
        <ele>13.39999961853</ele>
        <time>2020-03-15T11:01:55.000Z</time>
      </trkpt>
      <trkpt lat="47.27804" lon="-2.3536">
        <ele>13.39999961853</ele>
        <time>2020-03-15T11:01:56.000Z</time>
      </trkpt>
      <trkpt lat="47.278" lon="-2.35354">
        <ele>13</ele>
        <time>2020-03-15T11:01:57.000Z</time>
      </trkpt>
      <trkpt lat="47.27796" lon="-2.35346">
        <ele>12.60000038147</ele>
        <time>2020-03-15T11:01:58.000Z</time>
      </trkpt>
      <trkpt lat="47.27794" lon="-2.35338">
        <ele>12.199999809265</ele>
        <time>2020-03-15T11:01:59.000Z</time>
      </trkpt>
      <trkpt lat="47.27793" lon="-2.35329">
        <ele>11.800000190735</ele>
        <time>2020-03-15T11:02:00.000Z</time>
      </trkpt>
      <trkpt lat="47.27791" lon="-2.35321">
        <ele>11.39999961853</ele>
        <time>2020-03-15T11:02:01.000Z</time>
      </trkpt>
      <trkpt lat="47.27789" lon="-2.35312">
        <ele>11.39999961853</ele>
        <time>2020-03-15T11:02:02.000Z</time>
      </trkpt>
      <trkpt lat="47.27777" lon="-2.35254">
        <ele>11.39999961853</ele>
        <time>2020-03-15T11:02:09.000Z</time>
      </trkpt>
      <trkpt lat="47.27771" lon="-2.35212">
        <ele>11.39999961853</ele>
        <time>2020-03-15T11:02:14.000Z</time>
      </trkpt>
      <trkpt lat="47.27768" lon="-2.35205">
        <ele>11.39999961853</ele>
        <time>2020-03-15T11:02:15.000Z</time>
      </trkpt>
      <trkpt lat="47.27759" lon="-2.352">
        <ele>11.39999961853</ele>
        <time>2020-03-15T11:02:17.000Z</time>
      </trkpt>
      <trkpt lat="47.27743" lon="-2.35204">
        <ele>11.39999961853</ele>
        <time>2020-03-15T11:02:20.000Z</time>
      </trkpt>
      <trkpt lat="47.27737" lon="-2.35206">
        <ele>11.39999961853</ele>
        <time>2020-03-15T11:02:21.000Z</time>
      </trkpt>
      <trkpt lat="47.27703" lon="-2.35215">
        <ele>11.39999961853</ele>
        <time>2020-03-15T11:02:27.000Z</time>
      </trkpt>
      <trkpt lat="47.27678" lon="-2.35221">
        <ele>11.39999961853</ele>
        <time>2020-03-15T11:02:32.000Z</time>
      </trkpt>
      <trkpt lat="47.27674" lon="-2.35217">
        <ele>11.39999961853</ele>
        <time>2020-03-15T11:02:33.000Z</time>
      </trkpt>
      <trkpt lat="47.27672" lon="-2.35198">
        <ele>11.39999961853</ele>
        <time>2020-03-15T11:02:36.000Z</time>
      </trkpt>
      <trkpt lat="47.27672" lon="-2.35184">
        <ele>11.800000190735</ele>
        <time>2020-03-15T11:02:38.000Z</time>
      </trkpt>
      <trkpt lat="47.27671" lon="-2.35177">
        <ele>12.199999809265</ele>
        <time>2020-03-15T11:02:39.000Z</time>
      </trkpt>
      <trkpt lat="47.27668" lon="-2.35172">
        <ele>12.800000190735</ele>
        <time>2020-03-15T11:02:40.000Z</time>
      </trkpt>
      <trkpt lat="47.27664" lon="-2.35168">
        <ele>13.199999809265</ele>
        <time>2020-03-15T11:02:41.000Z</time>
      </trkpt>
      <trkpt lat="47.27661" lon="-2.35167">
        <ele>13.60000038147</ele>
        <time>2020-03-15T11:02:42.000Z</time>
      </trkpt>
      <trkpt lat="47.27652" lon="-2.35169">
        <ele>13.60000038147</ele>
        <time>2020-03-15T11:02:44.000Z</time>
      </trkpt>
      <trkpt lat="47.27648" lon="-2.3517">
        <ele>14</ele>
        <time>2020-03-15T11:02:45.000Z</time>
      </trkpt>
      <trkpt lat="47.27643" lon="-2.35171">
        <ele>14.60000038147</ele>
        <time>2020-03-15T11:02:46.000Z</time>
      </trkpt>
      <trkpt lat="47.27638" lon="-2.35171">
        <ele>15</ele>
        <time>2020-03-15T11:02:47.000Z</time>
      </trkpt>
      <trkpt lat="47.27633" lon="-2.35172">
        <ele>15.39999961853</ele>
        <time>2020-03-15T11:02:48.000Z</time>
      </trkpt>
      <trkpt lat="47.27628" lon="-2.35172">
        <ele>15.800000190735</ele>
        <time>2020-03-15T11:02:49.000Z</time>
      </trkpt>
      <trkpt lat="47.27623" lon="-2.35173">
        <ele>15.800000190735</ele>
        <time>2020-03-15T11:02:50.000Z</time>
      </trkpt>
      <trkpt lat="47.27615" lon="-2.35171">
        <ele>15.800000190735</ele>
        <time>2020-03-15T11:02:52.000Z</time>
      </trkpt>
      <trkpt lat="47.2761" lon="-2.35159">
        <ele>15.800000190735</ele>
        <time>2020-03-15T11:02:54.000Z</time>
      </trkpt>
      <trkpt lat="47.27604" lon="-2.35136">
        <ele>15.800000190735</ele>
        <time>2020-03-15T11:02:58.000Z</time>
      </trkpt>
      <trkpt lat="47.27593" lon="-2.35133">
        <ele>15.800000190735</ele>
        <time>2020-03-15T11:03:01.000Z</time>
      </trkpt>
      <trkpt lat="47.27589" lon="-2.35134">
        <ele>15.800000190735</ele>
        <time>2020-03-15T11:03:02.000Z</time>
      </trkpt>
      <trkpt lat="47.27571" lon="-2.35136">
        <ele>16.200000762939</ele>
        <time>2020-03-15T11:03:06.000Z</time>
      </trkpt>
      <trkpt lat="47.27567" lon="-2.35137">
        <ele>16.60000038147</ele>
        <time>2020-03-15T11:03:07.000Z</time>
      </trkpt>
      <trkpt lat="47.27563" lon="-2.35137">
        <ele>17</ele>
        <time>2020-03-15T11:03:08.000Z</time>
      </trkpt>
      <trkpt lat="47.27558" lon="-2.35138">
        <ele>17.39999961853</ele>
        <time>2020-03-15T11:03:09.000Z</time>
      </trkpt>
      <trkpt lat="47.27554" lon="-2.35138">
        <ele>17.799999237061</ele>
        <time>2020-03-15T11:03:10.000Z</time>
      </trkpt>
      <trkpt lat="47.27537" lon="-2.35139">
        <ele>17.799999237061</ele>
        <time>2020-03-15T11:03:14.000Z</time>
      </trkpt>
      <trkpt lat="47.27529" lon="-2.35138">
        <ele>17.799999237061</ele>
        <time>2020-03-15T11:03:16.000Z</time>
      </trkpt>
      <trkpt lat="47.27521" lon="-2.35134">
        <ele>17.799999237061</ele>
        <time>2020-03-15T11:03:18.000Z</time>
      </trkpt>
      <trkpt lat="47.27517" lon="-2.35132">
        <ele>17.799999237061</ele>
        <time>2020-03-15T11:03:19.000Z</time>
      </trkpt>
      <trkpt lat="47.27503" lon="-2.3512">
        <ele>17.799999237061</ele>
        <time>2020-03-15T11:03:23.000Z</time>
      </trkpt>
      <trkpt lat="47.27503" lon="-2.35114">
        <ele>17.799999237061</ele>
        <time>2020-03-15T11:03:24.000Z</time>
      </trkpt>
      <trkpt lat="47.27503" lon="-2.35088">
        <ele>17.799999237061</ele>
        <time>2020-03-15T11:03:28.000Z</time>
      </trkpt>
      <trkpt lat="47.27504" lon="-2.3508">
        <ele>17.799999237061</ele>
        <time>2020-03-15T11:03:29.000Z</time>
      </trkpt>
      <trkpt lat="47.27504" lon="-2.35043">
        <ele>17.799999237061</ele>
        <time>2020-03-15T11:03:34.000Z</time>
      </trkpt>
      <trkpt lat="47.27502" lon="-2.35036">
        <ele>17.799999237061</ele>
        <time>2020-03-15T11:03:35.000Z</time>
      </trkpt>
      <trkpt lat="47.27498" lon="-2.3502">
        <ele>17.799999237061</ele>
        <time>2020-03-15T11:03:37.000Z</time>
      </trkpt>
      <trkpt lat="47.27485" lon="-2.34982">
        <ele>17.799999237061</ele>
        <time>2020-03-15T11:03:42.000Z</time>
      </trkpt>
      <trkpt lat="47.27464" lon="-2.34911">
        <ele>17.799999237061</ele>
        <time>2020-03-15T11:03:51.000Z</time>
      </trkpt>
      <trkpt lat="47.27461" lon="-2.34896">
        <ele>17.799999237061</ele>
        <time>2020-03-15T11:03:53.000Z</time>
      </trkpt>
      <trkpt lat="47.2746" lon="-2.34872">
        <ele>17.799999237061</ele>
        <time>2020-03-15T11:03:56.000Z</time>
      </trkpt>
      <trkpt lat="47.2746" lon="-2.34819">
        <ele>17.799999237061</ele>
        <time>2020-03-15T11:04:03.000Z</time>
      </trkpt>
      <trkpt lat="47.27457" lon="-2.34762">
        <ele>17.799999237061</ele>
        <time>2020-03-15T11:04:10.000Z</time>
      </trkpt>
      <trkpt lat="47.27458" lon="-2.3472">
        <ele>17.799999237061</ele>
        <time>2020-03-15T11:04:16.000Z</time>
      </trkpt>
      <trkpt lat="47.27457" lon="-2.34682">
        <ele>17.799999237061</ele>
        <time>2020-03-15T11:04:22.000Z</time>
      </trkpt>
      <trkpt lat="47.27456" lon="-2.34647">
        <ele>18.200000762939</ele>
        <time>2020-03-15T11:04:27.000Z</time>
      </trkpt>
      <trkpt lat="47.27456" lon="-2.3464">
        <ele>18.60000038147</ele>
        <time>2020-03-15T11:04:28.000Z</time>
      </trkpt>
      <trkpt lat="47.27455" lon="-2.34633">
        <ele>19.200000762939</ele>
        <time>2020-03-15T11:04:29.000Z</time>
      </trkpt>
      <trkpt lat="47.27454" lon="-2.34627">
        <ele>19.60000038147</ele>
        <time>2020-03-15T11:04:30.000Z</time>
      </trkpt>
      <trkpt lat="47.27453" lon="-2.3462">
        <ele>20</ele>
        <time>2020-03-15T11:04:31.000Z</time>
      </trkpt>
      <trkpt lat="47.27447" lon="-2.34572">
        <ele>20</ele>
        <time>2020-03-15T11:04:38.000Z</time>
      </trkpt>
      <trkpt lat="47.27434" lon="-2.34522">
        <ele>20</ele>
        <time>2020-03-15T11:04:45.000Z</time>
      </trkpt>
      <trkpt lat="47.27427" lon="-2.34484">
        <ele>20</ele>
        <time>2020-03-15T11:04:50.000Z</time>
      </trkpt>
      <trkpt lat="47.27426" lon="-2.34477">
        <ele>20</ele>
        <time>2020-03-15T11:04:51.000Z</time>
      </trkpt>
      <trkpt lat="47.27416" lon="-2.34461">
        <ele>20</ele>
        <time>2020-03-15T11:04:54.000Z</time>
      </trkpt>
      <trkpt lat="47.27399" lon="-2.3446">
        <ele>20</ele>
        <time>2020-03-15T11:04:57.000Z</time>
      </trkpt>
      <trkpt lat="47.27383" lon="-2.3446">
        <ele>20</ele>
        <time>2020-03-15T11:05:00.000Z</time>
      </trkpt>
      <trkpt lat="47.27367" lon="-2.34459">
        <ele>20</ele>
        <time>2020-03-15T11:05:03.000Z</time>
      </trkpt>
      <trkpt lat="47.27334" lon="-2.34454">
        <ele>20</ele>
        <time>2020-03-15T11:05:09.000Z</time>
      </trkpt>
      <trkpt lat="47.27324" lon="-2.34432">
        <ele>20</ele>
        <time>2020-03-15T11:05:12.000Z</time>
      </trkpt>
      <trkpt lat="47.27322" lon="-2.34425">
        <ele>20</ele>
        <time>2020-03-15T11:05:13.000Z</time>
      </trkpt>
      <trkpt lat="47.27317" lon="-2.34409">
        <ele>19.60000038147</ele>
        <time>2020-03-15T11:05:15.000Z</time>
      </trkpt>
      <trkpt lat="47.27314" lon="-2.34402">
        <ele>19</ele>
        <time>2020-03-15T11:05:16.000Z</time>
      </trkpt>
      <trkpt lat="47.27312" lon="-2.34394">
        <ele>18.60000038147</ele>
        <time>2020-03-15T11:05:17.000Z</time>
      </trkpt>
      <trkpt lat="47.27309" lon="-2.34386">
        <ele>18.200000762939</ele>
        <time>2020-03-15T11:05:18.000Z</time>
      </trkpt>
      <trkpt lat="47.27307" lon="-2.34379">
        <ele>17.799999237061</ele>
        <time>2020-03-15T11:05:19.000Z</time>
      </trkpt>
      <trkpt lat="47.27304" lon="-2.34372">
        <ele>17.799999237061</ele>
        <time>2020-03-15T11:05:20.000Z</time>
      </trkpt>
      <trkpt lat="47.27293" lon="-2.34331">
        <ele>17.799999237061</ele>
        <time>2020-03-15T11:05:26.000Z</time>
      </trkpt>
      <trkpt lat="47.2729" lon="-2.34326">
        <ele>17.39999961853</ele>
        <time>2020-03-15T11:05:27.000Z</time>
      </trkpt>
      <trkpt lat="47.27288" lon="-2.34323">
        <ele>17</ele>
        <time>2020-03-15T11:05:28.000Z</time>
      </trkpt>
      <trkpt lat="47.27286" lon="-2.3432">
        <ele>15.800000190735</ele>
        <time>2020-03-15T11:05:29.000Z</time>
      </trkpt>
      <trkpt lat="47.27282" lon="-2.34319">
        <ele>15.199999809265</ele>
        <time>2020-03-15T11:05:30.000Z</time>
      </trkpt>
      <trkpt lat="47.27278" lon="-2.34319">
        <ele>14.60000038147</ele>
        <time>2020-03-15T11:05:31.000Z</time>
      </trkpt>
      <trkpt lat="47.27273" lon="-2.3432">
        <ele>14</ele>
        <time>2020-03-15T11:05:32.000Z</time>
      </trkpt>
      <trkpt lat="47.27268" lon="-2.34321">
        <ele>13.39999961853</ele>
        <time>2020-03-15T11:05:33.000Z</time>
      </trkpt>
      <trkpt lat="47.27264" lon="-2.34323">
        <ele>13.39999961853</ele>
        <time>2020-03-15T11:05:34.000Z</time>
      </trkpt>
      <trkpt lat="47.27235" lon="-2.34325">
        <ele>13.39999961853</ele>
        <time>2020-03-15T11:05:39.000Z</time>
      </trkpt>
      <trkpt lat="47.27216" lon="-2.34324">
        <ele>13</ele>
        <time>2020-03-15T11:05:42.000Z</time>
      </trkpt>
      <trkpt lat="47.2721" lon="-2.34324">
        <ele>12.60000038147</ele>
        <time>2020-03-15T11:05:43.000Z</time>
      </trkpt>
      <trkpt lat="47.27204" lon="-2.34325">
        <ele>12</ele>
        <time>2020-03-15T11:05:44.000Z</time>
      </trkpt>
      <trkpt lat="47.27198" lon="-2.34324">
        <ele>11.60000038147</ele>
        <time>2020-03-15T11:05:45.000Z</time>
      </trkpt>
      <trkpt lat="47.27192" lon="-2.34324">
        <ele>11.199999809265</ele>
        <time>2020-03-15T11:05:46.000Z</time>
      </trkpt>
      <trkpt lat="47.27164" lon="-2.34323">
        <ele>10.800000190735</ele>
        <time>2020-03-15T11:05:51.000Z</time>
      </trkpt>
      <trkpt lat="47.27159" lon="-2.34322">
        <ele>10.39999961853</ele>
        <time>2020-03-15T11:05:52.000Z</time>
      </trkpt>
      <trkpt lat="47.27155" lon="-2.34322">
        <ele>10</ele>
        <time>2020-03-15T11:05:53.000Z</time>
      </trkpt>
      <trkpt lat="47.27152" lon="-2.34322">
        <ele>9.1999998092651</ele>
        <time>2020-03-15T11:05:54.000Z</time>
      </trkpt>
      <trkpt lat="47.27148" lon="-2.34322">
        <ele>9.1999998092651</ele>
        <time>2020-03-15T11:05:55.000Z</time>
      </trkpt>
      <trkpt lat="47.27141" lon="-2.34322">
        <ele>8.8000001907349</ele>
        <time>2020-03-15T11:06:00.000Z</time>
      </trkpt>
      <trkpt lat="47.27139" lon="-2.34322">
        <ele>7.1999998092651</ele>
        <time>2020-03-15T11:06:11.000Z</time>
      </trkpt>
      <trkpt lat="47.27132" lon="-2.34322">
        <ele>7.1999998092651</ele>
        <time>2020-03-15T11:06:14.000Z</time>
      </trkpt>
      <trkpt lat="47.27109" lon="-2.34322">
        <ele>7.1999998092651</ele>
        <time>2020-03-15T11:06:19.000Z</time>
      </trkpt>
      <trkpt lat="47.27061" lon="-2.34319">
        <ele>7.1999998092651</ele>
        <time>2020-03-15T11:06:28.000Z</time>
      </trkpt>
      <trkpt lat="47.27045" lon="-2.3432">
        <ele>6.8000001907349</ele>
        <time>2020-03-15T11:06:31.000Z</time>
      </trkpt>
      <trkpt lat="47.2704" lon="-2.34319">
        <ele>6.4000000953674</ele>
        <time>2020-03-15T11:06:32.000Z</time>
      </trkpt>
      <trkpt lat="47.27033" lon="-2.3432">
        <ele>6</ele>
        <time>2020-03-15T11:06:33.000Z</time>
      </trkpt>
      <trkpt lat="47.27028" lon="-2.3432">
        <ele>5.4000000953674</ele>
        <time>2020-03-15T11:06:34.000Z</time>
      </trkpt>
      <trkpt lat="47.27022" lon="-2.3432">
        <ele>5</ele>
        <time>2020-03-15T11:06:35.000Z</time>
      </trkpt>
      <trkpt lat="47.26989" lon="-2.34317">
        <ele>5</ele>
        <time>2020-03-15T11:06:41.000Z</time>
      </trkpt>
      <trkpt lat="47.26969" lon="-2.34316">
        <ele>4.5999999046326</ele>
        <time>2020-03-15T11:06:45.000Z</time>
      </trkpt>
      <trkpt lat="47.26965" lon="-2.34315">
        <ele>4.1999998092651</ele>
        <time>2020-03-15T11:06:46.000Z</time>
      </trkpt>
      <trkpt lat="47.2696" lon="-2.34314">
        <ele>3.7999999523163</ele>
        <time>2020-03-15T11:06:47.000Z</time>
      </trkpt>
      <trkpt lat="47.26956" lon="-2.34313">
        <ele>3.2000000476837</ele>
        <time>2020-03-15T11:06:48.000Z</time>
      </trkpt>
      <trkpt lat="47.26952" lon="-2.34312">
        <ele>2.7999999523163</ele>
        <time>2020-03-15T11:06:49.000Z</time>
      </trkpt>
      <trkpt lat="47.26935" lon="-2.3431">
        <ele>2.7999999523163</ele>
        <time>2020-03-15T11:06:53.000Z</time>
      </trkpt>
      <trkpt lat="47.26922" lon="-2.34308">
        <ele>2.7999999523163</ele>
        <time>2020-03-15T11:06:56.000Z</time>
      </trkpt>
      <trkpt lat="47.2691" lon="-2.34298">
        <ele>2.7999999523163</ele>
        <time>2020-03-15T11:06:59.000Z</time>
      </trkpt>
      <trkpt lat="47.26902" lon="-2.34288">
        <ele>2.7999999523163</ele>
        <time>2020-03-15T11:07:01.000Z</time>
      </trkpt>
      <trkpt lat="47.26888" lon="-2.34278">
        <ele>2.7999999523163</ele>
        <time>2020-03-15T11:07:02.000Z</time>
      </trkpt>
      <trkpt lat="47.26883" lon="-2.34274">
        <ele>2.7999999523163</ele>
        <time>2020-03-15T11:07:06.000Z</time>
      </trkpt>
      <trkpt lat="47.26844" lon="-2.34249">
        <ele>2.7999999523163</ele>
        <time>2020-03-15T11:07:14.000Z</time>
      </trkpt>
      <trkpt lat="47.26825" lon="-2.34235">
        <ele>2.7999999523163</ele>
        <time>2020-03-15T11:07:18.000Z</time>
      </trkpt>
      <trkpt lat="47.26816" lon="-2.34229">
        <ele>2.7999999523163</ele>
        <time>2020-03-15T11:07:20.000Z</time>
      </trkpt>
      <trkpt lat="47.26786" lon="-2.34206">
        <ele>2.7999999523163</ele>
        <time>2020-03-15T11:07:27.000Z</time>
      </trkpt>
      <trkpt lat="47.26746" lon="-2.34175">
        <ele>2.7999999523163</ele>
        <time>2020-03-15T11:07:36.000Z</time>
      </trkpt>
      <trkpt lat="47.26725" lon="-2.34161">
        <ele>3.2000000476837</ele>
        <time>2020-03-15T11:07:41.000Z</time>
      </trkpt>
      <trkpt lat="47.2672" lon="-2.34158">
        <ele>3.5999999046326</ele>
        <time>2020-03-15T11:07:42.000Z</time>
      </trkpt>
      <trkpt lat="47.26716" lon="-2.34155">
        <ele>4</ele>
        <time>2020-03-15T11:07:43.000Z</time>
      </trkpt>
      <trkpt lat="47.26711" lon="-2.34152">
        <ele>4.4000000953674</ele>
        <time>2020-03-15T11:07:44.000Z</time>
      </trkpt>
      <trkpt lat="47.26706" lon="-2.3415">
        <ele>4.8000001907349</ele>
        <time>2020-03-15T11:07:45.000Z</time>
      </trkpt>
      <trkpt lat="47.26693" lon="-2.3414">
        <ele>4.8000001907349</ele>
        <time>2020-03-15T11:07:48.000Z</time>
      </trkpt>
      <trkpt lat="47.26684" lon="-2.34133">
        <ele>4.8000001907349</ele>
        <time>2020-03-15T11:07:50.000Z</time>
      </trkpt>
      <trkpt lat="47.26656" lon="-2.34115">
        <ele>4.8000001907349</ele>
        <time>2020-03-15T11:07:56.000Z</time>
      </trkpt>
      <trkpt lat="47.2662" lon="-2.34087">
        <ele>4.8000001907349</ele>
        <time>2020-03-15T11:08:04.000Z</time>
      </trkpt>
      <trkpt lat="47.26589" lon="-2.34065">
        <ele>4.8000001907349</ele>
        <time>2020-03-15T11:08:11.000Z</time>
      </trkpt>
      <trkpt lat="47.26584" lon="-2.34063">
        <ele>4.8000001907349</ele>
        <time>2020-03-15T11:08:12.000Z</time>
      </trkpt>
      <trkpt lat="47.26568" lon="-2.34056">
        <ele>4.8000001907349</ele>
        <time>2020-03-15T11:08:15.000Z</time>
      </trkpt>
      <trkpt lat="47.26558" lon="-2.34051">
        <ele>4.8000001907349</ele>
        <time>2020-03-15T11:08:17.000Z</time>
      </trkpt>
      <trkpt lat="47.26521" lon="-2.34037">
        <ele>4.8000001907349</ele>
        <time>2020-03-15T11:08:24.000Z</time>
      </trkpt>
      <trkpt lat="47.26488" lon="-2.34033">
        <ele>4.8000001907349</ele>
        <time>2020-03-15T11:08:30.000Z</time>
      </trkpt>
      <trkpt lat="47.26449" lon="-2.34023">
        <ele>4.8000001907349</ele>
        <time>2020-03-15T11:08:37.000Z</time>
      </trkpt>
      <trkpt lat="47.26402" lon="-2.34013">
        <ele>4.8000001907349</ele>
        <time>2020-03-15T11:08:45.000Z</time>
      </trkpt>
      <trkpt lat="47.26374" lon="-2.34007">
        <ele>4.8000001907349</ele>
        <time>2020-03-15T11:08:50.000Z</time>
      </trkpt>
      <trkpt lat="47.26363" lon="-2.34006">
        <ele>4.8000001907349</ele>
        <time>2020-03-15T11:08:52.000Z</time>
      </trkpt>
      <trkpt lat="47.26358" lon="-2.34005">
        <ele>4.4000000953674</ele>
        <time>2020-03-15T11:08:53.000Z</time>
      </trkpt>
      <trkpt lat="47.26353" lon="-2.34004">
        <ele>4</ele>
        <time>2020-03-15T11:08:54.000Z</time>
      </trkpt>
      <trkpt lat="47.26347" lon="-2.34004">
        <ele>3.5999999046326</ele>
        <time>2020-03-15T11:08:55.000Z</time>
      </trkpt>
      <trkpt lat="47.26342" lon="-2.34003">
        <ele>3.2000000476837</ele>
        <time>2020-03-15T11:08:56.000Z</time>
      </trkpt>
      <trkpt lat="47.26336" lon="-2.34002">
        <ele>2.5999999046326</ele>
        <time>2020-03-15T11:08:57.000Z</time>
      </trkpt>
      <trkpt lat="47.26326" lon="-2.33999">
        <ele>2.5999999046326</ele>
        <time>2020-03-15T11:08:59.000Z</time>
      </trkpt>
      <trkpt lat="47.26303" lon="-2.3399">
        <ele>2.5999999046326</ele>
        <time>2020-03-15T11:09:04.000Z</time>
      </trkpt>
      <trkpt lat="47.26262" lon="-2.33981">
        <ele>2.5999999046326</ele>
        <time>2020-03-15T11:09:12.000Z</time>
      </trkpt>
      <trkpt lat="47.26251" lon="-2.33979">
        <ele>2.2000000476837</ele>
        <time>2020-03-15T11:09:14.000Z</time>
      </trkpt>
      <trkpt lat="47.26244" lon="-2.33977">
        <ele>1.7999999523163</ele>
        <time>2020-03-15T11:09:15.000Z</time>
      </trkpt>
      <trkpt lat="47.26238" lon="-2.33976">
        <ele>1.3999999761581</ele>
        <time>2020-03-15T11:09:16.000Z</time>
      </trkpt>
      <trkpt lat="47.26233" lon="-2.33974">
        <ele>0.80000001192093</ele>
        <time>2020-03-15T11:09:17.000Z</time>
      </trkpt>
      <trkpt lat="47.26227" lon="-2.33973">
        <ele>0.40000000596046</ele>
        <time>2020-03-15T11:09:18.000Z</time>
      </trkpt>
      <trkpt lat="47.26222" lon="-2.33971">
        <ele>0.40000000596046</ele>
        <time>2020-03-15T11:09:19.000Z</time>
      </trkpt>
      <trkpt lat="47.26179" lon="-2.33961">
        <ele>4</ele>
        <time>2020-03-15T11:09:27.000Z</time>
      </trkpt>
      <trkpt lat="47.26174" lon="-2.3396">
        <ele>-0.40000000596046</ele>
        <time>2020-03-15T11:09:28.000Z</time>
      </trkpt>
      <trkpt lat="47.26168" lon="-2.33959">
        <ele>-0.80000001192093</ele>
        <time>2020-03-15T11:09:29.000Z</time>
      </trkpt>
      <trkpt lat="47.26163" lon="-2.33957">
        <ele>-1.2000000476837</ele>
        <time>2020-03-15T11:09:30.000Z</time>
      </trkpt>
      <trkpt lat="47.26157" lon="-2.33957">
        <ele>-1.6000000238419</ele>
        <time>2020-03-15T11:09:31.000Z</time>
      </trkpt>
      <trkpt lat="47.26152" lon="-2.33954">
        <ele>-1.6000000238419</ele>
        <time>2020-03-15T11:09:32.000Z</time>
      </trkpt>
      <trkpt lat="47.26141" lon="-2.33952">
        <ele>-1.6000000238419</ele>
        <time>2020-03-15T11:09:34.000Z</time>
      </trkpt>
      <trkpt lat="47.26097" lon="-2.33945">
        <ele>-1.6000000238419</ele>
        <time>2020-03-15T11:09:42.000Z</time>
      </trkpt>
      <trkpt lat="47.26048" lon="-2.33934">
        <ele>-1.6000000238419</ele>
        <time>2020-03-15T11:09:52.000Z</time>
      </trkpt>
      <trkpt lat="47.26029" lon="-2.3393">
        <ele>-1.6000000238419</ele>
        <time>2020-03-15T11:09:56.000Z</time>
      </trkpt>
      <trkpt lat="47.26014" lon="-2.33926">
        <ele>-1.6000000238419</ele>
        <time>2020-03-15T11:09:59.000Z</time>
      </trkpt>
      <trkpt lat="47.25977" lon="-2.33916">
        <ele>-1.6000000238419</ele>
        <time>2020-03-15T11:10:07.000Z</time>
      </trkpt>
      <trkpt lat="47.25952" lon="-2.33911">
        <ele>-1.6000000238419</ele>
        <time>2020-03-15T11:10:13.000Z</time>
      </trkpt>
      <trkpt lat="47.25948" lon="-2.33909">
        <ele>-1.6000000238419</ele>
        <time>2020-03-15T11:10:14.000Z</time>
      </trkpt>
      <trkpt lat="47.25937" lon="-2.33901">
        <ele>-1.6000000238419</ele>
        <time>2020-03-15T11:10:17.000Z</time>
      </trkpt>
      <trkpt lat="47.25932" lon="-2.33899">
        <ele>-1.6000000238419</ele>
        <time>2020-03-15T11:10:18.000Z</time>
      </trkpt>
      <trkpt lat="47.25927" lon="-2.33896">
        <ele>-1.6000000238419</ele>
        <time>2020-03-15T11:10:19.000Z</time>
      </trkpt>
      <trkpt lat="47.25885" lon="-2.33878">
        <ele>-1.6000000238419</ele>
        <time>2020-03-15T11:10:27.000Z</time>
      </trkpt>
      <trkpt lat="47.25874" lon="-2.33875">
        <ele>-1.6000000238419</ele>
        <time>2020-03-15T11:10:29.000Z</time>
      </trkpt>
      <trkpt lat="47.25858" lon="-2.33868">
        <ele>-1.6000000238419</ele>
        <time>2020-03-15T11:10:32.000Z</time>
      </trkpt>
      <trkpt lat="47.25816" lon="-2.3385">
        <ele>-1.6000000238419</ele>
        <time>2020-03-15T11:10:40.000Z</time>
      </trkpt>
      <trkpt lat="47.25767" lon="-2.33827">
        <ele>-1.6000000238419</ele>
        <time>2020-03-15T11:10:49.000Z</time>
      </trkpt>
      <trkpt lat="47.25717" lon="-2.33806">
        <ele>-1.6000000238419</ele>
        <time>2020-03-15T11:10:58.000Z</time>
      </trkpt>
      <trkpt lat="47.25711" lon="-2.33804">
        <ele>-1.2000000476837</ele>
        <time>2020-03-15T11:10:59.000Z</time>
      </trkpt>
      <trkpt lat="47.25706" lon="-2.33801">
        <ele>-0.80000001192093</ele>
        <time>2020-03-15T11:11:00.000Z</time>
      </trkpt>
      <trkpt lat="47.257" lon="-2.33799">
        <ele>-0.40000000596046</ele>
        <time>2020-03-15T11:11:01.000Z</time>
      </trkpt>
      <trkpt lat="47.25694" lon="-2.33796">
        <ele>0.20000000298023</ele>
        <time>2020-03-15T11:11:02.000Z</time>
      </trkpt>
      <trkpt lat="47.25689" lon="-2.33794">
        <ele>0.60000002384186</ele>
        <time>2020-03-15T11:11:03.000Z</time>
      </trkpt>
      <trkpt lat="47.25671" lon="-2.33788">
        <ele>0.60000002384186</ele>
        <time>2020-03-15T11:11:06.000Z</time>
      </trkpt>
      <trkpt lat="47.25639" lon="-2.33773">
        <ele>0.60000002384186</ele>
        <time>2020-03-15T11:11:12.000Z</time>
      </trkpt>
      <trkpt lat="47.25623" lon="-2.33768">
        <ele>1</ele>
        <time>2020-03-15T11:11:15.000Z</time>
      </trkpt>
      <trkpt lat="47.25619" lon="-2.33766">
        <ele>1.3999999761581</ele>
        <time>2020-03-15T11:11:16.000Z</time>
      </trkpt>
      <trkpt lat="47.25615" lon="-2.33764">
        <ele>2.4000000953674</ele>
        <time>2020-03-15T11:11:17.000Z</time>
      </trkpt>
      <trkpt lat="47.2561" lon="-2.33762">
        <ele>2.7999999523163</ele>
        <time>2020-03-15T11:11:18.000Z</time>
      </trkpt>
      <trkpt lat="47.25606" lon="-2.3376">
        <ele>2.7999999523163</ele>
        <time>2020-03-15T11:11:19.000Z</time>
      </trkpt>
      <trkpt lat="47.25591" lon="-2.33757">
        <ele>2.7999999523163</ele>
        <time>2020-03-15T11:11:22.000Z</time>
      </trkpt>
      <trkpt lat="47.25574" lon="-2.33754">
        <ele>2.7999999523163</ele>
        <time>2020-03-15T11:11:25.000Z</time>
      </trkpt>
      <trkpt lat="47.25525" lon="-2.33756">
        <ele>2.7999999523163</ele>
        <time>2020-03-15T11:11:34.000Z</time>
      </trkpt>
      <trkpt lat="47.25491" lon="-2.33754">
        <ele>2.7999999523163</ele>
        <time>2020-03-15T11:11:40.000Z</time>
      </trkpt>
      <trkpt lat="47.25479" lon="-2.33752">
        <ele>2.7999999523163</ele>
        <time>2020-03-15T11:11:42.000Z</time>
      </trkpt>
      <trkpt lat="47.25463" lon="-2.33745">
        <ele>2.7999999523163</ele>
        <time>2020-03-15T11:11:45.000Z</time>
      </trkpt>
      <trkpt lat="47.25454" lon="-2.33737">
        <ele>2.7999999523163</ele>
        <time>2020-03-15T11:11:47.000Z</time>
      </trkpt>
      <trkpt lat="47.2545" lon="-2.33723">
        <ele>2.7999999523163</ele>
        <time>2020-03-15T11:11:49.000Z</time>
      </trkpt>
      <trkpt lat="47.25449" lon="-2.33707">
        <ele>2.7999999523163</ele>
        <time>2020-03-15T11:11:51.000Z</time>
      </trkpt>
      <trkpt lat="47.25447" lon="-2.33693">
        <ele>2.7999999523163</ele>
        <time>2020-03-15T11:11:53.000Z</time>
      </trkpt>
      <trkpt lat="47.25442" lon="-2.3365">
        <ele>2.7999999523163</ele>
        <time>2020-03-15T11:11:59.000Z</time>
      </trkpt>
      <trkpt lat="47.2544" lon="-2.33636">
        <ele>2.7999999523163</ele>
        <time>2020-03-15T11:12:01.000Z</time>
      </trkpt>
      <trkpt lat="47.25439" lon="-2.33629">
        <ele>2.7999999523163</ele>
        <time>2020-03-15T11:12:02.000Z</time>
      </trkpt>
      <trkpt lat="47.25439" lon="-2.33605">
        <ele>2.7999999523163</ele>
        <time>2020-03-15T11:12:06.000Z</time>
      </trkpt>
      <trkpt lat="47.25445" lon="-2.33581">
        <ele>2.7999999523163</ele>
        <time>2020-03-15T11:12:11.000Z</time>
      </trkpt>
      <trkpt lat="47.25449" lon="-2.3358">
        <ele>2.7999999523163</ele>
        <time>2020-03-15T11:12:12.000Z</time>
      </trkpt>
      <trkpt lat="47.25457" lon="-2.3357">
        <ele>2.7999999523163</ele>
        <time>2020-03-15T11:12:15.000Z</time>
      </trkpt>
      <trkpt lat="47.25456" lon="-2.33565">
        <ele>2.7999999523163</ele>
        <time>2020-03-15T11:12:16.000Z</time>
      </trkpt>
      <trkpt lat="47.25453" lon="-2.33547">
        <ele>2.7999999523163</ele>
        <time>2020-03-15T11:12:19.000Z</time>
      </trkpt>
      <trkpt lat="47.2545" lon="-2.33536">
        <ele>2.7999999523163</ele>
        <time>2020-03-15T11:12:21.000Z</time>
      </trkpt>
      <trkpt lat="47.2545" lon="-2.3353">
        <ele>2.7999999523163</ele>
        <time>2020-03-15T11:12:22.000Z</time>
      </trkpt>
      <trkpt lat="47.25447" lon="-2.33509">
        <ele>2.7999999523163</ele>
        <time>2020-03-15T11:12:25.000Z</time>
      </trkpt>
      <trkpt lat="47.2544" lon="-2.33482">
        <ele>2.7999999523163</ele>
        <time>2020-03-15T11:12:29.000Z</time>
      </trkpt>
      <trkpt lat="47.25436" lon="-2.33467">
        <ele>2.7999999523163</ele>
        <time>2020-03-15T11:12:31.000Z</time>
      </trkpt>
      <trkpt lat="47.25435" lon="-2.33459">
        <ele>2.7999999523163</ele>
        <time>2020-03-15T11:12:32.000Z</time>
      </trkpt>
      <trkpt lat="47.25432" lon="-2.33427">
        <ele>2.7999999523163</ele>
        <time>2020-03-15T11:12:36.000Z</time>
      </trkpt>
      <trkpt lat="47.25432" lon="-2.33403">
        <ele>2.7999999523163</ele>
        <time>2020-03-15T11:12:39.000Z</time>
      </trkpt>
      <trkpt lat="47.25431" lon="-2.33378">
        <ele>2.7999999523163</ele>
        <time>2020-03-15T11:12:42.000Z</time>
      </trkpt>
      <trkpt lat="47.25431" lon="-2.3337">
        <ele>2.7999999523163</ele>
        <time>2020-03-15T11:12:43.000Z</time>
      </trkpt>
      <trkpt lat="47.25435" lon="-2.33337">
        <ele>2.7999999523163</ele>
        <time>2020-03-15T11:12:47.000Z</time>
      </trkpt>
      <trkpt lat="47.25436" lon="-2.3333">
        <ele>2.7999999523163</ele>
        <time>2020-03-15T11:12:48.000Z</time>
      </trkpt>
      <trkpt lat="47.25439" lon="-2.33323">
        <ele>2.7999999523163</ele>
        <time>2020-03-15T11:12:49.000Z</time>
      </trkpt>
      <trkpt lat="47.25448" lon="-2.33294">
        <ele>2.7999999523163</ele>
        <time>2020-03-15T11:12:53.000Z</time>
      </trkpt>
      <trkpt lat="47.25449" lon="-2.33286">
        <ele>2.7999999523163</ele>
        <time>2020-03-15T11:12:54.000Z</time>
      </trkpt>
      <trkpt lat="47.25447" lon="-2.33272">
        <ele>2.7999999523163</ele>
        <time>2020-03-15T11:12:56.000Z</time>
      </trkpt>
      <trkpt lat="47.25443" lon="-2.3326">
        <ele>2.7999999523163</ele>
        <time>2020-03-15T11:12:58.000Z</time>
      </trkpt>
      <trkpt lat="47.25432" lon="-2.33238">
        <ele>2.7999999523163</ele>
        <time>2020-03-15T11:13:01.000Z</time>
      </trkpt>
      <trkpt lat="47.2541" lon="-2.33188">
        <ele>2.7999999523163</ele>
        <time>2020-03-15T11:13:08.000Z</time>
      </trkpt>
      <trkpt lat="47.25401" lon="-2.33168">
        <ele>2.7999999523163</ele>
        <time>2020-03-15T11:13:11.000Z</time>
      </trkpt>
      <trkpt lat="47.25393" lon="-2.33151">
        <ele>2.7999999523163</ele>
        <time>2020-03-15T11:13:14.000Z</time>
      </trkpt>
      <trkpt lat="47.2539" lon="-2.33147">
        <ele>2.7999999523163</ele>
        <time>2020-03-15T11:13:15.000Z</time>
      </trkpt>
      <trkpt lat="47.25383" lon="-2.33137">
        <ele>2.7999999523163</ele>
        <time>2020-03-15T11:13:18.000Z</time>
      </trkpt>
      <trkpt lat="47.25372" lon="-2.33113">
        <ele>2.7999999523163</ele>
        <time>2020-03-15T11:13:26.000Z</time>
      </trkpt>
      <trkpt lat="47.25373" lon="-2.33111">
        <ele>2.7999999523163</ele>
        <time>2020-03-15T11:31:44.000Z</time>
      </trkpt>
      <trkpt lat="47.25373" lon="-2.33109">
        <ele>2.7999999523163</ele>
        <time>2020-03-15T11:31:46.000Z</time>
      </trkpt>
      <trkpt lat="47.25372" lon="-2.33107">
        <ele>2.7999999523163</ele>
        <time>2020-03-15T11:31:53.000Z</time>
      </trkpt>
      <trkpt lat="47.25366" lon="-2.33094">
        <ele>2.7999999523163</ele>
        <time>2020-03-15T11:31:58.000Z</time>
      </trkpt>
      <trkpt lat="47.25357" lon="-2.33074">
        <ele>2.7999999523163</ele>
        <time>2020-03-15T11:32:02.000Z</time>
      </trkpt>
      <trkpt lat="47.2534" lon="-2.33028">
        <ele>2.7999999523163</ele>
        <time>2020-03-15T11:32:10.000Z</time>
      </trkpt>
      <trkpt lat="47.25326" lon="-2.32992">
        <ele>2.7999999523163</ele>
        <time>2020-03-15T11:32:16.000Z</time>
      </trkpt>
      <trkpt lat="47.25309" lon="-2.32949">
        <ele>2.7999999523163</ele>
        <time>2020-03-15T11:32:23.000Z</time>
      </trkpt>
      <trkpt lat="47.25307" lon="-2.32943">
        <ele>2.7999999523163</ele>
        <time>2020-03-15T11:32:24.000Z</time>
      </trkpt>
      <trkpt lat="47.25306" lon="-2.32937">
        <ele>2.7999999523163</ele>
        <time>2020-03-15T11:32:25.000Z</time>
      </trkpt>
      <trkpt lat="47.25307" lon="-2.32924">
        <ele>2.7999999523163</ele>
        <time>2020-03-15T11:32:27.000Z</time>
      </trkpt>
      <trkpt lat="47.25321" lon="-2.32903">
        <ele>2.7999999523163</ele>
        <time>2020-03-15T11:32:31.000Z</time>
      </trkpt>
      <trkpt lat="47.2533" lon="-2.32896">
        <ele>2.7999999523163</ele>
        <time>2020-03-15T11:32:33.000Z</time>
      </trkpt>
      <trkpt lat="47.25348" lon="-2.3288">
        <ele>2.7999999523163</ele>
        <time>2020-03-15T11:32:37.000Z</time>
      </trkpt>
      <trkpt lat="47.25374" lon="-2.32854">
        <ele>2.7999999523163</ele>
        <time>2020-03-15T11:32:43.000Z</time>
      </trkpt>
      <trkpt lat="47.25404" lon="-2.32819">
        <ele>2.7999999523163</ele>
        <time>2020-03-15T11:32:50.000Z</time>
      </trkpt>
      <trkpt lat="47.25408" lon="-2.32813">
        <ele>2.7999999523163</ele>
        <time>2020-03-15T11:32:51.000Z</time>
      </trkpt>
      <trkpt lat="47.25421" lon="-2.32792">
        <ele>2.7999999523163</ele>
        <time>2020-03-15T11:32:55.000Z</time>
      </trkpt>
      <trkpt lat="47.25424" lon="-2.32787">
        <ele>2.7999999523163</ele>
        <time>2020-03-15T11:32:56.000Z</time>
      </trkpt>
      <trkpt lat="47.2543" lon="-2.32768">
        <ele>2.7999999523163</ele>
        <time>2020-03-15T11:32:59.000Z</time>
      </trkpt>
      <trkpt lat="47.25433" lon="-2.32764">
        <ele>3.2000000476837</ele>
        <time>2020-03-15T11:33:00.000Z</time>
      </trkpt>
      <trkpt lat="47.25437" lon="-2.3276">
        <ele>3.5999999046326</ele>
        <time>2020-03-15T11:33:01.000Z</time>
      </trkpt>
      <trkpt lat="47.25441" lon="-2.32754">
        <ele>4</ele>
        <time>2020-03-15T11:33:02.000Z</time>
      </trkpt>
      <trkpt lat="47.25445" lon="-2.32749">
        <ele>4.4000000953674</ele>
        <time>2020-03-15T11:33:03.000Z</time>
      </trkpt>
      <trkpt lat="47.25448" lon="-2.32743">
        <ele>4.8000001907349</ele>
        <time>2020-03-15T11:33:04.000Z</time>
      </trkpt>
      <trkpt lat="47.25452" lon="-2.32738">
        <ele>4.8000001907349</ele>
        <time>2020-03-15T11:33:05.000Z</time>
      </trkpt>
      <trkpt lat="47.25469" lon="-2.32718">
        <ele>4.8000001907349</ele>
        <time>2020-03-15T11:33:09.000Z</time>
      </trkpt>
      <trkpt lat="47.25484" lon="-2.32695">
        <ele>4.8000001907349</ele>
        <time>2020-03-15T11:33:13.000Z</time>
      </trkpt>
      <trkpt lat="47.25487" lon="-2.3268">
        <ele>4.8000001907349</ele>
        <time>2020-03-15T11:33:15.000Z</time>
      </trkpt>
      <trkpt lat="47.25488" lon="-2.32665">
        <ele>5.1999998092651</ele>
        <time>2020-03-15T11:33:17.000Z</time>
      </trkpt>
      <trkpt lat="47.25487" lon="-2.32657">
        <ele>5.5999999046326</ele>
        <time>2020-03-15T11:33:18.000Z</time>
      </trkpt>
      <trkpt lat="47.25486" lon="-2.32649">
        <ele>6.1999998092651</ele>
        <time>2020-03-15T11:33:19.000Z</time>
      </trkpt>
      <trkpt lat="47.25485" lon="-2.32641">
        <ele>6.5999999046326</ele>
        <time>2020-03-15T11:33:20.000Z</time>
      </trkpt>
      <trkpt lat="47.25483" lon="-2.32634">
        <ele>7</ele>
        <time>2020-03-15T11:33:21.000Z</time>
      </trkpt>
      <trkpt lat="47.25481" lon="-2.32626">
        <ele>7</ele>
        <time>2020-03-15T11:33:22.000Z</time>
      </trkpt>
      <trkpt lat="47.25479" lon="-2.32611">
        <ele>7</ele>
        <time>2020-03-15T11:33:24.000Z</time>
      </trkpt>
      <trkpt lat="47.25475" lon="-2.32575">
        <ele>7</ele>
        <time>2020-03-15T11:33:29.000Z</time>
      </trkpt>
      <trkpt lat="47.25477" lon="-2.32568">
        <ele>7</ele>
        <time>2020-03-15T11:33:30.000Z</time>
      </trkpt>
      <trkpt lat="47.25488" lon="-2.32553">
        <ele>7</ele>
        <time>2020-03-15T11:33:33.000Z</time>
      </trkpt>
      <trkpt lat="47.25493" lon="-2.32548">
        <ele>7</ele>
        <time>2020-03-15T11:33:34.000Z</time>
      </trkpt>
      <trkpt lat="47.25524" lon="-2.32518">
        <ele>7</ele>
        <time>2020-03-15T11:33:40.000Z</time>
      </trkpt>
      <trkpt lat="47.25562" lon="-2.32486">
        <ele>6.5999999046326</ele>
        <time>2020-03-15T11:33:46.000Z</time>
      </trkpt>
      <trkpt lat="47.25568" lon="-2.3248">
        <ele>6</ele>
        <time>2020-03-15T11:33:47.000Z</time>
      </trkpt>
      <trkpt lat="47.25574" lon="-2.32473">
        <ele>5.5999999046326</ele>
        <time>2020-03-15T11:33:48.000Z</time>
      </trkpt>
      <trkpt lat="47.25581" lon="-2.32466">
        <ele>5.1999998092651</ele>
        <time>2020-03-15T11:33:49.000Z</time>
      </trkpt>
      <trkpt lat="47.25587" lon="-2.3246">
        <ele>4.8000001907349</ele>
        <time>2020-03-15T11:33:50.000Z</time>
      </trkpt>
      <trkpt lat="47.256" lon="-2.32445">
        <ele>4.4000000953674</ele>
        <time>2020-03-15T11:33:52.000Z</time>
      </trkpt>
      <trkpt lat="47.25607" lon="-2.32438">
        <ele>4</ele>
        <time>2020-03-15T11:33:53.000Z</time>
      </trkpt>
      <trkpt lat="47.25613" lon="-2.3243">
        <ele>3.5999999046326</ele>
        <time>2020-03-15T11:33:54.000Z</time>
      </trkpt>
      <trkpt lat="47.2562" lon="-2.32423">
        <ele>2.7999999523163</ele>
        <time>2020-03-15T11:33:55.000Z</time>
      </trkpt>
      <trkpt lat="47.25627" lon="-2.32415">
        <ele>2.4000000953674</ele>
        <time>2020-03-15T11:33:56.000Z</time>
      </trkpt>
      <trkpt lat="47.25634" lon="-2.32408">
        <ele>2</ele>
        <time>2020-03-15T11:33:57.000Z</time>
      </trkpt>
      <trkpt lat="47.25641" lon="-2.32402">
        <ele>1.6000000238419</ele>
        <time>2020-03-15T11:33:58.000Z</time>
      </trkpt>
      <trkpt lat="47.25646" lon="-2.32397">
        <ele>1.2000000476837</ele>
        <time>2020-03-15T11:33:59.000Z</time>
      </trkpt>
      <trkpt lat="47.25652" lon="-2.32396">
        <ele>0.80000001192093</ele>
        <time>2020-03-15T11:34:00.000Z</time>
      </trkpt>
      <trkpt lat="47.25659" lon="-2.32397">
        <ele>0.80000001192093</ele>
        <time>2020-03-15T11:34:01.000Z</time>
      </trkpt>
      <trkpt lat="47.25675" lon="-2.32411">
        <ele>0.80000001192093</ele>
        <time>2020-03-15T11:34:04.000Z</time>
      </trkpt>
      <trkpt lat="47.25682" lon="-2.32414">
        <ele>0.80000001192093</ele>
        <time>2020-03-15T11:34:05.000Z</time>
      </trkpt>
      <trkpt lat="47.25696" lon="-2.32417">
        <ele>0.40000000596046</ele>
        <time>2020-03-15T11:34:07.000Z</time>
      </trkpt>
      <trkpt lat="47.25703" lon="-2.32418">
        <ele>4</ele>
        <time>2020-03-15T11:34:08.000Z</time>
      </trkpt>
      <trkpt lat="47.25709" lon="-2.32419">
        <ele>-0.40000000596046</ele>
        <time>2020-03-15T11:34:09.000Z</time>
      </trkpt>
      <trkpt lat="47.25716" lon="-2.3242">
        <ele>-0.80000001192093</ele>
        <time>2020-03-15T11:34:10.000Z</time>
      </trkpt>
      <trkpt lat="47.25723" lon="-2.3242">
        <ele>-1.3999999761581</ele>
        <time>2020-03-15T11:34:11.000Z</time>
      </trkpt>
      <trkpt lat="47.25745" lon="-2.3242">
        <ele>-1.3999999761581</ele>
        <time>2020-03-15T11:34:14.000Z</time>
      </trkpt>
      <trkpt lat="47.25764" lon="-2.32415">
        <ele>-1.3999999761581</ele>
        <time>2020-03-15T11:34:17.000Z</time>
      </trkpt>
      <trkpt lat="47.25774" lon="-2.32411">
        <ele>-1.3999999761581</ele>
        <time>2020-03-15T11:34:19.000Z</time>
      </trkpt>
      <trkpt lat="47.25789" lon="-2.32425">
        <ele>-1.3999999761581</ele>
        <time>2020-03-15T11:34:22.000Z</time>
      </trkpt>
      <trkpt lat="47.25793" lon="-2.32432">
        <ele>-1.3999999761581</ele>
        <time>2020-03-15T11:34:23.000Z</time>
      </trkpt>
      <trkpt lat="47.25808" lon="-2.3245">
        <ele>-1.3999999761581</ele>
        <time>2020-03-15T11:34:26.000Z</time>
      </trkpt>
      <trkpt lat="47.25814" lon="-2.32454">
        <ele>-1.3999999761581</ele>
        <time>2020-03-15T11:34:27.000Z</time>
      </trkpt>
      <trkpt lat="47.25842" lon="-2.3247">
        <ele>-1.3999999761581</ele>
        <time>2020-03-15T11:34:31.000Z</time>
      </trkpt>
      <trkpt lat="47.25849" lon="-2.32472">
        <ele>-1.3999999761581</ele>
        <time>2020-03-15T11:34:32.000Z</time>
      </trkpt>
      <trkpt lat="47.25863" lon="-2.32473">
        <ele>-1.3999999761581</ele>
        <time>2020-03-15T11:34:34.000Z</time>
      </trkpt>
      <trkpt lat="47.25876" lon="-2.32471">
        <ele>-1.3999999761581</ele>
        <time>2020-03-15T11:34:36.000Z</time>
      </trkpt>
      <trkpt lat="47.25889" lon="-2.32468">
        <ele>-1.3999999761581</ele>
        <time>2020-03-15T11:34:38.000Z</time>
      </trkpt>
      <trkpt lat="47.25907" lon="-2.32455">
        <ele>-1.3999999761581</ele>
        <time>2020-03-15T11:34:41.000Z</time>
      </trkpt>
      <trkpt lat="47.25923" lon="-2.32435">
        <ele>-1.3999999761581</ele>
        <time>2020-03-15T11:34:44.000Z</time>
      </trkpt>
      <trkpt lat="47.25928" lon="-2.32428">
        <ele>-1.3999999761581</ele>
        <time>2020-03-15T11:34:45.000Z</time>
      </trkpt>
      <trkpt lat="47.25956" lon="-2.32391">
        <ele>-1.3999999761581</ele>
        <time>2020-03-15T11:34:52.000Z</time>
      </trkpt>
      <trkpt lat="47.25969" lon="-2.32374">
        <ele>-1.3999999761581</ele>
        <time>2020-03-15T11:34:57.000Z</time>
      </trkpt>
      <trkpt lat="47.2599" lon="-2.32346">
        <ele>-1.3999999761581</ele>
        <time>2020-03-15T11:35:02.000Z</time>
      </trkpt>
      <trkpt lat="47.26012" lon="-2.32316">
        <ele>-1.3999999761581</ele>
        <time>2020-03-15T11:35:07.000Z</time>
      </trkpt>
      <trkpt lat="47.26017" lon="-2.3231">
        <ele>-1.3999999761581</ele>
        <time>2020-03-15T11:35:08.000Z</time>
      </trkpt>
      <trkpt lat="47.26055" lon="-2.32265">
        <ele>-1.3999999761581</ele>
        <time>2020-03-15T11:35:16.000Z</time>
      </trkpt>
      <trkpt lat="47.26091" lon="-2.32219">
        <ele>-1.3999999761581</ele>
        <time>2020-03-15T11:35:24.000Z</time>
      </trkpt>
      <trkpt lat="47.26113" lon="-2.32179">
        <ele>-1.3999999761581</ele>
        <time>2020-03-15T11:35:30.000Z</time>
      </trkpt>
      <trkpt lat="47.26135" lon="-2.32119">
        <ele>-1.3999999761581</ele>
        <time>2020-03-15T11:35:38.000Z</time>
      </trkpt>
      <trkpt lat="47.26148" lon="-2.32071">
        <ele>-1.3999999761581</ele>
        <time>2020-03-15T11:35:44.000Z</time>
      </trkpt>
      <trkpt lat="47.26159" lon="-2.32012">
        <ele>-1.3999999761581</ele>
        <time>2020-03-15T11:35:51.000Z</time>
      </trkpt>
      <trkpt lat="47.26159" lon="-2.32003">
        <ele>-1.3999999761581</ele>
        <time>2020-03-15T11:35:52.000Z</time>
      </trkpt>
      <trkpt lat="47.26156" lon="-2.31971">
        <ele>-1.3999999761581</ele>
        <time>2020-03-15T11:35:56.000Z</time>
      </trkpt>
      <trkpt lat="47.26155" lon="-2.31963">
        <ele>-1.3999999761581</ele>
        <time>2020-03-15T11:35:57.000Z</time>
      </trkpt>
      <trkpt lat="47.26149" lon="-2.31907">
        <ele>-1.3999999761581</ele>
        <time>2020-03-15T11:36:04.000Z</time>
      </trkpt>
      <trkpt lat="47.26142" lon="-2.31841">
        <ele>-1.3999999761581</ele>
        <time>2020-03-15T11:36:12.000Z</time>
      </trkpt>
      <trkpt lat="47.26136" lon="-2.3178">
        <ele>-1.3999999761581</ele>
        <time>2020-03-15T11:36:19.000Z</time>
      </trkpt>
      <trkpt lat="47.26131" lon="-2.31723">
        <ele>-1.3999999761581</ele>
        <time>2020-03-15T11:36:26.000Z</time>
      </trkpt>
      <trkpt lat="47.26126" lon="-2.31679">
        <ele>-1.3999999761581</ele>
        <time>2020-03-15T11:36:32.000Z</time>
      </trkpt>
      <trkpt lat="47.26124" lon="-2.31672">
        <ele>-1.3999999761581</ele>
        <time>2020-03-15T11:36:33.000Z</time>
      </trkpt>
      <trkpt lat="47.26117" lon="-2.31644">
        <ele>-1.3999999761581</ele>
        <time>2020-03-15T11:36:37.000Z</time>
      </trkpt>
      <trkpt lat="47.26114" lon="-2.3163">
        <ele>-1.3999999761581</ele>
        <time>2020-03-15T11:36:39.000Z</time>
      </trkpt>
      <trkpt lat="47.26118" lon="-2.31619">
        <ele>-1.3999999761581</ele>
        <time>2020-03-15T11:36:41.000Z</time>
      </trkpt>
      <trkpt lat="47.26129" lon="-2.31612">
        <ele>-1.3999999761581</ele>
        <time>2020-03-15T11:36:44.000Z</time>
      </trkpt>
      <trkpt lat="47.26138" lon="-2.31609">
        <ele>-1.3999999761581</ele>
        <time>2020-03-15T11:36:46.000Z</time>
      </trkpt>
      <trkpt lat="47.26153" lon="-2.31604">
        <ele>-1.3999999761581</ele>
        <time>2020-03-15T11:36:49.000Z</time>
      </trkpt>
      <trkpt lat="47.26194" lon="-2.31592">
        <ele>-1.3999999761581</ele>
        <time>2020-03-15T11:36:57.000Z</time>
      </trkpt>
      <trkpt lat="47.26218" lon="-2.31588">
        <ele>-1.3999999761581</ele>
        <time>2020-03-15T11:37:02.000Z</time>
      </trkpt>
      <trkpt lat="47.26222" lon="-2.31589">
        <ele>-1.3999999761581</ele>
        <time>2020-03-15T11:37:03.000Z</time>
      </trkpt>
      <trkpt lat="47.26239" lon="-2.31604">
        <ele>-1.3999999761581</ele>
        <time>2020-03-15T11:37:08.000Z</time>
      </trkpt>
      <trkpt lat="47.2625" lon="-2.31621">
        <ele>-1.3999999761581</ele>
        <time>2020-03-15T11:37:11.000Z</time>
      </trkpt>
      <trkpt lat="47.26256" lon="-2.31633">
        <ele>-1.3999999761581</ele>
        <time>2020-03-15T11:37:13.000Z</time>
      </trkpt>
      <trkpt lat="47.26265" lon="-2.31652">
        <ele>-1.3999999761581</ele>
        <time>2020-03-15T11:37:16.000Z</time>
      </trkpt>
      <trkpt lat="47.26273" lon="-2.31669">
        <ele>-1.3999999761581</ele>
        <time>2020-03-15T11:37:19.000Z</time>
      </trkpt>
      <trkpt lat="47.26286" lon="-2.31699">
        <ele>-1.3999999761581</ele>
        <time>2020-03-15T11:37:24.000Z</time>
      </trkpt>
      <trkpt lat="47.26293" lon="-2.31705">
        <ele>-1.3999999761581</ele>
        <time>2020-03-15T11:37:26.000Z</time>
      </trkpt>
      <trkpt lat="47.26308" lon="-2.31703">
        <ele>-1.3999999761581</ele>
        <time>2020-03-15T11:37:29.000Z</time>
      </trkpt>
      <trkpt lat="47.26312" lon="-2.31702">
        <ele>-1.3999999761581</ele>
        <time>2020-03-15T11:37:30.000Z</time>
      </trkpt>
      <trkpt lat="47.26328" lon="-2.31692">
        <ele>-1.3999999761581</ele>
        <time>2020-03-15T11:37:34.000Z</time>
      </trkpt>
      <trkpt lat="47.26338" lon="-2.31683">
        <ele>-0.80000001192093</ele>
        <time>2020-03-15T11:37:37.000Z</time>
      </trkpt>
      <trkpt lat="47.26341" lon="-2.31681">
        <ele>6.8</ele>
        <time>2020-03-15T11:37:38.000Z</time>
      </trkpt>
      <trkpt lat="47.26345" lon="-2.3168">
        <ele>0.40000000596046</ele>
        <time>2020-03-15T11:37:39.000Z</time>
      </trkpt>
      <trkpt lat="47.26349" lon="-2.31678">
        <ele>0.80000001192093</ele>
        <time>2020-03-15T11:37:40.000Z</time>
      </trkpt>
      <trkpt lat="47.26352" lon="-2.31676">
        <ele>0.80000001192093</ele>
        <time>2020-03-15T11:37:41.000Z</time>
      </trkpt>
      <trkpt lat="47.26356" lon="-2.31674">
        <ele>0.80000001192093</ele>
        <time>2020-03-15T11:37:42.000Z</time>
      </trkpt>
      <trkpt lat="47.26379" lon="-2.31666">
        <ele>1.2000000476837</ele>
        <time>2020-03-15T11:37:48.000Z</time>
      </trkpt>
      <trkpt lat="47.26383" lon="-2.31663">
        <ele>1.6000000238419</ele>
        <time>2020-03-15T11:37:49.000Z</time>
      </trkpt>
      <trkpt lat="47.26386" lon="-2.31662">
        <ele>2</ele>
        <time>2020-03-15T11:37:50.000Z</time>
      </trkpt>
      <trkpt lat="47.2639" lon="-2.3166">
        <ele>2.4000000953674</ele>
        <time>2020-03-15T11:37:51.000Z</time>
      </trkpt>
      <trkpt lat="47.26393" lon="-2.31658">
        <ele>3</ele>
        <time>2020-03-15T11:37:52.000Z</time>
      </trkpt>
      <trkpt lat="47.26399" lon="-2.31655">
        <ele>3</ele>
        <time>2020-03-15T11:37:54.000Z</time>
      </trkpt>
      <trkpt lat="47.26412" lon="-2.31642">
        <ele>3</ele>
        <time>2020-03-15T11:37:59.000Z</time>
      </trkpt>
      <trkpt lat="47.2641" lon="-2.31619">
        <ele>3</ele>
        <time>2020-03-15T11:38:04.000Z</time>
      </trkpt>
      <trkpt lat="47.26411" lon="-2.31584">
        <ele>3</ele>
        <time>2020-03-15T11:38:12.000Z</time>
      </trkpt>
      <trkpt lat="47.2641" lon="-2.31558">
        <ele>3</ele>
        <time>2020-03-15T11:38:18.000Z</time>
      </trkpt>
      <trkpt lat="47.26411" lon="-2.31554">
        <ele>3</ele>
        <time>2020-03-15T11:38:19.000Z</time>
      </trkpt>
      <trkpt lat="47.26414" lon="-2.31553">
        <ele>3</ele>
        <time>2020-03-15T11:38:21.000Z</time>
      </trkpt>
      <trkpt lat="47.26415" lon="-2.31554">
        <ele>3</ele>
        <time>2020-03-15T11:38:24.000Z</time>
      </trkpt>
    </trkseg>
  </trk>
</gpx>